<?xml version="1.0" encoding="UTF-8"?>
<TrainingCenterDatabase xmlns="http://www.garmin.com/xmlschemas/TrainingCenterDatabase/v2" xmlns:xsi="http://www.w3.org/2001/XMLSchema-instance" xsi:schemaLocation="http://www.garmin.com/xmlschemas/TrainingCenterDatabase/v2 http://www.garmin.com/xmlschemas/TrainingCenterDatabasev2.xsd">
  <Activities>
    <Activity Sport="Other">
      <Id>2022-10-08T08:59:36.000Z</Id>
      <Lap StartTime="2022-10-08T08:59:36.000Z">
        <TotalTimeSeconds>5007</TotalTimeSeconds>
        <DistanceMeters>10680</DistanceMeters>
        <Track>
          <Trackpoint>
            <Time>2022-10-08T08:59:36.000Z</Time>
            <Position>
              <LatitudeDegrees>37.2472895868122577667236328125</LatitudeDegrees>
              <LongitudeDegrees>-3.53392495773732662200927734375</LongitudeDegrees>
            </Position>
            <AltitudeMeters>1407.4000244140625</AltitudeMeters>
            <DistanceMeters>0</DistanceMeters>
          </Trackpoint>
          <Trackpoint>
            <Time>2022-10-08T08:59:39.000Z</Time>
            <Position>
              <LatitudeDegrees>37.2473744116723537445068359375</LatitudeDegrees>
              <LongitudeDegrees>-3.5338242910802364349365234375</LongitudeDegrees>
            </Position>
            <AltitudeMeters>1408</AltitudeMeters>
            <DistanceMeters>12.987409206485</DistanceMeters>
          </Trackpoint>
          <Trackpoint>
            <Time>2022-10-08T08:59:41.000Z</Time>
            <Position>
              <LatitudeDegrees>37.2474240325391292572021484375</LatitudeDegrees>
              <LongitudeDegrees>-3.53375178761780261993408203125</LongitudeDegrees>
            </Position>
            <AltitudeMeters>1408</AltitudeMeters>
            <DistanceMeters>21.459188687595</DistanceMeters>
          </Trackpoint>
          <Trackpoint>
            <Time>2022-10-08T08:59:43.000Z</Time>
            <Position>
              <LatitudeDegrees>37.24740031175315380096435546875</LatitudeDegrees>
              <LongitudeDegrees>-3.53380274958908557891845703125</LongitudeDegrees>
            </Position>
            <AltitudeMeters>1408</AltitudeMeters>
            <DistanceMeters>26.689975590651</DistanceMeters>
          </Trackpoint>
          <Trackpoint>
            <Time>2022-10-08T09:00:07.000Z</Time>
            <Position>
              <LatitudeDegrees>37.24745026789605617523193359375</LatitudeDegrees>
              <LongitudeDegrees>-3.53400274179875850677490234375</LongitudeDegrees>
            </Position>
            <AltitudeMeters>1411</AltitudeMeters>
            <DistanceMeters>45.261074363319</DistanceMeters>
          </Trackpoint>
          <Trackpoint>
            <Time>2022-10-08T09:00:11.000Z</Time>
            <Position>
              <LatitudeDegrees>37.24746686406433582305908203125</LatitudeDegrees>
              <LongitudeDegrees>-3.53406124748289585113525390625</LongitudeDegrees>
            </Position>
            <AltitudeMeters>1411.5999755859375</AltitudeMeters>
            <DistanceMeters>50.764425741618</DistanceMeters>
          </Trackpoint>
          <Trackpoint>
            <Time>2022-10-08T09:00:13.000Z</Time>
            <Position>
              <LatitudeDegrees>37.2474731504917144775390625</LatitudeDegrees>
              <LongitudeDegrees>-3.534082956612110137939453125</LongitudeDegrees>
            </Position>
            <AltitudeMeters>1412.4000244140625</AltitudeMeters>
            <DistanceMeters>52.813568378537</DistanceMeters>
          </Trackpoint>
          <Trackpoint>
            <Time>2022-10-08T09:00:18.000Z</Time>
            <Position>
              <LatitudeDegrees>37.24750324152410030364990234375</LatitudeDegrees>
              <LongitudeDegrees>-3.534133248031139373779296875</LongitudeDegrees>
            </Position>
            <AltitudeMeters>1413</AltitudeMeters>
            <DistanceMeters>58.388648926842</DistanceMeters>
          </Trackpoint>
          <Trackpoint>
            <Time>2022-10-08T09:00:20.000Z</Time>
            <Position>
              <LatitudeDegrees>37.2475160658359527587890625</LatitudeDegrees>
              <LongitudeDegrees>-3.53415596298873424530029296875</LongitudeDegrees>
            </Position>
            <AltitudeMeters>1413.4000244140625</AltitudeMeters>
            <DistanceMeters>60.855685919517</DistanceMeters>
          </Trackpoint>
          <Trackpoint>
            <Time>2022-10-08T09:00:24.000Z</Time>
            <Position>
              <LatitudeDegrees>37.2475118748843669891357421875</LatitudeDegrees>
              <LongitudeDegrees>-3.5342276282608509063720703125</LongitudeDegrees>
            </Position>
            <AltitudeMeters>1414.5999755859375</AltitudeMeters>
            <DistanceMeters>67.223184897401</DistanceMeters>
          </Trackpoint>
          <Trackpoint>
            <Time>2022-10-08T09:00:25.000Z</Time>
            <Position>
              <LatitudeDegrees>37.24750659428536891937255859375</LatitudeDegrees>
              <LongitudeDegrees>-3.53425285778939723968505859375</LongitudeDegrees>
            </Position>
            <AltitudeMeters>1414.800048828125</AltitudeMeters>
            <DistanceMeters>69.535284647589</DistanceMeters>
          </Trackpoint>
          <Trackpoint>
            <Time>2022-10-08T09:00:28.000Z</Time>
            <Position>
              <LatitudeDegrees>37.24748723208904266357421875</LatitudeDegrees>
              <LongitudeDegrees>-3.53432871401309967041015625</LongitudeDegrees>
            </Position>
            <AltitudeMeters>1415.5999755859375</AltitudeMeters>
            <DistanceMeters>76.59353738756</DistanceMeters>
          </Trackpoint>
          <Trackpoint>
            <Time>2022-10-08T09:00:31.000Z</Time>
            <Position>
              <LatitudeDegrees>37.24750776775181293487548828125</LatitudeDegrees>
              <LongitudeDegrees>-3.53435008786618709564208984375</LongitudeDegrees>
            </Position>
            <AltitudeMeters>1416</AltitudeMeters>
            <DistanceMeters>79.562266848002</DistanceMeters>
          </Trackpoint>
          <Trackpoint>
            <Time>2022-10-08T09:00:33.000Z</Time>
            <Position>
              <LatitudeDegrees>37.24751212634146213531494140625</LatitudeDegrees>
              <LongitudeDegrees>-3.53436333127319812774658203125</LongitudeDegrees>
            </Position>
            <AltitudeMeters>1416.4000244140625</AltitudeMeters>
            <DistanceMeters>80.837184006061</DistanceMeters>
          </Trackpoint>
          <Trackpoint>
            <Time>2022-10-08T09:00:36.000Z</Time>
            <Position>
              <LatitudeDegrees>37.24750508554279804229736328125</LatitudeDegrees>
              <LongitudeDegrees>-3.534399457275867462158203125</LongitudeDegrees>
            </Position>
            <AltitudeMeters>1416.5999755859375</AltitudeMeters>
            <DistanceMeters>84.131747996278</DistanceMeters>
          </Trackpoint>
          <Trackpoint>
            <Time>2022-10-08T09:00:42.000Z</Time>
            <Position>
              <LatitudeDegrees>37.24748245440423488616943359375</LatitudeDegrees>
              <LongitudeDegrees>-3.53452292270958423614501953125</LongitudeDegrees>
            </Position>
            <AltitudeMeters>1417.5999755859375</AltitudeMeters>
            <DistanceMeters>95.356973459446</DistanceMeters>
          </Trackpoint>
          <Trackpoint>
            <Time>2022-10-08T09:00:45.000Z</Time>
            <Position>
              <LatitudeDegrees>37.24748027510941028594970703125</LatitudeDegrees>
              <LongitudeDegrees>-3.53457271121442317962646484375</LongitudeDegrees>
            </Position>
            <AltitudeMeters>1418</AltitudeMeters>
            <DistanceMeters>99.774438252219</DistanceMeters>
          </Trackpoint>
          <Trackpoint>
            <Time>2022-10-08T09:00:46.000Z</Time>
            <Position>
              <LatitudeDegrees>37.24748094566166400909423828125</LatitudeDegrees>
              <LongitudeDegrees>-3.5345890559256076812744140625</LongitudeDegrees>
            </Position>
            <AltitudeMeters>1418.4000244140625</AltitudeMeters>
            <DistanceMeters>101.22184204349</DistanceMeters>
          </Trackpoint>
          <Trackpoint>
            <Time>2022-10-08T09:00:48.000Z</Time>
            <Position>
              <LatitudeDegrees>37.24747843109071254730224609375</LatitudeDegrees>
              <LongitudeDegrees>-3.53461814112961292266845703125</LongitudeDegrees>
            </Position>
            <AltitudeMeters>1418.800048828125</AltitudeMeters>
            <DistanceMeters>103.81382523678</DistanceMeters>
          </Trackpoint>
          <Trackpoint>
            <Time>2022-10-08T09:00:50.000Z</Time>
            <Position>
              <LatitudeDegrees>37.24748186767101287841796875</LatitudeDegrees>
              <LongitudeDegrees>-3.53464194573462009429931640625</LongitudeDegrees>
            </Position>
            <AltitudeMeters>1419.199951171875</AltitudeMeters>
            <DistanceMeters>105.95561860533</DistanceMeters>
          </Trackpoint>
          <Trackpoint>
            <Time>2022-10-08T09:00:54.000Z</Time>
            <Position>
              <LatitudeDegrees>37.24747876636683940887451171875</LatitudeDegrees>
              <LongitudeDegrees>-3.53470967151224613189697265625</LongitudeDegrees>
            </Position>
            <AltitudeMeters>1420</AltitudeMeters>
            <DistanceMeters>111.96563572475</DistanceMeters>
          </Trackpoint>
          <Trackpoint>
            <Time>2022-10-08T09:00:58.000Z</Time>
            <Position>
              <LatitudeDegrees>37.247504331171512603759765625</LatitudeDegrees>
              <LongitudeDegrees>-3.534757532179355621337890625</LongitudeDegrees>
            </Position>
            <AltitudeMeters>1420.4000244140625</AltitudeMeters>
            <DistanceMeters>117.07149810967</DistanceMeters>
          </Trackpoint>
          <Trackpoint>
            <Time>2022-10-08T09:01:00.000Z</Time>
            <Position>
              <LatitudeDegrees>37.24748245440423488616943359375</LatitudeDegrees>
              <LongitudeDegrees>-3.534810505807399749755859375</LongitudeDegrees>
            </Position>
            <AltitudeMeters>1421</AltitudeMeters>
            <DistanceMeters>122.35894708536</DistanceMeters>
          </Trackpoint>
          <Trackpoint>
            <Time>2022-10-08T09:01:01.000Z</Time>
            <Position>
              <LatitudeDegrees>37.2474840469658374786376953125</LatitudeDegrees>
              <LongitudeDegrees>-3.5348341427743434906005859375</LongitudeDegrees>
            </Position>
            <AltitudeMeters>1421.199951171875</AltitudeMeters>
            <DistanceMeters>124.45815581834</DistanceMeters>
          </Trackpoint>
          <Trackpoint>
            <Time>2022-10-08T09:01:04.000Z</Time>
            <Position>
              <LatitudeDegrees>37.247494272887706756591796875</LatitudeDegrees>
              <LongitudeDegrees>-3.53488686494529247283935546875</LongitudeDegrees>
            </Position>
            <AltitudeMeters>1422.199951171875</AltitudeMeters>
            <DistanceMeters>129.26616951389</DistanceMeters>
          </Trackpoint>
          <Trackpoint>
            <Time>2022-10-08T09:01:05.000Z</Time>
            <Position>
              <LatitudeDegrees>37.2474880702793598175048828125</LatitudeDegrees>
              <LongitudeDegrees>-3.53489960543811321258544921875</LongitudeDegrees>
            </Position>
            <AltitudeMeters>1422.4000244140625</AltitudeMeters>
            <DistanceMeters>130.58973848834</DistanceMeters>
          </Trackpoint>
          <Trackpoint>
            <Time>2022-10-08T09:01:08.000Z</Time>
            <Position>
              <LatitudeDegrees>37.2474609129130840301513671875</LatitudeDegrees>
              <LongitudeDegrees>-3.534901700913906097412109375</LongitudeDegrees>
            </Position>
            <AltitudeMeters>1423.199951171875</AltitudeMeters>
            <DistanceMeters>133.61869171793</DistanceMeters>
          </Trackpoint>
          <Trackpoint>
            <Time>2022-10-08T09:01:09.000Z</Time>
            <Position>
              <LatitudeDegrees>37.24744590930640697479248046875</LatitudeDegrees>
              <LongitudeDegrees>-3.53489792905747890472412109375</LongitudeDegrees>
            </Position>
            <AltitudeMeters>1423.4000244140625</AltitudeMeters>
            <DistanceMeters>135.32388514243</DistanceMeters>
          </Trackpoint>
          <Trackpoint>
            <Time>2022-10-08T09:01:11.000Z</Time>
            <Position>
              <LatitudeDegrees>37.2474106214940547943115234375</LatitudeDegrees>
              <LongitudeDegrees>-3.534890301525592803955078125</LongitudeDegrees>
            </Position>
            <AltitudeMeters>1423.800048828125</AltitudeMeters>
            <DistanceMeters>139.30934678004</DistanceMeters>
          </Trackpoint>
          <Trackpoint>
            <Time>2022-10-08T09:01:14.000Z</Time>
            <Position>
              <LatitudeDegrees>37.2473432309925556182861328125</LatitudeDegrees>
              <LongitudeDegrees>-3.53488259017467498779296875</LongitudeDegrees>
            </Position>
            <AltitudeMeters>1424.199951171875</AltitudeMeters>
            <DistanceMeters>146.8410756799</DistanceMeters>
          </Trackpoint>
          <Trackpoint>
            <Time>2022-10-08T09:01:15.000Z</Time>
            <Position>
              <LatitudeDegrees>37.24733040668070316314697265625</LatitudeDegrees>
              <LongitudeDegrees>-3.53487831540405750274658203125</LongitudeDegrees>
            </Position>
            <AltitudeMeters>1424.4000244140625</AltitudeMeters>
            <DistanceMeters>148.31628699459</DistanceMeters>
          </Trackpoint>
          <Trackpoint>
            <Time>2022-10-08T09:01:16.000Z</Time>
            <Position>
              <LatitudeDegrees>37.24732319824397563934326171875</LatitudeDegrees>
              <LongitudeDegrees>-3.534874878823757171630859375</LongitudeDegrees>
            </Position>
            <AltitudeMeters>1424.5999755859375</AltitudeMeters>
            <DistanceMeters>149.17152742392</DistanceMeters>
          </Trackpoint>
          <Trackpoint>
            <Time>2022-10-08T09:01:17.000Z</Time>
            <Position>
              <LatitudeDegrees>37.24731381051242351531982421875</LatitudeDegrees>
              <LongitudeDegrees>-3.534870184957981109619140625</LongitudeDegrees>
            </Position>
            <AltitudeMeters>1424.5999755859375</AltitudeMeters>
            <DistanceMeters>150.2958986714</DistanceMeters>
          </Trackpoint>
          <Trackpoint>
            <Time>2022-10-08T09:01:19.000Z</Time>
            <Position>
              <LatitudeDegrees>37.247297465801239013671875</LatitudeDegrees>
              <LongitudeDegrees>-3.53485015220940113067626953125</LongitudeDegrees>
            </Position>
            <AltitudeMeters>1424.800048828125</AltitudeMeters>
            <DistanceMeters>152.83864024967</DistanceMeters>
          </Trackpoint>
          <Trackpoint>
            <Time>2022-10-08T09:01:20.000Z</Time>
            <Position>
              <LatitudeDegrees>37.24728816188871860504150390625</LatitudeDegrees>
              <LongitudeDegrees>-3.53483556769788265228271484375</LongitudeDegrees>
            </Position>
            <AltitudeMeters>1425</AltitudeMeters>
            <DistanceMeters>154.49548762917</DistanceMeters>
          </Trackpoint>
          <Trackpoint>
            <Time>2022-10-08T09:01:23.000Z</Time>
            <Position>
              <LatitudeDegrees>37.24728095345199108123779296875</LatitudeDegrees>
              <LongitudeDegrees>-3.53478611446917057037353515625</LongitudeDegrees>
            </Position>
            <AltitudeMeters>1425.5999755859375</AltitudeMeters>
            <DistanceMeters>158.95060917901</DistanceMeters>
          </Trackpoint>
          <Trackpoint>
            <Time>2022-10-08T09:01:26.000Z</Time>
            <Position>
              <LatitudeDegrees>37.247256897389888763427734375</LatitudeDegrees>
              <LongitudeDegrees>-3.53475987911224365234375</LongitudeDegrees>
            </Position>
            <AltitudeMeters>1426.5999755859375</AltitudeMeters>
            <DistanceMeters>162.4960099194</DistanceMeters>
          </Trackpoint>
          <Trackpoint>
            <Time>2022-10-08T09:01:27.000Z</Time>
            <Position>
              <LatitudeDegrees>37.24725119769573211669921875</LatitudeDegrees>
              <LongitudeDegrees>-3.5347483120858669281005859375</LongitudeDegrees>
            </Position>
            <AltitudeMeters>1426.800048828125</AltitudeMeters>
            <DistanceMeters>163.7017637531</DistanceMeters>
          </Trackpoint>
          <Trackpoint>
            <Time>2022-10-08T09:01:33.000Z</Time>
            <Position>
              <LatitudeDegrees>37.24720970727503299713134765625</LatitudeDegrees>
              <LongitudeDegrees>-3.534685112535953521728515625</LongitudeDegrees>
            </Position>
            <AltitudeMeters>1428</AltitudeMeters>
            <DistanceMeters>170.95996366589</DistanceMeters>
          </Trackpoint>
          <Trackpoint>
            <Time>2022-10-08T09:01:39.000Z</Time>
            <Position>
              <LatitudeDegrees>37.24715589545667171478271484375</LatitudeDegrees>
              <LongitudeDegrees>-3.53464060463011264801025390625</LongitudeDegrees>
            </Position>
            <AltitudeMeters>1429</AltitudeMeters>
            <DistanceMeters>178.13054629716</DistanceMeters>
          </Trackpoint>
          <Trackpoint>
            <Time>2022-10-08T09:01:42.000Z</Time>
            <Position>
              <LatitudeDegrees>37.24712672643363475799560546875</LatitudeDegrees>
              <LongitudeDegrees>-3.5346212424337863922119140625</LongitudeDegrees>
            </Position>
            <AltitudeMeters>1430</AltitudeMeters>
            <DistanceMeters>181.80354700602</DistanceMeters>
          </Trackpoint>
          <Trackpoint>
            <Time>2022-10-08T09:01:45.000Z</Time>
            <Position>
              <LatitudeDegrees>37.24709386937320232391357421875</LatitudeDegrees>
              <LongitudeDegrees>-3.53461897931993007659912109375</LongitudeDegrees>
            </Position>
            <AltitudeMeters>1431</AltitudeMeters>
            <DistanceMeters>185.46670051027</DistanceMeters>
          </Trackpoint>
          <Trackpoint>
            <Time>2022-10-08T09:01:50.000Z</Time>
            <Position>
              <LatitudeDegrees>37.24707123823463916778564453125</LatitudeDegrees>
              <LongitudeDegrees>-3.53464362211525440216064453125</LongitudeDegrees>
            </Position>
            <AltitudeMeters>1432.199951171875</AltitudeMeters>
            <DistanceMeters>188.79941622363</DistanceMeters>
          </Trackpoint>
          <Trackpoint>
            <Time>2022-10-08T09:01:51.000Z</Time>
            <Position>
              <LatitudeDegrees>37.24707291461527347564697265625</LatitudeDegrees>
              <LongitudeDegrees>-3.53465066291391849517822265625</LongitudeDegrees>
            </Position>
            <AltitudeMeters>1432.4000244140625</AltitudeMeters>
            <DistanceMeters>189.4439187577</DistanceMeters>
          </Trackpoint>
          <Trackpoint>
            <Time>2022-10-08T09:01:55.000Z</Time>
            <Position>
              <LatitudeDegrees>37.2470827214419841766357421875</LatitudeDegrees>
              <LongitudeDegrees>-3.53469206951558589935302734375</LongitudeDegrees>
            </Position>
            <AltitudeMeters>1433.199951171875</AltitudeMeters>
            <DistanceMeters>193.27103046133</DistanceMeters>
          </Trackpoint>
          <Trackpoint>
            <Time>2022-10-08T09:01:57.000Z</Time>
            <Position>
              <LatitudeDegrees>37.24709093570709228515625</LatitudeDegrees>
              <LongitudeDegrees>-3.534711264073848724365234375</LongitudeDegrees>
            </Position>
            <AltitudeMeters>1433.5999755859375</AltitudeMeters>
            <DistanceMeters>195.19986210119</DistanceMeters>
          </Trackpoint>
          <Trackpoint>
            <Time>2022-10-08T09:02:01.000Z</Time>
            <Position>
              <LatitudeDegrees>37.24710443057119846343994140625</LatitudeDegrees>
              <LongitudeDegrees>-3.53474579751491546630859375</LongitudeDegrees>
            </Position>
            <AltitudeMeters>1434.4000244140625</AltitudeMeters>
            <DistanceMeters>198.60892478518</DistanceMeters>
          </Trackpoint>
          <Trackpoint>
            <Time>2022-10-08T09:02:05.000Z</Time>
            <Position>
              <LatitudeDegrees>37.2471139021217823028564453125</LatitudeDegrees>
              <LongitudeDegrees>-3.53476993739604949951171875</LongitudeDegrees>
            </Position>
            <AltitudeMeters>1435.4000244140625</AltitudeMeters>
            <DistanceMeters>200.99028742174</DistanceMeters>
          </Trackpoint>
          <Trackpoint>
            <Time>2022-10-08T09:02:06.000Z</Time>
            <Position>
              <LatitudeDegrees>37.24712119437754154205322265625</LatitudeDegrees>
              <LongitudeDegrees>-3.534772954881191253662109375</LongitudeDegrees>
            </Position>
            <AltitudeMeters>1435.4000244140625</AltitudeMeters>
            <DistanceMeters>201.84023219378</DistanceMeters>
          </Trackpoint>
          <Trackpoint>
            <Time>2022-10-08T09:02:11.000Z</Time>
            <Position>
              <LatitudeDegrees>37.2471216134727001190185546875</LatitudeDegrees>
              <LongitudeDegrees>-3.53483623825013637542724609375</LongitudeDegrees>
            </Position>
            <AltitudeMeters>1436.4000244140625</AltitudeMeters>
            <DistanceMeters>207.44600297262</DistanceMeters>
          </Trackpoint>
          <Trackpoint>
            <Time>2022-10-08T09:02:12.000Z</Time>
            <Position>
              <LatitudeDegrees>37.247122116386890411376953125</LatitudeDegrees>
              <LongitudeDegrees>-3.534849397838115692138671875</LongitudeDegrees>
            </Position>
            <AltitudeMeters>1436.800048828125</AltitudeMeters>
            <DistanceMeters>208.6137107884</DistanceMeters>
          </Trackpoint>
          <Trackpoint>
            <Time>2022-10-08T09:02:16.000Z</Time>
            <Position>
              <LatitudeDegrees>37.24710526876151561737060546875</LatitudeDegrees>
              <LongitudeDegrees>-3.534907065331935882568359375</LongitudeDegrees>
            </Position>
            <AltitudeMeters>1437.4000244140625</AltitudeMeters>
            <DistanceMeters>214.05601275873</DistanceMeters>
          </Trackpoint>
          <Trackpoint>
            <Time>2022-10-08T09:02:18.000Z</Time>
            <Position>
              <LatitudeDegrees>37.2470998205244541168212890625</LatitudeDegrees>
              <LongitudeDegrees>-3.5349384136497974395751953125</LongitudeDegrees>
            </Position>
            <AltitudeMeters>1437.800048828125</AltitudeMeters>
            <DistanceMeters>216.89729562759</DistanceMeters>
          </Trackpoint>
          <Trackpoint>
            <Time>2022-10-08T09:02:21.000Z</Time>
            <Position>
              <LatitudeDegrees>37.24711465649306774139404296875</LatitudeDegrees>
              <LongitudeDegrees>-3.5349702648818492889404296875</LongitudeDegrees>
            </Position>
            <AltitudeMeters>1438.4000244140625</AltitudeMeters>
            <DistanceMeters>220.16709845187</DistanceMeters>
          </Trackpoint>
          <Trackpoint>
            <Time>2022-10-08T09:02:27.000Z</Time>
            <Position>
              <LatitudeDegrees>37.24712052382528781890869140625</LatitudeDegrees>
              <LongitudeDegrees>-3.53506439365446567535400390625</LongitudeDegrees>
            </Position>
            <AltitudeMeters>1438.199951171875</AltitudeMeters>
            <DistanceMeters>228.53160873566</DistanceMeters>
          </Trackpoint>
          <Trackpoint>
            <Time>2022-10-08T09:02:28.000Z</Time>
            <Position>
              <LatitudeDegrees>37.247124128043651580810546875</LatitudeDegrees>
              <LongitudeDegrees>-3.53507897816598415374755859375</LongitudeDegrees>
            </Position>
            <AltitudeMeters>1438.4000244140625</AltitudeMeters>
            <DistanceMeters>229.88219210654</DistanceMeters>
          </Trackpoint>
          <Trackpoint>
            <Time>2022-10-08T09:02:31.000Z</Time>
            <Position>
              <LatitudeDegrees>37.24711700342595577239990234375</LatitudeDegrees>
              <LongitudeDegrees>-3.5351179540157318115234375</LongitudeDegrees>
            </Position>
            <AltitudeMeters>1439</AltitudeMeters>
            <DistanceMeters>233.42504494812</DistanceMeters>
          </Trackpoint>
          <Trackpoint>
            <Time>2022-10-08T09:02:33.000Z</Time>
            <Position>
              <LatitudeDegrees>37.24711080081760883331298828125</LatitudeDegrees>
              <LongitudeDegrees>-3.53514385409653186798095703125</LongitudeDegrees>
            </Position>
            <AltitudeMeters>1439.199951171875</AltitudeMeters>
            <DistanceMeters>235.82152749935</DistanceMeters>
          </Trackpoint>
          <Trackpoint>
            <Time>2022-10-08T09:02:37.000Z</Time>
            <Position>
              <LatitudeDegrees>37.24712639115750789642333984375</LatitudeDegrees>
              <LongitudeDegrees>-3.535186015069484710693359375</LongitudeDegrees>
            </Position>
            <AltitudeMeters>1440</AltitudeMeters>
            <DistanceMeters>239.94178765068</DistanceMeters>
          </Trackpoint>
          <Trackpoint>
            <Time>2022-10-08T09:02:39.000Z</Time>
            <Position>
              <LatitudeDegrees>37.24713427014648914337158203125</LatitudeDegrees>
              <LongitudeDegrees>-3.5352123342454433441162109375</LongitudeDegrees>
            </Position>
            <AltitudeMeters>1440.4000244140625</AltitudeMeters>
            <DistanceMeters>242.43431500127</DistanceMeters>
          </Trackpoint>
          <Trackpoint>
            <Time>2022-10-08T09:02:41.000Z</Time>
            <Position>
              <LatitudeDegrees>37.24714399315416812896728515625</LatitudeDegrees>
              <LongitudeDegrees>-3.53523320518434047698974609375</LongitudeDegrees>
            </Position>
            <AltitudeMeters>1440.800048828125</AltitudeMeters>
            <DistanceMeters>244.57610836981</DistanceMeters>
          </Trackpoint>
          <Trackpoint>
            <Time>2022-10-08T09:02:43.000Z</Time>
            <Position>
              <LatitudeDegrees>37.2471356950700283050537109375</LatitudeDegrees>
              <LongitudeDegrees>-3.53525499813258647918701171875</LongitudeDegrees>
            </Position>
            <AltitudeMeters>1441.199951171875</AltitudeMeters>
            <DistanceMeters>246.71579263556</DistanceMeters>
          </Trackpoint>
          <Trackpoint>
            <Time>2022-10-08T09:02:47.000Z</Time>
            <Position>
              <LatitudeDegrees>37.24711935035884380340576171875</LatitudeDegrees>
              <LongitudeDegrees>-3.53529523126780986785888671875</LongitudeDegrees>
            </Position>
            <AltitudeMeters>1442.4000244140625</AltitudeMeters>
            <DistanceMeters>250.71821135573</DistanceMeters>
          </Trackpoint>
          <Trackpoint>
            <Time>2022-10-08T09:02:48.000Z</Time>
            <Position>
              <LatitudeDegrees>37.24711717106401920318603515625</LatitudeDegrees>
              <LongitudeDegrees>-3.53531568311154842376708984375</LongitudeDegrees>
            </Position>
            <AltitudeMeters>1442.5999755859375</AltitudeMeters>
            <DistanceMeters>252.54855513784</DistanceMeters>
          </Trackpoint>
          <Trackpoint>
            <Time>2022-10-08T09:02:51.000Z</Time>
            <Position>
              <LatitudeDegrees>37.24711951799690723419189453125</LatitudeDegrees>
              <LongitudeDegrees>-3.53534686379134654998779296875</LongitudeDegrees>
            </Position>
            <AltitudeMeters>1443.5999755859375</AltitudeMeters>
            <DistanceMeters>255.32554726659</DistanceMeters>
          </Trackpoint>
          <Trackpoint>
            <Time>2022-10-08T09:02:55.000Z</Time>
            <Position>
              <LatitudeDegrees>37.2471437416970729827880859375</LatitudeDegrees>
              <LongitudeDegrees>-3.53538659401237964630126953125</LongitudeDegrees>
            </Position>
            <AltitudeMeters>1444.5999755859375</AltitudeMeters>
            <DistanceMeters>259.76035351883</DistanceMeters>
          </Trackpoint>
          <Trackpoint>
            <Time>2022-10-08T09:02:56.000Z</Time>
            <Position>
              <LatitudeDegrees>37.24714927375316619873046875</LatitudeDegrees>
              <LongitudeDegrees>-3.53539698757231235504150390625</LongitudeDegrees>
            </Position>
            <AltitudeMeters>1444.800048828125</AltitudeMeters>
            <DistanceMeters>260.86854591926</DistanceMeters>
          </Trackpoint>
          <Trackpoint>
            <Time>2022-10-08T09:02:58.000Z</Time>
            <Position>
              <LatitudeDegrees>37.2471564821898937225341796875</LatitudeDegrees>
              <LongitudeDegrees>-3.53542213328182697296142578125</LongitudeDegrees>
            </Position>
            <AltitudeMeters>1445.4000244140625</AltitudeMeters>
            <DistanceMeters>263.23469202533</DistanceMeters>
          </Trackpoint>
          <Trackpoint>
            <Time>2022-10-08T09:03:00.000Z</Time>
            <Position>
              <LatitudeDegrees>37.2471648640930652618408203125</LatitudeDegrees>
              <LongitudeDegrees>-3.535444177687168121337890625</LongitudeDegrees>
            </Position>
            <AltitudeMeters>1445.800048828125</AltitudeMeters>
            <DistanceMeters>265.40163451438</DistanceMeters>
          </Trackpoint>
          <Trackpoint>
            <Time>2022-10-08T09:03:05.000Z</Time>
            <Position>
              <LatitudeDegrees>37.24719210527837276458740234375</LatitudeDegrees>
              <LongitudeDegrees>-3.5354827344417572021484375</LongitudeDegrees>
            </Position>
            <AltitudeMeters>1447</AltitudeMeters>
            <DistanceMeters>269.96984058044</DistanceMeters>
          </Trackpoint>
          <Trackpoint>
            <Time>2022-10-08T09:03:09.000Z</Time>
            <Position>
              <LatitudeDegrees>37.247208617627620697021484375</LatitudeDegrees>
              <LongitudeDegrees>-3.535506539046764373779296875</LongitudeDegrees>
            </Position>
            <AltitudeMeters>1447.800048828125</AltitudeMeters>
            <DistanceMeters>272.76627513188</DistanceMeters>
          </Trackpoint>
          <Trackpoint>
            <Time>2022-10-08T09:03:12.000Z</Time>
            <Position>
              <LatitudeDegrees>37.24723652936518192291259765625</LatitudeDegrees>
              <LongitudeDegrees>-3.5355311818420886993408203125</LongitudeDegrees>
            </Position>
            <AltitudeMeters>1448</AltitudeMeters>
            <DistanceMeters>276.56258939765</DistanceMeters>
          </Trackpoint>
          <Trackpoint>
            <Time>2022-10-08T09:03:19.000Z</Time>
            <Position>
              <LatitudeDegrees>37.24731867201626300811767578125</LatitudeDegrees>
              <LongitudeDegrees>-3.53555406443774700164794921875</LongitudeDegrees>
            </Position>
            <AltitudeMeters>1449.4000244140625</AltitudeMeters>
            <DistanceMeters>285.92742268094</DistanceMeters>
          </Trackpoint>
          <Trackpoint>
            <Time>2022-10-08T09:03:24.000Z</Time>
            <Position>
              <LatitudeDegrees>37.2473717294633388519287109375</LatitudeDegrees>
              <LongitudeDegrees>-3.5355873405933380126953125</LongitudeDegrees>
            </Position>
            <AltitudeMeters>1450.4000244140625</AltitudeMeters>
            <DistanceMeters>292.52887319719</DistanceMeters>
          </Trackpoint>
          <Trackpoint>
            <Time>2022-10-08T09:03:27.000Z</Time>
            <Position>
              <LatitudeDegrees>37.247407101094722747802734375</LatitudeDegrees>
              <LongitudeDegrees>-3.5356042720377445220947265625</LongitudeDegrees>
            </Position>
            <AltitudeMeters>1451.199951171875</AltitudeMeters>
            <DistanceMeters>296.74124784961</DistanceMeters>
          </Trackpoint>
          <Trackpoint>
            <Time>2022-10-08T09:03:28.000Z</Time>
            <Position>
              <LatitudeDegrees>37.24741959013044834136962890625</LatitudeDegrees>
              <LongitudeDegrees>-3.53561089374125003814697265625</LongitudeDegrees>
            </Position>
            <AltitudeMeters>1451.199951171875</AltitudeMeters>
            <DistanceMeters>298.2497501744</DistanceMeters>
          </Trackpoint>
          <Trackpoint>
            <Time>2022-10-08T09:03:30.000Z</Time>
            <Position>
              <LatitudeDegrees>37.2474409639835357666015625</LatitudeDegrees>
              <LongitudeDegrees>-3.53562028147280216217041015625</LongitudeDegrees>
            </Position>
            <AltitudeMeters>1451.4000244140625</AltitudeMeters>
            <DistanceMeters>300.7710938274</DistanceMeters>
          </Trackpoint>
          <Trackpoint>
            <Time>2022-10-08T09:03:31.000Z</Time>
            <Position>
              <LatitudeDegrees>37.24744699895381927490234375</LatitudeDegrees>
              <LongitudeDegrees>-3.53562983684241771697998046875</LongitudeDegrees>
            </Position>
            <AltitudeMeters>1451.800048828125</AltitudeMeters>
            <DistanceMeters>301.8461983734</DistanceMeters>
          </Trackpoint>
          <Trackpoint>
            <Time>2022-10-08T09:03:33.000Z</Time>
            <Position>
              <LatitudeDegrees>37.24744339473545551300048828125</LatitudeDegrees>
              <LongitudeDegrees>-3.535655401647090911865234375</LongitudeDegrees>
            </Position>
            <AltitudeMeters>1452</AltitudeMeters>
            <DistanceMeters>304.14655156284</DistanceMeters>
          </Trackpoint>
          <Trackpoint>
            <Time>2022-10-08T09:03:36.000Z</Time>
            <Position>
              <LatitudeDegrees>37.24739796482026576995849609375</LatitudeDegrees>
              <LongitudeDegrees>-3.535686247050762176513671875</LongitudeDegrees>
            </Position>
            <AltitudeMeters>1452.800048828125</AltitudeMeters>
            <DistanceMeters>309.89547144268</DistanceMeters>
          </Trackpoint>
          <Trackpoint>
            <Time>2022-10-08T09:03:37.000Z</Time>
            <Position>
              <LatitudeDegrees>37.24738187156617641448974609375</LatitudeDegrees>
              <LongitudeDegrees>-3.53569328784942626953125</LongitudeDegrees>
            </Position>
            <AltitudeMeters>1453.199951171875</AltitudeMeters>
            <DistanceMeters>311.7912484403</DistanceMeters>
          </Trackpoint>
          <Trackpoint>
            <Time>2022-10-08T09:03:38.000Z</Time>
            <Position>
              <LatitudeDegrees>37.24736996926367282867431640625</LatitudeDegrees>
              <LongitudeDegrees>-3.53569622151553630828857421875</LongitudeDegrees>
            </Position>
            <AltitudeMeters>1453.4000244140625</AltitudeMeters>
            <DistanceMeters>313.14183181117</DistanceMeters>
          </Trackpoint>
          <Trackpoint>
            <Time>2022-10-08T09:03:40.000Z</Time>
            <Position>
              <LatitudeDegrees>37.2473442368209362030029296875</LatitudeDegrees>
              <LongitudeDegrees>-3.5357061959803104400634765625</LongitudeDegrees>
            </Position>
            <AltitudeMeters>1453.800048828125</AltitudeMeters>
            <DistanceMeters>316.13781178195</DistanceMeters>
          </Trackpoint>
          <Trackpoint>
            <Time>2022-10-08T09:03:45.000Z</Time>
            <Position>
              <LatitudeDegrees>37.2472865693271160125732421875</LatitudeDegrees>
              <LongitudeDegrees>-3.53575020097196102142333984375</LongitudeDegrees>
            </Position>
            <AltitudeMeters>1455</AltitudeMeters>
            <DistanceMeters>323.64792878962</DistanceMeters>
          </Trackpoint>
          <Trackpoint>
            <Time>2022-10-08T09:03:47.000Z</Time>
            <Position>
              <LatitudeDegrees>37.24726703949272632598876953125</LatitudeDegrees>
              <LongitudeDegrees>-3.5357611812651157379150390625</LongitudeDegrees>
            </Position>
            <AltitudeMeters>1455.4000244140625</AltitudeMeters>
            <DistanceMeters>326.02929142618</DistanceMeters>
          </Trackpoint>
          <Trackpoint>
            <Time>2022-10-08T09:03:51.000Z</Time>
            <Position>
              <LatitudeDegrees>37.247233092784881591796875</LatitudeDegrees>
              <LongitudeDegrees>-3.53578649461269378662109375</LongitudeDegrees>
            </Position>
            <AltitudeMeters>1456.199951171875</AltitudeMeters>
            <DistanceMeters>330.42318530714</DistanceMeters>
          </Trackpoint>
          <Trackpoint>
            <Time>2022-10-08T09:03:55.000Z</Time>
            <Position>
              <LatitudeDegrees>37.2471950389444828033447265625</LatitudeDegrees>
              <LongitudeDegrees>-3.535813987255096435546875</LongitudeDegrees>
            </Position>
            <AltitudeMeters>1457</AltitudeMeters>
            <DistanceMeters>335.30944380602</DistanceMeters>
          </Trackpoint>
          <Trackpoint>
            <Time>2022-10-08T09:03:56.000Z</Time>
            <Position>
              <LatitudeDegrees>37.247184813022613525390625</LatitudeDegrees>
              <LongitudeDegrees>-3.535821028053760528564453125</LongitudeDegrees>
            </Position>
            <AltitudeMeters>1457.199951171875</AltitudeMeters>
            <DistanceMeters>336.60543540266</DistanceMeters>
          </Trackpoint>
          <Trackpoint>
            <Time>2022-10-08T09:04:01.000Z</Time>
            <Position>
              <LatitudeDegrees>37.24712915718555450439453125</LatitudeDegrees>
              <LongitudeDegrees>-3.53585782460868358612060546875</LongitudeDegrees>
            </Position>
            <AltitudeMeters>1458.4000244140625</AltitudeMeters>
            <DistanceMeters>343.60523502729</DistanceMeters>
          </Trackpoint>
          <Trackpoint>
            <Time>2022-10-08T09:04:03.000Z</Time>
            <Position>
              <LatitudeDegrees>37.2470944561064243316650390625</LatitudeDegrees>
              <LongitudeDegrees>-3.53587810881435871124267578125</LongitudeDegrees>
            </Position>
            <AltitudeMeters>1458.5999755859375</AltitudeMeters>
            <DistanceMeters>347.86344985271</DistanceMeters>
          </Trackpoint>
          <Trackpoint>
            <Time>2022-10-08T09:04:08.000Z</Time>
            <Position>
              <LatitudeDegrees>37.2470300830900669097900390625</LatitudeDegrees>
              <LongitudeDegrees>-3.5358877480030059814453125</LongitudeDegrees>
            </Position>
            <AltitudeMeters>1459.4000244140625</AltitudeMeters>
            <DistanceMeters>355.07797413522</DistanceMeters>
          </Trackpoint>
          <Trackpoint>
            <Time>2022-10-08T09:04:11.000Z</Time>
            <Position>
              <LatitudeDegrees>37.2469972260296344757080078125</LatitudeDegrees>
              <LongitudeDegrees>-3.53588531725108623504638671875</LongitudeDegrees>
            </Position>
            <AltitudeMeters>1460</AltitudeMeters>
            <DistanceMeters>358.74112763948</DistanceMeters>
          </Trackpoint>
          <Trackpoint>
            <Time>2022-10-08T09:04:12.000Z</Time>
            <Position>
              <LatitudeDegrees>37.24698825739324092864990234375</LatitudeDegrees>
              <LongitudeDegrees>-3.53589101694524288177490234375</LongitudeDegrees>
            </Position>
            <AltitudeMeters>1460.199951171875</AltitudeMeters>
            <DistanceMeters>359.86549888695</DistanceMeters>
          </Trackpoint>
          <Trackpoint>
            <Time>2022-10-08T09:04:14.000Z</Time>
            <Position>
              <LatitudeDegrees>37.2469673864543437957763671875</LatitudeDegrees>
              <LongitudeDegrees>-3.53588850237429141998291015625</LongitudeDegrees>
            </Position>
            <AltitudeMeters>1460.4000244140625</AltitudeMeters>
            <DistanceMeters>362.19898042657</DistanceMeters>
          </Trackpoint>
          <Trackpoint>
            <Time>2022-10-08T09:04:16.000Z</Time>
            <Position>
              <LatitudeDegrees>37.2469435818493366241455078125</LatitudeDegrees>
              <LongitudeDegrees>-3.535874672234058380126953125</LongitudeDegrees>
            </Position>
            <AltitudeMeters>1460.800048828125</AltitudeMeters>
            <DistanceMeters>365.11708976082</DistanceMeters>
          </Trackpoint>
          <Trackpoint>
            <Time>2022-10-08T09:04:20.000Z</Time>
            <Position>
              <LatitudeDegrees>37.2468822263181209564208984375</LatitudeDegrees>
              <LongitudeDegrees>-3.535855896770954132080078125</LongitudeDegrees>
            </Position>
            <AltitudeMeters>1461.5999755859375</AltitudeMeters>
            <DistanceMeters>372.14649786544</DistanceMeters>
          </Trackpoint>
          <Trackpoint>
            <Time>2022-10-08T09:04:22.000Z</Time>
            <Position>
              <LatitudeDegrees>37.2468661330640316009521484375</LatitudeDegrees>
              <LongitudeDegrees>-3.53583100251853466033935546875</LongitudeDegrees>
            </Position>
            <AltitudeMeters>1462</AltitudeMeters>
            <DistanceMeters>374.9877807343</DistanceMeters>
          </Trackpoint>
          <Trackpoint>
            <Time>2022-10-08T09:04:24.000Z</Time>
            <Position>
              <LatitudeDegrees>37.24684995599091053009033203125</LatitudeDegrees>
              <LongitudeDegrees>-3.53581138886511325836181640625</LongitudeDegrees>
            </Position>
            <AltitudeMeters>1462.4000244140625</AltitudeMeters>
            <DistanceMeters>377.49115307019</DistanceMeters>
          </Trackpoint>
          <Trackpoint>
            <Time>2022-10-08T09:04:25.000Z</Time>
            <Position>
              <LatitudeDegrees>37.24683755077421665191650390625</LatitudeDegrees>
              <LongitudeDegrees>-3.5357977263629436492919921875</LongitudeDegrees>
            </Position>
            <AltitudeMeters>1462.5999755859375</AltitudeMeters>
            <DistanceMeters>379.32642376238</DistanceMeters>
          </Trackpoint>
          <Trackpoint>
            <Time>2022-10-08T09:04:27.000Z</Time>
            <Position>
              <LatitudeDegrees>37.2468165121972560882568359375</LatitudeDegrees>
              <LongitudeDegrees>-3.53578607551753520965576171875</LongitudeDegrees>
            </Position>
            <AltitudeMeters>1463.199951171875</AltitudeMeters>
            <DistanceMeters>381.88686034592</DistanceMeters>
          </Trackpoint>
          <Trackpoint>
            <Time>2022-10-08T09:04:29.000Z</Time>
            <Position>
              <LatitudeDegrees>37.2468151710927486419677734375</LatitudeDegrees>
              <LongitudeDegrees>-3.5357903502881526947021484375</LongitudeDegrees>
            </Position>
            <AltitudeMeters>1463.800048828125</AltitudeMeters>
            <DistanceMeters>382.29002455066</DistanceMeters>
          </Trackpoint>
          <Trackpoint>
            <Time>2022-10-08T09:04:31.000Z</Time>
            <Position>
              <LatitudeDegrees>37.24682011641561985015869140625</LatitudeDegrees>
              <LongitudeDegrees>-3.53579998947679996490478515625</LongitudeDegrees>
            </Position>
            <AltitudeMeters>1464.4000244140625</AltitudeMeters>
            <DistanceMeters>383.30463221603</DistanceMeters>
          </Trackpoint>
          <Trackpoint>
            <Time>2022-10-08T09:04:33.000Z</Time>
            <Position>
              <LatitudeDegrees>37.2468161769211292266845703125</LatitudeDegrees>
              <LongitudeDegrees>-3.5358314216136932373046875</LongitudeDegrees>
            </Position>
            <AltitudeMeters>1465</AltitudeMeters>
            <DistanceMeters>386.1235801174</DistanceMeters>
          </Trackpoint>
          <Trackpoint>
            <Time>2022-10-08T09:04:37.000Z</Time>
            <Position>
              <LatitudeDegrees>37.2468450106680393218994140625</LatitudeDegrees>
              <LongitudeDegrees>-3.5358882509171962738037109375</LongitudeDegrees>
            </Position>
            <AltitudeMeters>1465.5999755859375</AltitudeMeters>
            <DistanceMeters>392.09440433193</DistanceMeters>
          </Trackpoint>
          <Trackpoint>
            <Time>2022-10-08T09:04:40.000Z</Time>
            <Position>
              <LatitudeDegrees>37.24687409587204456329345703125</LatitudeDegrees>
              <LongitudeDegrees>-3.53592555038630962371826171875</LongitudeDegrees>
            </Position>
            <AltitudeMeters>1466</AltitudeMeters>
            <DistanceMeters>396.72153208558</DistanceMeters>
          </Trackpoint>
          <Trackpoint>
            <Time>2022-10-08T09:04:44.000Z</Time>
            <Position>
              <LatitudeDegrees>37.24690594710409641265869140625</LatitudeDegrees>
              <LongitudeDegrees>-3.535973913967609405517578125</LongitudeDegrees>
            </Position>
            <AltitudeMeters>1466.5999755859375</AltitudeMeters>
            <DistanceMeters>402.28201603431</DistanceMeters>
          </Trackpoint>
          <Trackpoint>
            <Time>2022-10-08T09:04:46.000Z</Time>
            <Position>
              <LatitudeDegrees>37.24691231735050678253173828125</LatitudeDegrees>
              <LongitudeDegrees>-3.53599763475358486175537109375</LongitudeDegrees>
            </Position>
            <AltitudeMeters>1467.199951171875</AltitudeMeters>
            <DistanceMeters>404.49840083518</DistanceMeters>
          </Trackpoint>
          <Trackpoint>
            <Time>2022-10-08T09:04:48.000Z</Time>
            <Position>
              <LatitudeDegrees>37.246920280158519744873046875</LatitudeDegrees>
              <LongitudeDegrees>-3.5360193438827991485595703125</LongitudeDegrees>
            </Position>
            <AltitudeMeters>1467.4000244140625</AltitudeMeters>
            <DistanceMeters>406.61687858881</DistanceMeters>
          </Trackpoint>
          <Trackpoint>
            <Time>2022-10-08T09:04:50.000Z</Time>
            <Position>
              <LatitudeDegrees>37.24693042226135730743408203125</LatitudeDegrees>
              <LongitudeDegrees>-3.53603434748947620391845703125</LongitudeDegrees>
            </Position>
            <AltitudeMeters>1467.800048828125</AltitudeMeters>
            <DistanceMeters>408.36133717577</DistanceMeters>
          </Trackpoint>
          <Trackpoint>
            <Time>2022-10-08T09:04:51.000Z</Time>
            <Position>
              <LatitudeDegrees>37.24693469703197479248046875</LatitudeDegrees>
              <LongitudeDegrees>-3.53604323230683803558349609375</LongitudeDegrees>
            </Position>
            <AltitudeMeters>1467.800048828125</AltitudeMeters>
            <DistanceMeters>409.28265535411</DistanceMeters>
          </Trackpoint>
          <Trackpoint>
            <Time>2022-10-08T09:04:53.000Z</Time>
            <Position>
              <LatitudeDegrees>37.24694299511611461639404296875</LatitudeDegrees>
              <LongitudeDegrees>-3.5360619239509105682373046875</LongitudeDegrees>
            </Position>
            <AltitudeMeters>1468.199951171875</AltitudeMeters>
            <DistanceMeters>411.17843235172</DistanceMeters>
          </Trackpoint>
          <Trackpoint>
            <Time>2022-10-08T09:04:56.000Z</Time>
            <Position>
              <LatitudeDegrees>37.2469583339989185333251953125</LatitudeDegrees>
              <LongitudeDegrees>-3.53608958423137664794921875</LongitudeDegrees>
            </Position>
            <AltitudeMeters>1468.800048828125</AltitudeMeters>
            <DistanceMeters>414.16384445898</DistanceMeters>
          </Trackpoint>
          <Trackpoint>
            <Time>2022-10-08T09:04:59.000Z</Time>
            <Position>
              <LatitudeDegrees>37.24697132594883441925048828125</LatitudeDegrees>
              <LongitudeDegrees>-3.5361175797879695892333984375</LongitudeDegrees>
            </Position>
            <AltitudeMeters>1469.4000244140625</AltitudeMeters>
            <DistanceMeters>417.03358830067</DistanceMeters>
          </Trackpoint>
          <Trackpoint>
            <Time>2022-10-08T09:05:00.000Z</Time>
            <Position>
              <LatitudeDegrees>37.24697015248239040374755859375</LatitudeDegrees>
              <LongitudeDegrees>-3.53613409213721752166748046875</LongitudeDegrees>
            </Position>
            <AltitudeMeters>1469.5999755859375</AltitudeMeters>
            <DistanceMeters>418.49958904885</DistanceMeters>
          </Trackpoint>
          <Trackpoint>
            <Time>2022-10-08T09:05:02.000Z</Time>
            <Position>
              <LatitudeDegrees>37.2469616867601871490478515625</LatitudeDegrees>
              <LongitudeDegrees>-3.53616795502603054046630859375</LongitudeDegrees>
            </Position>
            <AltitudeMeters>1470.4000244140625</AltitudeMeters>
            <DistanceMeters>421.64553306974</DistanceMeters>
          </Trackpoint>
          <Trackpoint>
            <Time>2022-10-08T09:05:03.000Z</Time>
            <Position>
              <LatitudeDegrees>37.246960513293743133544921875</LatitudeDegrees>
              <LongitudeDegrees>-3.536184132099151611328125</LongitudeDegrees>
            </Position>
            <AltitudeMeters>1470.5999755859375</AltitudeMeters>
            <DistanceMeters>423.0835481968</DistanceMeters>
          </Trackpoint>
          <Trackpoint>
            <Time>2022-10-08T09:05:06.000Z</Time>
            <Position>
              <LatitudeDegrees>37.246977947652339935302734375</LatitudeDegrees>
              <LongitudeDegrees>-3.5362241975963115692138671875</LongitudeDegrees>
            </Position>
            <AltitudeMeters>1471.800048828125</AltitudeMeters>
            <DistanceMeters>427.12860672746</DistanceMeters>
          </Trackpoint>
          <Trackpoint>
            <Time>2022-10-08T09:05:09.000Z</Time>
            <Position>
              <LatitudeDegrees>37.247009463608264923095703125</LatitudeDegrees>
              <LongitudeDegrees>-3.53625210933387279510498046875</LongitudeDegrees>
            </Position>
            <AltitudeMeters>1472.4000244140625</AltitudeMeters>
            <DistanceMeters>431.42061743873</DistanceMeters>
          </Trackpoint>
          <Trackpoint>
            <Time>2022-10-08T09:05:11.000Z</Time>
            <Position>
              <LatitudeDegrees>37.2470260597765445709228515625</LatitudeDegrees>
              <LongitudeDegrees>-3.5362721420824527740478515625</LongitudeDegrees>
            </Position>
            <AltitudeMeters>1473</AltitudeMeters>
            <DistanceMeters>433.98105402227</DistanceMeters>
          </Trackpoint>
          <Trackpoint>
            <Time>2022-10-08T09:05:20.000Z</Time>
            <Position>
              <LatitudeDegrees>37.24714768119156360626220703125</LatitudeDegrees>
              <LongitudeDegrees>-3.53635319508612155914306640625</LongitudeDegrees>
            </Position>
            <AltitudeMeters>1473.800048828125</AltitudeMeters>
            <DistanceMeters>449.3042406261</DistanceMeters>
          </Trackpoint>
          <Trackpoint>
            <Time>2022-10-08T09:05:21.000Z</Time>
            <Position>
              <LatitudeDegrees>37.24715975113213062286376953125</LatitudeDegrees>
              <LongitudeDegrees>-3.53636492975056171417236328125</LongitudeDegrees>
            </Position>
            <AltitudeMeters>1474</AltitudeMeters>
            <DistanceMeters>451.00413017017</DistanceMeters>
          </Trackpoint>
          <Trackpoint>
            <Time>2022-10-08T09:05:28.000Z</Time>
            <Position>
              <LatitudeDegrees>37.24722663871943950653076171875</LatitudeDegrees>
              <LongitudeDegrees>-3.53639007546007633209228515625</LongitudeDegrees>
            </Position>
            <AltitudeMeters>1473.5999755859375</AltitudeMeters>
            <DistanceMeters>458.77543323061</DistanceMeters>
          </Trackpoint>
          <Trackpoint>
            <Time>2022-10-08T09:05:34.000Z</Time>
            <Position>
              <LatitudeDegrees>37.24730744026601314544677734375</LatitudeDegrees>
              <LongitudeDegrees>-3.53641455061733722686767578125</LongitudeDegrees>
            </Position>
            <AltitudeMeters>1474.199951171875</AltitudeMeters>
            <DistanceMeters>468.02676094807</DistanceMeters>
          </Trackpoint>
          <Trackpoint>
            <Time>2022-10-08T09:05:38.000Z</Time>
            <Position>
              <LatitudeDegrees>37.24735856987535953521728515625</LatitudeDegrees>
              <LongitudeDegrees>-3.53645503520965576171875</LongitudeDegrees>
            </Position>
            <AltitudeMeters>1475.199951171875</AltitudeMeters>
            <DistanceMeters>474.75422281248</DistanceMeters>
          </Trackpoint>
          <Trackpoint>
            <Time>2022-10-08T09:05:42.000Z</Time>
            <Position>
              <LatitudeDegrees>37.247402407228946685791015625</LatitudeDegrees>
              <LongitudeDegrees>-3.5365111939609050750732421875</LongitudeDegrees>
            </Position>
            <AltitudeMeters>1475.5999755859375</AltitudeMeters>
            <DistanceMeters>481.72299251133</DistanceMeters>
          </Trackpoint>
          <Trackpoint>
            <Time>2022-10-08T09:05:45.000Z</Time>
            <Position>
              <LatitudeDegrees>37.24743115715682506561279296875</LatitudeDegrees>
              <LongitudeDegrees>-3.536537177860736846923828125</LongitudeDegrees>
            </Position>
            <AltitudeMeters>1476.199951171875</AltitudeMeters>
            <DistanceMeters>485.66631492225</DistanceMeters>
          </Trackpoint>
          <Trackpoint>
            <Time>2022-10-08T09:05:46.000Z</Time>
            <Position>
              <LatitudeDegrees>37.247436605393886566162109375</LatitudeDegrees>
              <LongitudeDegrees>-3.53654731996357440948486328125</LongitudeDegrees>
            </Position>
            <AltitudeMeters>1476.4000244140625</AltitudeMeters>
            <DistanceMeters>486.74978616678</DistanceMeters>
          </Trackpoint>
          <Trackpoint>
            <Time>2022-10-08T09:05:52.000Z</Time>
            <Position>
              <LatitudeDegrees>37.24746837280690670013427734375</LatitudeDegrees>
              <LongitudeDegrees>-3.53662024252116680145263671875</LongitudeDegrees>
            </Position>
            <AltitudeMeters>1477.4000244140625</AltitudeMeters>
            <DistanceMeters>494.11542933457</DistanceMeters>
          </Trackpoint>
          <Trackpoint>
            <Time>2022-10-08T09:05:54.000Z</Time>
            <Position>
              <LatitudeDegrees>37.24747574888169765472412109375</LatitudeDegrees>
              <LongitudeDegrees>-3.53665678761899471282958984375</LongitudeDegrees>
            </Position>
            <AltitudeMeters>1477.800048828125</AltitudeMeters>
            <DistanceMeters>497.45626373405</DistanceMeters>
          </Trackpoint>
          <Trackpoint>
            <Time>2022-10-08T09:05:57.000Z</Time>
            <Position>
              <LatitudeDegrees>37.24748496897518634796142578125</LatitudeDegrees>
              <LongitudeDegrees>-3.53670925833284854888916015625</LongitudeDegrees>
            </Position>
            <AltitudeMeters>1478.4000244140625</AltitudeMeters>
            <DistanceMeters>502.2161441735</DistanceMeters>
          </Trackpoint>
          <Trackpoint>
            <Time>2022-10-08T09:06:03.000Z</Time>
            <Position>
              <LatitudeDegrees>37.24753282964229583740234375</LatitudeDegrees>
              <LongitudeDegrees>-3.53679022751748561859130859375</LongitudeDegrees>
            </Position>
            <AltitudeMeters>1479.4000244140625</AltitudeMeters>
            <DistanceMeters>511.15168757709</DistanceMeters>
          </Trackpoint>
          <Trackpoint>
            <Time>2022-10-08T09:06:04.000Z</Time>
            <Position>
              <LatitudeDegrees>37.24753777496516704559326171875</LatitudeDegrees>
              <LongitudeDegrees>-3.53680565021932125091552734375</LongitudeDegrees>
            </Position>
            <AltitudeMeters>1479.5999755859375</AltitudeMeters>
            <DistanceMeters>512.62383510589</DistanceMeters>
          </Trackpoint>
          <Trackpoint>
            <Time>2022-10-08T09:06:09.000Z</Time>
            <Position>
              <LatitudeDegrees>37.24758253432810306549072265625</LatitudeDegrees>
              <LongitudeDegrees>-3.5368578694760799407958984375</LongitudeDegrees>
            </Position>
            <AltitudeMeters>1480.800048828125</AltitudeMeters>
            <DistanceMeters>519.42339328221</DistanceMeters>
          </Trackpoint>
          <Trackpoint>
            <Time>2022-10-08T09:06:12.000Z</Time>
            <Position>
              <LatitudeDegrees>37.24761036224663257598876953125</LatitudeDegrees>
              <LongitudeDegrees>-3.5368870384991168975830078125</LongitudeDegrees>
            </Position>
            <AltitudeMeters>1481.5999755859375</AltitudeMeters>
            <DistanceMeters>523.45727450902</DistanceMeters>
          </Trackpoint>
          <Trackpoint>
            <Time>2022-10-08T09:06:13.000Z</Time>
            <Position>
              <LatitudeDegrees>37.24761505611240863800048828125</LatitudeDegrees>
              <LongitudeDegrees>-3.53690070100128650665283203125</LongitudeDegrees>
            </Position>
            <AltitudeMeters>1481.800048828125</AltitudeMeters>
            <DistanceMeters>524.77400328794</DistanceMeters>
          </Trackpoint>
          <Trackpoint>
            <Time>2022-10-08T09:06:20.000Z</Time>
            <Position>
              <LatitudeDegrees>37.24763735197484493255615234375</LatitudeDegrees>
              <LongitudeDegrees>-3.53698418475687503814697265625</LongitudeDegrees>
            </Position>
            <AltitudeMeters>1483</AltitudeMeters>
            <DistanceMeters>532.57488049219</DistanceMeters>
          </Trackpoint>
          <Trackpoint>
            <Time>2022-10-08T09:06:22.000Z</Time>
            <Position>
              <LatitudeDegrees>37.2476453147828578948974609375</LatitudeDegrees>
              <LongitudeDegrees>-3.53700664825737476348876953125</LongitudeDegrees>
            </Position>
            <AltitudeMeters>1483.5999755859375</AltitudeMeters>
            <DistanceMeters>534.7501414091</DistanceMeters>
          </Trackpoint>
          <Trackpoint>
            <Time>2022-10-08T09:06:24.000Z</Time>
            <Position>
              <LatitudeDegrees>37.24765830673277378082275390625</LatitudeDegrees>
              <LongitudeDegrees>-3.5370328836143016815185546875</LongitudeDegrees>
            </Position>
            <AltitudeMeters>1484.199951171875</AltitudeMeters>
            <DistanceMeters>537.4878344979</DistanceMeters>
          </Trackpoint>
          <Trackpoint>
            <Time>2022-10-08T09:06:29.000Z</Time>
            <Position>
              <LatitudeDegrees>37.24769770167768001556396484375</LatitudeDegrees>
              <LongitudeDegrees>-3.5370845161378383636474609375</LongitudeDegrees>
            </Position>
            <AltitudeMeters>1485</AltitudeMeters>
            <DistanceMeters>543.82405733724</DistanceMeters>
          </Trackpoint>
          <Trackpoint>
            <Time>2022-10-08T09:06:30.000Z</Time>
            <Position>
              <LatitudeDegrees>37.24770977161824703216552734375</LatitudeDegrees>
              <LongitudeDegrees>-3.5370885394513607025146484375</LongitudeDegrees>
            </Position>
            <AltitudeMeters>1485.199951171875</AltitudeMeters>
            <DistanceMeters>545.21092657498</DistanceMeters>
          </Trackpoint>
          <Trackpoint>
            <Time>2022-10-08T09:06:34.000Z</Time>
            <Position>
              <LatitudeDegrees>37.24774497561156749725341796875</LatitudeDegrees>
              <LongitudeDegrees>-3.537119217216968536376953125</LongitudeDegrees>
            </Position>
            <AltitudeMeters>1486.4000244140625</AltitudeMeters>
            <DistanceMeters>549.97933642375</DistanceMeters>
          </Trackpoint>
          <Trackpoint>
            <Time>2022-10-08T09:06:39.000Z</Time>
            <Position>
              <LatitudeDegrees>37.247791998088359832763671875</LatitudeDegrees>
              <LongitudeDegrees>-3.5371750406920909881591796875</LongitudeDegrees>
            </Position>
            <AltitudeMeters>1487</AltitudeMeters>
            <DistanceMeters>557.18007936744</DistanceMeters>
          </Trackpoint>
          <Trackpoint>
            <Time>2022-10-08T09:06:41.000Z</Time>
            <Position>
              <LatitudeDegrees>37.2478065825998783111572265625</LatitudeDegrees>
              <LongitudeDegrees>-3.5371913015842437744140625</LongitudeDegrees>
            </Position>
            <AltitudeMeters>1487.5999755859375</AltitudeMeters>
            <DistanceMeters>559.35118505436</DistanceMeters>
          </Trackpoint>
          <Trackpoint>
            <Time>2022-10-08T09:06:48.000Z</Time>
            <Position>
              <LatitudeDegrees>37.2478870488703250885009765625</LatitudeDegrees>
              <LongitudeDegrees>-3.53725844062864780426025390625</LongitudeDegrees>
            </Position>
            <AltitudeMeters>1488.800048828125</AltitudeMeters>
            <DistanceMeters>570.10307040696</DistanceMeters>
          </Trackpoint>
          <Trackpoint>
            <Time>2022-10-08T09:06:49.000Z</Time>
            <Position>
              <LatitudeDegrees>37.247898280620574951171875</LatitudeDegrees>
              <LongitudeDegrees>-3.5372682474553585052490234375</LongitudeDegrees>
            </Position>
            <AltitudeMeters>1489</AltitudeMeters>
            <DistanceMeters>571.62646452737</DistanceMeters>
          </Trackpoint>
          <Trackpoint>
            <Time>2022-10-08T09:06:52.000Z</Time>
            <Position>
              <LatitudeDegrees>37.2479245997965335845947265625</LatitudeDegrees>
              <LongitudeDegrees>-3.5373014397919178009033203125</LongitudeDegrees>
            </Position>
            <AltitudeMeters>1489.5999755859375</AltitudeMeters>
            <DistanceMeters>575.7762061794</DistanceMeters>
          </Trackpoint>
          <Trackpoint>
            <Time>2022-10-08T09:06:53.000Z</Time>
            <Position>
              <LatitudeDegrees>37.2479331493377685546875</LatitudeDegrees>
              <LongitudeDegrees>-3.53731225244700908660888671875</LongitudeDegrees>
            </Position>
            <AltitudeMeters>1489.800048828125</AltitudeMeters>
            <DistanceMeters>577.12678955028</DistanceMeters>
          </Trackpoint>
          <Trackpoint>
            <Time>2022-10-08T09:06:55.000Z</Time>
            <Position>
              <LatitudeDegrees>37.24794949404895305633544921875</LatitudeDegrees>
              <LongitudeDegrees>-3.53732876479625701904296875</LongitudeDegrees>
            </Position>
            <AltitudeMeters>1490.199951171875</AltitudeMeters>
            <DistanceMeters>579.46220518184</DistanceMeters>
          </Trackpoint>
          <Trackpoint>
            <Time>2022-10-08T09:07:00.000Z</Time>
            <Position>
              <LatitudeDegrees>37.2479822672903537750244140625</LatitudeDegrees>
              <LongitudeDegrees>-3.53738316334784030914306640625</LongitudeDegrees>
            </Position>
            <AltitudeMeters>1491</AltitudeMeters>
            <DistanceMeters>585.50668111382</DistanceMeters>
          </Trackpoint>
          <Trackpoint>
            <Time>2022-10-08T09:07:03.000Z</Time>
            <Position>
              <LatitudeDegrees>37.24800833500921726226806640625</LatitudeDegrees>
              <LongitudeDegrees>-3.5374083928763866424560546875</LongitudeDegrees>
            </Position>
            <AltitudeMeters>1491.5999755859375</AltitudeMeters>
            <DistanceMeters>589.16860185562</DistanceMeters>
          </Trackpoint>
          <Trackpoint>
            <Time>2022-10-08T09:07:06.000Z</Time>
            <Position>
              <LatitudeDegrees>37.2480439580976963043212890625</LatitudeDegrees>
              <LongitudeDegrees>-3.53745206259191036224365234375</LongitudeDegrees>
            </Position>
            <AltitudeMeters>1492</AltitudeMeters>
            <DistanceMeters>594.70956385779</DistanceMeters>
          </Trackpoint>
          <Trackpoint>
            <Time>2022-10-08T09:07:08.000Z</Time>
            <Position>
              <LatitudeDegrees>37.2480637393891811370849609375</LatitudeDegrees>
              <LongitudeDegrees>-3.5374729335308074951171875</LongitudeDegrees>
            </Position>
            <AltitudeMeters>1492.4000244140625</AltitudeMeters>
            <DistanceMeters>597.58559411192</DistanceMeters>
          </Trackpoint>
          <Trackpoint>
            <Time>2022-10-08T09:07:12.000Z</Time>
            <Position>
              <LatitudeDegrees>37.24810707382857799530029296875</LatitudeDegrees>
              <LongitudeDegrees>-3.53752817027270793914794921875</LongitudeDegrees>
            </Position>
            <AltitudeMeters>1493.199951171875</AltitudeMeters>
            <DistanceMeters>604.45649213539</DistanceMeters>
          </Trackpoint>
          <Trackpoint>
            <Time>2022-10-08T09:07:16.000Z</Time>
            <Position>
              <LatitudeDegrees>37.2481437027454376220703125</LatitudeDegrees>
              <LongitudeDegrees>-3.5375850833952426910400390625</LongitudeDegrees>
            </Position>
            <AltitudeMeters>1494</AltitudeMeters>
            <DistanceMeters>610.94132567215</DistanceMeters>
          </Trackpoint>
          <Trackpoint>
            <Time>2022-10-08T09:07:18.000Z</Time>
            <Position>
              <LatitudeDegrees>37.2481659986078739166259765625</LatitudeDegrees>
              <LongitudeDegrees>-3.53760310448706150054931640625</LongitudeDegrees>
            </Position>
            <AltitudeMeters>1494.199951171875</AltitudeMeters>
            <DistanceMeters>613.89480732012</DistanceMeters>
          </Trackpoint>
          <Trackpoint>
            <Time>2022-10-08T09:07:23.000Z</Time>
            <Position>
              <LatitudeDegrees>37.24822752177715301513671875</LatitudeDegrees>
              <LongitudeDegrees>-3.5376481153070926666259765625</LongitudeDegrees>
            </Position>
            <AltitudeMeters>1495</AltitudeMeters>
            <DistanceMeters>621.81914650968</DistanceMeters>
          </Trackpoint>
          <Trackpoint>
            <Time>2022-10-08T09:07:25.000Z</Time>
            <Position>
              <LatitudeDegrees>37.2482387535274028778076171875</LatitudeDegrees>
              <LongitudeDegrees>-3.5376749373972415924072265625</LongitudeDegrees>
            </Position>
            <AltitudeMeters>1495.4000244140625</AltitudeMeters>
            <DistanceMeters>624.50354607053</DistanceMeters>
          </Trackpoint>
          <Trackpoint>
            <Time>2022-10-08T09:07:30.000Z</Time>
            <Position>
              <LatitudeDegrees>37.2482806630432605743408203125</LatitudeDegrees>
              <LongitudeDegrees>-3.53773570619523525238037109375</LongitudeDegrees>
            </Position>
            <AltitudeMeters>1496.199951171875</AltitudeMeters>
            <DistanceMeters>631.62738138692</DistanceMeters>
          </Trackpoint>
          <Trackpoint>
            <Time>2022-10-08T09:07:33.000Z</Time>
            <Position>
              <LatitudeDegrees>37.24831729196012020111083984375</LatitudeDegrees>
              <LongitudeDegrees>-3.537764288485050201416015625</LongitudeDegrees>
            </Position>
            <AltitudeMeters>1496.5999755859375</AltitudeMeters>
            <DistanceMeters>636.4259952422</DistanceMeters>
          </Trackpoint>
          <Trackpoint>
            <Time>2022-10-08T09:07:36.000Z</Time>
            <Position>
              <LatitudeDegrees>37.24834285676479339599609375</LatitudeDegrees>
              <LongitudeDegrees>-3.53780242614448070526123046875</LongitudeDegrees>
            </Position>
            <AltitudeMeters>1497.199951171875</AltitudeMeters>
            <DistanceMeters>640.84346003497</DistanceMeters>
          </Trackpoint>
          <Trackpoint>
            <Time>2022-10-08T09:07:37.000Z</Time>
            <Position>
              <LatitudeDegrees>37.24835551343858242034912109375</LatitudeDegrees>
              <LongitudeDegrees>-3.53781030513346195220947265625</LongitudeDegrees>
            </Position>
            <AltitudeMeters>1497.199951171875</AltitudeMeters>
            <DistanceMeters>642.41643204541</DistanceMeters>
          </Trackpoint>
          <Trackpoint>
            <Time>2022-10-08T09:07:38.000Z</Time>
            <Position>
              <LatitudeDegrees>37.24836892448365688323974609375</LatitudeDegrees>
              <LongitudeDegrees>-3.53781868703663349151611328125</LongitudeDegrees>
            </Position>
            <AltitudeMeters>1497.4000244140625</AltitudeMeters>
            <DistanceMeters>644.08414411431</DistanceMeters>
          </Trackpoint>
          <Trackpoint>
            <Time>2022-10-08T09:07:39.000Z</Time>
            <Position>
              <LatitudeDegrees>37.2483799047768115997314453125</LatitudeDegrees>
              <LongitudeDegrees>-3.5378328524529933929443359375</LongitudeDegrees>
            </Position>
            <AltitudeMeters>1497.5999755859375</AltitudeMeters>
            <DistanceMeters>645.83635014984</DistanceMeters>
          </Trackpoint>
          <Trackpoint>
            <Time>2022-10-08T09:07:44.000Z</Time>
            <Position>
              <LatitudeDegrees>37.24844100885093212127685546875</LatitudeDegrees>
              <LongitudeDegrees>-3.53788943029940128326416015625</LongitudeDegrees>
            </Position>
            <AltitudeMeters>1498.800048828125</AltitudeMeters>
            <DistanceMeters>654.28464726896</DistanceMeters>
          </Trackpoint>
          <Trackpoint>
            <Time>2022-10-08T09:07:45.000Z</Time>
            <Position>
              <LatitudeDegrees>37.2484496422111988067626953125</LatitudeDegrees>
              <LongitudeDegrees>-3.5379035957157611846923828125</LongitudeDegrees>
            </Position>
            <AltitudeMeters>1499</AltitudeMeters>
            <DistanceMeters>655.86334961536</DistanceMeters>
          </Trackpoint>
          <Trackpoint>
            <Time>2022-10-08T09:07:52.000Z</Time>
            <Position>
              <LatitudeDegrees>37.24852130748331546783447265625</LatitudeDegrees>
              <LongitudeDegrees>-3.53799437172710895538330078125</LongitudeDegrees>
            </Position>
            <AltitudeMeters>1499.800048828125</AltitudeMeters>
            <DistanceMeters>667.191076054</DistanceMeters>
          </Trackpoint>
          <Trackpoint>
            <Time>2022-10-08T09:07:58.000Z</Time>
            <Position>
              <LatitudeDegrees>37.2486197948455810546875</LatitudeDegrees>
              <LongitudeDegrees>-3.53805103339254856109619140625</LongitudeDegrees>
            </Position>
            <AltitudeMeters>1501</AltitudeMeters>
            <DistanceMeters>679.2478654523</DistanceMeters>
          </Trackpoint>
          <Trackpoint>
            <Time>2022-10-08T09:08:01.000Z</Time>
            <Position>
              <LatitudeDegrees>37.24864804185926914215087890625</LatitudeDegrees>
              <LongitudeDegrees>-3.538065366446971893310546875</LongitudeDegrees>
            </Position>
            <AltitudeMeters>1501.800048828125</AltitudeMeters>
            <DistanceMeters>682.63966694849</DistanceMeters>
          </Trackpoint>
          <Trackpoint>
            <Time>2022-10-08T09:08:03.000Z</Time>
            <Position>
              <LatitudeDegrees>37.24866447038948535919189453125</LatitudeDegrees>
              <LongitudeDegrees>-3.53809176944196224212646484375</LongitudeDegrees>
            </Position>
            <AltitudeMeters>1502.199951171875</AltitudeMeters>
            <DistanceMeters>685.60839640894</DistanceMeters>
          </Trackpoint>
          <Trackpoint>
            <Time>2022-10-08T09:08:07.000Z</Time>
            <Position>
              <LatitudeDegrees>37.2487000934779644012451171875</LatitudeDegrees>
              <LongitudeDegrees>-3.53815061040222644805908203125</LongitudeDegrees>
            </Position>
            <AltitudeMeters>1503</AltitudeMeters>
            <DistanceMeters>692.15766072707</DistanceMeters>
          </Trackpoint>
          <Trackpoint>
            <Time>2022-10-08T09:08:08.000Z</Time>
            <Position>
              <LatitudeDegrees>37.2487124986946582794189453125</LatitudeDegrees>
              <LongitudeDegrees>-3.53815681301057338714599609375</LongitudeDegrees>
            </Position>
            <AltitudeMeters>1503.199951171875</AltitudeMeters>
            <DistanceMeters>693.64202545729</DistanceMeters>
          </Trackpoint>
          <Trackpoint>
            <Time>2022-10-08T09:08:13.000Z</Time>
            <Position>
              <LatitudeDegrees>37.24877762608230113983154296875</LatitudeDegrees>
              <LongitudeDegrees>-3.5381926037371158599853515625</LongitudeDegrees>
            </Position>
            <AltitudeMeters>1504.4000244140625</AltitudeMeters>
            <DistanceMeters>701.55381981189</DistanceMeters>
          </Trackpoint>
          <Trackpoint>
            <Time>2022-10-08T09:08:17.000Z</Time>
            <Position>
              <LatitudeDegrees>37.24881115369498729705810546875</LatitudeDegrees>
              <LongitudeDegrees>-3.53821816854178905487060546875</LongitudeDegrees>
            </Position>
            <AltitudeMeters>1504.800048828125</AltitudeMeters>
            <DistanceMeters>705.9198811231</DistanceMeters>
          </Trackpoint>
          <Trackpoint>
            <Time>2022-10-08T09:08:20.000Z</Time>
            <Position>
              <LatitudeDegrees>37.2488392330706119537353515625</LatitudeDegrees>
              <LongitudeDegrees>-3.53824012912809848785400390625</LongitudeDegrees>
            </Position>
            <AltitudeMeters>1505.5999755859375</AltitudeMeters>
            <DistanceMeters>709.60024994509</DistanceMeters>
          </Trackpoint>
          <Trackpoint>
            <Time>2022-10-08T09:08:24.000Z</Time>
            <Position>
              <LatitudeDegrees>37.248879969120025634765625</LatitudeDegrees>
              <LongitudeDegrees>-3.5382734052836894989013671875</LongitudeDegrees>
            </Position>
            <AltitudeMeters>1506.199951171875</AltitudeMeters>
            <DistanceMeters>715.00759564567</DistanceMeters>
          </Trackpoint>
          <Trackpoint>
            <Time>2022-10-08T09:08:25.000Z</Time>
            <Position>
              <LatitudeDegrees>37.24888826720416545867919921875</LatitudeDegrees>
              <LongitudeDegrees>-3.53828488849103450775146484375</LongitudeDegrees>
            </Position>
            <AltitudeMeters>1506.5999755859375</AltitudeMeters>
            <DistanceMeters>716.38466356456</DistanceMeters>
          </Trackpoint>
          <Trackpoint>
            <Time>2022-10-08T09:08:30.000Z</Time>
            <Position>
              <LatitudeDegrees>37.2489284165203571319580078125</LatitudeDegrees>
              <LongitudeDegrees>-3.5383270494639873504638671875</LongitudeDegrees>
            </Position>
            <AltitudeMeters>1507.5999755859375</AltitudeMeters>
            <DistanceMeters>722.20926631495</DistanceMeters>
          </Trackpoint>
          <Trackpoint>
            <Time>2022-10-08T09:08:31.000Z</Time>
            <Position>
              <LatitudeDegrees>37.2489354573190212249755859375</LatitudeDegrees>
              <LongitudeDegrees>-3.5383339226245880126953125</LongitudeDegrees>
            </Position>
            <AltitudeMeters>1507.5999755859375</AltitudeMeters>
            <DistanceMeters>723.20137433951</DistanceMeters>
          </Trackpoint>
          <Trackpoint>
            <Time>2022-10-08T09:08:32.000Z</Time>
            <Position>
              <LatitudeDegrees>37.24894191138446331024169921875</LatitudeDegrees>
              <LongitudeDegrees>-3.53834205307066440582275390625</LongitudeDegrees>
            </Position>
            <AltitudeMeters>1507.800048828125</AltitudeMeters>
            <DistanceMeters>724.22042232222</DistanceMeters>
          </Trackpoint>
          <Trackpoint>
            <Time>2022-10-08T09:08:36.000Z</Time>
            <Position>
              <LatitudeDegrees>37.24897929467260837554931640625</LatitudeDegrees>
              <LongitudeDegrees>-3.53837340138852596282958984375</LongitudeDegrees>
            </Position>
            <AltitudeMeters>1508.800048828125</AltitudeMeters>
            <DistanceMeters>729.2235585289</DistanceMeters>
          </Trackpoint>
          <Trackpoint>
            <Time>2022-10-08T09:08:38.000Z</Time>
            <Position>
              <LatitudeDegrees>37.2489966452121734619140625</LatitudeDegrees>
              <LongitudeDegrees>-3.53838329203426837921142578125</LongitudeDegrees>
            </Position>
            <AltitudeMeters>1509.199951171875</AltitudeMeters>
            <DistanceMeters>731.34416647689</DistanceMeters>
          </Trackpoint>
          <Trackpoint>
            <Time>2022-10-08T09:08:41.000Z</Time>
            <Position>
              <LatitudeDegrees>37.2490243054926395416259765625</LatitudeDegrees>
              <LongitudeDegrees>-3.5383977927267551422119140625</LongitudeDegrees>
            </Position>
            <AltitudeMeters>1510</AltitudeMeters>
            <DistanceMeters>734.67688219025</DistanceMeters>
          </Trackpoint>
          <Trackpoint>
            <Time>2022-10-08T09:08:45.000Z</Time>
            <Position>
              <LatitudeDegrees>37.249064706265926361083984375</LatitudeDegrees>
              <LongitudeDegrees>-3.53843794204294681549072265625</LongitudeDegrees>
            </Position>
            <AltitudeMeters>1510.5999755859375</AltitudeMeters>
            <DistanceMeters>740.41007312166</DistanceMeters>
          </Trackpoint>
          <Trackpoint>
            <Time>2022-10-08T09:08:47.000Z</Time>
            <Position>
              <LatitudeDegrees>37.24908976815640926361083984375</LatitudeDegrees>
              <LongitudeDegrees>-3.5384705476462841033935546875</LongitudeDegrees>
            </Position>
            <AltitudeMeters>1511.199951171875</AltitudeMeters>
            <DistanceMeters>744.42600595587</DistanceMeters>
          </Trackpoint>
          <Trackpoint>
            <Time>2022-10-08T09:08:52.000Z</Time>
            <Position>
              <LatitudeDegrees>37.24915514700114727020263671875</LatitudeDegrees>
              <LongitudeDegrees>-3.53851639665663242340087890625</LongitudeDegrees>
            </Position>
            <AltitudeMeters>1512</AltitudeMeters>
            <DistanceMeters>752.75914989163</DistanceMeters>
          </Trackpoint>
          <Trackpoint>
            <Time>2022-10-08T09:08:53.000Z</Time>
            <Position>
              <LatitudeDegrees>37.24916654638946056365966796875</LatitudeDegrees>
              <LongitudeDegrees>-3.5385255329310894012451171875</LongitudeDegrees>
            </Position>
            <AltitudeMeters>1512.4000244140625</AltitudeMeters>
            <DistanceMeters>754.26765221641</DistanceMeters>
          </Trackpoint>
          <Trackpoint>
            <Time>2022-10-08T09:08:55.000Z</Time>
            <Position>
              <LatitudeDegrees>37.2491849027574062347412109375</LatitudeDegrees>
              <LongitudeDegrees>-3.53855185210704803466796875</LongitudeDegrees>
            </Position>
            <AltitudeMeters>1513</AltitudeMeters>
            <DistanceMeters>757.36732983455</DistanceMeters>
          </Trackpoint>
          <Trackpoint>
            <Time>2022-10-08T09:08:57.000Z</Time>
            <Position>
              <LatitudeDegrees>37.249191105365753173828125</LatitudeDegrees>
              <LongitudeDegrees>-3.53859920985996723175048828125</LongitudeDegrees>
            </Position>
            <AltitudeMeters>1513.5999755859375</AltitudeMeters>
            <DistanceMeters>761.61917802572</DistanceMeters>
          </Trackpoint>
          <Trackpoint>
            <Time>2022-10-08T09:08:58.000Z</Time>
            <Position>
              <LatitudeDegrees>37.2491862438619136810302734375</LatitudeDegrees>
              <LongitudeDegrees>-3.5386214219033718109130859375</LongitudeDegrees>
            </Position>
            <AltitudeMeters>1513.800048828125</AltitudeMeters>
            <DistanceMeters>763.65948811016</DistanceMeters>
          </Trackpoint>
          <Trackpoint>
            <Time>2022-10-08T09:09:02.000Z</Time>
            <Position>
              <LatitudeDegrees>37.2491691447794437408447265625</LatitudeDegrees>
              <LongitudeDegrees>-3.53866986930370330810546875</LongitudeDegrees>
            </Position>
            <AltitudeMeters>1514.800048828125</AltitudeMeters>
            <DistanceMeters>768.35538490163</DistanceMeters>
          </Trackpoint>
          <Trackpoint>
            <Time>2022-10-08T09:09:07.000Z</Time>
            <Position>
              <LatitudeDegrees>37.24915866740047931671142578125</LatitudeDegrees>
              <LongitudeDegrees>-3.53872879408299922943115234375</LongitudeDegrees>
            </Position>
            <AltitudeMeters>1515.800048828125</AltitudeMeters>
            <DistanceMeters>773.70396248585</DistanceMeters>
          </Trackpoint>
          <Trackpoint>
            <Time>2022-10-08T09:09:10.000Z</Time>
            <Position>
              <LatitudeDegrees>37.2491513751447200775146484375</LatitudeDegrees>
              <LongitudeDegrees>-3.53876215405762195587158203125</LongitudeDegrees>
            </Position>
            <AltitudeMeters>1516.4000244140625</AltitudeMeters>
            <DistanceMeters>776.76995491542</DistanceMeters>
          </Trackpoint>
          <Trackpoint>
            <Time>2022-10-08T09:09:11.000Z</Time>
            <Position>
              <LatitudeDegrees>37.24915087223052978515625</LatitudeDegrees>
              <LongitudeDegrees>-3.53877724148333072662353515625</LongitudeDegrees>
            </Position>
            <AltitudeMeters>1517</AltitudeMeters>
            <DistanceMeters>778.10709931148</DistanceMeters>
          </Trackpoint>
          <Trackpoint>
            <Time>2022-10-08T09:09:14.000Z</Time>
            <Position>
              <LatitudeDegrees>37.24916034378111362457275390625</LatitudeDegrees>
              <LongitudeDegrees>-3.53881160728633403778076171875</LongitudeDegrees>
            </Position>
            <AltitudeMeters>1518</AltitudeMeters>
            <DistanceMeters>781.32821058464</DistanceMeters>
          </Trackpoint>
          <Trackpoint>
            <Time>2022-10-08T09:09:17.000Z</Time>
            <Position>
              <LatitudeDegrees>37.2491389699280261993408203125</LatitudeDegrees>
              <LongitudeDegrees>-3.5388730466365814208984375</LongitudeDegrees>
            </Position>
            <AltitudeMeters>1518.4000244140625</AltitudeMeters>
            <DistanceMeters>787.2687104578</DistanceMeters>
          </Trackpoint>
          <Trackpoint>
            <Time>2022-10-08T09:09:18.000Z</Time>
            <Position>
              <LatitudeDegrees>37.24912798963487148284912109375</LatitudeDegrees>
              <LongitudeDegrees>-3.53889324702322483062744140625</LongitudeDegrees>
            </Position>
            <AltitudeMeters>1518.800048828125</AltitudeMeters>
            <DistanceMeters>789.43565294685</DistanceMeters>
          </Trackpoint>
          <Trackpoint>
            <Time>2022-10-08T09:09:19.000Z</Time>
            <Position>
              <LatitudeDegrees>37.2491205297410488128662109375</LatitudeDegrees>
              <LongitudeDegrees>-3.53890322148799896240234375</LongitudeDegrees>
            </Position>
            <AltitudeMeters>1519</AltitudeMeters>
            <DistanceMeters>790.6451455611</DistanceMeters>
          </Trackpoint>
          <Trackpoint>
            <Time>2022-10-08T09:09:23.000Z</Time>
            <Position>
              <LatitudeDegrees>37.2490876726806163787841796875</LatitudeDegrees>
              <LongitudeDegrees>-3.53893917985260486602783203125</LongitudeDegrees>
            </Position>
            <AltitudeMeters>1520.199951171875</AltitudeMeters>
            <DistanceMeters>795.49523310015</DistanceMeters>
          </Trackpoint>
          <Trackpoint>
            <Time>2022-10-08T09:09:25.000Z</Time>
            <Position>
              <LatitudeDegrees>37.2490786202251911163330078125</LatitudeDegrees>
              <LongitudeDegrees>-3.53896516375243663787841796875</LongitudeDegrees>
            </Position>
            <AltitudeMeters>1521</AltitudeMeters>
            <DistanceMeters>798.00940364146</DistanceMeters>
          </Trackpoint>
          <Trackpoint>
            <Time>2022-10-08T09:09:27.000Z</Time>
            <Position>
              <LatitudeDegrees>37.24908406846225261688232421875</LatitudeDegrees>
              <LongitudeDegrees>-3.5389989428222179412841796875</LongitudeDegrees>
            </Position>
            <AltitudeMeters>1521.4000244140625</AltitudeMeters>
            <DistanceMeters>801.0621137309</DistanceMeters>
          </Trackpoint>
          <Trackpoint>
            <Time>2022-10-08T09:09:33.000Z</Time>
            <Position>
              <LatitudeDegrees>37.24908239208161830902099609375</LatitudeDegrees>
              <LongitudeDegrees>-3.53909977711737155914306640625</LongitudeDegrees>
            </Position>
            <AltitudeMeters>1522.4000244140625</AltitudeMeters>
            <DistanceMeters>809.99816240992</DistanceMeters>
          </Trackpoint>
          <Trackpoint>
            <Time>2022-10-08T09:09:36.000Z</Time>
            <Position>
              <LatitudeDegrees>37.24910066463053226470947265625</LatitudeDegrees>
              <LongitudeDegrees>-3.5391270183026790618896484375</LongitudeDegrees>
            </Position>
            <AltitudeMeters>1522.4000244140625</AltitudeMeters>
            <DistanceMeters>813.15413679475</DistanceMeters>
          </Trackpoint>
          <Trackpoint>
            <Time>2022-10-08T09:09:39.000Z</Time>
            <Position>
              <LatitudeDegrees>37.24912446923553943634033203125</LatitudeDegrees>
              <LongitudeDegrees>-3.53915534913539886474609375</LongitudeDegrees>
            </Position>
            <AltitudeMeters>1522.800048828125</AltitudeMeters>
            <DistanceMeters>816.80370700983</DistanceMeters>
          </Trackpoint>
          <Trackpoint>
            <Time>2022-10-08T09:09:43.000Z</Time>
            <Position>
              <LatitudeDegrees>37.24914022721350193023681640625</LatitudeDegrees>
              <LongitudeDegrees>-3.53919885121285915374755859375</LongitudeDegrees>
            </Position>
            <AltitudeMeters>1523.5999755859375</AltitudeMeters>
            <DistanceMeters>821.03853071545</DistanceMeters>
          </Trackpoint>
          <Trackpoint>
            <Time>2022-10-08T09:09:46.000Z</Time>
            <Position>
              <LatitudeDegrees>37.24915632046759128570556640625</LatitudeDegrees>
              <LongitudeDegrees>-3.5392141900956630706787109375</LongitudeDegrees>
            </Position>
            <AltitudeMeters>1524.199951171875</AltitudeMeters>
            <DistanceMeters>823.28928012066</DistanceMeters>
          </Trackpoint>
          <Trackpoint>
            <Time>2022-10-08T09:09:48.000Z</Time>
            <Position>
              <LatitudeDegrees>37.24916755221784114837646484375</LatitudeDegrees>
              <LongitudeDegrees>-3.53922910988330841064453125</LongitudeDegrees>
            </Position>
            <AltitudeMeters>1524.5999755859375</AltitudeMeters>
            <DistanceMeters>825.10724821128</DistanceMeters>
          </Trackpoint>
          <Trackpoint>
            <Time>2022-10-08T09:09:51.000Z</Time>
            <Position>
              <LatitudeDegrees>37.2491946257650852203369140625</LatitudeDegrees>
              <LongitudeDegrees>-3.5392410121858119964599609375</LongitudeDegrees>
            </Position>
            <AltitudeMeters>1525.199951171875</AltitudeMeters>
            <DistanceMeters>828.29878800091</DistanceMeters>
          </Trackpoint>
          <Trackpoint>
            <Time>2022-10-08T09:09:53.000Z</Time>
            <Position>
              <LatitudeDegrees>37.24921314977109432220458984375</LatitudeDegrees>
              <LongitudeDegrees>-3.5392477177083492279052734375</LongitudeDegrees>
            </Position>
            <AltitudeMeters>1525.5999755859375</AltitudeMeters>
            <DistanceMeters>830.44479335654</DistanceMeters>
          </Trackpoint>
          <Trackpoint>
            <Time>2022-10-08T09:09:54.000Z</Time>
            <Position>
              <LatitudeDegrees>37.24922019056975841522216796875</LatitudeDegrees>
              <LongitudeDegrees>-3.53925350122153759002685546875</LongitudeDegrees>
            </Position>
            <AltitudeMeters>1525.800048828125</AltitudeMeters>
            <DistanceMeters>831.38550983429</DistanceMeters>
          </Trackpoint>
          <Trackpoint>
            <Time>2022-10-08T09:09:58.000Z</Time>
            <Position>
              <LatitudeDegrees>37.24924500100314617156982421875</LatitudeDegrees>
              <LongitudeDegrees>-3.539279736578464508056640625</LongitudeDegrees>
            </Position>
            <AltitudeMeters>1526.800048828125</AltitudeMeters>
            <DistanceMeters>834.99402341084</DistanceMeters>
          </Trackpoint>
          <Trackpoint>
            <Time>2022-10-08T09:09:59.000Z</Time>
            <Position>
              <LatitudeDegrees>37.2492487728595733642578125</LatitudeDegrees>
              <LongitudeDegrees>-3.53928702883422374725341796875</LongitudeDegrees>
            </Position>
            <AltitudeMeters>1526.800048828125</AltitudeMeters>
            <DistanceMeters>835.7542371258</DistanceMeters>
          </Trackpoint>
          <Trackpoint>
            <Time>2022-10-08T09:10:01.000Z</Time>
            <Position>
              <LatitudeDegrees>37.24926285445690155029296875</LatitudeDegrees>
              <LongitudeDegrees>-3.53930496610701084136962890625</LongitudeDegrees>
            </Position>
            <AltitudeMeters>1527.199951171875</AltitudeMeters>
            <DistanceMeters>837.98281111923</DistanceMeters>
          </Trackpoint>
          <Trackpoint>
            <Time>2022-10-08T09:10:03.000Z</Time>
            <Position>
              <LatitudeDegrees>37.24927383475005626678466796875</LatitudeDegrees>
              <LongitudeDegrees>-3.53933530859649181365966796875</LongitudeDegrees>
            </Position>
            <AltitudeMeters>1527.5999755859375</AltitudeMeters>
            <DistanceMeters>840.93629276719</DistanceMeters>
          </Trackpoint>
          <Trackpoint>
            <Time>2022-10-08T09:10:05.000Z</Time>
            <Position>
              <LatitudeDegrees>37.24928162992000579833984375</LatitudeDegrees>
              <LongitudeDegrees>-3.53936062194406986236572265625</LongitudeDegrees>
            </Position>
            <AltitudeMeters>1527.800048828125</AltitudeMeters>
            <DistanceMeters>843.34029961497</DistanceMeters>
          </Trackpoint>
          <Trackpoint>
            <Time>2022-10-08T09:10:07.000Z</Time>
            <Position>
              <LatitudeDegrees>37.24929579533636569976806640625</LatitudeDegrees>
              <LongitudeDegrees>-3.5393741168081760406494140625</LongitudeDegrees>
            </Position>
            <AltitudeMeters>1528.199951171875</AltitudeMeters>
            <DistanceMeters>845.31995947885</DistanceMeters>
          </Trackpoint>
          <Trackpoint>
            <Time>2022-10-08T09:10:10.000Z</Time>
            <Position>
              <LatitudeDegrees>37.2493250481784343719482421875</LatitudeDegrees>
              <LongitudeDegrees>-3.53938342072069644927978515625</LongitudeDegrees>
            </Position>
            <AltitudeMeters>1528.800048828125</AltitudeMeters>
            <DistanceMeters>848.67966118509</DistanceMeters>
          </Trackpoint>
          <Trackpoint>
            <Time>2022-10-08T09:10:16.000Z</Time>
            <Position>
              <LatitudeDegrees>37.2493579052388668060302734375</LatitudeDegrees>
              <LongitudeDegrees>-3.5394478775560855865478515625</LongitudeDegrees>
            </Position>
            <AltitudeMeters>1529.800048828125</AltitudeMeters>
            <DistanceMeters>855.46193288457</DistanceMeters>
          </Trackpoint>
          <Trackpoint>
            <Time>2022-10-08T09:10:17.000Z</Time>
            <Position>
              <LatitudeDegrees>37.24936050362884998321533203125</LatitudeDegrees>
              <LongitudeDegrees>-3.53946573100984096527099609375</LongitudeDegrees>
            </Position>
            <AltitudeMeters>1529.800048828125</AltitudeMeters>
            <DistanceMeters>857.06898044546</DistanceMeters>
          </Trackpoint>
          <Trackpoint>
            <Time>2022-10-08T09:10:21.000Z</Time>
            <Position>
              <LatitudeDegrees>37.2493766807019710540771484375</LatitudeDegrees>
              <LongitudeDegrees>-3.5395276732742786407470703125</LongitudeDegrees>
            </Position>
            <AltitudeMeters>1529.800048828125</AltitudeMeters>
            <DistanceMeters>862.8445412307</DistanceMeters>
          </Trackpoint>
          <Trackpoint>
            <Time>2022-10-08T09:10:22.000Z</Time>
            <Position>
              <LatitudeDegrees>37.2493823803961277008056640625</LatitudeDegrees>
              <LongitudeDegrees>-3.5395409166812896728515625</LongitudeDegrees>
            </Position>
            <AltitudeMeters>1529.800048828125</AltitudeMeters>
            <DistanceMeters>864.18168562676</DistanceMeters>
          </Trackpoint>
          <Trackpoint>
            <Time>2022-10-08T09:10:30.000Z</Time>
            <Position>
              <LatitudeDegrees>37.2494145669043064117431640625</LatitudeDegrees>
              <LongitudeDegrees>-3.53964895941317081451416015625</LongitudeDegrees>
            </Position>
            <AltitudeMeters>1529.5999755859375</AltitudeMeters>
            <DistanceMeters>874.40224942254</DistanceMeters>
          </Trackpoint>
          <Trackpoint>
            <Time>2022-10-08T09:10:35.000Z</Time>
            <Position>
              <LatitudeDegrees>37.24943543784320354461669921875</LatitudeDegrees>
              <LongitudeDegrees>-3.5397368855774402618408203125</LongitudeDegrees>
            </Position>
            <AltitudeMeters>1529.5999755859375</AltitudeMeters>
            <DistanceMeters>882.53133912661</DistanceMeters>
          </Trackpoint>
          <Trackpoint>
            <Time>2022-10-08T09:10:37.000Z</Time>
            <Position>
              <LatitudeDegrees>37.24944096989929676055908203125</LatitudeDegrees>
              <LongitudeDegrees>-3.53977435268461704254150390625</LongitudeDegrees>
            </Position>
            <AltitudeMeters>1529.5999755859375</AltitudeMeters>
            <DistanceMeters>885.90712888195</DistanceMeters>
          </Trackpoint>
          <Trackpoint>
            <Time>2022-10-08T09:10:40.000Z</Time>
            <Position>
              <LatitudeDegrees>37.24944834597408771514892578125</LatitudeDegrees>
              <LongitudeDegrees>-3.53981651365756988525390625</LongitudeDegrees>
            </Position>
            <AltitudeMeters>1529.4000244140625</AltitudeMeters>
            <DistanceMeters>889.73069969505</DistanceMeters>
          </Trackpoint>
          <Trackpoint>
            <Time>2022-10-08T09:10:44.000Z</Time>
            <Position>
              <LatitudeDegrees>37.24946460686624050140380859375</LatitudeDegrees>
              <LongitudeDegrees>-3.5398720018565654754638671875</LongitudeDegrees>
            </Position>
            <AltitudeMeters>1529.5999755859375</AltitudeMeters>
            <DistanceMeters>894.96838737539</DistanceMeters>
          </Trackpoint>
          <Trackpoint>
            <Time>2022-10-08T09:10:46.000Z</Time>
            <Position>
              <LatitudeDegrees>37.24947097711265087127685546875</LatitudeDegrees>
              <LongitudeDegrees>-3.5399105586111545562744140625</LongitudeDegrees>
            </Position>
            <AltitudeMeters>1530</AltitudeMeters>
            <DistanceMeters>898.4573045493</DistanceMeters>
          </Trackpoint>
          <Trackpoint>
            <Time>2022-10-08T09:10:51.000Z</Time>
            <Position>
              <LatitudeDegrees>37.24948422051966190338134765625</LatitudeDegrees>
              <LongitudeDegrees>-3.53998356498777866363525390625</LongitudeDegrees>
            </Position>
            <AltitudeMeters>1531.199951171875</AltitudeMeters>
            <DistanceMeters>905.09150326413</DistanceMeters>
          </Trackpoint>
          <Trackpoint>
            <Time>2022-10-08T09:10:53.000Z</Time>
            <Position>
              <LatitudeDegrees>37.24948883056640625</LatitudeDegrees>
              <LongitudeDegrees>-3.5400094650685787200927734375</LongitudeDegrees>
            </Position>
            <AltitudeMeters>1531.5999755859375</AltitudeMeters>
            <DistanceMeters>907.44233434775</DistanceMeters>
          </Trackpoint>
          <Trackpoint>
            <Time>2022-10-08T09:10:58.000Z</Time>
            <Position>
              <LatitudeDegrees>37.24950266070663928985595703125</LatitudeDegrees>
              <LongitudeDegrees>-3.54009806178510189056396484375</LongitudeDegrees>
            </Position>
            <AltitudeMeters>1532.199951171875</AltitudeMeters>
            <DistanceMeters>915.44096495588</DistanceMeters>
          </Trackpoint>
          <Trackpoint>
            <Time>2022-10-08T09:11:02.000Z</Time>
            <Position>
              <LatitudeDegrees>37.2495250403881072998046875</LatitudeDegrees>
              <LongitudeDegrees>-3.54016360826790332794189453125</LongitudeDegrees>
            </Position>
            <AltitudeMeters>1533</AltitudeMeters>
            <DistanceMeters>921.76006283732</DistanceMeters>
          </Trackpoint>
          <Trackpoint>
            <Time>2022-10-08T09:11:03.000Z</Time>
            <Position>
              <LatitudeDegrees>37.2495304048061370849609375</LatitudeDegrees>
              <LongitudeDegrees>-3.540176935493946075439453125</LongitudeDegrees>
            </Position>
            <AltitudeMeters>1533.4000244140625</AltitudeMeters>
            <DistanceMeters>923.08363181177</DistanceMeters>
          </Trackpoint>
          <Trackpoint>
            <Time>2022-10-08T09:11:07.000Z</Time>
            <Position>
              <LatitudeDegrees>37.24955655634403228759765625</LatitudeDegrees>
              <LongitudeDegrees>-3.5402341000735759735107421875</LongitudeDegrees>
            </Position>
            <AltitudeMeters>1534.5999755859375</AltitudeMeters>
            <DistanceMeters>928.92449037925</DistanceMeters>
          </Trackpoint>
          <Trackpoint>
            <Time>2022-10-08T09:11:09.000Z</Time>
            <Position>
              <LatitudeDegrees>37.24955664016306400299072265625</LatitudeDegrees>
              <LongitudeDegrees>-3.54027114808559417724609375</LongitudeDegrees>
            </Position>
            <AltitudeMeters>1535</AltitudeMeters>
            <DistanceMeters>932.20669713654</DistanceMeters>
          </Trackpoint>
          <Trackpoint>
            <Time>2022-10-08T09:11:11.000Z</Time>
            <Position>
              <LatitudeDegrees>37.249554209411144256591796875</LatitudeDegrees>
              <LongitudeDegrees>-3.54030559770762920379638671875</LongitudeDegrees>
            </Position>
            <AltitudeMeters>1535.5999755859375</AltitudeMeters>
            <DistanceMeters>935.27121659344</DistanceMeters>
          </Trackpoint>
          <Trackpoint>
            <Time>2022-10-08T09:11:14.000Z</Time>
            <Position>
              <LatitudeDegrees>37.24955194629728794097900390625</LatitudeDegrees>
              <LongitudeDegrees>-3.54034801013767719268798828125</LongitudeDegrees>
            </Position>
            <AltitudeMeters>1536</AltitudeMeters>
            <DistanceMeters>939.03648152662</DistanceMeters>
          </Trackpoint>
          <Trackpoint>
            <Time>2022-10-08T09:11:16.000Z</Time>
            <Position>
              <LatitudeDegrees>37.24953903816640377044677734375</LatitudeDegrees>
              <LongitudeDegrees>-3.5403812862932682037353515625</LongitudeDegrees>
            </Position>
            <AltitudeMeters>1536.5999755859375</AltitudeMeters>
            <DistanceMeters>942.31455885461</DistanceMeters>
          </Trackpoint>
          <Trackpoint>
            <Time>2022-10-08T09:11:18.000Z</Time>
            <Position>
              <LatitudeDegrees>37.24952244199812412261962890625</LatitudeDegrees>
              <LongitudeDegrees>-3.5404221899807453155517578125</LongitudeDegrees>
            </Position>
            <AltitudeMeters>1537.199951171875</AltitudeMeters>
            <DistanceMeters>946.3818798458</DistanceMeters>
          </Trackpoint>
          <Trackpoint>
            <Time>2022-10-08T09:11:23.000Z</Time>
            <Position>
              <LatitudeDegrees>37.2494869865477085113525390625</LatitudeDegrees>
              <LongitudeDegrees>-3.54055319912731647491455078125</LongitudeDegrees>
            </Position>
            <AltitudeMeters>1537</AltitudeMeters>
            <DistanceMeters>958.64143091153</DistanceMeters>
          </Trackpoint>
          <Trackpoint>
            <Time>2022-10-08T09:11:25.000Z</Time>
            <Position>
              <LatitudeDegrees>37.2494779340922832489013671875</LatitudeDegrees>
              <LongitudeDegrees>-3.54060885496437549591064453125</LongitudeDegrees>
            </Position>
            <AltitudeMeters>1536.800048828125</AltitudeMeters>
            <DistanceMeters>963.6742595819</DistanceMeters>
          </Trackpoint>
          <Trackpoint>
            <Time>2022-10-08T09:11:26.000Z</Time>
            <Position>
              <LatitudeDegrees>37.2494856454432010650634765625</LatitudeDegrees>
              <LongitudeDegrees>-3.5406339168548583984375</LongitudeDegrees>
            </Position>
            <AltitudeMeters>1536.800048828125</AltitudeMeters>
            <DistanceMeters>966.05751745364</DistanceMeters>
          </Trackpoint>
          <Trackpoint>
            <Time>2022-10-08T09:11:29.000Z</Time>
            <Position>
              <LatitudeDegrees>37.2495027445256710052490234375</LatitudeDegrees>
              <LongitudeDegrees>-3.54070574976503849029541015625</LongitudeDegrees>
            </Position>
            <AltitudeMeters>1536.5999755859375</AltitudeMeters>
            <DistanceMeters>972.69987799077</DistanceMeters>
          </Trackpoint>
          <Trackpoint>
            <Time>2022-10-08T09:11:31.000Z</Time>
            <Position>
              <LatitudeDegrees>37.249511964619159698486328125</LatitudeDegrees>
              <LongitudeDegrees>-3.54076090268790721893310546875</LongitudeDegrees>
            </Position>
            <AltitudeMeters>1536.5999755859375</AltitudeMeters>
            <DistanceMeters>977.69307747224</DistanceMeters>
          </Trackpoint>
          <Trackpoint>
            <Time>2022-10-08T09:11:34.000Z</Time>
            <Position>
              <LatitudeDegrees>37.249512635171413421630859375</LatitudeDegrees>
              <LongitudeDegrees>-3.54084245860576629638671875</LongitudeDegrees>
            </Position>
            <AltitudeMeters>1536.5999755859375</AltitudeMeters>
            <DistanceMeters>984.91885784525</DistanceMeters>
          </Trackpoint>
          <Trackpoint>
            <Time>2022-10-08T09:11:42.000Z</Time>
            <Position>
              <LatitudeDegrees>37.249510288238525390625</LatitudeDegrees>
              <LongitudeDegrees>-3.5410590469837188720703125</LongitudeDegrees>
            </Position>
            <AltitudeMeters>1536.4000244140625</AltitudeMeters>
            <DistanceMeters>1004.1095492786</DistanceMeters>
          </Trackpoint>
          <Trackpoint>
            <Time>2022-10-08T09:11:49.000Z</Time>
            <Position>
              <LatitudeDegrees>37.24954356439411640167236328125</LatitudeDegrees>
              <LongitudeDegrees>-3.541203550994396209716796875</LongitudeDegrees>
            </Position>
            <AltitudeMeters>1536.4000244140625</AltitudeMeters>
            <DistanceMeters>1017.4370247955</DistanceMeters>
          </Trackpoint>
          <Trackpoint>
            <Time>2022-10-08T09:11:56.000Z</Time>
            <Position>
              <LatitudeDegrees>37.2496043331921100616455078125</LatitudeDegrees>
              <LongitudeDegrees>-3.54130245745182037353515625</LongitudeDegrees>
            </Position>
            <AltitudeMeters>1537</AltitudeMeters>
            <DistanceMeters>1028.5067193416</DistanceMeters>
          </Trackpoint>
          <Trackpoint>
            <Time>2022-10-08T09:12:01.000Z</Time>
            <Position>
              <LatitudeDegrees>37.2496398724615573883056640625</LatitudeDegrees>
              <LongitudeDegrees>-3.54136490263044834136962890625</LongitudeDegrees>
            </Position>
            <AltitudeMeters>1537.199951171875</AltitudeMeters>
            <DistanceMeters>1035.307605427</DistanceMeters>
          </Trackpoint>
          <Trackpoint>
            <Time>2022-10-08T09:12:02.000Z</Time>
            <Position>
              <LatitudeDegrees>37.249647416174411773681640625</LatitudeDegrees>
              <LongitudeDegrees>-3.54137345217168331146240234375</LongitudeDegrees>
            </Position>
            <AltitudeMeters>1537.199951171875</AltitudeMeters>
            <DistanceMeters>1036.4399794178</DistanceMeters>
          </Trackpoint>
          <Trackpoint>
            <Time>2022-10-08T09:12:04.000Z</Time>
            <Position>
              <LatitudeDegrees>37.2496620006859302520751953125</LatitudeDegrees>
              <LongitudeDegrees>-3.5413968376815319061279296875</LongitudeDegrees>
            </Position>
            <AltitudeMeters>1537.4000244140625</AltitudeMeters>
            <DistanceMeters>1039.0700057591</DistanceMeters>
          </Trackpoint>
          <Trackpoint>
            <Time>2022-10-08T09:12:06.000Z</Time>
            <Position>
              <LatitudeDegrees>37.24967700429260730743408203125</LatitudeDegrees>
              <LongitudeDegrees>-3.54141645133495330810546875</LongitudeDegrees>
            </Position>
            <AltitudeMeters>1537.5999755859375</AltitudeMeters>
            <DistanceMeters>1041.4796404105</DistanceMeters>
          </Trackpoint>
          <Trackpoint>
            <Time>2022-10-08T09:12:07.000Z</Time>
            <Position>
              <LatitudeDegrees>37.24968387745320796966552734375</LatitudeDegrees>
              <LongitudeDegrees>-3.5414323769509792327880859375</LongitudeDegrees>
            </Position>
            <AltitudeMeters>1537.800048828125</AltitudeMeters>
            <DistanceMeters>1043.0838759875</DistanceMeters>
          </Trackpoint>
          <Trackpoint>
            <Time>2022-10-08T09:12:09.000Z</Time>
            <Position>
              <LatitudeDegrees>37.249698378145694732666015625</LatitudeDegrees>
              <LongitudeDegrees>-3.5414561815559864044189453125</LongitudeDegrees>
            </Position>
            <AltitudeMeters>1538</AltitudeMeters>
            <DistanceMeters>1045.7378276876</DistanceMeters>
          </Trackpoint>
          <Trackpoint>
            <Time>2022-10-08T09:12:17.000Z</Time>
            <Position>
              <LatitudeDegrees>37.2497468255460262298583984375</LatitudeDegrees>
              <LongitudeDegrees>-3.5415376536548137664794921875</LongitudeDegrees>
            </Position>
            <AltitudeMeters>1539</AltitudeMeters>
            <DistanceMeters>1054.7478436272</DistanceMeters>
          </Trackpoint>
          <Trackpoint>
            <Time>2022-10-08T09:12:19.000Z</Time>
            <Position>
              <LatitudeDegrees>37.24975545890629291534423828125</LatitudeDegrees>
              <LongitudeDegrees>-3.5415654815733432769775390625</LongitudeDegrees>
            </Position>
            <AltitudeMeters>1539</AltitudeMeters>
            <DistanceMeters>1057.3932753961</DistanceMeters>
          </Trackpoint>
          <Trackpoint>
            <Time>2022-10-08T09:12:25.000Z</Time>
            <Position>
              <LatitudeDegrees>37.2497997991740703582763671875</LatitudeDegrees>
              <LongitudeDegrees>-3.54167285375297069549560546875</LongitudeDegrees>
            </Position>
            <AltitudeMeters>1538.4000244140625</AltitudeMeters>
            <DistanceMeters>1068.1098285833</DistanceMeters>
          </Trackpoint>
          <Trackpoint>
            <Time>2022-10-08T09:12:27.000Z</Time>
            <Position>
              <LatitudeDegrees>37.2498088516294956207275390625</LatitudeDegrees>
              <LongitudeDegrees>-3.54171426035463809967041015625</LongitudeDegrees>
            </Position>
            <AltitudeMeters>1538.4000244140625</AltitudeMeters>
            <DistanceMeters>1071.913272084</DistanceMeters>
          </Trackpoint>
          <Trackpoint>
            <Time>2022-10-08T09:12:31.000Z</Time>
            <Position>
              <LatitudeDegrees>37.2498147189617156982421875</LatitudeDegrees>
              <LongitudeDegrees>-3.5418109036982059478759765625</LongitudeDegrees>
            </Position>
            <AltitudeMeters>1538.199951171875</AltitudeMeters>
            <DistanceMeters>1080.5009745892</DistanceMeters>
          </Trackpoint>
          <Trackpoint>
            <Time>2022-10-08T09:12:32.000Z</Time>
            <Position>
              <LatitudeDegrees>37.2498212568461894989013671875</LatitudeDegrees>
              <LongitudeDegrees>-3.541832864284515380859375</LongitudeDegrees>
            </Position>
            <AltitudeMeters>1537.800048828125</AltitudeMeters>
            <DistanceMeters>1082.5785637065</DistanceMeters>
          </Trackpoint>
          <Trackpoint>
            <Time>2022-10-08T09:12:36.000Z</Time>
            <Position>
              <LatitudeDegrees>37.249861657619476318359375</LatitudeDegrees>
              <LongitudeDegrees>-3.541919030249118804931640625</LongitudeDegrees>
            </Position>
            <AltitudeMeters>1537</AltitudeMeters>
            <DistanceMeters>1091.4384990633</DistanceMeters>
          </Trackpoint>
          <Trackpoint>
            <Time>2022-10-08T09:12:38.000Z</Time>
            <Position>
              <LatitudeDegrees>37.24988286383450031280517578125</LatitudeDegrees>
              <LongitudeDegrees>-3.54196362197399139404296875</LongitudeDegrees>
            </Position>
            <AltitudeMeters>1536.800048828125</AltitudeMeters>
            <DistanceMeters>1096.0411677824</DistanceMeters>
          </Trackpoint>
          <Trackpoint>
            <Time>2022-10-08T09:12:39.000Z</Time>
            <Position>
              <LatitudeDegrees>37.2498866356909275054931640625</LatitudeDegrees>
              <LongitudeDegrees>-3.541978038847446441650390625</LongitudeDegrees>
            </Position>
            <AltitudeMeters>1536.5999755859375</AltitudeMeters>
            <DistanceMeters>1097.3850484649</DistanceMeters>
          </Trackpoint>
          <Trackpoint>
            <Time>2022-10-08T09:12:41.000Z</Time>
            <Position>
              <LatitudeDegrees>37.24989426322281360626220703125</LatitudeDegrees>
              <LongitudeDegrees>-3.5420127399265766143798828125</LongitudeDegrees>
            </Position>
            <AltitudeMeters>1536.4000244140625</AltitudeMeters>
            <DistanceMeters>1100.5765882545</DistanceMeters>
          </Trackpoint>
          <Trackpoint>
            <Time>2022-10-08T09:12:45.000Z</Time>
            <Position>
              <LatitudeDegrees>37.24990951828658580780029296875</LatitudeDegrees>
              <LongitudeDegrees>-3.54208742268383502960205078125</LongitudeDegrees>
            </Position>
            <AltitudeMeters>1535.5999755859375</AltitudeMeters>
            <DistanceMeters>1107.4079450057</DistanceMeters>
          </Trackpoint>
          <Trackpoint>
            <Time>2022-10-08T09:12:46.000Z</Time>
            <Position>
              <LatitudeDegrees>37.2499147988855838775634765625</LatitudeDegrees>
              <LongitudeDegrees>-3.54209798388183116912841796875</LongitudeDegrees>
            </Position>
            <AltitudeMeters>1535.4000244140625</AltitudeMeters>
            <DistanceMeters>1108.5161374062</DistanceMeters>
          </Trackpoint>
          <Trackpoint>
            <Time>2022-10-08T09:12:48.000Z</Time>
            <Position>
              <LatitudeDegrees>37.249931730329990386962890625</LatitudeDegrees>
              <LongitudeDegrees>-3.5421082936227321624755859375</LongitudeDegrees>
            </Position>
            <AltitudeMeters>1535.199951171875</AltitudeMeters>
            <DistanceMeters>1110.6110400654</DistanceMeters>
          </Trackpoint>
          <Trackpoint>
            <Time>2022-10-08T09:12:51.000Z</Time>
            <Position>
              <LatitudeDegrees>37.2499543614685535430908203125</LatitudeDegrees>
              <LongitudeDegrees>-3.54213771410286426544189453125</LongitudeDegrees>
            </Position>
            <AltitudeMeters>1535.800048828125</AltitudeMeters>
            <DistanceMeters>1114.235782984</DistanceMeters>
          </Trackpoint>
          <Trackpoint>
            <Time>2022-10-08T09:12:53.000Z</Time>
            <Position>
              <LatitudeDegrees>37.2499500028789043426513671875</LatitudeDegrees>
              <LongitudeDegrees>-3.5421901009976863861083984375</LongitudeDegrees>
            </Position>
            <AltitudeMeters>1536</AltitudeMeters>
            <DistanceMeters>1118.9037134097</DistanceMeters>
          </Trackpoint>
          <Trackpoint>
            <Time>2022-10-08T09:12:54.000Z</Time>
            <Position>
              <LatitudeDegrees>37.24994949996471405029296875</LatitudeDegrees>
              <LongitudeDegrees>-3.54221398942172527313232421875</LongitudeDegrees>
            </Position>
            <AltitudeMeters>1536</AltitudeMeters>
            <DistanceMeters>1121.0200588249</DistanceMeters>
          </Trackpoint>
          <Trackpoint>
            <Time>2022-10-08T09:12:56.000Z</Time>
            <Position>
              <LatitudeDegrees>37.2499634139239788055419921875</LatitudeDegrees>
              <LongitudeDegrees>-3.54225539602339267730712890625</LongitudeDegrees>
            </Position>
            <AltitudeMeters>1535.5999755859375</AltitudeMeters>
            <DistanceMeters>1125.0021203809</DistanceMeters>
          </Trackpoint>
          <Trackpoint>
            <Time>2022-10-08T09:12:58.000Z</Time>
            <Position>
              <LatitudeDegrees>37.2499919123947620391845703125</LatitudeDegrees>
              <LongitudeDegrees>-3.54229831136763095855712890625</LongitudeDegrees>
            </Position>
            <AltitudeMeters>1535.4000244140625</AltitudeMeters>
            <DistanceMeters>1129.954462011</DistanceMeters>
          </Trackpoint>
          <Trackpoint>
            <Time>2022-10-08T09:13:05.000Z</Time>
            <Position>
              <LatitudeDegrees>37.25006760098040103912353515625</LatitudeDegrees>
              <LongitudeDegrees>-3.5424542985856533050537109375</LongitudeDegrees>
            </Position>
            <AltitudeMeters>1535.5999755859375</AltitudeMeters>
            <DistanceMeters>1146.1394392295</DistanceMeters>
          </Trackpoint>
          <Trackpoint>
            <Time>2022-10-08T09:13:07.000Z</Time>
            <Position>
              <LatitudeDegrees>37.25009023211896419525146484375</LatitudeDegrees>
              <LongitudeDegrees>-3.54248908348381519317626953125</LongitudeDegrees>
            </Position>
            <AltitudeMeters>1535.800048828125</AltitudeMeters>
            <DistanceMeters>1150.1192324506</DistanceMeters>
          </Trackpoint>
          <Trackpoint>
            <Time>2022-10-08T09:13:11.000Z</Time>
            <Position>
              <LatitudeDegrees>37.25010615773499011993408203125</LatitudeDegrees>
              <LongitudeDegrees>-3.54258279316127300262451171875</LongitudeDegrees>
            </Position>
            <AltitudeMeters>1536.4000244140625</AltitudeMeters>
            <DistanceMeters>1158.6080492128</DistanceMeters>
          </Trackpoint>
          <Trackpoint>
            <Time>2022-10-08T09:13:14.000Z</Time>
            <Position>
              <LatitudeDegrees>37.2501444630324840545654296875</LatitudeDegrees>
              <LongitudeDegrees>-3.5426122136414051055908203125</LongitudeDegrees>
            </Position>
            <AltitudeMeters>1536.199951171875</AltitudeMeters>
            <DistanceMeters>1163.6039606703</DistanceMeters>
          </Trackpoint>
          <Trackpoint>
            <Time>2022-10-08T09:13:16.000Z</Time>
            <Position>
              <LatitudeDegrees>37.25017388351261615753173828125</LatitudeDegrees>
              <LongitudeDegrees>-3.54263677261769771575927734375</LongitudeDegrees>
            </Position>
            <AltitudeMeters>1536</AltitudeMeters>
            <DistanceMeters>1167.5358165772</DistanceMeters>
          </Trackpoint>
          <Trackpoint>
            <Time>2022-10-08T09:13:20.000Z</Time>
            <Position>
              <LatitudeDegrees>37.25021772086620330810546875</LatitudeDegrees>
              <LongitudeDegrees>-3.54269695468246936798095703125</LongitudeDegrees>
            </Position>
            <AltitudeMeters>1534.5999755859375</AltitudeMeters>
            <DistanceMeters>1174.7628465447</DistanceMeters>
          </Trackpoint>
          <Trackpoint>
            <Time>2022-10-08T09:13:21.000Z</Time>
            <Position>
              <LatitudeDegrees>37.25023205392062664031982421875</LatitudeDegrees>
              <LongitudeDegrees>-3.54271329939365386962890625</LongitudeDegrees>
            </Position>
            <AltitudeMeters>1534.4000244140625</AltitudeMeters>
            <DistanceMeters>1176.9130556367</DistanceMeters>
          </Trackpoint>
          <Trackpoint>
            <Time>2022-10-08T09:13:22.000Z</Time>
            <Position>
              <LatitudeDegrees>37.2502457164227962493896484375</LatitudeDegrees>
              <LongitudeDegrees>-3.5427275486290454864501953125</LongitudeDegrees>
            </Position>
            <AltitudeMeters>1534</AltitudeMeters>
            <DistanceMeters>1178.8904334712</DistanceMeters>
          </Trackpoint>
          <Trackpoint>
            <Time>2022-10-08T09:13:24.000Z</Time>
            <Position>
              <LatitudeDegrees>37.250267677009105682373046875</LatitudeDegrees>
              <LongitudeDegrees>-3.542755208909511566162109375</LongitudeDegrees>
            </Position>
            <AltitudeMeters>1533.199951171875</AltitudeMeters>
            <DistanceMeters>1182.3507631324</DistanceMeters>
          </Trackpoint>
          <Trackpoint>
            <Time>2022-10-08T09:13:27.000Z</Time>
            <Position>
              <LatitudeDegrees>37.25030363537371158599853515625</LatitudeDegrees>
              <LongitudeDegrees>-3.542788736522197723388671875</LongitudeDegrees>
            </Position>
            <AltitudeMeters>1532.4000244140625</AltitudeMeters>
            <DistanceMeters>1187.3349120364</DistanceMeters>
          </Trackpoint>
          <Trackpoint>
            <Time>2022-10-08T09:13:28.000Z</Time>
            <Position>
              <LatitudeDegrees>37.25032056681811809539794921875</LatitudeDegrees>
              <LongitudeDegrees>-3.5427915863692760467529296875</LongitudeDegrees>
            </Position>
            <AltitudeMeters>1532</AltitudeMeters>
            <DistanceMeters>1189.2354463238</DistanceMeters>
          </Trackpoint>
          <Trackpoint>
            <Time>2022-10-08T09:13:32.000Z</Time>
            <Position>
              <LatitudeDegrees>37.25040321238338947296142578125</LatitudeDegrees>
              <LongitudeDegrees>-3.542816899716854095458984375</LongitudeDegrees>
            </Position>
            <AltitudeMeters>1530.800048828125</AltitudeMeters>
            <DistanceMeters>1198.7038463437</DistanceMeters>
          </Trackpoint>
          <Trackpoint>
            <Time>2022-10-08T09:13:36.000Z</Time>
            <Position>
              <LatitudeDegrees>37.250505387783050537109375</LatitudeDegrees>
              <LongitudeDegrees>-3.54284347034990787506103515625</LongitudeDegrees>
            </Position>
            <AltitudeMeters>1530</AltitudeMeters>
            <DistanceMeters>1210.3173394343</DistanceMeters>
          </Trackpoint>
          <Trackpoint>
            <Time>2022-10-08T09:13:37.000Z</Time>
            <Position>
              <LatitudeDegrees>37.2505313716828823089599609375</LatitudeDegrees>
              <LongitudeDegrees>-3.54285084642469882965087890625</LongitudeDegrees>
            </Position>
            <AltitudeMeters>1529.5999755859375</AltitudeMeters>
            <DistanceMeters>1213.2830256039</DistanceMeters>
          </Trackpoint>
          <Trackpoint>
            <Time>2022-10-08T09:13:41.000Z</Time>
            <Position>
              <LatitudeDegrees>37.25061695091426372528076171875</LatitudeDegrees>
              <LongitudeDegrees>-3.54291220195591449737548828125</LongitudeDegrees>
            </Position>
            <AltitudeMeters>1528.5999755859375</AltitudeMeters>
            <DistanceMeters>1224.2494542879</DistanceMeters>
          </Trackpoint>
          <Trackpoint>
            <Time>2022-10-08T09:13:42.000Z</Time>
            <Position>
              <LatitudeDegrees>37.25063614547252655029296875</LatitudeDegrees>
              <LongitudeDegrees>-3.54293298907577991485595703125</LongitudeDegrees>
            </Position>
            <AltitudeMeters>1528.199951171875</AltitudeMeters>
            <DistanceMeters>1227.0700034094</DistanceMeters>
          </Trackpoint>
          <Trackpoint>
            <Time>2022-10-08T09:13:45.000Z</Time>
            <Position>
              <LatitudeDegrees>37.250682748854160308837890625</LatitudeDegrees>
              <LongitudeDegrees>-3.54298914782702922821044921875</LongitudeDegrees>
            </Position>
            <AltitudeMeters>1527.4000244140625</AltitudeMeters>
            <DistanceMeters>1234.2581949353</DistanceMeters>
          </Trackpoint>
          <Trackpoint>
            <Time>2022-10-08T09:13:49.000Z</Time>
            <Position>
              <LatitudeDegrees>37.2507258318364620208740234375</LatitudeDegrees>
              <LongitudeDegrees>-3.54304396547377109527587890625</LongitudeDegrees>
            </Position>
            <AltitudeMeters>1526.5999755859375</AltitudeMeters>
            <DistanceMeters>1241.0829392014</DistanceMeters>
          </Trackpoint>
          <Trackpoint>
            <Time>2022-10-08T09:13:50.000Z</Time>
            <Position>
              <LatitudeDegrees>37.25072910077869892120361328125</LatitudeDegrees>
              <LongitudeDegrees>-3.54305796325206756591796875</LongitudeDegrees>
            </Position>
            <AltitudeMeters>1526.199951171875</AltitudeMeters>
            <DistanceMeters>1242.3719442696</DistanceMeters>
          </Trackpoint>
          <Trackpoint>
            <Time>2022-10-08T09:13:54.000Z</Time>
            <Position>
              <LatitudeDegrees>37.250784002244472503662109375</LatitudeDegrees>
              <LongitudeDegrees>-3.54310766793787479400634765625</LongitudeDegrees>
            </Position>
            <AltitudeMeters>1524.800048828125</AltitudeMeters>
            <DistanceMeters>1249.9036731694</DistanceMeters>
          </Trackpoint>
          <Trackpoint>
            <Time>2022-10-08T09:13:56.000Z</Time>
            <Position>
              <LatitudeDegrees>37.25081308744847774505615234375</LatitudeDegrees>
              <LongitudeDegrees>-3.5431513376533985137939453125</LongitudeDegrees>
            </Position>
            <AltitudeMeters>1524.199951171875</AltitudeMeters>
            <DistanceMeters>1254.9499406585</DistanceMeters>
          </Trackpoint>
          <Trackpoint>
            <Time>2022-10-08T09:13:58.000Z</Time>
            <Position>
              <LatitudeDegrees>37.250843346118927001953125</LatitudeDegrees>
              <LongitudeDegrees>-3.543162904679775238037109375</LongitudeDegrees>
            </Position>
            <AltitudeMeters>1524</AltitudeMeters>
            <DistanceMeters>1258.4723439623</DistanceMeters>
          </Trackpoint>
          <Trackpoint>
            <Time>2022-10-08T09:14:01.000Z</Time>
            <Position>
              <LatitudeDegrees>37.2508924640715122222900390625</LatitudeDegrees>
              <LongitudeDegrees>-3.54317807592451572418212890625</LongitudeDegrees>
            </Position>
            <AltitudeMeters>1524</AltitudeMeters>
            <DistanceMeters>1264.1022256944</DistanceMeters>
          </Trackpoint>
          <Trackpoint>
            <Time>2022-10-08T09:14:03.000Z</Time>
            <Position>
              <LatitudeDegrees>37.2509239800274372100830078125</LatitudeDegrees>
              <LongitudeDegrees>-3.5431967675685882568359375</LongitudeDegrees>
            </Position>
            <AltitudeMeters>1524</AltitudeMeters>
            <DistanceMeters>1267.980899096</DistanceMeters>
          </Trackpoint>
          <Trackpoint>
            <Time>2022-10-08T09:14:04.000Z</Time>
            <Position>
              <LatitudeDegrees>37.2509451024234294891357421875</LatitudeDegrees>
              <LongitudeDegrees>-3.54319819249212741851806640625</LongitudeDegrees>
            </Position>
            <AltitudeMeters>1524.199951171875</AltitudeMeters>
            <DistanceMeters>1270.3336500093</DistanceMeters>
          </Trackpoint>
          <Trackpoint>
            <Time>2022-10-08T09:14:09.000Z</Time>
            <Position>
              <LatitudeDegrees>37.2510346211493015289306640625</LatitudeDegrees>
              <LongitudeDegrees>-3.54324731044471263885498046875</LongitudeDegrees>
            </Position>
            <AltitudeMeters>1524</AltitudeMeters>
            <DistanceMeters>1281.20580254</DistanceMeters>
          </Trackpoint>
          <Trackpoint>
            <Time>2022-10-08T09:14:10.000Z</Time>
            <Position>
              <LatitudeDegrees>37.25104593671858310699462890625</LatitudeDegrees>
              <LongitudeDegrees>-3.54326323606073856353759765625</LongitudeDegrees>
            </Position>
            <AltitudeMeters>1524</AltitudeMeters>
            <DistanceMeters>1283.0944211345</DistanceMeters>
          </Trackpoint>
          <Trackpoint>
            <Time>2022-10-08T09:14:11.000Z</Time>
            <Position>
              <LatitudeDegrees>37.25105783902108669281005859375</LatitudeDegrees>
              <LongitudeDegrees>-3.543281257152557373046875</LongitudeDegrees>
            </Position>
            <AltitudeMeters>1523.800048828125</AltitudeMeters>
            <DistanceMeters>1285.1698359036</DistanceMeters>
          </Trackpoint>
          <Trackpoint>
            <Time>2022-10-08T09:14:14.000Z</Time>
            <Position>
              <LatitudeDegrees>37.25110997445881366729736328125</LatitudeDegrees>
              <LongitudeDegrees>-3.5433206520974636077880859375</LongitudeDegrees>
            </Position>
            <AltitudeMeters>1522.5999755859375</AltitudeMeters>
            <DistanceMeters>1291.9414478374</DistanceMeters>
          </Trackpoint>
          <Trackpoint>
            <Time>2022-10-08T09:14:16.000Z</Time>
            <Position>
              <LatitudeDegrees>37.2511328570544719696044921875</LatitudeDegrees>
              <LongitudeDegrees>-3.54332895018160343170166015625</LongitudeDegrees>
            </Position>
            <AltitudeMeters>1522.199951171875</AltitudeMeters>
            <DistanceMeters>1294.5919948514</DistanceMeters>
          </Trackpoint>
          <Trackpoint>
            <Time>2022-10-08T09:14:17.000Z</Time>
            <Position>
              <LatitudeDegrees>37.25114333443343639373779296875</LatitudeDegrees>
              <LongitudeDegrees>-3.5433323867619037628173828125</LongitudeDegrees>
            </Position>
            <AltitudeMeters>1522</AltitudeMeters>
            <DistanceMeters>1295.7939982753</DistanceMeters>
          </Trackpoint>
          <Trackpoint>
            <Time>2022-10-08T09:14:19.000Z</Time>
            <Position>
              <LatitudeDegrees>37.25116848014295101165771484375</LatitudeDegrees>
              <LongitudeDegrees>-3.543332554399967193603515625</LongitudeDegrees>
            </Position>
            <AltitudeMeters>1521.800048828125</AltitudeMeters>
            <DistanceMeters>1298.5936601037</DistanceMeters>
          </Trackpoint>
          <Trackpoint>
            <Time>2022-10-08T09:14:22.000Z</Time>
            <Position>
              <LatitudeDegrees>37.25121223367750644683837890625</LatitudeDegrees>
              <LongitudeDegrees>-3.543324507772922515869140625</LongitudeDegrees>
            </Position>
            <AltitudeMeters>1521.800048828125</AltitudeMeters>
            <DistanceMeters>1303.5149063912</DistanceMeters>
          </Trackpoint>
          <Trackpoint>
            <Time>2022-10-08T09:14:23.000Z</Time>
            <Position>
              <LatitudeDegrees>37.2512206993997097015380859375</LatitudeDegrees>
              <LongitudeDegrees>-3.5433340631425380706787109375</LongitudeDegrees>
            </Position>
            <AltitudeMeters>1522</AltitudeMeters>
            <DistanceMeters>1304.7791545989</DistanceMeters>
          </Trackpoint>
          <Trackpoint>
            <Time>2022-10-08T09:14:24.000Z</Time>
            <Position>
              <LatitudeDegrees>37.25122581236064434051513671875</LatitudeDegrees>
              <LongitudeDegrees>-3.543345965445041656494140625</LongitudeDegrees>
            </Position>
            <AltitudeMeters>1522.199951171875</AltitudeMeters>
            <DistanceMeters>1305.9811580228</DistanceMeters>
          </Trackpoint>
          <Trackpoint>
            <Time>2022-10-08T09:14:26.000Z</Time>
            <Position>
              <LatitudeDegrees>37.2512389719486236572265625</LatitudeDegrees>
              <LongitudeDegrees>-3.54336633346974849700927734375</LongitudeDegrees>
            </Position>
            <AltitudeMeters>1522.199951171875</AltitudeMeters>
            <DistanceMeters>1308.3068871106</DistanceMeters>
          </Trackpoint>
          <Trackpoint>
            <Time>2022-10-08T09:14:27.000Z</Time>
            <Position>
              <LatitudeDegrees>37.25124676711857318878173828125</LatitudeDegrees>
              <LongitudeDegrees>-3.54337337426841259002685546875</LongitudeDegrees>
            </Position>
            <AltitudeMeters>1522</AltitudeMeters>
            <DistanceMeters>1309.3735593339</DistanceMeters>
          </Trackpoint>
          <Trackpoint>
            <Time>2022-10-08T09:14:30.000Z</Time>
            <Position>
              <LatitudeDegrees>37.2512766905128955841064453125</LatitudeDegrees>
              <LongitudeDegrees>-3.5433934070169925689697265625</LongitudeDegrees>
            </Position>
            <AltitudeMeters>1521.5999755859375</AltitudeMeters>
            <DistanceMeters>1313.1484051093</DistanceMeters>
          </Trackpoint>
          <Trackpoint>
            <Time>2022-10-08T09:14:32.000Z</Time>
            <Position>
              <LatitudeDegrees>37.251300327479839324951171875</LatitudeDegrees>
              <LongitudeDegrees>-3.5434128530323505401611328125</LongitudeDegrees>
            </Position>
            <AltitudeMeters>1520.800048828125</AltitudeMeters>
            <DistanceMeters>1316.2929136093</DistanceMeters>
          </Trackpoint>
          <Trackpoint>
            <Time>2022-10-08T09:14:33.000Z</Time>
            <Position>
              <LatitudeDegrees>37.2513135708868503570556640625</LatitudeDegrees>
              <LongitudeDegrees>-3.543420396745204925537109375</LongitudeDegrees>
            </Position>
            <AltitudeMeters>1520.5999755859375</AltitudeMeters>
            <DistanceMeters>1317.9111602434</DistanceMeters>
          </Trackpoint>
          <Trackpoint>
            <Time>2022-10-08T09:14:36.000Z</Time>
            <Position>
              <LatitudeDegrees>37.25134248845279216766357421875</LatitudeDegrees>
              <LongitudeDegrees>-3.54345082305371761322021484375</LongitudeDegrees>
            </Position>
            <AltitudeMeters>1519.800048828125</AltitudeMeters>
            <DistanceMeters>1322.1106529859</DistanceMeters>
          </Trackpoint>
          <Trackpoint>
            <Time>2022-10-08T09:14:38.000Z</Time>
            <Position>
              <LatitudeDegrees>37.25135388784110546112060546875</LatitudeDegrees>
              <LongitudeDegrees>-3.54348309338092803955078125</LongitudeDegrees>
            </Position>
            <AltitudeMeters>1519.5999755859375</AltitudeMeters>
            <DistanceMeters>1325.2393272843</DistanceMeters>
          </Trackpoint>
          <Trackpoint>
            <Time>2022-10-08T09:14:39.000Z</Time>
            <Position>
              <LatitudeDegrees>37.2513645328581333160400390625</LatitudeDegrees>
              <LongitudeDegrees>-3.543497510254383087158203125</LongitudeDegrees>
            </Position>
            <AltitudeMeters>1519.4000244140625</AltitudeMeters>
            <DistanceMeters>1326.9863721716</DistanceMeters>
          </Trackpoint>
          <Trackpoint>
            <Time>2022-10-08T09:14:43.000Z</Time>
            <Position>
              <LatitudeDegrees>37.2513920255005359649658203125</LatitudeDegrees>
              <LongitudeDegrees>-3.5435597039759159088134765625</LongitudeDegrees>
            </Position>
            <AltitudeMeters>1518.199951171875</AltitudeMeters>
            <DistanceMeters>1333.2890149725</DistanceMeters>
          </Trackpoint>
          <Trackpoint>
            <Time>2022-10-08T09:14:44.000Z</Time>
            <Position>
              <LatitudeDegrees>37.2513997368514537811279296875</LatitudeDegrees>
              <LongitudeDegrees>-3.54357504285871982574462890625</LongitudeDegrees>
            </Position>
            <AltitudeMeters>1517.800048828125</AltitudeMeters>
            <DistanceMeters>1334.8988696056</DistanceMeters>
          </Trackpoint>
          <Trackpoint>
            <Time>2022-10-08T09:14:45.000Z</Time>
            <Position>
              <LatitudeDegrees>37.2514133155345916748046875</LatitudeDegrees>
              <LongitudeDegrees>-3.54358593933284282684326171875</LongitudeDegrees>
            </Position>
            <AltitudeMeters>1517.5999755859375</AltitudeMeters>
            <DistanceMeters>1336.6918300664</DistanceMeters>
          </Trackpoint>
          <Trackpoint>
            <Time>2022-10-08T09:14:46.000Z</Time>
            <Position>
              <LatitudeDegrees>37.2514213621616363525390625</LatitudeDegrees>
              <LongitudeDegrees>-3.543599434196949005126953125</LongitudeDegrees>
            </Position>
            <AltitudeMeters>1517.199951171875</AltitudeMeters>
            <DistanceMeters>1338.1822658433</DistanceMeters>
          </Trackpoint>
          <Trackpoint>
            <Time>2022-10-08T09:14:50.000Z</Time>
            <Position>
              <LatitudeDegrees>37.251459918916225433349609375</LatitudeDegrees>
              <LongitudeDegrees>-3.54365182109177112579345703125</LongitudeDegrees>
            </Position>
            <AltitudeMeters>1515.5999755859375</AltitudeMeters>
            <DistanceMeters>1344.5027925768</DistanceMeters>
          </Trackpoint>
          <Trackpoint>
            <Time>2022-10-08T09:14:51.000Z</Time>
            <Position>
              <LatitudeDegrees>37.25147567689418792724609375</LatitudeDegrees>
              <LongitudeDegrees>-3.54365986771881580352783203125</LongitudeDegrees>
            </Position>
            <AltitudeMeters>1515</AltitudeMeters>
            <DistanceMeters>1346.3961864471</DistanceMeters>
          </Trackpoint>
          <Trackpoint>
            <Time>2022-10-08T09:14:52.000Z</Time>
            <Position>
              <LatitudeDegrees>37.25148833356797695159912109375</LatitudeDegrees>
              <LongitudeDegrees>-3.54367026127874851226806640625</LongitudeDegrees>
            </Position>
            <AltitudeMeters>1514.4000244140625</AltitudeMeters>
            <DistanceMeters>1348.0800641159</DistanceMeters>
          </Trackpoint>
          <Trackpoint>
            <Time>2022-10-08T09:14:53.000Z</Time>
            <Position>
              <LatitudeDegrees>37.25150308571755886077880859375</LatitudeDegrees>
              <LongitudeDegrees>-3.5436804033815860748291015625</LongitudeDegrees>
            </Position>
            <AltitudeMeters>1514.199951171875</AltitudeMeters>
            <DistanceMeters>1349.9518733103</DistanceMeters>
          </Trackpoint>
          <Trackpoint>
            <Time>2022-10-08T09:14:56.000Z</Time>
            <Position>
              <LatitudeDegrees>37.25154415704309940338134765625</LatitudeDegrees>
              <LongitudeDegrees>-3.5437203012406826019287109375</LongitudeDegrees>
            </Position>
            <AltitudeMeters>1513.4000244140625</AltitudeMeters>
            <DistanceMeters>1355.730560245</DistanceMeters>
          </Trackpoint>
          <Trackpoint>
            <Time>2022-10-08T09:14:57.000Z</Time>
            <Position>
              <LatitudeDegrees>37.25155614316463470458984375</LatitudeDegrees>
              <LongitudeDegrees>-3.54373463429510593414306640625</LongitudeDegrees>
            </Position>
            <AltitudeMeters>1513.199951171875</AltitudeMeters>
            <DistanceMeters>1357.5731966017</DistanceMeters>
          </Trackpoint>
          <Trackpoint>
            <Time>2022-10-08T09:14:59.000Z</Time>
            <Position>
              <LatitudeDegrees>37.25158028304576873779296875</LatitudeDegrees>
              <LongitudeDegrees>-3.543764054775238037109375</LongitudeDegrees>
            </Position>
            <AltitudeMeters>1512.800048828125</AltitudeMeters>
            <DistanceMeters>1361.3168149905</DistanceMeters>
          </Trackpoint>
          <Trackpoint>
            <Time>2022-10-08T09:15:00.000Z</Time>
            <Position>
              <LatitudeDegrees>37.251594364643096923828125</LatitudeDegrees>
              <LongitudeDegrees>-3.54377469979226589202880859375</LongitudeDegrees>
            </Position>
            <AltitudeMeters>1512.4000244140625</AltitudeMeters>
            <DistanceMeters>1363.1446903375</DistanceMeters>
          </Trackpoint>
          <Trackpoint>
            <Time>2022-10-08T09:15:02.000Z</Time>
            <Position>
              <LatitudeDegrees>37.25160785950720310211181640625</LatitudeDegrees>
              <LongitudeDegrees>-3.5437954030930995941162109375</LongitudeDegrees>
            </Position>
            <AltitudeMeters>1511.800048828125</AltitudeMeters>
            <DistanceMeters>1365.5146497355</DistanceMeters>
          </Trackpoint>
          <Trackpoint>
            <Time>2022-10-08T09:15:03.000Z</Time>
            <Position>
              <LatitudeDegrees>37.251606769859790802001953125</LatitudeDegrees>
              <LongitudeDegrees>-3.54380303062498569488525390625</LongitudeDegrees>
            </Position>
            <AltitudeMeters>1511.5999755859375</AltitudeMeters>
            <DistanceMeters>1366.1998971179</DistanceMeters>
          </Trackpoint>
          <Trackpoint>
            <Time>2022-10-08T09:15:04.000Z</Time>
            <Position>
              <LatitudeDegrees>37.251604087650775909423828125</LatitudeDegrees>
              <LongitudeDegrees>-3.54380588047206401824951171875</LongitudeDegrees>
            </Position>
            <AltitudeMeters>1511.4000244140625</AltitudeMeters>
            <DistanceMeters>1366.5800039754</DistanceMeters>
          </Trackpoint>
          <Trackpoint>
            <Time>2022-10-08T09:15:06.000Z</Time>
            <Position>
              <LatitudeDegrees>37.25160148926079273223876953125</LatitudeDegrees>
              <LongitudeDegrees>-3.5438109934329986572265625</LongitudeDegrees>
            </Position>
            <AltitudeMeters>1511</AltitudeMeters>
            <DistanceMeters>1367.1175562484</DistanceMeters>
          </Trackpoint>
          <Trackpoint>
            <Time>2022-10-08T09:15:36.000Z</Time>
            <Position>
              <LatitudeDegrees>37.251680530607700347900390625</LatitudeDegrees>
              <LongitudeDegrees>-3.54380889795720577239990234375</LongitudeDegrees>
            </Position>
            <AltitudeMeters>1511</AltitudeMeters>
            <DistanceMeters>1375.916640032</DistanceMeters>
          </Trackpoint>
          <Trackpoint>
            <Time>2022-10-08T09:15:37.000Z</Time>
            <Position>
              <LatitudeDegrees>37.25170341320335865020751953125</LatitudeDegrees>
              <LongitudeDegrees>-3.54379917494952678680419921875</LongitudeDegrees>
            </Position>
            <AltitudeMeters>1511.4000244140625</AltitudeMeters>
            <DistanceMeters>1378.604401397</DistanceMeters>
          </Trackpoint>
          <Trackpoint>
            <Time>2022-10-08T09:15:41.000Z</Time>
            <Position>
              <LatitudeDegrees>37.25178438238799571990966796875</LatitudeDegrees>
              <LongitudeDegrees>-3.54381375946104526519775390625</LongitudeDegrees>
            </Position>
            <AltitudeMeters>1512.800048828125</AltitudeMeters>
            <DistanceMeters>1387.7091310336</DistanceMeters>
          </Trackpoint>
          <Trackpoint>
            <Time>2022-10-08T09:15:46.000Z</Time>
            <Position>
              <LatitudeDegrees>37.2518406249582767486572265625</LatitudeDegrees>
              <LongitudeDegrees>-3.54382700286805629730224609375</LongitudeDegrees>
            </Position>
            <AltitudeMeters>1513.800048828125</AltitudeMeters>
            <DistanceMeters>1394.0780480048</DistanceMeters>
          </Trackpoint>
          <Trackpoint>
            <Time>2022-10-08T09:15:50.000Z</Time>
            <Position>
              <LatitudeDegrees>37.251870632171630859375</LatitudeDegrees>
              <LongitudeDegrees>-3.54383404366672039031982421875</LongitudeDegrees>
            </Position>
            <AltitudeMeters>1515</AltitudeMeters>
            <DistanceMeters>1397.4751699772</DistanceMeters>
          </Trackpoint>
          <Trackpoint>
            <Time>2022-10-08T09:15:51.000Z</Time>
            <Position>
              <LatitudeDegrees>37.2518838755786418914794921875</LatitudeDegrees>
              <LongitudeDegrees>-3.54383605532348155975341796875</LongitudeDegrees>
            </Position>
            <AltitudeMeters>1515</AltitudeMeters>
            <DistanceMeters>1398.9625733283</DistanceMeters>
          </Trackpoint>
          <Trackpoint>
            <Time>2022-10-08T09:15:52.000Z</Time>
            <Position>
              <LatitudeDegrees>37.251899130642414093017578125</LatitudeDegrees>
              <LongitudeDegrees>-3.54384359903633594512939453125</LongitudeDegrees>
            </Position>
            <AltitudeMeters>1515.4000244140625</AltitudeMeters>
            <DistanceMeters>1400.7855017776</DistanceMeters>
          </Trackpoint>
          <Trackpoint>
            <Time>2022-10-08T09:15:55.000Z</Time>
            <Position>
              <LatitudeDegrees>37.25192704237997531890869140625</LatitudeDegrees>
              <LongitudeDegrees>-3.54385684244334697723388671875</LongitudeDegrees>
            </Position>
            <AltitudeMeters>1516.199951171875</AltitudeMeters>
            <DistanceMeters>1404.1073617106</DistanceMeters>
          </Trackpoint>
          <Trackpoint>
            <Time>2022-10-08T09:15:57.000Z</Time>
            <Position>
              <LatitudeDegrees>37.25194011814892292022705078125</LatitudeDegrees>
              <LongitudeDegrees>-3.543883077800273895263671875</LongitudeDegrees>
            </Position>
            <AltitudeMeters>1517</AltitudeMeters>
            <DistanceMeters>1406.8483512402</DistanceMeters>
          </Trackpoint>
          <Trackpoint>
            <Time>2022-10-08T09:15:58.000Z</Time>
            <Position>
              <LatitudeDegrees>37.25194565020501613616943359375</LatitudeDegrees>
              <LongitudeDegrees>-3.5438954830169677734375</LongitudeDegrees>
            </Position>
            <AltitudeMeters>1517.199951171875</AltitudeMeters>
            <DistanceMeters>1408.1090230667</DistanceMeters>
          </Trackpoint>
          <Trackpoint>
            <Time>2022-10-08T09:15:59.000Z</Time>
            <Position>
              <LatitudeDegrees>37.2519529424607753753662109375</LatitudeDegrees>
              <LongitudeDegrees>-3.54390822350978851318359375</LongitudeDegrees>
            </Position>
            <AltitudeMeters>1517.4000244140625</AltitudeMeters>
            <DistanceMeters>1409.4991440539</DistanceMeters>
          </Trackpoint>
          <Trackpoint>
            <Time>2022-10-08T09:16:03.000Z</Time>
            <Position>
              <LatitudeDegrees>37.25198806263506412506103515625</LatitudeDegrees>
              <LongitudeDegrees>-3.54394753463566303253173828125</LongitudeDegrees>
            </Position>
            <AltitudeMeters>1518.5999755859375</AltitudeMeters>
            <DistanceMeters>1414.7351073925</DistanceMeters>
          </Trackpoint>
          <Trackpoint>
            <Time>2022-10-08T09:16:05.000Z</Time>
            <Position>
              <LatitudeDegrees>37.25200273096561431884765625</LatitudeDegrees>
              <LongitudeDegrees>-3.5439610294997692108154296875</LongitudeDegrees>
            </Position>
            <AltitudeMeters>1519.199951171875</AltitudeMeters>
            <DistanceMeters>1416.7598677995</DistanceMeters>
          </Trackpoint>
          <Trackpoint>
            <Time>2022-10-08T09:16:06.000Z</Time>
            <Position>
              <LatitudeDegrees>37.25200985558331012725830078125</LatitudeDegrees>
              <LongitudeDegrees>-3.54396329261362552642822265625</LongitudeDegrees>
            </Position>
            <AltitudeMeters>1519.4000244140625</AltitudeMeters>
            <DistanceMeters>1417.5773185056</DistanceMeters>
          </Trackpoint>
          <Trackpoint>
            <Time>2022-10-08T09:16:08.000Z</Time>
            <Position>
              <LatitudeDegrees>37.2520246915519237518310546875</LatitudeDegrees>
              <LongitudeDegrees>-3.54397687129676342010498046875</LongitudeDegrees>
            </Position>
            <AltitudeMeters>1519.800048828125</AltitudeMeters>
            <DistanceMeters>1419.6198403089</DistanceMeters>
          </Trackpoint>
          <Trackpoint>
            <Time>2022-10-08T09:16:11.000Z</Time>
            <Position>
              <LatitudeDegrees>37.252040617167949676513671875</LatitudeDegrees>
              <LongitudeDegrees>-3.54400151409208774566650390625</LongitudeDegrees>
            </Position>
            <AltitudeMeters>1520.800048828125</AltitudeMeters>
            <DistanceMeters>1422.4323742136</DistanceMeters>
          </Trackpoint>
          <Trackpoint>
            <Time>2022-10-08T09:16:13.000Z</Time>
            <Position>
              <LatitudeDegrees>37.252045311033725738525390625</LatitudeDegrees>
              <LongitudeDegrees>-3.5440223850309848785400390625</LongitudeDegrees>
            </Position>
            <AltitudeMeters>1521.800048828125</AltitudeMeters>
            <DistanceMeters>1424.3565185278</DistanceMeters>
          </Trackpoint>
          <Trackpoint>
            <Time>2022-10-08T09:16:14.000Z</Time>
            <Position>
              <LatitudeDegrees>37.25206098519265651702880859375</LatitudeDegrees>
              <LongitudeDegrees>-3.5440254025161266326904296875</LongitudeDegrees>
            </Position>
            <AltitudeMeters>1522</AltitudeMeters>
            <DistanceMeters>1426.1215614092</DistanceMeters>
          </Trackpoint>
          <Trackpoint>
            <Time>2022-10-08T09:16:18.000Z</Time>
            <Position>
              <LatitudeDegrees>37.252085208892822265625</LatitudeDegrees>
              <LongitudeDegrees>-3.54405096732079982757568359375</LongitudeDegrees>
            </Position>
            <AltitudeMeters>1522.800048828125</AltitudeMeters>
            <DistanceMeters>1429.6426826734</DistanceMeters>
          </Trackpoint>
          <Trackpoint>
            <Time>2022-10-08T09:16:21.000Z</Time>
            <Position>
              <LatitudeDegrees>37.25209803320467472076416015625</LatitudeDegrees>
              <LongitudeDegrees>-3.544075526297092437744140625</LongitudeDegrees>
            </Position>
            <AltitudeMeters>1523.5999755859375</AltitudeMeters>
            <DistanceMeters>1432.2433609035</DistanceMeters>
          </Trackpoint>
          <Trackpoint>
            <Time>2022-10-08T09:16:23.000Z</Time>
            <Position>
              <LatitudeDegrees>37.2521001286804676055908203125</LatitudeDegrees>
              <LongitudeDegrees>-3.544086925685405731201171875</LongitudeDegrees>
            </Position>
            <AltitudeMeters>1524</AltitudeMeters>
            <DistanceMeters>1433.2756152426</DistanceMeters>
          </Trackpoint>
          <Trackpoint>
            <Time>2022-10-08T09:16:29.000Z</Time>
            <Position>
              <LatitudeDegrees>37.25212452001869678497314453125</LatitudeDegrees>
              <LongitudeDegrees>-3.54411207139492034912109375</LongitudeDegrees>
            </Position>
            <AltitudeMeters>1525</AltitudeMeters>
            <DistanceMeters>1436.7864633375</DistanceMeters>
          </Trackpoint>
          <Trackpoint>
            <Time>2022-10-08T09:16:30.000Z</Time>
            <Position>
              <LatitudeDegrees>37.25212921388447284698486328125</LatitudeDegrees>
              <LongitudeDegrees>-3.5441162623465061187744140625</LongitudeDegrees>
            </Position>
            <AltitudeMeters>1525.4000244140625</AltitudeMeters>
            <DistanceMeters>1437.4309658716</DistanceMeters>
          </Trackpoint>
          <Trackpoint>
            <Time>2022-10-08T09:16:35.000Z</Time>
            <Position>
              <LatitudeDegrees>37.25215285085141658782958984375</LatitudeDegrees>
              <LongitudeDegrees>-3.54414970614016056060791015625</LongitudeDegrees>
            </Position>
            <AltitudeMeters>1526.4000244140625</AltitudeMeters>
            <DistanceMeters>1441.392565657</DistanceMeters>
          </Trackpoint>
          <Trackpoint>
            <Time>2022-10-08T09:16:38.000Z</Time>
            <Position>
              <LatitudeDegrees>37.2521722130477428436279296875</LatitudeDegrees>
              <LongitudeDegrees>-3.544170744717121124267578125</LongitudeDegrees>
            </Position>
            <AltitudeMeters>1527.199951171875</AltitudeMeters>
            <DistanceMeters>1444.2417828693</DistanceMeters>
          </Trackpoint>
          <Trackpoint>
            <Time>2022-10-08T09:16:39.000Z</Time>
            <Position>
              <LatitudeDegrees>37.252176739275455474853515625</LatitudeDegrees>
              <LongitudeDegrees>-3.54417501948773860931396484375</LongitudeDegrees>
            </Position>
            <AltitudeMeters>1527.5999755859375</AltitudeMeters>
            <DistanceMeters>1444.8721187826</DistanceMeters>
          </Trackpoint>
          <Trackpoint>
            <Time>2022-10-08T09:16:44.000Z</Time>
            <Position>
              <LatitudeDegrees>37.252213954925537109375</LatitudeDegrees>
              <LongitudeDegrees>-3.54416479356586933135986328125</LongitudeDegrees>
            </Position>
            <AltitudeMeters>1528.5999755859375</AltitudeMeters>
            <DistanceMeters>1449.1133346786</DistanceMeters>
          </Trackpoint>
          <Trackpoint>
            <Time>2022-10-08T09:16:45.000Z</Time>
            <Position>
              <LatitudeDegrees>37.25222007371485233306884765625</LatitudeDegrees>
              <LongitudeDegrees>-3.54416060261428356170654296875</LongitudeDegrees>
            </Position>
            <AltitudeMeters>1529</AltitudeMeters>
            <DistanceMeters>1449.8853353556</DistanceMeters>
          </Trackpoint>
          <Trackpoint>
            <Time>2022-10-08T09:16:49.000Z</Time>
            <Position>
              <LatitudeDegrees>37.25223734043538570404052734375</LatitudeDegrees>
              <LongitudeDegrees>-3.54414249770343303680419921875</LongitudeDegrees>
            </Position>
            <AltitudeMeters>1529.800048828125</AltitudeMeters>
            <DistanceMeters>1452.3887076915</DistanceMeters>
          </Trackpoint>
          <Trackpoint>
            <Time>2022-10-08T09:16:52.000Z</Time>
            <Position>
              <LatitudeDegrees>37.25225879810750484466552734375</LatitudeDegrees>
              <LongitudeDegrees>-3.54413813911378383636474609375</LongitudeDegrees>
            </Position>
            <AltitudeMeters>1530.4000244140625</AltitudeMeters>
            <DistanceMeters>1454.80769292</DistanceMeters>
          </Trackpoint>
          <Trackpoint>
            <Time>2022-10-08T09:16:55.000Z</Time>
            <Position>
              <LatitudeDegrees>37.25226835347712039947509765625</LatitudeDegrees>
              <LongitudeDegrees>-3.54414434172213077545166015625</LongitudeDegrees>
            </Position>
            <AltitudeMeters>1531</AltitudeMeters>
            <DistanceMeters>1456.0096963438</DistanceMeters>
          </Trackpoint>
          <Trackpoint>
            <Time>2022-10-08T09:16:58.000Z</Time>
            <Position>
              <LatitudeDegrees>37.25227053277194499969482421875</LatitudeDegrees>
              <LongitudeDegrees>-3.54414761066436767578125</LongitudeDegrees>
            </Position>
            <AltitudeMeters>1531</AltitudeMeters>
            <DistanceMeters>1456.3898032013</DistanceMeters>
          </Trackpoint>
          <Trackpoint>
            <Time>2022-10-08T09:17:00.000Z</Time>
            <Position>
              <LatitudeDegrees>37.252273298799991607666015625</LatitudeDegrees>
              <LongitudeDegrees>-3.54414484463632106781005859375</LongitudeDegrees>
            </Position>
            <AltitudeMeters>1531</AltitudeMeters>
            <DistanceMeters>1456.7699100588</DistanceMeters>
          </Trackpoint>
          <Trackpoint>
            <Time>2022-10-08T09:18:33.000Z</Time>
            <Position>
              <LatitudeDegrees>37.25251109339296817779541015625</LatitudeDegrees>
              <LongitudeDegrees>-3.5438376478850841522216796875</LongitudeDegrees>
            </Position>
            <AltitudeMeters>1538</AltitudeMeters>
            <DistanceMeters>1494.7331716486</DistanceMeters>
          </Trackpoint>
          <Trackpoint>
            <Time>2022-10-08T09:18:35.000Z</Time>
            <Position>
              <LatitudeDegrees>37.2525095008313655853271484375</LatitudeDegrees>
              <LongitudeDegrees>-3.5438108257949352264404296875</LongitudeDegrees>
            </Position>
            <AltitudeMeters>1538.4000244140625</AltitudeMeters>
            <DistanceMeters>1497.1145342852</DistanceMeters>
          </Trackpoint>
          <Trackpoint>
            <Time>2022-10-08T09:18:39.000Z</Time>
            <Position>
              <LatitudeDegrees>37.2525064833462238311767578125</LatitudeDegrees>
              <LongitudeDegrees>-3.54373044334352016448974609375</LongitudeDegrees>
            </Position>
            <AltitudeMeters>1539.5999755859375</AltitudeMeters>
            <DistanceMeters>1504.2434381439</DistanceMeters>
          </Trackpoint>
          <Trackpoint>
            <Time>2022-10-08T09:18:43.000Z</Time>
            <Position>
              <LatitudeDegrees>37.2524833492934703826904296875</LatitudeDegrees>
              <LongitudeDegrees>-3.54369507171213626861572265625</LongitudeDegrees>
            </Position>
            <AltitudeMeters>1540.4000244140625</AltitudeMeters>
            <DistanceMeters>1508.2996431782</DistanceMeters>
          </Trackpoint>
          <Trackpoint>
            <Time>2022-10-08T09:18:44.000Z</Time>
            <Position>
              <LatitudeDegrees>37.25247572176158428192138671875</LatitudeDegrees>
              <LongitudeDegrees>-3.54368652217090129852294921875</LongitudeDegrees>
            </Position>
            <AltitudeMeters>1540.5999755859375</AltitudeMeters>
            <DistanceMeters>1509.432017169</DistanceMeters>
          </Trackpoint>
          <Trackpoint>
            <Time>2022-10-08T09:18:50.000Z</Time>
            <Position>
              <LatitudeDegrees>37.25245040841400623321533203125</LatitudeDegrees>
              <LongitudeDegrees>-3.54363262653350830078125</LongitudeDegrees>
            </Position>
            <AltitudeMeters>1541.5999755859375</AltitudeMeters>
            <DistanceMeters>1514.9762376025</DistanceMeters>
          </Trackpoint>
          <Trackpoint>
            <Time>2022-10-08T09:18:51.000Z</Time>
            <Position>
              <LatitudeDegrees>37.25244688801467418670654296875</LatitudeDegrees>
              <LongitudeDegrees>-3.54361854493618011474609375</LongitudeDegrees>
            </Position>
            <AltitudeMeters>1541.5999755859375</AltitudeMeters>
            <DistanceMeters>1516.2860904662</DistanceMeters>
          </Trackpoint>
          <Trackpoint>
            <Time>2022-10-08T09:18:57.000Z</Time>
            <Position>
              <LatitudeDegrees>37.2524297051131725311279296875</LatitudeDegrees>
              <LongitudeDegrees>-3.543510250747203826904296875</LongitudeDegrees>
            </Position>
            <AltitudeMeters>1541.800048828125</AltitudeMeters>
            <DistanceMeters>1526.0696895128</DistanceMeters>
          </Trackpoint>
          <Trackpoint>
            <Time>2022-10-08T09:18:59.000Z</Time>
            <Position>
              <LatitudeDegrees>37.252417467534542083740234375</LatitudeDegrees>
              <LongitudeDegrees>-3.54348049499094486236572265625</LongitudeDegrees>
            </Position>
            <AltitudeMeters>1541.800048828125</AltitudeMeters>
            <DistanceMeters>1529.0384189733</DistanceMeters>
          </Trackpoint>
          <Trackpoint>
            <Time>2022-10-08T09:19:04.000Z</Time>
            <Position>
              <LatitudeDegrees>37.25238628685474395751953125</LatitudeDegrees>
              <LongitudeDegrees>-3.54340405203402042388916015625</LongitudeDegrees>
            </Position>
            <AltitudeMeters>1542.4000244140625</AltitudeMeters>
            <DistanceMeters>1536.6482731266</DistanceMeters>
          </Trackpoint>
          <Trackpoint>
            <Time>2022-10-08T09:19:05.000Z</Time>
            <Position>
              <LatitudeDegrees>37.2523757256567478179931640625</LatitudeDegrees>
              <LongitudeDegrees>-3.54339365847408771514892578125</LongitudeDegrees>
            </Position>
            <AltitudeMeters>1542.5999755859375</AltitudeMeters>
            <DistanceMeters>1538.1417351722</DistanceMeters>
          </Trackpoint>
          <Trackpoint>
            <Time>2022-10-08T09:19:11.000Z</Time>
            <Position>
              <LatitudeDegrees>37.2523351572453975677490234375</LatitudeDegrees>
              <LongitudeDegrees>-3.54333423078060150146484375</LongitudeDegrees>
            </Position>
            <AltitudeMeters>1543.4000244140625</AltitudeMeters>
            <DistanceMeters>1545.0786853212</DistanceMeters>
          </Trackpoint>
          <Trackpoint>
            <Time>2022-10-08T09:19:12.000Z</Time>
            <Position>
              <LatitudeDegrees>37.2523319721221923828125</LatitudeDegrees>
              <LongitudeDegrees>-3.5433228313922882080078125</LongitudeDegrees>
            </Position>
            <AltitudeMeters>1543.4000244140625</AltitudeMeters>
            <DistanceMeters>1546.1495820055</DistanceMeters>
          </Trackpoint>
          <Trackpoint>
            <Time>2022-10-08T09:19:14.000Z</Time>
            <Position>
              <LatitudeDegrees>37.2523333132266998291015625</LatitudeDegrees>
              <LongitudeDegrees>-3.54329265654087066650390625</LongitudeDegrees>
            </Position>
            <AltitudeMeters>1543.5999755859375</AltitudeMeters>
            <DistanceMeters>1548.8272452959</DistanceMeters>
          </Trackpoint>
          <Trackpoint>
            <Time>2022-10-08T09:19:17.000Z</Time>
            <Position>
              <LatitudeDegrees>37.25232660770416259765625</LatitudeDegrees>
              <LongitudeDegrees>-3.543250747025012969970703125</LongitudeDegrees>
            </Position>
            <AltitudeMeters>1544.4000244140625</AltitudeMeters>
            <DistanceMeters>1552.6140330365</DistanceMeters>
          </Trackpoint>
          <Trackpoint>
            <Time>2022-10-08T09:19:18.000Z</Time>
            <Position>
              <LatitudeDegrees>37.2523210756480693817138671875</LatitudeDegrees>
              <LongitudeDegrees>-3.5432415269315242767333984375</LongitudeDegrees>
            </Position>
            <AltitudeMeters>1545</AltitudeMeters>
            <DistanceMeters>1553.6375020725</DistanceMeters>
          </Trackpoint>
          <Trackpoint>
            <Time>2022-10-08T09:19:23.000Z</Time>
            <Position>
              <LatitudeDegrees>37.25229484029114246368408203125</LatitudeDegrees>
              <LongitudeDegrees>-3.5431965999305248260498046875</LongitudeDegrees>
            </Position>
            <AltitudeMeters>1546</AltitudeMeters>
            <DistanceMeters>1558.5734058647</DistanceMeters>
          </Trackpoint>
          <Trackpoint>
            <Time>2022-10-08T09:19:24.000Z</Time>
            <Position>
              <LatitudeDegrees>37.2522922419011592864990234375</LatitudeDegrees>
              <LongitudeDegrees>-3.5431862063705921173095703125</LongitudeDegrees>
            </Position>
            <AltitudeMeters>1546.199951171875</AltitudeMeters>
            <DistanceMeters>1559.5378216846</DistanceMeters>
          </Trackpoint>
          <Trackpoint>
            <Time>2022-10-08T09:19:27.000Z</Time>
            <Position>
              <LatitudeDegrees>37.25228369235992431640625</LatitudeDegrees>
              <LongitudeDegrees>-3.5431416146457195281982421875</LongitudeDegrees>
            </Position>
            <AltitudeMeters>1547.199951171875</AltitudeMeters>
            <DistanceMeters>1563.6006999426</DistanceMeters>
          </Trackpoint>
          <Trackpoint>
            <Time>2022-10-08T09:19:31.000Z</Time>
            <Position>
              <LatitudeDegrees>37.252284027636051177978515625</LatitudeDegrees>
              <LongitudeDegrees>-3.5430819354951381683349609375</LongitudeDegrees>
            </Position>
            <AltitudeMeters>1547.5999755859375</AltitudeMeters>
            <DistanceMeters>1568.8881489183</DistanceMeters>
          </Trackpoint>
          <Trackpoint>
            <Time>2022-10-08T09:19:37.000Z</Time>
            <Position>
              <LatitudeDegrees>37.2522389329969882965087890625</LatitudeDegrees>
              <LongitudeDegrees>-3.5430195741355419158935546875</LongitudeDegrees>
            </Position>
            <AltitudeMeters>1548.199951171875</AltitudeMeters>
            <DistanceMeters>1576.3524353316</DistanceMeters>
          </Trackpoint>
          <Trackpoint>
            <Time>2022-10-08T09:19:39.000Z</Time>
            <Position>
              <LatitudeDegrees>37.25222912617027759552001953125</LatitudeDegrees>
              <LongitudeDegrees>-3.54298730380833148956298828125</LongitudeDegrees>
            </Position>
            <AltitudeMeters>1548.5999755859375</AltitudeMeters>
            <DistanceMeters>1579.4125316164</DistanceMeters>
          </Trackpoint>
          <Trackpoint>
            <Time>2022-10-08T09:19:44.000Z</Time>
            <Position>
              <LatitudeDegrees>37.25221638567745685577392578125</LatitudeDegrees>
              <LongitudeDegrees>-3.5429146327078342437744140625</LongitudeDegrees>
            </Position>
            <AltitudeMeters>1549.4000244140625</AltitudeMeters>
            <DistanceMeters>1586.0057696677</DistanceMeters>
          </Trackpoint>
          <Trackpoint>
            <Time>2022-10-08T09:19:49.000Z</Time>
            <Position>
              <LatitudeDegrees>37.2522107698023319244384765625</LatitudeDegrees>
              <LongitudeDegrees>-3.54285009205341339111328125</LongitudeDegrees>
            </Position>
            <AltitudeMeters>1550.4000244140625</AltitudeMeters>
            <DistanceMeters>1591.7586150651</DistanceMeters>
          </Trackpoint>
          <Trackpoint>
            <Time>2022-10-08T09:19:53.000Z</Time>
            <Position>
              <LatitudeDegrees>37.25219408981502056121826171875</LatitudeDegrees>
              <LongitudeDegrees>-3.5427925921976566314697265625</LongitudeDegrees>
            </Position>
            <AltitudeMeters>1551.5999755859375</AltitudeMeters>
            <DistanceMeters>1597.1809696184</DistanceMeters>
          </Trackpoint>
          <Trackpoint>
            <Time>2022-10-08T09:19:57.000Z</Time>
            <Position>
              <LatitudeDegrees>37.25220180116593837738037109375</LatitudeDegrees>
              <LongitudeDegrees>-3.542734421789646148681640625</LongitudeDegrees>
            </Position>
            <AltitudeMeters>1552.5999755859375</AltitudeMeters>
            <DistanceMeters>1602.4048466282</DistanceMeters>
          </Trackpoint>
          <Trackpoint>
            <Time>2022-10-08T09:20:03.000Z</Time>
            <Position>
              <LatitudeDegrees>37.25219023413956165313720703125</LatitudeDegrees>
              <LongitudeDegrees>-3.54266577400267124176025390625</LongitudeDegrees>
            </Position>
            <AltitudeMeters>1553.800048828125</AltitudeMeters>
            <DistanceMeters>1608.6209303715</DistanceMeters>
          </Trackpoint>
          <Trackpoint>
            <Time>2022-10-08T09:20:06.000Z</Time>
            <Position>
              <LatitudeDegrees>37.25218587554991245269775390625</LatitudeDegrees>
              <LongitudeDegrees>-3.54263191111385822296142578125</LongitudeDegrees>
            </Position>
            <AltitudeMeters>1554</AltitudeMeters>
            <DistanceMeters>1611.6603000763</DistanceMeters>
          </Trackpoint>
          <Trackpoint>
            <Time>2022-10-08T09:20:10.000Z</Time>
            <Position>
              <LatitudeDegrees>37.25218118168413639068603515625</LatitudeDegrees>
              <LongitudeDegrees>-3.5425830446183681488037109375</LongitudeDegrees>
            </Position>
            <AltitudeMeters>1554.800048828125</AltitudeMeters>
            <DistanceMeters>1616.0211877143</DistanceMeters>
          </Trackpoint>
          <Trackpoint>
            <Time>2022-10-08T09:20:12.000Z</Time>
            <Position>
              <LatitudeDegrees>37.25217699073255062103271484375</LatitudeDegrees>
              <LongitudeDegrees>-3.54256116785109043121337890625</LongitudeDegrees>
            </Position>
            <AltitudeMeters>1555.199951171875</AltitudeMeters>
            <DistanceMeters>1618.0144848911</DistanceMeters>
          </Trackpoint>
          <Trackpoint>
            <Time>2022-10-08T09:20:13.000Z</Time>
            <Position>
              <LatitudeDegrees>37.2521712072193622589111328125</LatitudeDegrees>
              <LongitudeDegrees>-3.54254893027245998382568359375</LongitudeDegrees>
            </Position>
            <AltitudeMeters>1555.4000244140625</AltitudeMeters>
            <DistanceMeters>1619.2751567176</DistanceMeters>
          </Trackpoint>
          <Trackpoint>
            <Time>2022-10-08T09:20:16.000Z</Time>
            <Position>
              <LatitudeDegrees>37.2521531023085117340087890625</LatitudeDegrees>
              <LongitudeDegrees>-3.5425146482884883880615234375</LongitudeDegrees>
            </Position>
            <AltitudeMeters>1556</AltitudeMeters>
            <DistanceMeters>1622.9185359695</DistanceMeters>
          </Trackpoint>
          <Trackpoint>
            <Time>2022-10-08T09:20:21.000Z</Time>
            <Position>
              <LatitudeDegrees>37.25210926495492458343505859375</LatitudeDegrees>
              <LongitudeDegrees>-3.54246477596461772918701171875</LongitudeDegrees>
            </Position>
            <AltitudeMeters>1557</AltitudeMeters>
            <DistanceMeters>1629.5008081287</DistanceMeters>
          </Trackpoint>
          <Trackpoint>
            <Time>2022-10-08T09:20:26.000Z</Time>
            <Position>
              <LatitudeDegrees>37.252088896930217742919921875</LatitudeDegrees>
              <LongitudeDegrees>-3.542405851185321807861328125</LongitudeDegrees>
            </Position>
            <AltitudeMeters>1558.199951171875</AltitudeMeters>
            <DistanceMeters>1635.1929003873</DistanceMeters>
          </Trackpoint>
          <Trackpoint>
            <Time>2022-10-08T09:20:30.000Z</Time>
            <Position>
              <LatitudeDegrees>37.25207221694290637969970703125</LatitudeDegrees>
              <LongitudeDegrees>-3.54237358085811138153076171875</LongitudeDegrees>
            </Position>
            <AltitudeMeters>1558.800048828125</AltitudeMeters>
            <DistanceMeters>1638.6032872363</DistanceMeters>
          </Trackpoint>
          <Trackpoint>
            <Time>2022-10-08T09:20:33.000Z</Time>
            <Position>
              <LatitudeDegrees>37.25205712951719760894775390625</LatitudeDegrees>
              <LongitudeDegrees>-3.54233468882739543914794921875</LongitudeDegrees>
            </Position>
            <AltitudeMeters>1559.199951171875</AltitudeMeters>
            <DistanceMeters>1642.4374709109</DistanceMeters>
          </Trackpoint>
          <Trackpoint>
            <Time>2022-10-08T09:20:36.000Z</Time>
            <Position>
              <LatitudeDegrees>37.2520355880260467529296875</LatitudeDegrees>
              <LongitudeDegrees>-3.54232563637197017669677734375</LongitudeDegrees>
            </Position>
            <AltitudeMeters>1559.5999755859375</AltitudeMeters>
            <DistanceMeters>1644.9659673263</DistanceMeters>
          </Trackpoint>
          <Trackpoint>
            <Time>2022-10-08T09:20:40.000Z</Time>
            <Position>
              <LatitudeDegrees>37.2520055808126926422119140625</LatitudeDegrees>
              <LongitudeDegrees>-3.54230803437530994415283203125</LongitudeDegrees>
            </Position>
            <AltitudeMeters>1559.800048828125</AltitudeMeters>
            <DistanceMeters>1648.6512400396</DistanceMeters>
          </Trackpoint>
          <Trackpoint>
            <Time>2022-10-08T09:20:42.000Z</Time>
            <Position>
              <LatitudeDegrees>37.25198253057897090911865234375</LatitudeDegrees>
              <LongitudeDegrees>-3.54229227639734745025634765625</LongitudeDegrees>
            </Position>
            <AltitudeMeters>1559.5999755859375</AltitudeMeters>
            <DistanceMeters>1651.5708962117</DistanceMeters>
          </Trackpoint>
          <Trackpoint>
            <Time>2022-10-08T09:20:47.000Z</Time>
            <Position>
              <LatitudeDegrees>37.25191178731620311737060546875</LatitudeDegrees>
              <LongitudeDegrees>-3.54223192669451236724853515625</LongitudeDegrees>
            </Position>
            <AltitudeMeters>1558.800048828125</AltitudeMeters>
            <DistanceMeters>1661.0878109813</DistanceMeters>
          </Trackpoint>
          <Trackpoint>
            <Time>2022-10-08T09:20:49.000Z</Time>
            <Position>
              <LatitudeDegrees>37.25188798271119594573974609375</LatitudeDegrees>
              <LongitudeDegrees>-3.54222203604876995086669921875</LongitudeDegrees>
            </Position>
            <AltitudeMeters>1558.4000244140625</AltitudeMeters>
            <DistanceMeters>1663.8793976218</DistanceMeters>
          </Trackpoint>
          <Trackpoint>
            <Time>2022-10-08T09:20:52.000Z</Time>
            <Position>
              <LatitudeDegrees>37.2518590651452541351318359375</LatitudeDegrees>
              <LongitudeDegrees>-3.54217845015227794647216796875</LongitudeDegrees>
            </Position>
            <AltitudeMeters>1558.199951171875</AltitudeMeters>
            <DistanceMeters>1668.9059425475</DistanceMeters>
          </Trackpoint>
          <Trackpoint>
            <Time>2022-10-08T09:20:56.000Z</Time>
            <Position>
              <LatitudeDegrees>37.25179444067180156707763671875</LatitudeDegrees>
              <LongitudeDegrees>-3.5421196930110454559326171875</LongitudeDegrees>
            </Position>
            <AltitudeMeters>1557.5999755859375</AltitudeMeters>
            <DistanceMeters>1677.7847131468</DistanceMeters>
          </Trackpoint>
          <Trackpoint>
            <Time>2022-10-08T09:20:59.000Z</Time>
            <Position>
              <LatitudeDegrees>37.25172470323741436004638671875</LatitudeDegrees>
              <LongitudeDegrees>-3.54208725504577159881591796875</LongitudeDegrees>
            </Position>
            <AltitudeMeters>1557.5999755859375</AltitudeMeters>
            <DistanceMeters>1686.061316309</DistanceMeters>
          </Trackpoint>
          <Trackpoint>
            <Time>2022-10-08T09:21:00.000Z</Time>
            <Position>
              <LatitudeDegrees>37.251708693802356719970703125</LatitudeDegrees>
              <LongitudeDegrees>-3.542064540088176727294921875</LongitudeDegrees>
            </Position>
            <AltitudeMeters>1557.5999755859375</AltitudeMeters>
            <DistanceMeters>1688.7507570002</DistanceMeters>
          </Trackpoint>
          <Trackpoint>
            <Time>2022-10-08T09:21:03.000Z</Time>
            <Position>
              <LatitudeDegrees>37.25169293582439422607421875</LatitudeDegrees>
              <LongitudeDegrees>-3.5419751890003681182861328125</LongitudeDegrees>
            </Position>
            <AltitudeMeters>1557.800048828125</AltitudeMeters>
            <DistanceMeters>1696.8592702171</DistanceMeters>
          </Trackpoint>
          <Trackpoint>
            <Time>2022-10-08T09:21:09.000Z</Time>
            <Position>
              <LatitudeDegrees>37.25171464495360851287841796875</LatitudeDegrees>
              <LongitudeDegrees>-3.5418145917356014251708984375</LongitudeDegrees>
            </Position>
            <AltitudeMeters>1558</AltitudeMeters>
            <DistanceMeters>1711.2908218698</DistanceMeters>
          </Trackpoint>
          <Trackpoint>
            <Time>2022-10-08T09:21:14.000Z</Time>
            <Position>
              <LatitudeDegrees>37.25175672210752964019775390625</LatitudeDegrees>
              <LongitudeDegrees>-3.54172834195196628570556640625</LongitudeDegrees>
            </Position>
            <AltitudeMeters>1557.5999755859375</AltitudeMeters>
            <DistanceMeters>1720.2536093851</DistanceMeters>
          </Trackpoint>
          <Trackpoint>
            <Time>2022-10-08T09:21:17.000Z</Time>
            <Position>
              <LatitudeDegrees>37.2517673671245574951171875</LatitudeDegrees>
              <LongitudeDegrees>-3.541660867631435394287109375</LongitudeDegrees>
            </Position>
            <AltitudeMeters>1557</AltitudeMeters>
            <DistanceMeters>1726.3471858668</DistanceMeters>
          </Trackpoint>
          <Trackpoint>
            <Time>2022-10-08T09:21:20.000Z</Time>
            <Position>
              <LatitudeDegrees>37.25175638683140277862548828125</LatitudeDegrees>
              <LongitudeDegrees>-3.54158283211290836334228515625</LongitudeDegrees>
            </Position>
            <AltitudeMeters>1556.5999755859375</AltitudeMeters>
            <DistanceMeters>1733.367595914</DistanceMeters>
          </Trackpoint>
          <Trackpoint>
            <Time>2022-10-08T09:21:22.000Z</Time>
            <Position>
              <LatitudeDegrees>37.251750938594341278076171875</LatitudeDegrees>
              <LongitudeDegrees>-3.54152533225715160369873046875</LongitudeDegrees>
            </Position>
            <AltitudeMeters>1555.800048828125</AltitudeMeters>
            <DistanceMeters>1738.4972784341</DistanceMeters>
          </Trackpoint>
          <Trackpoint>
            <Time>2022-10-08T09:21:27.000Z</Time>
            <Position>
              <LatitudeDegrees>37.25175060331821441650390625</LatitudeDegrees>
              <LongitudeDegrees>-3.54137429036200046539306640625</LongitudeDegrees>
            </Position>
            <AltitudeMeters>1555.4000244140625</AltitudeMeters>
            <DistanceMeters>1751.8788484423</DistanceMeters>
          </Trackpoint>
          <Trackpoint>
            <Time>2022-10-08T09:21:30.000Z</Time>
            <Position>
              <LatitudeDegrees>37.25175538100302219390869140625</LatitudeDegrees>
              <LongitudeDegrees>-3.541304804384708404541015625</LongitudeDegrees>
            </Position>
            <AltitudeMeters>1554.5999755859375</AltitudeMeters>
            <DistanceMeters>1758.0585080836</DistanceMeters>
          </Trackpoint>
          <Trackpoint>
            <Time>2022-10-08T09:21:34.000Z</Time>
            <Position>
              <LatitudeDegrees>37.251750268042087554931640625</LatitudeDegrees>
              <LongitudeDegrees>-3.54122794233262538909912109375</LongitudeDegrees>
            </Position>
            <AltitudeMeters>1554</AltitudeMeters>
            <DistanceMeters>1764.8925080373</DistanceMeters>
          </Trackpoint>
          <Trackpoint>
            <Time>2022-10-08T09:21:36.000Z</Time>
            <Position>
              <LatitudeDegrees>37.25175596773624420166015625</LatitudeDegrees>
              <LongitudeDegrees>-3.5411869548261165618896484375</LongitudeDegrees>
            </Position>
            <AltitudeMeters>1553.199951171875</AltitudeMeters>
            <DistanceMeters>1768.5777807507</DistanceMeters>
          </Trackpoint>
          <Trackpoint>
            <Time>2022-10-08T09:21:39.000Z</Time>
            <Position>
              <LatitudeDegrees>37.25174984894692897796630859375</LatitudeDegrees>
              <LongitudeDegrees>-3.54113741777837276458740234375</LongitudeDegrees>
            </Position>
            <AltitudeMeters>1552.4000244140625</AltitudeMeters>
            <DistanceMeters>1773.0186913503</DistanceMeters>
          </Trackpoint>
          <Trackpoint>
            <Time>2022-10-08T09:21:40.000Z</Time>
            <Position>
              <LatitudeDegrees>37.25174465216696262359619140625</LatitudeDegrees>
              <LongitudeDegrees>-3.5411242581903934478759765625</LongitudeDegrees>
            </Position>
            <AltitudeMeters>1552.199951171875</AltitudeMeters>
            <DistanceMeters>1774.3216320133</DistanceMeters>
          </Trackpoint>
          <Trackpoint>
            <Time>2022-10-08T09:21:42.000Z</Time>
            <Position>
              <LatitudeDegrees>37.2517440654337406158447265625</LatitudeDegrees>
              <LongitudeDegrees>-3.5410934127867221832275390625</LongitudeDegrees>
            </Position>
            <AltitudeMeters>1552</AltitudeMeters>
            <DistanceMeters>1777.0543729852</DistanceMeters>
          </Trackpoint>
          <Trackpoint>
            <Time>2022-10-08T09:21:45.000Z</Time>
            <Position>
              <LatitudeDegrees>37.25176057778298854827880859375</LatitudeDegrees>
              <LongitudeDegrees>-3.5410491563379764556884765625</LongitudeDegrees>
            </Position>
            <AltitudeMeters>1551.4000244140625</AltitudeMeters>
            <DistanceMeters>1781.3840887608</DistanceMeters>
          </Trackpoint>
          <Trackpoint>
            <Time>2022-10-08T09:21:46.000Z</Time>
            <Position>
              <LatitudeDegrees>37.25176334381103515625</LatitudeDegrees>
              <LongitudeDegrees>-3.54102811776101589202880859375</LongitudeDegrees>
            </Position>
            <AltitudeMeters>1551</AltitudeMeters>
            <DistanceMeters>1783.2750965005</DistanceMeters>
          </Trackpoint>
          <Trackpoint>
            <Time>2022-10-08T09:21:49.000Z</Time>
            <Position>
              <LatitudeDegrees>37.25177549757063388824462890625</LatitudeDegrees>
              <LongitudeDegrees>-3.54095368646085262298583984375</LongitudeDegrees>
            </Position>
            <AltitudeMeters>1550</AltitudeMeters>
            <DistanceMeters>1790.0065839733</DistanceMeters>
          </Trackpoint>
          <Trackpoint>
            <Time>2022-10-08T09:21:50.000Z</Time>
            <Position>
              <LatitudeDegrees>37.2517785988748073577880859375</LatitudeDegrees>
              <LongitudeDegrees>-3.5409314744174480438232421875</LongitudeDegrees>
            </Position>
            <AltitudeMeters>1549.800048828125</AltitudeMeters>
            <DistanceMeters>1792.0044062347</DistanceMeters>
          </Trackpoint>
          <Trackpoint>
            <Time>2022-10-08T09:21:53.000Z</Time>
            <Position>
              <LatitudeDegrees>37.25178773514926433563232421875</LatitudeDegrees>
              <LongitudeDegrees>-3.54087003506720066070556640625</LongitudeDegrees>
            </Position>
            <AltitudeMeters>1548.800048828125</AltitudeMeters>
            <DistanceMeters>1797.5421078883</DistanceMeters>
          </Trackpoint>
          <Trackpoint>
            <Time>2022-10-08T09:21:55.000Z</Time>
            <Position>
              <LatitudeDegrees>37.251799888908863067626953125</LatitudeDegrees>
              <LongitudeDegrees>-3.5408365912735462188720703125</LongitudeDegrees>
            </Position>
            <AltitudeMeters>1547.800048828125</AltitudeMeters>
            <DistanceMeters>1800.7980731438</DistanceMeters>
          </Trackpoint>
          <Trackpoint>
            <Time>2022-10-08T09:21:56.000Z</Time>
            <Position>
              <LatitudeDegrees>37.25181095302104949951171875</LatitudeDegrees>
              <LongitudeDegrees>-3.54082913137972354888916015625</LongitudeDegrees>
            </Position>
            <AltitudeMeters>1547.4000244140625</AltitudeMeters>
            <DistanceMeters>1802.1946749166</DistanceMeters>
          </Trackpoint>
          <Trackpoint>
            <Time>2022-10-08T09:21:57.000Z</Time>
            <Position>
              <LatitudeDegrees>37.2518210113048553466796875</LatitudeDegrees>
              <LongitudeDegrees>-3.54081789962947368621826171875</LongitudeDegrees>
            </Position>
            <AltitudeMeters>1547.199951171875</AltitudeMeters>
            <DistanceMeters>1803.691157111</DistanceMeters>
          </Trackpoint>
          <Trackpoint>
            <Time>2022-10-08T09:21:59.000Z</Time>
            <Position>
              <LatitudeDegrees>37.25184045732021331787109375</LatitudeDegrees>
              <LongitudeDegrees>-3.54078671894967555999755859375</LongitudeDegrees>
            </Position>
            <AltitudeMeters>1546.4000244140625</AltitudeMeters>
            <DistanceMeters>1807.198145009</DistanceMeters>
          </Trackpoint>
          <Trackpoint>
            <Time>2022-10-08T09:22:01.000Z</Time>
            <Position>
              <LatitudeDegrees>37.25184607319533824920654296875</LatitudeDegrees>
              <LongitudeDegrees>-3.54075687937438488006591796875</LongitudeDegrees>
            </Position>
            <AltitudeMeters>1545.800048828125</AltitudeMeters>
            <DistanceMeters>1809.9143137178</DistanceMeters>
          </Trackpoint>
          <Trackpoint>
            <Time>2022-10-08T09:22:02.000Z</Time>
            <Position>
              <LatitudeDegrees>37.25184339098632335662841796875</LatitudeDegrees>
              <LongitudeDegrees>-3.540738858282566070556640625</LongitudeDegrees>
            </Position>
            <AltitudeMeters>1545.4000244140625</AltitudeMeters>
            <DistanceMeters>1811.5436824528</DistanceMeters>
          </Trackpoint>
          <Trackpoint>
            <Time>2022-10-08T09:22:05.000Z</Time>
            <Position>
              <LatitudeDegrees>37.25181589834392070770263671875</LatitudeDegrees>
              <LongitudeDegrees>-3.540668450295925140380859375</LongitudeDegrees>
            </Position>
            <AltitudeMeters>1544.5999755859375</AltitudeMeters>
            <DistanceMeters>1818.4916885459</DistanceMeters>
          </Trackpoint>
          <Trackpoint>
            <Time>2022-10-08T09:22:06.000Z</Time>
            <Position>
              <LatitudeDegrees>37.2518070973455905914306640625</LatitudeDegrees>
              <LongitudeDegrees>-3.540638275444507598876953125</LongitudeDegrees>
            </Position>
            <AltitudeMeters>1544.4000244140625</AltitudeMeters>
            <DistanceMeters>1821.336147808</DistanceMeters>
          </Trackpoint>
          <Trackpoint>
            <Time>2022-10-08T09:22:08.000Z</Time>
            <Position>
              <LatitudeDegrees>37.25181573070585727691650390625</LatitudeDegrees>
              <LongitudeDegrees>-3.54058337397873401641845703125</LongitudeDegrees>
            </Position>
            <AltitudeMeters>1544</AltitudeMeters>
            <DistanceMeters>1826.2939566063</DistanceMeters>
          </Trackpoint>
          <Trackpoint>
            <Time>2022-10-08T09:22:10.000Z</Time>
            <Position>
              <LatitudeDegrees>37.25182495079934597015380859375</LatitudeDegrees>
              <LongitudeDegrees>-3.540527634322643280029296875</LongitudeDegrees>
            </Position>
            <AltitudeMeters>1543</AltitudeMeters>
            <DistanceMeters>1831.3375391963</DistanceMeters>
          </Trackpoint>
          <Trackpoint>
            <Time>2022-10-08T09:22:13.000Z</Time>
            <Position>
              <LatitudeDegrees>37.25183299742639064788818359375</LatitudeDegrees>
              <LongitudeDegrees>-3.540412299335002899169921875</LongitudeDegrees>
            </Position>
            <AltitudeMeters>1542.5999755859375</AltitudeMeters>
            <DistanceMeters>1841.5942633601</DistanceMeters>
          </Trackpoint>
          <Trackpoint>
            <Time>2022-10-08T09:22:17.000Z</Time>
            <Position>
              <LatitudeDegrees>37.2519120387732982635498046875</LatitudeDegrees>
              <LongitudeDegrees>-3.540304005146026611328125</LongitudeDegrees>
            </Position>
            <AltitudeMeters>1542</AltitudeMeters>
            <DistanceMeters>1854.6115359036</DistanceMeters>
          </Trackpoint>
          <Trackpoint>
            <Time>2022-10-08T09:22:19.000Z</Time>
            <Position>
              <LatitudeDegrees>37.25195981562137603759765625</LatitudeDegrees>
              <LongitudeDegrees>-3.54025832377374172210693359375</LongitudeDegrees>
            </Position>
            <AltitudeMeters>1541.800048828125</AltitudeMeters>
            <DistanceMeters>1861.2945560361</DistanceMeters>
          </Trackpoint>
          <Trackpoint>
            <Time>2022-10-08T09:22:24.000Z</Time>
            <Position>
              <LatitudeDegrees>37.25199401378631591796875</LatitudeDegrees>
              <LongitudeDegrees>-3.54012102819979190826416015625</LongitudeDegrees>
            </Position>
            <AltitudeMeters>1541.800048828125</AltitudeMeters>
            <DistanceMeters>1874.0401856881</DistanceMeters>
          </Trackpoint>
          <Trackpoint>
            <Time>2022-10-08T09:22:25.000Z</Time>
            <Position>
              <LatitudeDegrees>37.2519873082637786865234375</LatitudeDegrees>
              <LongitudeDegrees>-3.5400989837944507598876953125</LongitudeDegrees>
            </Position>
            <AltitudeMeters>1541.800048828125</AltitudeMeters>
            <DistanceMeters>1876.1307734043</DistanceMeters>
          </Trackpoint>
          <Trackpoint>
            <Time>2022-10-08T09:22:28.000Z</Time>
            <Position>
              <LatitudeDegrees>37.2519658505916595458984375</LatitudeDegrees>
              <LongitudeDegrees>-3.540014661848545074462890625</LongitudeDegrees>
            </Position>
            <AltitudeMeters>1541.5999755859375</AltitudeMeters>
            <DistanceMeters>1883.9737881777</DistanceMeters>
          </Trackpoint>
          <Trackpoint>
            <Time>2022-10-08T09:22:34.000Z</Time>
            <Position>
              <LatitudeDegrees>37.2519656829535961151123046875</LatitudeDegrees>
              <LongitudeDegrees>-3.539925478398799896240234375</LongitudeDegrees>
            </Position>
            <AltitudeMeters>1541</AltitudeMeters>
            <DistanceMeters>1891.8741608512</DistanceMeters>
          </Trackpoint>
          <Trackpoint>
            <Time>2022-10-08T09:22:35.000Z</Time>
            <Position>
              <LatitudeDegrees>37.251968868076801300048828125</LatitudeDegrees>
              <LongitudeDegrees>-3.53991282172501087188720703125</LongitudeDegrees>
            </Position>
            <AltitudeMeters>1541</AltitudeMeters>
            <DistanceMeters>1893.0457288687</DistanceMeters>
          </Trackpoint>
          <Trackpoint>
            <Time>2022-10-08T09:22:39.000Z</Time>
            <Position>
              <LatitudeDegrees>37.25198638625442981719970703125</LatitudeDegrees>
              <LongitudeDegrees>-3.5398612730205059051513671875</LongitudeDegrees>
            </Position>
            <AltitudeMeters>1540.5999755859375</AltitudeMeters>
            <DistanceMeters>1898.0099084197</DistanceMeters>
          </Trackpoint>
          <Trackpoint>
            <Time>2022-10-08T09:22:41.000Z</Time>
            <Position>
              <LatitudeDegrees>37.25200138986110687255859375</LatitudeDegrees>
              <LongitudeDegrees>-3.53981458581984043121337890625</LongitudeDegrees>
            </Position>
            <AltitudeMeters>1540</AltitudeMeters>
            <DistanceMeters>1902.4700943358</DistanceMeters>
          </Trackpoint>
          <Trackpoint>
            <Time>2022-10-08T09:22:42.000Z</Time>
            <Position>
              <LatitudeDegrees>37.2520101070404052734375</LatitudeDegrees>
              <LongitudeDegrees>-3.53979170322418212890625</LongitudeDegrees>
            </Position>
            <AltitudeMeters>1539.5999755859375</AltitudeMeters>
            <DistanceMeters>1904.7188368308</DistanceMeters>
          </Trackpoint>
          <Trackpoint>
            <Time>2022-10-08T09:22:43.000Z</Time>
            <Position>
              <LatitudeDegrees>37.252018488943576812744140625</LatitudeDegrees>
              <LongitudeDegrees>-3.539770580828189849853515625</LongitudeDegrees>
            </Position>
            <AltitudeMeters>1539.4000244140625</AltitudeMeters>
            <DistanceMeters>1906.8115831306</DistanceMeters>
          </Trackpoint>
          <Trackpoint>
            <Time>2022-10-08T09:22:47.000Z</Time>
            <Position>
              <LatitudeDegrees>37.25207154639065265655517578125</LatitudeDegrees>
              <LongitudeDegrees>-3.53970411233603954315185546875</LongitudeDegrees>
            </Position>
            <AltitudeMeters>1538.5999755859375</AltitudeMeters>
            <DistanceMeters>1915.1512263347</DistanceMeters>
          </Trackpoint>
          <Trackpoint>
            <Time>2022-10-08T09:22:48.000Z</Time>
            <Position>
              <LatitudeDegrees>37.25208177231252193450927734375</LatitudeDegrees>
              <LongitudeDegrees>-3.539678715169429779052734375</LongitudeDegrees>
            </Position>
            <AltitudeMeters>1538.4000244140625</AltitudeMeters>
            <DistanceMeters>1917.6725699877</DistanceMeters>
          </Trackpoint>
          <Trackpoint>
            <Time>2022-10-08T09:22:49.000Z</Time>
            <Position>
              <LatitudeDegrees>37.2520977817475795745849609375</LatitudeDegrees>
              <LongitudeDegrees>-3.5396589338779449462890625</LongitudeDegrees>
            </Position>
            <AltitudeMeters>1538</AltitudeMeters>
            <DistanceMeters>1920.1723325562</DistanceMeters>
          </Trackpoint>
          <Trackpoint>
            <Time>2022-10-08T09:22:51.000Z</Time>
            <Position>
              <LatitudeDegrees>37.25212938152253627777099609375</LatitudeDegrees>
              <LongitudeDegrees>-3.5396249033510684967041015625</LongitudeDegrees>
            </Position>
            <AltitudeMeters>1537.4000244140625</AltitudeMeters>
            <DistanceMeters>1924.8062857049</DistanceMeters>
          </Trackpoint>
          <Trackpoint>
            <Time>2022-10-08T09:22:53.000Z</Time>
            <Position>
              <LatitudeDegrees>37.2521584667265415191650390625</LatitudeDegrees>
              <LongitudeDegrees>-3.53958978317677974700927734375</LongitudeDegrees>
            </Position>
            <AltitudeMeters>1537.800048828125</AltitudeMeters>
            <DistanceMeters>1929.2977432384</DistanceMeters>
          </Trackpoint>
          <Trackpoint>
            <Time>2022-10-08T09:22:57.000Z</Time>
            <Position>
              <LatitudeDegrees>37.2522027231752872467041015625</LatitudeDegrees>
              <LongitudeDegrees>-3.53950764052569866180419921875</LongitudeDegrees>
            </Position>
            <AltitudeMeters>1538.4000244140625</AltitudeMeters>
            <DistanceMeters>1938.0855310004</DistanceMeters>
          </Trackpoint>
          <Trackpoint>
            <Time>2022-10-08T09:22:58.000Z</Time>
            <Position>
              <LatitudeDegrees>37.2522171400487422943115234375</LatitudeDegrees>
              <LongitudeDegrees>-3.539499007165431976318359375</LongitudeDegrees>
            </Position>
            <AltitudeMeters>1538.5999755859375</AltitudeMeters>
            <DistanceMeters>1939.8633180392</DistanceMeters>
          </Trackpoint>
          <Trackpoint>
            <Time>2022-10-08T09:22:59.000Z</Time>
            <Position>
              <LatitudeDegrees>37.2522308863699436187744140625</LatitudeDegrees>
              <LongitudeDegrees>-3.53948987089097499847412109375</LongitudeDegrees>
            </Position>
            <AltitudeMeters>1538.800048828125</AltitudeMeters>
            <DistanceMeters>1941.5947871782</DistanceMeters>
          </Trackpoint>
          <Trackpoint>
            <Time>2022-10-08T09:23:00.000Z</Time>
            <Position>
              <LatitudeDegrees>37.25223918445408344268798828125</LatitudeDegrees>
              <LongitudeDegrees>-3.53947511874139308929443359375</LongitudeDegrees>
            </Position>
            <AltitudeMeters>1539</AltitudeMeters>
            <DistanceMeters>1943.1962058337</DistanceMeters>
          </Trackpoint>
          <Trackpoint>
            <Time>2022-10-08T09:23:03.000Z</Time>
            <Position>
              <LatitudeDegrees>37.25224991329014301300048828125</LatitudeDegrees>
              <LongitudeDegrees>-3.53939968161284923553466796875</LongitudeDegrees>
            </Position>
            <AltitudeMeters>1539.4000244140625</AltitudeMeters>
            <DistanceMeters>1949.9851313871</DistanceMeters>
          </Trackpoint>
          <Trackpoint>
            <Time>2022-10-08T09:23:05.000Z</Time>
            <Position>
              <LatitudeDegrees>37.25227556191384792327880859375</LatitudeDegrees>
              <LongitudeDegrees>-3.5393556766211986541748046875</LongitudeDegrees>
            </Position>
            <AltitudeMeters>1539.800048828125</AltitudeMeters>
            <DistanceMeters>1954.8165646742</DistanceMeters>
          </Trackpoint>
          <Trackpoint>
            <Time>2022-10-08T09:23:08.000Z</Time>
            <Position>
              <LatitudeDegrees>37.252328954637050628662109375</LatitudeDegrees>
              <LongitudeDegrees>-3.5393137671053409576416015625</LongitudeDegrees>
            </Position>
            <AltitudeMeters>1540</AltitudeMeters>
            <DistanceMeters>1961.8241003111</DistanceMeters>
          </Trackpoint>
          <Trackpoint>
            <Time>2022-10-08T09:23:15.000Z</Time>
            <Position>
              <LatitudeDegrees>37.252389974892139434814453125</LatitudeDegrees>
              <LongitudeDegrees>-3.53916984982788562774658203125</LongitudeDegrees>
            </Position>
            <AltitudeMeters>1540.4000244140625</AltitudeMeters>
            <DistanceMeters>1976.2706613819</DistanceMeters>
          </Trackpoint>
          <Trackpoint>
            <Time>2022-10-08T09:23:17.000Z</Time>
            <Position>
              <LatitudeDegrees>37.25240363739430904388427734375</LatitudeDegrees>
              <LongitudeDegrees>-3.53913196362555027008056640625</LongitudeDegrees>
            </Position>
            <AltitudeMeters>1540.800048828125</AltitudeMeters>
            <DistanceMeters>1979.9559340952</DistanceMeters>
          </Trackpoint>
          <Trackpoint>
            <Time>2022-10-08T09:23:23.000Z</Time>
            <Position>
              <LatitudeDegrees>37.25245258770883083343505859375</LatitudeDegrees>
              <LongitudeDegrees>-3.5390197299420833587646484375</LongitudeDegrees>
            </Position>
            <AltitudeMeters>1541.800048828125</AltitudeMeters>
            <DistanceMeters>1991.2940189536</DistanceMeters>
          </Trackpoint>
          <Trackpoint>
            <Time>2022-10-08T09:23:25.000Z</Time>
            <Position>
              <LatitudeDegrees>37.252484858036041259765625</LatitudeDegrees>
              <LongitudeDegrees>-3.53898326866328716278076171875</LongitudeDegrees>
            </Position>
            <AltitudeMeters>1542.199951171875</AltitudeMeters>
            <DistanceMeters>1996.1254522407</DistanceMeters>
          </Trackpoint>
          <Trackpoint>
            <Time>2022-10-08T09:23:28.000Z</Time>
            <Position>
              <LatitudeDegrees>37.25253087468445301055908203125</LatitudeDegrees>
              <LongitudeDegrees>-3.53894756175577640533447265625</LongitudeDegrees>
            </Position>
            <AltitudeMeters>1542.4000244140625</AltitudeMeters>
            <DistanceMeters>2002.1444776347</DistanceMeters>
          </Trackpoint>
          <Trackpoint>
            <Time>2022-10-08T09:23:36.000Z</Time>
            <Position>
              <LatitudeDegrees>37.252593822777271270751953125</LatitudeDegrees>
              <LongitudeDegrees>-3.53880171664059162139892578125</LongitudeDegrees>
            </Position>
            <AltitudeMeters>1542.5999755859375</AltitudeMeters>
            <DistanceMeters>2016.8426254379</DistanceMeters>
          </Trackpoint>
          <Trackpoint>
            <Time>2022-10-08T09:23:38.000Z</Time>
            <Position>
              <LatitudeDegrees>37.25260212086141109466552734375</LatitudeDegrees>
              <LongitudeDegrees>-3.5387615673243999481201171875</LongitudeDegrees>
            </Position>
            <AltitudeMeters>1542.800048828125</AltitudeMeters>
            <DistanceMeters>2020.5180838257</DistanceMeters>
          </Trackpoint>
          <Trackpoint>
            <Time>2022-10-08T09:23:41.000Z</Time>
            <Position>
              <LatitudeDegrees>37.2526228241622447967529296875</LatitudeDegrees>
              <LongitudeDegrees>-3.53868956677615642547607421875</LongitudeDegrees>
            </Position>
            <AltitudeMeters>1543</AltitudeMeters>
            <DistanceMeters>2027.3003555251</DistanceMeters>
          </Trackpoint>
          <Trackpoint>
            <Time>2022-10-08T09:23:43.000Z</Time>
            <Position>
              <LatitudeDegrees>37.25264017470180988311767578125</LatitudeDegrees>
              <LongitudeDegrees>-3.53860725648701190948486328125</LongitudeDegrees>
            </Position>
            <AltitudeMeters>1543</AltitudeMeters>
            <DistanceMeters>2034.8434657373</DistanceMeters>
          </Trackpoint>
          <Trackpoint>
            <Time>2022-10-08T09:23:48.000Z</Time>
            <Position>
              <LatitudeDegrees>37.25267328321933746337890625</LatitudeDegrees>
              <LongitudeDegrees>-3.5384826175868511199951171875</LongitudeDegrees>
            </Position>
            <AltitudeMeters>1543.4000244140625</AltitudeMeters>
            <DistanceMeters>2046.4841412812</DistanceMeters>
          </Trackpoint>
          <Trackpoint>
            <Time>2022-10-08T09:23:50.000Z</Time>
            <Position>
              <LatitudeDegrees>37.25268661044538021087646484375</LatitudeDegrees>
              <LongitudeDegrees>-3.53844054043292999267578125</LongitudeDegrees>
            </Position>
            <AltitudeMeters>1543.5999755859375</AltitudeMeters>
            <DistanceMeters>2050.4955744694</DistanceMeters>
          </Trackpoint>
          <Trackpoint>
            <Time>2022-10-08T09:23:56.000Z</Time>
            <Position>
              <LatitudeDegrees>37.25273187272250652313232421875</LatitudeDegrees>
              <LongitudeDegrees>-3.53830886073410511016845703125</LongitudeDegrees>
            </Position>
            <AltitudeMeters>1543.199951171875</AltitudeMeters>
            <DistanceMeters>2063.2025330707</DistanceMeters>
          </Trackpoint>
          <Trackpoint>
            <Time>2022-10-08T09:23:57.000Z</Time>
            <Position>
              <LatitudeDegrees>37.25271753966808319091796875</LatitudeDegrees>
              <LongitudeDegrees>-3.5382854752242565155029296875</LongitudeDegrees>
            </Position>
            <AltitudeMeters>1543.199951171875</AltitudeMeters>
            <DistanceMeters>2065.8170632135</DistanceMeters>
          </Trackpoint>
          <Trackpoint>
            <Time>2022-10-08T09:24:00.000Z</Time>
            <Position>
              <LatitudeDegrees>37.25268811918795108795166015625</LatitudeDegrees>
              <LongitudeDegrees>-3.53820190764963626861572265625</LongitudeDegrees>
            </Position>
            <AltitudeMeters>1543</AltitudeMeters>
            <DistanceMeters>2073.9127592818</DistanceMeters>
          </Trackpoint>
          <Trackpoint>
            <Time>2022-10-08T09:24:04.000Z</Time>
            <Position>
              <LatitudeDegrees>37.2527115046977996826171875</LatitudeDegrees>
              <LongitudeDegrees>-3.53810518048703670501708984375</LongitudeDegrees>
            </Position>
            <AltitudeMeters>1542.4000244140625</AltitudeMeters>
            <DistanceMeters>2082.8684914672</DistanceMeters>
          </Trackpoint>
          <Trackpoint>
            <Time>2022-10-08T09:24:06.000Z</Time>
            <Position>
              <LatitudeDegrees>37.252749390900135040283203125</LatitudeDegrees>
              <LongitudeDegrees>-3.53806444443762302398681640625</LongitudeDegrees>
            </Position>
            <AltitudeMeters>1542</AltitudeMeters>
            <DistanceMeters>2088.4200363786</DistanceMeters>
          </Trackpoint>
          <Trackpoint>
            <Time>2022-10-08T09:24:08.000Z</Time>
            <Position>
              <LatitudeDegrees>37.25278182886540889739990234375</LatitudeDegrees>
              <LongitudeDegrees>-3.53804550133645534515380859375</LongitudeDegrees>
            </Position>
            <AltitudeMeters>1541.800048828125</AltitudeMeters>
            <DistanceMeters>2092.4020979345</DistanceMeters>
          </Trackpoint>
          <Trackpoint>
            <Time>2022-10-08T09:24:09.000Z</Time>
            <Position>
              <LatitudeDegrees>37.25278954021632671356201171875</LatitudeDegrees>
              <LongitudeDegrees>-3.53803141973912715911865234375</LongitudeDegrees>
            </Position>
            <AltitudeMeters>1541.5999755859375</AltitudeMeters>
            <DistanceMeters>2093.9165745493</DistanceMeters>
          </Trackpoint>
          <Trackpoint>
            <Time>2022-10-08T09:24:11.000Z</Time>
            <Position>
              <LatitudeDegrees>37.25280161015689373016357421875</LatitudeDegrees>
              <LongitudeDegrees>-3.5380018316209316253662109375</LongitudeDegrees>
            </Position>
            <AltitudeMeters>1541.199951171875</AltitudeMeters>
            <DistanceMeters>2096.8608696069</DistanceMeters>
          </Trackpoint>
          <Trackpoint>
            <Time>2022-10-08T09:24:13.000Z</Time>
            <Position>
              <LatitudeDegrees>37.252822816371917724609375</LatitudeDegrees>
              <LongitudeDegrees>-3.5379745066165924072265625</LongitudeDegrees>
            </Position>
            <AltitudeMeters>1540.5999755859375</AltitudeMeters>
            <DistanceMeters>2100.2420050343</DistanceMeters>
          </Trackpoint>
          <Trackpoint>
            <Time>2022-10-08T09:24:17.000Z</Time>
            <Position>
              <LatitudeDegrees>37.2529019415378570556640625</LatitudeDegrees>
              <LongitudeDegrees>-3.53792396374046802520751953125</LongitudeDegrees>
            </Position>
            <AltitudeMeters>1540</AltitudeMeters>
            <DistanceMeters>2110.1220417933</DistanceMeters>
          </Trackpoint>
          <Trackpoint>
            <Time>2022-10-08T09:24:21.000Z</Time>
            <Position>
              <LatitudeDegrees>37.2529637999832630157470703125</LatitudeDegrees>
              <LongitudeDegrees>-3.53788054548203945159912109375</LongitudeDegrees>
            </Position>
            <AltitudeMeters>1539.4000244140625</AltitudeMeters>
            <DistanceMeters>2118.0086866151</DistanceMeters>
          </Trackpoint>
          <Trackpoint>
            <Time>2022-10-08T09:24:23.000Z</Time>
            <Position>
              <LatitudeDegrees>37.25300378166139125823974609375</LatitudeDegrees>
              <LongitudeDegrees>-3.53785774670541286468505859375</LongitudeDegrees>
            </Position>
            <AltitudeMeters>1539.199951171875</AltitudeMeters>
            <DistanceMeters>2122.8958690543</DistanceMeters>
          </Trackpoint>
          <Trackpoint>
            <Time>2022-10-08T09:24:26.000Z</Time>
            <Position>
              <LatitudeDegrees>37.253061197698116302490234375</LatitudeDegrees>
              <LongitudeDegrees>-3.5378237999975681304931640625</LongitudeDegrees>
            </Position>
            <AltitudeMeters>1538.199951171875</AltitudeMeters>
            <DistanceMeters>2129.9585981498</DistanceMeters>
          </Trackpoint>
          <Trackpoint>
            <Time>2022-10-08T09:24:28.000Z</Time>
            <Position>
              <LatitudeDegrees>37.25310587324202060699462890625</LatitudeDegrees>
              <LongitudeDegrees>-3.53780829347670078277587890625</LongitudeDegrees>
            </Position>
            <AltitudeMeters>1537.199951171875</AltitudeMeters>
            <DistanceMeters>2135.1181199646</DistanceMeters>
          </Trackpoint>
          <Trackpoint>
            <Time>2022-10-08T09:24:30.000Z</Time>
            <Position>
              <LatitudeDegrees>37.25314074195921421051025390625</LatitudeDegrees>
              <LongitudeDegrees>-3.53780007921159267425537109375</LongitudeDegrees>
            </Position>
            <AltitudeMeters>1536.4000244140625</AltitudeMeters>
            <DistanceMeters>2139.0683063013</DistanceMeters>
          </Trackpoint>
          <Trackpoint>
            <Time>2022-10-08T09:24:31.000Z</Time>
            <Position>
              <LatitudeDegrees>37.253154404461383819580078125</LatitudeDegrees>
              <LongitudeDegrees>-3.53779387660324573516845703125</LongitudeDegrees>
            </Position>
            <AltitudeMeters>1536.199951171875</AltitudeMeters>
            <DistanceMeters>2140.6865529354</DistanceMeters>
          </Trackpoint>
          <Trackpoint>
            <Time>2022-10-08T09:24:33.000Z</Time>
            <Position>
              <LatitudeDegrees>37.25318701006472110748291015625</LatitudeDegrees>
              <LongitudeDegrees>-3.53777577169239521026611328125</LongitudeDegrees>
            </Position>
            <AltitudeMeters>1535</AltitudeMeters>
            <DistanceMeters>2144.6549850337</DistanceMeters>
          </Trackpoint>
          <Trackpoint>
            <Time>2022-10-08T09:24:35.000Z</Time>
            <Position>
              <LatitudeDegrees>37.25322355516254901885986328125</LatitudeDegrees>
              <LongitudeDegrees>-3.53777124546468257904052734375</LongitudeDegrees>
            </Position>
            <AltitudeMeters>1534.199951171875</AltitudeMeters>
            <DistanceMeters>2148.742238564</DistanceMeters>
          </Trackpoint>
          <Trackpoint>
            <Time>2022-10-08T09:24:36.000Z</Time>
            <Position>
              <LatitudeDegrees>37.25323981605470180511474609375</LatitudeDegrees>
              <LongitudeDegrees>-3.5377733409404754638671875</LongitudeDegrees>
            </Position>
            <AltitudeMeters>1533.5999755859375</AltitudeMeters>
            <DistanceMeters>2150.5602066546</DistanceMeters>
          </Trackpoint>
          <Trackpoint>
            <Time>2022-10-08T09:24:38.000Z</Time>
            <Position>
              <LatitudeDegrees>37.2532735951244831085205078125</LatitudeDegrees>
              <LongitudeDegrees>-3.537769652903079986572265625</LongitudeDegrees>
            </Position>
            <AltitudeMeters>1532.5999755859375</AltitudeMeters>
            <DistanceMeters>2154.3350524301</DistanceMeters>
          </Trackpoint>
          <Trackpoint>
            <Time>2022-10-08T09:24:39.000Z</Time>
            <Position>
              <LatitudeDegrees>37.2532890178263187408447265625</LatitudeDegrees>
              <LongitudeDegrees>-3.53776386938989162445068359375</LongitudeDegrees>
            </Position>
            <AltitudeMeters>1531.800048828125</AltitudeMeters>
            <DistanceMeters>2156.1254929171</DistanceMeters>
          </Trackpoint>
          <Trackpoint>
            <Time>2022-10-08T09:24:40.000Z</Time>
            <Position>
              <LatitudeDegrees>37.25331206806004047393798828125</LatitudeDegrees>
              <LongitudeDegrees>-3.53773788549005985260009765625</LongitudeDegrees>
            </Position>
            <AltitudeMeters>1531.4000244140625</AltitudeMeters>
            <DistanceMeters>2159.5727498847</DistanceMeters>
          </Trackpoint>
          <Trackpoint>
            <Time>2022-10-08T09:24:43.000Z</Time>
            <Position>
              <LatitudeDegrees>37.253381051123142242431640625</LatitudeDegrees>
              <LongitudeDegrees>-3.5376660525798797607421875</LongitudeDegrees>
            </Position>
            <AltitudeMeters>1530</AltitudeMeters>
            <DistanceMeters>2169.5455760615</DistanceMeters>
          </Trackpoint>
          <Trackpoint>
            <Time>2022-10-08T09:24:44.000Z</Time>
            <Position>
              <LatitudeDegrees>37.25340552628040313720703125</LatitudeDegrees>
              <LongitudeDegrees>-3.53763990104198455810546875</LongitudeDegrees>
            </Position>
            <AltitudeMeters>1529.800048828125</AltitudeMeters>
            <DistanceMeters>2173.1214099845</DistanceMeters>
          </Trackpoint>
          <Trackpoint>
            <Time>2022-10-08T09:24:48.000Z</Time>
            <Position>
              <LatitudeDegrees>37.25349831394851207733154296875</LatitudeDegrees>
              <LongitudeDegrees>-3.5375264100730419158935546875</LongitudeDegrees>
            </Position>
            <AltitudeMeters>1529</AltitudeMeters>
            <DistanceMeters>2187.5348044032</DistanceMeters>
          </Trackpoint>
          <Trackpoint>
            <Time>2022-10-08T09:24:50.000Z</Time>
            <Position>
              <LatitudeDegrees>37.253529913723468780517578125</LatitudeDegrees>
              <LongitudeDegrees>-3.5374798066914081573486328125</LongitudeDegrees>
            </Position>
            <AltitudeMeters>1528.4000244140625</AltitudeMeters>
            <DistanceMeters>2192.9588240431</DistanceMeters>
          </Trackpoint>
          <Trackpoint>
            <Time>2022-10-08T09:24:53.000Z</Time>
            <Position>
              <LatitudeDegrees>37.25359654985368251800537109375</LatitudeDegrees>
              <LongitudeDegrees>-3.53745273314416408538818359375</LongitudeDegrees>
            </Position>
            <AltitudeMeters>1528</AltitudeMeters>
            <DistanceMeters>2200.753911239</DistanceMeters>
          </Trackpoint>
          <Trackpoint>
            <Time>2022-10-08T09:24:55.000Z</Time>
            <Position>
              <LatitudeDegrees>37.253637202084064483642578125</LatitudeDegrees>
              <LongitudeDegrees>-3.53743563406169414520263671875</LongitudeDegrees>
            </Position>
            <AltitudeMeters>1526.5999755859375</AltitudeMeters>
            <DistanceMeters>2205.5251608358</DistanceMeters>
          </Trackpoint>
          <Trackpoint>
            <Time>2022-10-08T09:24:56.000Z</Time>
            <Position>
              <LatitudeDegrees>37.25365639664232730865478515625</LatitudeDegrees>
              <LongitudeDegrees>-3.53741836734116077423095703125</LongitudeDegrees>
            </Position>
            <AltitudeMeters>1526.199951171875</AltitudeMeters>
            <DistanceMeters>2208.1517514783</DistanceMeters>
          </Trackpoint>
          <Trackpoint>
            <Time>2022-10-08T09:24:58.000Z</Time>
            <Position>
              <LatitudeDegrees>37.253691852092742919921875</LatitudeDegrees>
              <LongitudeDegrees>-3.53738240897655487060546875</LongitudeDegrees>
            </Position>
            <AltitudeMeters>1525.5999755859375</AltitudeMeters>
            <DistanceMeters>2213.2230094793</DistanceMeters>
          </Trackpoint>
          <Trackpoint>
            <Time>2022-10-08T09:25:02.000Z</Time>
            <Position>
              <LatitudeDegrees>37.25377877242863178253173828125</LatitudeDegrees>
              <LongitudeDegrees>-3.5373205505311489105224609375</LongitudeDegrees>
            </Position>
            <AltitudeMeters>1524.199951171875</AltitudeMeters>
            <DistanceMeters>2224.3415411502</DistanceMeters>
          </Trackpoint>
          <Trackpoint>
            <Time>2022-10-08T09:25:04.000Z</Time>
            <Position>
              <LatitudeDegrees>37.2538167424499988555908203125</LatitudeDegrees>
              <LongitudeDegrees>-3.53729565627872943878173828125</LongitudeDegrees>
            </Position>
            <AltitudeMeters>1523</AltitudeMeters>
            <DistanceMeters>2229.1080568937</DistanceMeters>
          </Trackpoint>
          <Trackpoint>
            <Time>2022-10-08T09:25:05.000Z</Time>
            <Position>
              <LatitudeDegrees>37.253837697207927703857421875</LatitudeDegrees>
              <LongitudeDegrees>-3.53728727437555789947509765625</LongitudeDegrees>
            </Position>
            <AltitudeMeters>1522.4000244140625</AltitudeMeters>
            <DistanceMeters>2231.5530335001</DistanceMeters>
          </Trackpoint>
          <Trackpoint>
            <Time>2022-10-08T09:25:06.000Z</Time>
            <Position>
              <LatitudeDegrees>37.25387214682996273040771484375</LatitudeDegrees>
              <LongitudeDegrees>-3.53726699016988277435302734375</LongitudeDegrees>
            </Position>
            <AltitudeMeters>1521.800048828125</AltitudeMeters>
            <DistanceMeters>2235.7878572058</DistanceMeters>
          </Trackpoint>
          <Trackpoint>
            <Time>2022-10-08T09:25:08.000Z</Time>
            <Position>
              <LatitudeDegrees>37.25393651984632015228271484375</LatitudeDegrees>
              <LongitudeDegrees>-3.53724033571779727935791015625</LongitudeDegrees>
            </Position>
            <AltitudeMeters>1520.5999755859375</AltitudeMeters>
            <DistanceMeters>2243.3327628979</DistanceMeters>
          </Trackpoint>
          <Trackpoint>
            <Time>2022-10-08T09:25:10.000Z</Time>
            <Position>
              <LatitudeDegrees>37.25401304662227630615234375</LatitudeDegrees>
              <LongitudeDegrees>-3.537205718457698822021484375</LongitudeDegrees>
            </Position>
            <AltitudeMeters>1518.800048828125</AltitudeMeters>
            <DistanceMeters>2252.3857720001</DistanceMeters>
          </Trackpoint>
          <Trackpoint>
            <Time>2022-10-08T09:25:11.000Z</Time>
            <Position>
              <LatitudeDegrees>37.2540490888059139251708984375</LatitudeDegrees>
              <LongitudeDegrees>-3.537187278270721435546875</LongitudeDegrees>
            </Position>
            <AltitudeMeters>1518.4000244140625</AltitudeMeters>
            <DistanceMeters>2256.7165304526</DistanceMeters>
          </Trackpoint>
          <Trackpoint>
            <Time>2022-10-08T09:25:12.000Z</Time>
            <Position>
              <LatitudeDegrees>37.25407800637185573577880859375</LatitudeDegrees>
              <LongitudeDegrees>-3.5371686704456806182861328125</LongitudeDegrees>
            </Position>
            <AltitudeMeters>1517.199951171875</AltitudeMeters>
            <DistanceMeters>2260.3325435459</DistanceMeters>
          </Trackpoint>
          <Trackpoint>
            <Time>2022-10-08T09:25:14.000Z</Time>
            <Position>
              <LatitudeDegrees>37.2541258670389652252197265625</LatitudeDegrees>
              <LongitudeDegrees>-3.53713036514818668365478515625</LongitudeDegrees>
            </Position>
            <AltitudeMeters>1515.5999755859375</AltitudeMeters>
            <DistanceMeters>2266.6487827537</DistanceMeters>
          </Trackpoint>
          <Trackpoint>
            <Time>2022-10-08T09:25:15.000Z</Time>
            <Position>
              <LatitudeDegrees>37.254150174558162689208984375</LatitudeDegrees>
              <LongitudeDegrees>-3.537113182246685028076171875</LongitudeDegrees>
            </Position>
            <AltitudeMeters>1515</AltitudeMeters>
            <DistanceMeters>2269.7542813678</DistanceMeters>
          </Trackpoint>
          <Trackpoint>
            <Time>2022-10-08T09:25:17.000Z</Time>
            <Position>
              <LatitudeDegrees>37.2542016394436359405517578125</LatitudeDegrees>
              <LongitudeDegrees>-3.53707395493984222412109375</LongitudeDegrees>
            </Position>
            <AltitudeMeters>1514.199951171875</AltitudeMeters>
            <DistanceMeters>2276.4534962416</DistanceMeters>
          </Trackpoint>
          <Trackpoint>
            <Time>2022-10-08T09:25:19.000Z</Time>
            <Position>
              <LatitudeDegrees>37.25424447096884250640869140625</LatitudeDegrees>
              <LongitudeDegrees>-3.53704201988875865936279296875</LongitudeDegrees>
            </Position>
            <AltitudeMeters>1513</AltitudeMeters>
            <DistanceMeters>2281.9977166751</DistanceMeters>
          </Trackpoint>
          <Trackpoint>
            <Time>2022-10-08T09:25:22.000Z</Time>
            <Position>
              <LatitudeDegrees>37.2543250210583209991455078125</LatitudeDegrees>
              <LongitudeDegrees>-3.53697865270078182220458984375</LongitudeDegrees>
            </Position>
            <AltitudeMeters>1511.5999755859375</AltitudeMeters>
            <DistanceMeters>2292.5760297398</DistanceMeters>
          </Trackpoint>
          <Trackpoint>
            <Time>2022-10-08T09:25:25.000Z</Time>
            <Position>
              <LatitudeDegrees>37.2544039785861968994140625</LatitudeDegrees>
              <LongitudeDegrees>-3.536929786205291748046875</LongitudeDegrees>
            </Position>
            <AltitudeMeters>1510.4000244140625</AltitudeMeters>
            <DistanceMeters>2302.3725419991</DistanceMeters>
          </Trackpoint>
          <Trackpoint>
            <Time>2022-10-08T09:25:27.000Z</Time>
            <Position>
              <LatitudeDegrees>37.25444831885397434234619140625</LatitudeDegrees>
              <LongitudeDegrees>-3.536871783435344696044921875</LongitudeDegrees>
            </Position>
            <AltitudeMeters>1509</AltitudeMeters>
            <DistanceMeters>2309.4970110804</DistanceMeters>
          </Trackpoint>
          <Trackpoint>
            <Time>2022-10-08T09:25:28.000Z</Time>
            <Position>
              <LatitudeDegrees>37.25447296164929866790771484375</LatitudeDegrees>
              <LongitudeDegrees>-3.53684118948876857757568359375</LongitudeDegrees>
            </Position>
            <AltitudeMeters>1508.199951171875</AltitudeMeters>
            <DistanceMeters>2313.3523328344</DistanceMeters>
          </Trackpoint>
          <Trackpoint>
            <Time>2022-10-08T09:25:29.000Z</Time>
            <Position>
              <LatitudeDegrees>37.25449492223560810089111328125</LatitudeDegrees>
              <LongitudeDegrees>-3.536810092628002166748046875</LongitudeDegrees>
            </Position>
            <AltitudeMeters>1507.5999755859375</AltitudeMeters>
            <DistanceMeters>2317.0351544183</DistanceMeters>
          </Trackpoint>
          <Trackpoint>
            <Time>2022-10-08T09:25:32.000Z</Time>
            <Position>
              <LatitudeDegrees>37.2545868717133998870849609375</LatitudeDegrees>
              <LongitudeDegrees>-3.5366895608603954315185546875</LongitudeDegrees>
            </Position>
            <AltitudeMeters>1506.4000244140625</AltitudeMeters>
            <DistanceMeters>2331.8257809071</DistanceMeters>
          </Trackpoint>
          <Trackpoint>
            <Time>2022-10-08T09:25:34.000Z</Time>
            <Position>
              <LatitudeDegrees>37.254661805927753448486328125</LatitudeDegrees>
              <LongitudeDegrees>-3.5366352461278438568115234375</LongitudeDegrees>
            </Position>
            <AltitudeMeters>1505.4000244140625</AltitudeMeters>
            <DistanceMeters>2341.4549462358</DistanceMeters>
          </Trackpoint>
          <Trackpoint>
            <Time>2022-10-08T09:25:36.000Z</Time>
            <Position>
              <LatitudeDegrees>37.25471888668835163116455078125</LatitudeDegrees>
              <LongitudeDegrees>-3.53659174405038356781005859375</LongitudeDegrees>
            </Position>
            <AltitudeMeters>1504</AltitudeMeters>
            <DistanceMeters>2348.8852818526</DistanceMeters>
          </Trackpoint>
          <Trackpoint>
            <Time>2022-10-08T09:25:38.000Z</Time>
            <Position>
              <LatitudeDegrees>37.254763729870319366455078125</LatitudeDegrees>
              <LongitudeDegrees>-3.53654530830681324005126953125</LongitudeDegrees>
            </Position>
            <AltitudeMeters>1502.800048828125</AltitudeMeters>
            <DistanceMeters>2355.3526858208</DistanceMeters>
          </Trackpoint>
          <Trackpoint>
            <Time>2022-10-08T09:25:39.000Z</Time>
            <Position>
              <LatitudeDegrees>37.25478577427566051483154296875</LatitudeDegrees>
              <LongitudeDegrees>-3.53651882149279117584228515625</LongitudeDegrees>
            </Position>
            <AltitudeMeters>1502.4000244140625</AltitudeMeters>
            <DistanceMeters>2358.7458182182</DistanceMeters>
          </Trackpoint>
          <Trackpoint>
            <Time>2022-10-08T09:25:41.000Z</Time>
            <Position>
              <LatitudeDegrees>37.254824750125408172607421875</LatitudeDegrees>
              <LongitudeDegrees>-3.536471463739871978759765625</LongitudeDegrees>
            </Position>
            <AltitudeMeters>1501.5999755859375</AltitudeMeters>
            <DistanceMeters>2364.7798275173</DistanceMeters>
          </Trackpoint>
          <Trackpoint>
            <Time>2022-10-08T09:25:46.000Z</Time>
            <Position>
              <LatitudeDegrees>37.2549248300492763519287109375</LatitudeDegrees>
              <LongitudeDegrees>-3.53631916455924510955810546875</LongitudeDegrees>
            </Position>
            <AltitudeMeters>1500.4000244140625</AltitudeMeters>
            <DistanceMeters>2382.276101162</DistanceMeters>
          </Trackpoint>
          <Trackpoint>
            <Time>2022-10-08T09:25:48.000Z</Time>
            <Position>
              <LatitudeDegrees>37.25494871847331523895263671875</LatitudeDegrees>
              <LongitudeDegrees>-3.53624976240098476409912109375</LongitudeDegrees>
            </Position>
            <AltitudeMeters>1500.4000244140625</AltitudeMeters>
            <DistanceMeters>2388.9739679697</DistanceMeters>
          </Trackpoint>
          <Trackpoint>
            <Time>2022-10-08T09:25:54.000Z</Time>
            <Position>
              <LatitudeDegrees>37.25499481894075870513916015625</LatitudeDegrees>
              <LongitudeDegrees>-3.53602462448179721832275390625</LongitudeDegrees>
            </Position>
            <AltitudeMeters>1499.800048828125</AltitudeMeters>
            <DistanceMeters>2409.5686927936</DistanceMeters>
          </Trackpoint>
          <Trackpoint>
            <Time>2022-10-08T09:25:55.000Z</Time>
            <Position>
              <LatitudeDegrees>37.2550059668719768524169921875</LatitudeDegrees>
              <LongitudeDegrees>-3.53598858229815959930419921875</LongitudeDegrees>
            </Position>
            <AltitudeMeters>1499.5999755859375</AltitudeMeters>
            <DistanceMeters>2412.9949297056</DistanceMeters>
          </Trackpoint>
          <Trackpoint>
            <Time>2022-10-08T09:25:56.000Z</Time>
            <Position>
              <LatitudeDegrees>37.2550141811370849609375</LatitudeDegrees>
              <LongitudeDegrees>-3.53594516403973102569580078125</LongitudeDegrees>
            </Position>
            <AltitudeMeters>1499.4000244140625</AltitudeMeters>
            <DistanceMeters>2416.9474013688</DistanceMeters>
          </Trackpoint>
          <Trackpoint>
            <Time>2022-10-08T09:25:59.000Z</Time>
            <Position>
              <LatitudeDegrees>37.25503019057214260101318359375</LatitudeDegrees>
              <LongitudeDegrees>-3.53584877215325832366943359375</LongitudeDegrees>
            </Position>
            <AltitudeMeters>1498.4000244140625</AltitudeMeters>
            <DistanceMeters>2425.6707295291</DistanceMeters>
          </Trackpoint>
          <Trackpoint>
            <Time>2022-10-08T09:26:00.000Z</Time>
            <Position>
              <LatitudeDegrees>37.255035974085330963134765625</LatitudeDegrees>
              <LongitudeDegrees>-3.53581557981669902801513671875</LongitudeDegrees>
            </Position>
            <AltitudeMeters>1498.199951171875</AltitudeMeters>
            <DistanceMeters>2428.6787415964</DistanceMeters>
          </Trackpoint>
          <Trackpoint>
            <Time>2022-10-08T09:26:03.000Z</Time>
            <Position>
              <LatitudeDegrees>37.25504460744559764862060546875</LatitudeDegrees>
              <LongitudeDegrees>-3.53571935556828975677490234375</LongitudeDegrees>
            </Position>
            <AltitudeMeters>1497.199951171875</AltitudeMeters>
            <DistanceMeters>2437.2575015895</DistanceMeters>
          </Trackpoint>
          <Trackpoint>
            <Time>2022-10-08T09:26:04.000Z</Time>
            <Position>
              <LatitudeDegrees>37.2550559230148792266845703125</LatitudeDegrees>
              <LongitudeDegrees>-3.5356944613158702850341796875</LongitudeDegrees>
            </Position>
            <AltitudeMeters>1497</AltitudeMeters>
            <DistanceMeters>2439.7966893692</DistanceMeters>
          </Trackpoint>
          <Trackpoint>
            <Time>2022-10-08T09:26:08.000Z</Time>
            <Position>
              <LatitudeDegrees>37.25511183030903339385986328125</LatitudeDegrees>
              <LongitudeDegrees>-3.5356119833886623382568359375</LongitudeDegrees>
            </Position>
            <AltitudeMeters>1496.4000244140625</AltitudeMeters>
            <DistanceMeters>2449.392976129</DistanceMeters>
          </Trackpoint>
          <Trackpoint>
            <Time>2022-10-08T09:26:11.000Z</Time>
            <Position>
              <LatitudeDegrees>37.2551595233380794525146484375</LatitudeDegrees>
              <LongitudeDegrees>-3.53553830645978450775146484375</LongitudeDegrees>
            </Position>
            <AltitudeMeters>1495.800048828125</AltitudeMeters>
            <DistanceMeters>2457.8059268104</DistanceMeters>
          </Trackpoint>
          <Trackpoint>
            <Time>2022-10-08T09:26:15.000Z</Time>
            <Position>
              <LatitudeDegrees>37.25522565655410289764404296875</LatitudeDegrees>
              <LongitudeDegrees>-3.53544292040169239044189453125</LongitudeDegrees>
            </Position>
            <AltitudeMeters>1495</AltitudeMeters>
            <DistanceMeters>2469.0126347651</DistanceMeters>
          </Trackpoint>
          <Trackpoint>
            <Time>2022-10-08T09:26:16.000Z</Time>
            <Position>
              <LatitudeDegrees>37.255249880254268646240234375</LatitudeDegrees>
              <LongitudeDegrees>-3.53540285490453243255615234375</LongitudeDegrees>
            </Position>
            <AltitudeMeters>1494.800048828125</AltitudeMeters>
            <DistanceMeters>2473.469782752</DistanceMeters>
          </Trackpoint>
          <Trackpoint>
            <Time>2022-10-08T09:26:18.000Z</Time>
            <Position>
              <LatitudeDegrees>37.255283407866954803466796875</LatitudeDegrees>
              <LongitudeDegrees>-3.53534066118299961090087890625</LongitudeDegrees>
            </Position>
            <AltitudeMeters>1494.4000244140625</AltitudeMeters>
            <DistanceMeters>2480.124367253</DistanceMeters>
          </Trackpoint>
          <Trackpoint>
            <Time>2022-10-08T09:26:21.000Z</Time>
            <Position>
              <LatitudeDegrees>37.25532556883990764617919921875</LatitudeDegrees>
              <LongitudeDegrees>-3.535244353115558624267578125</LongitudeDegrees>
            </Position>
            <AltitudeMeters>1494</AltitudeMeters>
            <DistanceMeters>2489.861707889</DistanceMeters>
          </Trackpoint>
          <Trackpoint>
            <Time>2022-10-08T09:26:23.000Z</Time>
            <Position>
              <LatitudeDegrees>37.2553603537380695343017578125</LatitudeDegrees>
              <LongitudeDegrees>-3.53518643416464328765869140625</LongitudeDegrees>
            </Position>
            <AltitudeMeters>1493.800048828125</AltitudeMeters>
            <DistanceMeters>2496.2898981326</DistanceMeters>
          </Trackpoint>
          <Trackpoint>
            <Time>2022-10-08T09:26:27.000Z</Time>
            <Position>
              <LatitudeDegrees>37.255416177213191986083984375</LatitudeDegrees>
              <LongitudeDegrees>-3.53508333675563335418701171875</LongitudeDegrees>
            </Position>
            <AltitudeMeters>1492.4000244140625</AltitudeMeters>
            <DistanceMeters>2507.335910667</DistanceMeters>
          </Trackpoint>
          <Trackpoint>
            <Time>2022-10-08T09:26:28.000Z</Time>
            <Position>
              <LatitudeDegrees>37.255426906049251556396484375</LatitudeDegrees>
              <LongitudeDegrees>-3.53506053797900676727294921875</LongitudeDegrees>
            </Position>
            <AltitudeMeters>1492.199951171875</AltitudeMeters>
            <DistanceMeters>2509.6828973799</DistanceMeters>
          </Trackpoint>
          <Trackpoint>
            <Time>2022-10-08T09:26:31.000Z</Time>
            <Position>
              <LatitudeDegrees>37.25543570704758167266845703125</LatitudeDegrees>
              <LongitudeDegrees>-3.53497286327183246612548828125</LongitudeDegrees>
            </Position>
            <AltitudeMeters>1491.199951171875</AltitudeMeters>
            <DistanceMeters>2517.5109302586</DistanceMeters>
          </Trackpoint>
          <Trackpoint>
            <Time>2022-10-08T09:26:32.000Z</Time>
            <Position>
              <LatitudeDegrees>37.255429923534393310546875</LatitudeDegrees>
              <LongitudeDegrees>-3.534944951534271240234375</LongitudeDegrees>
            </Position>
            <AltitudeMeters>1490.800048828125</AltitudeMeters>
            <DistanceMeters>2520.0643035553</DistanceMeters>
          </Trackpoint>
          <Trackpoint>
            <Time>2022-10-08T09:26:35.000Z</Time>
            <Position>
              <LatitudeDegrees>37.25540603511035442352294921875</LatitudeDegrees>
              <LongitudeDegrees>-3.5348576121032238006591796875</LongitudeDegrees>
            </Position>
            <AltitudeMeters>1489.800048828125</AltitudeMeters>
            <DistanceMeters>2528.2459877755</DistanceMeters>
          </Trackpoint>
          <Trackpoint>
            <Time>2022-10-08T09:26:37.000Z</Time>
            <Position>
              <LatitudeDegrees>37.25541592575609683990478515625</LatitudeDegrees>
              <LongitudeDegrees>-3.53481142781674861907958984375</LongitudeDegrees>
            </Position>
            <AltitudeMeters>1489.199951171875</AltitudeMeters>
            <DistanceMeters>2532.4840087815</DistanceMeters>
          </Trackpoint>
          <Trackpoint>
            <Time>2022-10-08T09:26:39.000Z</Time>
            <Position>
              <LatitudeDegrees>37.2554111480712890625</LatitudeDegrees>
              <LongitudeDegrees>-3.53476700372993946075439453125</LongitudeDegrees>
            </Position>
            <AltitudeMeters>1488.4000244140625</AltitudeMeters>
            <DistanceMeters>2536.4547157048</DistanceMeters>
          </Trackpoint>
          <Trackpoint>
            <Time>2022-10-08T09:26:40.000Z</Time>
            <Position>
              <LatitudeDegrees>37.2554123215377330780029296875</LatitudeDegrees>
              <LongitudeDegrees>-3.534742780029773712158203125</LongitudeDegrees>
            </Position>
            <AltitudeMeters>1487.5999755859375</AltitudeMeters>
            <DistanceMeters>2538.6049247968</DistanceMeters>
          </Trackpoint>
          <Trackpoint>
            <Time>2022-10-08T09:26:41.000Z</Time>
            <Position>
              <LatitudeDegrees>37.25541927851736545562744140625</LatitudeDegrees>
              <LongitudeDegrees>-3.53471587412059307098388671875</LongitudeDegrees>
            </Position>
            <AltitudeMeters>1487.199951171875</AltitudeMeters>
            <DistanceMeters>2541.1119017024</DistanceMeters>
          </Trackpoint>
          <Trackpoint>
            <Time>2022-10-08T09:26:43.000Z</Time>
            <Position>
              <LatitudeDegrees>37.25544224493205547332763671875</LatitudeDegrees>
              <LongitudeDegrees>-3.53464563377201557159423828125</LongitudeDegrees>
            </Position>
            <AltitudeMeters>1486.199951171875</AltitudeMeters>
            <DistanceMeters>2547.8393635668</DistanceMeters>
          </Trackpoint>
          <Trackpoint>
            <Time>2022-10-08T09:26:46.000Z</Time>
            <Position>
              <LatitudeDegrees>37.25547778420150279998779296875</LatitudeDegrees>
              <LongitudeDegrees>-3.5345404408872127532958984375</LongitudeDegrees>
            </Position>
            <AltitudeMeters>1485</AltitudeMeters>
            <DistanceMeters>2557.9631656015</DistanceMeters>
          </Trackpoint>
          <Trackpoint>
            <Time>2022-10-08T09:26:48.000Z</Time>
            <Position>
              <LatitudeDegrees>37.2554984875023365020751953125</LatitudeDegrees>
              <LongitudeDegrees>-3.5344720445573329925537109375</LongitudeDegrees>
            </Position>
            <AltitudeMeters>1484.4000244140625</AltitudeMeters>
            <DistanceMeters>2564.4459100644</DistanceMeters>
          </Trackpoint>
          <Trackpoint>
            <Time>2022-10-08T09:26:50.000Z</Time>
            <Position>
              <LatitudeDegrees>37.2555350326001644134521484375</LatitudeDegrees>
              <LongitudeDegrees>-3.53441798128187656402587890625</LongitudeDegrees>
            </Position>
            <AltitudeMeters>1483.800048828125</AltitudeMeters>
            <DistanceMeters>2570.7291810447</DistanceMeters>
          </Trackpoint>
          <Trackpoint>
            <Time>2022-10-08T09:26:54.000Z</Time>
            <Position>
              <LatitudeDegrees>37.25558725185692310333251953125</LatitudeDegrees>
              <LongitudeDegrees>-3.5342557914555072784423828125</LongitudeDegrees>
            </Position>
            <AltitudeMeters>1483</AltitudeMeters>
            <DistanceMeters>2586.228734384</DistanceMeters>
          </Trackpoint>
          <Trackpoint>
            <Time>2022-10-08T09:26:56.000Z</Time>
            <Position>
              <LatitudeDegrees>37.25561591796576976776123046875</LatitudeDegrees>
              <LongitudeDegrees>-3.5341853834688663482666015625</LongitudeDegrees>
            </Position>
            <AltitudeMeters>1482.4000244140625</AltitudeMeters>
            <DistanceMeters>2593.2349812786</DistanceMeters>
          </Trackpoint>
          <Trackpoint>
            <Time>2022-10-08T09:26:59.000Z</Time>
            <Position>
              <LatitudeDegrees>37.255695126950740814208984375</LatitudeDegrees>
              <LongitudeDegrees>-3.53410801850259304046630859375</LongitudeDegrees>
            </Position>
            <AltitudeMeters>1482</AltitudeMeters>
            <DistanceMeters>2604.4021364979</DistanceMeters>
          </Trackpoint>
          <Trackpoint>
            <Time>2022-10-08T09:27:04.000Z</Time>
            <Position>
              <LatitudeDegrees>37.25577383302152156829833984375</LatitudeDegrees>
              <LongitudeDegrees>-3.53408907540142536163330078125</LongitudeDegrees>
            </Position>
            <AltitudeMeters>1481.4000244140625</AltitudeMeters>
            <DistanceMeters>2613.3214959744</DistanceMeters>
          </Trackpoint>
          <Trackpoint>
            <Time>2022-10-08T09:27:05.000Z</Time>
            <Position>
              <LatitudeDegrees>37.25579001009464263916015625</LatitudeDegrees>
              <LongitudeDegrees>-3.53408597409725189208984375</LongitudeDegrees>
            </Position>
            <AltitudeMeters>1481.5999755859375</AltitudeMeters>
            <DistanceMeters>2615.1419459339</DistanceMeters>
          </Trackpoint>
          <Trackpoint>
            <Time>2022-10-08T09:27:12.000Z</Time>
            <Position>
              <LatitudeDegrees>37.25591649301350116729736328125</LatitudeDegrees>
              <LongitudeDegrees>-3.5340381972491741180419921875</LongitudeDegrees>
            </Position>
            <AltitudeMeters>1482.800048828125</AltitudeMeters>
            <DistanceMeters>2629.842243869</DistanceMeters>
          </Trackpoint>
          <Trackpoint>
            <Time>2022-10-08T09:27:14.000Z</Time>
            <Position>
              <LatitudeDegrees>37.255950607359409332275390625</LatitudeDegrees>
              <LongitudeDegrees>-3.5340029932558536529541015625</LongitudeDegrees>
            </Position>
            <AltitudeMeters>1483.4000244140625</AltitudeMeters>
            <DistanceMeters>2634.7561450087</DistanceMeters>
          </Trackpoint>
          <Trackpoint>
            <Time>2022-10-08T09:27:18.000Z</Time>
            <Position>
              <LatitudeDegrees>37.2560374438762664794921875</LatitudeDegrees>
              <LongitudeDegrees>-3.53392730467021465301513671875</LongitudeDegrees>
            </Position>
            <AltitudeMeters>1484</AltitudeMeters>
            <DistanceMeters>2646.5195157598</DistanceMeters>
          </Trackpoint>
          <Trackpoint>
            <Time>2022-10-08T09:27:22.000Z</Time>
            <Position>
              <LatitudeDegrees>37.25610340945422649383544921875</LatitudeDegrees>
              <LongitudeDegrees>-3.53383158333599567413330078125</LongitudeDegrees>
            </Position>
            <AltitudeMeters>1484.5999755859375</AltitudeMeters>
            <DistanceMeters>2657.7362913702</DistanceMeters>
          </Trackpoint>
          <Trackpoint>
            <Time>2022-10-08T09:27:23.000Z</Time>
            <Position>
              <LatitudeDegrees>37.25611497648060321807861328125</LatitudeDegrees>
              <LongitudeDegrees>-3.533814735710620880126953125</LongitudeDegrees>
            </Position>
            <AltitudeMeters>1484.5999755859375</AltitudeMeters>
            <DistanceMeters>2659.7068072597</DistanceMeters>
          </Trackpoint>
          <Trackpoint>
            <Time>2022-10-08T09:27:24.000Z</Time>
            <Position>
              <LatitudeDegrees>37.256127297878265380859375</LatitudeDegrees>
              <LongitudeDegrees>-3.53380241431295871734619140625</LongitudeDegrees>
            </Position>
            <AltitudeMeters>1484.800048828125</AltitudeMeters>
            <DistanceMeters>2661.4615881769</DistanceMeters>
          </Trackpoint>
          <Trackpoint>
            <Time>2022-10-08T09:27:29.000Z</Time>
            <Position>
              <LatitudeDegrees>37.2561717219650745391845703125</LatitudeDegrees>
              <LongitudeDegrees>-3.5336945392191410064697265625</LongitudeDegrees>
            </Position>
            <AltitudeMeters>1483.4000244140625</AltitudeMeters>
            <DistanceMeters>2672.22186885</DistanceMeters>
          </Trackpoint>
          <Trackpoint>
            <Time>2022-10-08T09:27:30.000Z</Time>
            <Position>
              <LatitudeDegrees>37.256175577640533447265625</LatitudeDegrees>
              <LongitudeDegrees>-3.5336650349199771881103515625</LongitudeDegrees>
            </Position>
            <AltitudeMeters>1483.199951171875</AltitudeMeters>
            <DistanceMeters>2674.872415864</DistanceMeters>
          </Trackpoint>
          <Trackpoint>
            <Time>2022-10-08T09:27:37.000Z</Time>
            <Position>
              <LatitudeDegrees>37.256191335618495941162109375</LatitudeDegrees>
              <LongitudeDegrees>-3.53345959447324275970458984375</LongitudeDegrees>
            </Position>
            <AltitudeMeters>1484</AltitudeMeters>
            <DistanceMeters>2693.1566027507</DistanceMeters>
          </Trackpoint>
          <Trackpoint>
            <Time>2022-10-08T09:27:39.000Z</Time>
            <Position>
              <LatitudeDegrees>37.256207764148712158203125</LatitudeDegrees>
              <LongitudeDegrees>-3.5334092192351818084716796875</LongitudeDegrees>
            </Position>
            <AltitudeMeters>1484.4000244140625</AltitudeMeters>
            <DistanceMeters>2697.9796180855</DistanceMeters>
          </Trackpoint>
          <Trackpoint>
            <Time>2022-10-08T09:27:45.000Z</Time>
            <Position>
              <LatitudeDegrees>37.256273813545703887939453125</LatitudeDegrees>
              <LongitudeDegrees>-3.5332603566348552703857421875</LongitudeDegrees>
            </Position>
            <AltitudeMeters>1485.4000244140625</AltitudeMeters>
            <DistanceMeters>2713.0778050545</DistanceMeters>
          </Trackpoint>
          <Trackpoint>
            <Time>2022-10-08T09:27:46.000Z</Time>
            <Position>
              <LatitudeDegrees>37.25628546439111232757568359375</LatitudeDegrees>
              <LongitudeDegrees>-3.533240072429180145263671875</LongitudeDegrees>
            </Position>
            <AltitudeMeters>1485.5999755859375</AltitudeMeters>
            <DistanceMeters>2715.2921518</DistanceMeters>
          </Trackpoint>
          <Trackpoint>
            <Time>2022-10-08T09:27:50.000Z</Time>
            <Position>
              <LatitudeDegrees>37.256333492696285247802734375</LatitudeDegrees>
              <LongitudeDegrees>-3.5331322811543941497802734375</LongitudeDegrees>
            </Position>
            <AltitudeMeters>1486.5999755859375</AltitudeMeters>
            <DistanceMeters>2726.2355001815</DistanceMeters>
          </Trackpoint>
          <Trackpoint>
            <Time>2022-10-08T09:27:51.000Z</Time>
            <Position>
              <LatitudeDegrees>37.25633676163852214813232421875</LatitudeDegrees>
              <LongitudeDegrees>-3.53309229947626590728759765625</LongitudeDegrees>
            </Position>
            <AltitudeMeters>1487</AltitudeMeters>
            <DistanceMeters>2729.7961500277</DistanceMeters>
          </Trackpoint>
          <Trackpoint>
            <Time>2022-10-08T09:27:56.000Z</Time>
            <Position>
              <LatitudeDegrees>37.25639241747558116912841796875</LatitudeDegrees>
              <LongitudeDegrees>-3.53297227062284946441650390625</LongitudeDegrees>
            </Position>
            <AltitudeMeters>1487.4000244140625</AltitudeMeters>
            <DistanceMeters>2742.1020178137</DistanceMeters>
          </Trackpoint>
          <Trackpoint>
            <Time>2022-10-08T09:27:58.000Z</Time>
            <Position>
              <LatitudeDegrees>37.2563968598842620849609375</LatitudeDegrees>
              <LongitudeDegrees>-3.5329166986048221588134765625</LongitudeDegrees>
            </Position>
            <AltitudeMeters>1487.5999755859375</AltitudeMeters>
            <DistanceMeters>2747.0488862335</DistanceMeters>
          </Trackpoint>
          <Trackpoint>
            <Time>2022-10-08T09:28:00.000Z</Time>
            <Position>
              <LatitudeDegrees>37.25638604722917079925537109375</LatitudeDegrees>
              <LongitudeDegrees>-3.5328543372452259063720703125</LongitudeDegrees>
            </Position>
            <AltitudeMeters>1488</AltitudeMeters>
            <DistanceMeters>2752.7027760991</DistanceMeters>
          </Trackpoint>
          <Trackpoint>
            <Time>2022-10-08T09:28:05.000Z</Time>
            <Position>
              <LatitudeDegrees>37.25634656846523284912109375</LatitudeDegrees>
              <LongitudeDegrees>-3.53272835724055767059326171875</LongitudeDegrees>
            </Position>
            <AltitudeMeters>1489</AltitudeMeters>
            <DistanceMeters>2764.6968641356</DistanceMeters>
          </Trackpoint>
          <Trackpoint>
            <Time>2022-10-08T09:28:13.000Z</Time>
            <Position>
              <LatitudeDegrees>37.25620265118777751922607421875</LatitudeDegrees>
              <LongitudeDegrees>-3.53253423236310482025146484375</LongitudeDegrees>
            </Position>
            <AltitudeMeters>1489.4000244140625</AltitudeMeters>
            <DistanceMeters>2788.1986439782</DistanceMeters>
          </Trackpoint>
          <Trackpoint>
            <Time>2022-10-08T09:28:14.000Z</Time>
            <Position>
              <LatitudeDegrees>37.25618002004921436309814453125</LatitudeDegrees>
              <LongitudeDegrees>-3.53250975720584392547607421875</LongitudeDegrees>
            </Position>
            <AltitudeMeters>1489.4000244140625</AltitudeMeters>
            <DistanceMeters>2791.5232211795</DistanceMeters>
          </Trackpoint>
          <Trackpoint>
            <Time>2022-10-08T09:28:20.000Z</Time>
            <Position>
              <LatitudeDegrees>37.256101481616497039794921875</LatitudeDegrees>
              <LongitudeDegrees>-3.53236625902354717254638671875</LongitudeDegrees>
            </Position>
            <AltitudeMeters>1489.5999755859375</AltitudeMeters>
            <DistanceMeters>2806.950948002</DistanceMeters>
          </Trackpoint>
          <Trackpoint>
            <Time>2022-10-08T09:28:22.000Z</Time>
            <Position>
              <LatitudeDegrees>37.2560902498662471771240234375</LatitudeDegrees>
              <LongitudeDegrees>-3.53232217021286487579345703125</LongitudeDegrees>
            </Position>
            <AltitudeMeters>1489.800048828125</AltitudeMeters>
            <DistanceMeters>2811.0514360631</DistanceMeters>
          </Trackpoint>
          <Trackpoint>
            <Time>2022-10-08T09:28:24.000Z</Time>
            <Position>
              <LatitudeDegrees>37.25608563981950283050537109375</LatitudeDegrees>
              <LongitudeDegrees>-3.5322810150682926177978515625</LongitudeDegrees>
            </Position>
            <AltitudeMeters>1490</AltitudeMeters>
            <DistanceMeters>2814.7318048851</DistanceMeters>
          </Trackpoint>
          <Trackpoint>
            <Time>2022-10-08T09:28:25.000Z</Time>
            <Position>
              <LatitudeDegrees>37.25608848966658115386962890625</LatitudeDegrees>
              <LongitudeDegrees>-3.5322608985006809234619140625</LongitudeDegrees>
            </Position>
            <AltitudeMeters>1490</AltitudeMeters>
            <DistanceMeters>2816.5447990455</DistanceMeters>
          </Trackpoint>
          <Trackpoint>
            <Time>2022-10-08T09:28:32.000Z</Time>
            <Position>
              <LatitudeDegrees>37.2560964524745941162109375</LatitudeDegrees>
              <LongitudeDegrees>-3.53207456879317760467529296875</LongitudeDegrees>
            </Position>
            <AltitudeMeters>1490.5999755859375</AltitudeMeters>
            <DistanceMeters>2833.07562399</DistanceMeters>
          </Trackpoint>
          <Trackpoint>
            <Time>2022-10-08T09:28:39.000Z</Time>
            <Position>
              <LatitudeDegrees>37.2560483403503894805908203125</LatitudeDegrees>
              <LongitudeDegrees>-3.5318488441407680511474609375</LongitudeDegrees>
            </Position>
            <AltitudeMeters>1491</AltitudeMeters>
            <DistanceMeters>2853.777057947</DistanceMeters>
          </Trackpoint>
          <Trackpoint>
            <Time>2022-10-08T09:28:40.000Z</Time>
            <Position>
              <LatitudeDegrees>37.2560412995517253875732421875</LatitudeDegrees>
              <LongitudeDegrees>-3.53181942366063594818115234375</LongitudeDegrees>
            </Position>
            <AltitudeMeters>1491</AltitudeMeters>
            <DistanceMeters>2856.4982089322</DistanceMeters>
          </Trackpoint>
          <Trackpoint>
            <Time>2022-10-08T09:28:41.000Z</Time>
            <Position>
              <LatitudeDegrees>37.25603920407593250274658203125</LatitudeDegrees>
              <LongitudeDegrees>-3.5317898355424404144287109375</LongitudeDegrees>
            </Position>
            <AltitudeMeters>1491.199951171875</AltitudeMeters>
            <DistanceMeters>2859.13166649</DistanceMeters>
          </Trackpoint>
          <Trackpoint>
            <Time>2022-10-08T09:28:46.000Z</Time>
            <Position>
              <LatitudeDegrees>37.2560506872832775115966796875</LatitudeDegrees>
              <LongitudeDegrees>-3.531634099781513214111328125</LongitudeDegrees>
            </Position>
            <AltitudeMeters>1491.4000244140625</AltitudeMeters>
            <DistanceMeters>2872.9873305015</DistanceMeters>
          </Trackpoint>
          <Trackpoint>
            <Time>2022-10-08T09:28:52.000Z</Time>
            <Position>
              <LatitudeDegrees>37.256165854632854461669921875</LatitudeDegrees>
              <LongitudeDegrees>-3.53152354247868061065673828125</LongitudeDegrees>
            </Position>
            <AltitudeMeters>1491.5999755859375</AltitudeMeters>
            <DistanceMeters>2889.1194972225</DistanceMeters>
          </Trackpoint>
          <Trackpoint>
            <Time>2022-10-08T09:28:57.000Z</Time>
            <Position>
              <LatitudeDegrees>37.2562466561794281005859375</LatitudeDegrees>
              <LongitudeDegrees>-3.53140669874846935272216796875</LongitudeDegrees>
            </Position>
            <AltitudeMeters>1491.4000244140625</AltitudeMeters>
            <DistanceMeters>2902.8316907639</DistanceMeters>
          </Trackpoint>
          <Trackpoint>
            <Time>2022-10-08T09:28:58.000Z</Time>
            <Position>
              <LatitudeDegrees>37.256263084709644317626953125</LatitudeDegrees>
              <LongitudeDegrees>-3.53138507343828678131103515625</LongitudeDegrees>
            </Position>
            <AltitudeMeters>1491.4000244140625</AltitudeMeters>
            <DistanceMeters>2905.4822377779</DistanceMeters>
          </Trackpoint>
          <Trackpoint>
            <Time>2022-10-08T09:29:03.000Z</Time>
            <Position>
              <LatitudeDegrees>37.25631614215672016143798828125</LatitudeDegrees>
              <LongitudeDegrees>-3.531259931623935699462890625</LongitudeDegrees>
            </Position>
            <AltitudeMeters>1491</AltitudeMeters>
            <DistanceMeters>2918.0433892261</DistanceMeters>
          </Trackpoint>
          <Trackpoint>
            <Time>2022-10-08T09:29:10.000Z</Time>
            <Position>
              <LatitudeDegrees>37.25633759982883930206298828125</LatitudeDegrees>
              <LongitudeDegrees>-3.53108366020023822784423828125</LongitudeDegrees>
            </Position>
            <AltitudeMeters>1491.800048828125</AltitudeMeters>
            <DistanceMeters>2933.8407052198</DistanceMeters>
          </Trackpoint>
          <Trackpoint>
            <Time>2022-10-08T09:29:11.000Z</Time>
            <Position>
              <LatitudeDegrees>37.25632821209728717803955078125</LatitudeDegrees>
              <LongitudeDegrees>-3.53106589056551456451416015625</LongitudeDegrees>
            </Position>
            <AltitudeMeters>1491.800048828125</AltitudeMeters>
            <DistanceMeters>2935.7317129596</DistanceMeters>
          </Trackpoint>
          <Trackpoint>
            <Time>2022-10-08T09:29:18.000Z</Time>
            <Position>
              <LatitudeDegrees>37.256204076111316680908203125</LatitudeDegrees>
              <LongitudeDegrees>-3.5308802314102649688720703125</LongitudeDegrees>
            </Position>
            <AltitudeMeters>1492</AltitudeMeters>
            <DistanceMeters>2957.2123751033</DistanceMeters>
          </Trackpoint>
          <Trackpoint>
            <Time>2022-10-08T09:29:21.000Z</Time>
            <Position>
              <LatitudeDegrees>37.25615353323519229888916015625</LatitudeDegrees>
              <LongitudeDegrees>-3.53082499466836452484130859375</LongitudeDegrees>
            </Position>
            <AltitudeMeters>1492</AltitudeMeters>
            <DistanceMeters>2964.6693993585</DistanceMeters>
          </Trackpoint>
          <Trackpoint>
            <Time>2022-10-08T09:29:24.000Z</Time>
            <Position>
              <LatitudeDegrees>37.256127297878265380859375</LatitudeDegrees>
              <LongitudeDegrees>-3.53076539933681488037109375</LongitudeDegrees>
            </Position>
            <AltitudeMeters>1492.199951171875</AltitudeMeters>
            <DistanceMeters>2970.7026603462</DistanceMeters>
          </Trackpoint>
          <Trackpoint>
            <Time>2022-10-08T09:29:31.000Z</Time>
            <Position>
              <LatitudeDegrees>37.2561174072325229644775390625</LatitudeDegrees>
              <LongitudeDegrees>-3.5306029580533504486083984375</LongitudeDegrees>
            </Position>
            <AltitudeMeters>1493.4000244140625</AltitudeMeters>
            <DistanceMeters>2985.1354633799</DistanceMeters>
          </Trackpoint>
          <Trackpoint>
            <Time>2022-10-08T09:29:33.000Z</Time>
            <Position>
              <LatitudeDegrees>37.25611229427158832550048828125</LatitudeDegrees>
              <LongitudeDegrees>-3.5305474698543548583984375</LongitudeDegrees>
            </Position>
            <AltitudeMeters>1493.800048828125</AltitudeMeters>
            <DistanceMeters>2990.0841568757</DistanceMeters>
          </Trackpoint>
          <Trackpoint>
            <Time>2022-10-08T09:29:41.000Z</Time>
            <Position>
              <LatitudeDegrees>37.2560530342161655426025390625</LatitudeDegrees>
              <LongitudeDegrees>-3.53039684705436229705810546875</LongitudeDegrees>
            </Position>
            <AltitudeMeters>1494.199951171875</AltitudeMeters>
            <DistanceMeters>3004.9691142364</DistanceMeters>
          </Trackpoint>
          <Trackpoint>
            <Time>2022-10-08T09:29:43.000Z</Time>
            <Position>
              <LatitudeDegrees>37.25604171864688396453857421875</LatitudeDegrees>
              <LongitudeDegrees>-3.530362732708454132080078125</LongitudeDegrees>
            </Position>
            <AltitudeMeters>1494.199951171875</AltitudeMeters>
            <DistanceMeters>3008.2444357192</DistanceMeters>
          </Trackpoint>
          <Trackpoint>
            <Time>2022-10-08T09:29:45.000Z</Time>
            <Position>
              <LatitudeDegrees>37.256039120256900787353515625</LatitudeDegrees>
              <LongitudeDegrees>-3.53031520731747150421142578125</LongitudeDegrees>
            </Position>
            <AltitudeMeters>1494.5999755859375</AltitudeMeters>
            <DistanceMeters>3012.4643066588</DistanceMeters>
          </Trackpoint>
          <Trackpoint>
            <Time>2022-10-08T09:29:46.000Z</Time>
            <Position>
              <LatitudeDegrees>37.25603886879980564117431640625</LatitudeDegrees>
              <LongitudeDegrees>-3.53027991950511932373046875</LongitudeDegrees>
            </Position>
            <AltitudeMeters>1494.5999755859375</AltitudeMeters>
            <DistanceMeters>3015.5900933938</DistanceMeters>
          </Trackpoint>
          <Trackpoint>
            <Time>2022-10-08T09:29:54.000Z</Time>
            <Position>
              <LatitudeDegrees>37.25604490377008914947509765625</LatitudeDegrees>
              <LongitudeDegrees>-3.53005335666239261627197265625</LongitudeDegrees>
            </Position>
            <AltitudeMeters>1495.199951171875</AltitudeMeters>
            <DistanceMeters>3035.6724556587</DistanceMeters>
          </Trackpoint>
          <Trackpoint>
            <Time>2022-10-08T09:30:00.000Z</Time>
            <Position>
              <LatitudeDegrees>37.25605261512100696563720703125</LatitudeDegrees>
              <LongitudeDegrees>-3.5298888199031352996826171875</LongitudeDegrees>
            </Position>
            <AltitudeMeters>1495.4000244140625</AltitudeMeters>
            <DistanceMeters>3050.2738290476</DistanceMeters>
          </Trackpoint>
          <Trackpoint>
            <Time>2022-10-08T09:30:06.000Z</Time>
            <Position>
              <LatitudeDegrees>37.256064601242542266845703125</LatitudeDegrees>
              <LongitudeDegrees>-3.529711626470088958740234375</LongitudeDegrees>
            </Position>
            <AltitudeMeters>1495.4000244140625</AltitudeMeters>
            <DistanceMeters>3066.0276419507</DistanceMeters>
          </Trackpoint>
          <Trackpoint>
            <Time>2022-10-08T09:30:11.000Z</Time>
            <Position>
              <LatitudeDegrees>37.25605688989162445068359375</LatitudeDegrees>
              <LongitudeDegrees>-3.529549352824687957763671875</LongitudeDegrees>
            </Position>
            <AltitudeMeters>1495.5999755859375</AltitudeMeters>
            <DistanceMeters>3080.4291278381</DistanceMeters>
          </Trackpoint>
          <Trackpoint>
            <Time>2022-10-08T09:30:13.000Z</Time>
            <Position>
              <LatitudeDegrees>37.25606627762317657470703125</LatitudeDegrees>
              <LongitudeDegrees>-3.5295159928500652313232421875</LongitudeDegrees>
            </Position>
            <AltitudeMeters>1495.5999755859375</AltitudeMeters>
            <DistanceMeters>3083.5635692829</DistanceMeters>
          </Trackpoint>
          <Trackpoint>
            <Time>2022-10-08T09:30:15.000Z</Time>
            <Position>
              <LatitudeDegrees>37.25607432425022125244140625</LatitudeDegrees>
              <LongitudeDegrees>-3.5294734127819538116455078125</LongitudeDegrees>
            </Position>
            <AltitudeMeters>1495.5999755859375</AltitudeMeters>
            <DistanceMeters>3087.4422426844</DistanceMeters>
          </Trackpoint>
          <Trackpoint>
            <Time>2022-10-08T09:30:19.000Z</Time>
            <Position>
              <LatitudeDegrees>37.2560835443437099456787109375</LatitudeDegrees>
              <LongitudeDegrees>-3.5293094627559185028076171875</LongitudeDegrees>
            </Position>
            <AltitudeMeters>1495.5999755859375</AltitudeMeters>
            <DistanceMeters>3102.0024317174</DistanceMeters>
          </Trackpoint>
          <Trackpoint>
            <Time>2022-10-08T09:30:21.000Z</Time>
            <Position>
              <LatitudeDegrees>37.25611078552901744842529296875</LatitudeDegrees>
              <LongitudeDegrees>-3.5292561538517475128173828125</LongitudeDegrees>
            </Position>
            <AltitudeMeters>1495.800048828125</AltitudeMeters>
            <DistanceMeters>3107.614642212</DistanceMeters>
          </Trackpoint>
          <Trackpoint>
            <Time>2022-10-08T09:30:24.000Z</Time>
            <Position>
              <LatitudeDegrees>37.2561415471136569976806640625</LatitudeDegrees>
              <LongitudeDegrees>-3.52917753159999847412109375</LongitudeDegrees>
            </Position>
            <AltitudeMeters>1496</AltitudeMeters>
            <DistanceMeters>3115.3754804323</DistanceMeters>
          </Trackpoint>
          <Trackpoint>
            <Time>2022-10-08T09:30:27.000Z</Time>
            <Position>
              <LatitudeDegrees>37.25617717020213603973388671875</LatitudeDegrees>
              <LongitudeDegrees>-3.52909798733890056610107421875</LongitudeDegrees>
            </Position>
            <AltitudeMeters>1496.199951171875</AltitudeMeters>
            <DistanceMeters>3123.4611315164</DistanceMeters>
          </Trackpoint>
          <Trackpoint>
            <Time>2022-10-08T09:30:29.000Z</Time>
            <Position>
              <LatitudeDegrees>37.25619963370263576507568359375</LatitudeDegrees>
              <LongitudeDegrees>-3.5290539823472499847412109375</LongitudeDegrees>
            </Position>
            <AltitudeMeters>1496.4000244140625</AltitudeMeters>
            <DistanceMeters>3128.0931355785</DistanceMeters>
          </Trackpoint>
          <Trackpoint>
            <Time>2022-10-08T09:30:36.000Z</Time>
            <Position>
              <LatitudeDegrees>37.25629694759845733642578125</LatitudeDegrees>
              <LongitudeDegrees>-3.5289188660681247711181640625</LongitudeDegrees>
            </Position>
            <AltitudeMeters>1496.199951171875</AltitudeMeters>
            <DistanceMeters>3144.2359341593</DistanceMeters>
          </Trackpoint>
          <Trackpoint>
            <Time>2022-10-08T09:30:42.000Z</Time>
            <Position>
              <LatitudeDegrees>37.256366349756717681884765625</LatitudeDegrees>
              <LongitudeDegrees>-3.5287579335272312164306640625</LongitudeDegrees>
            </Position>
            <AltitudeMeters>1496.199951171875</AltitudeMeters>
            <DistanceMeters>3160.4507331325</DistanceMeters>
          </Trackpoint>
          <Trackpoint>
            <Time>2022-10-08T09:30:48.000Z</Time>
            <Position>
              <LatitudeDegrees>37.25639375858008861541748046875</LatitudeDegrees>
              <LongitudeDegrees>-3.52860596962273120880126953125</LongitudeDegrees>
            </Position>
            <AltitudeMeters>1496</AltitudeMeters>
            <DistanceMeters>3174.2544878045</DistanceMeters>
          </Trackpoint>
          <Trackpoint>
            <Time>2022-10-08T09:30:55.000Z</Time>
            <Position>
              <LatitudeDegrees>37.25643835030496120452880859375</LatitudeDegrees>
              <LongitudeDegrees>-3.52845610119402408599853515625</LongitudeDegrees>
            </Position>
            <AltitudeMeters>1496</AltitudeMeters>
            <DistanceMeters>3188.4284477566</DistanceMeters>
          </Trackpoint>
          <Trackpoint>
            <Time>2022-10-08T09:31:01.000Z</Time>
            <Position>
              <LatitudeDegrees>37.2565183974802494049072265625</LatitudeDegrees>
              <LongitudeDegrees>-3.52827857248485088348388671875</LongitudeDegrees>
            </Position>
            <AltitudeMeters>1496.199951171875</AltitudeMeters>
            <DistanceMeters>3206.5040176203</DistanceMeters>
          </Trackpoint>
          <Trackpoint>
            <Time>2022-10-08T09:31:08.000Z</Time>
            <Position>
              <LatitudeDegrees>37.2566344030201435089111328125</LatitudeDegrees>
              <LongitudeDegrees>-3.52809266187250614166259765625</LongitudeDegrees>
            </Position>
            <AltitudeMeters>1496</AltitudeMeters>
            <DistanceMeters>3227.4314806182</DistanceMeters>
          </Trackpoint>
          <Trackpoint>
            <Time>2022-10-08T09:31:09.000Z</Time>
            <Position>
              <LatitudeDegrees>37.256652005016803741455078125</LatitudeDegrees>
              <LongitudeDegrees>-3.52806684561073780059814453125</LongitudeDegrees>
            </Position>
            <AltitudeMeters>1496</AltitudeMeters>
            <DistanceMeters>3230.4424931971</DistanceMeters>
          </Trackpoint>
          <Trackpoint>
            <Time>2022-10-08T09:31:11.000Z</Time>
            <Position>
              <LatitudeDegrees>37.25667673163115978240966796875</LatitudeDegrees>
              <LongitudeDegrees>-3.528005070984363555908203125</LongitudeDegrees>
            </Position>
            <AltitudeMeters>1496</AltitudeMeters>
            <DistanceMeters>3236.5685847489</DistanceMeters>
          </Trackpoint>
          <Trackpoint>
            <Time>2022-10-08T09:31:12.000Z</Time>
            <Position>
              <LatitudeDegrees>37.256688214838504791259765625</LatitudeDegrees>
              <LongitudeDegrees>-3.5279710404574871063232421875</LongitudeDegrees>
            </Position>
            <AltitudeMeters>1496</AltitudeMeters>
            <DistanceMeters>3239.8439062316</DistanceMeters>
          </Trackpoint>
          <Trackpoint>
            <Time>2022-10-08T09:31:17.000Z</Time>
            <Position>
              <LatitudeDegrees>37.25674194283783435821533203125</LatitudeDegrees>
              <LongitudeDegrees>-3.52785520255565643310546875</LongitudeDegrees>
            </Position>
            <AltitudeMeters>1496.4000244140625</AltitudeMeters>
            <DistanceMeters>3251.7211051526</DistanceMeters>
          </Trackpoint>
          <Trackpoint>
            <Time>2022-10-08T09:31:24.000Z</Time>
            <Position>
              <LatitudeDegrees>37.2568154521286487579345703125</LatitudeDegrees>
              <LongitudeDegrees>-3.5276855528354644775390625</LongitudeDegrees>
            </Position>
            <AltitudeMeters>1496.199951171875</AltitudeMeters>
            <DistanceMeters>3268.8327754033</DistanceMeters>
          </Trackpoint>
          <Trackpoint>
            <Time>2022-10-08T09:31:32.000Z</Time>
            <Position>
              <LatitudeDegrees>37.25685610435903072357177734375</LatitudeDegrees>
              <LongitudeDegrees>-3.52743166498839855194091796875</LongitudeDegrees>
            </Position>
            <AltitudeMeters>1495.5999755859375</AltitudeMeters>
            <DistanceMeters>3291.7749874973</DistanceMeters>
          </Trackpoint>
          <Trackpoint>
            <Time>2022-10-08T09:31:38.000Z</Time>
            <Position>
              <LatitudeDegrees>37.25694595836102962493896484375</LatitudeDegrees>
              <LongitudeDegrees>-3.5272988118231296539306640625</LongitudeDegrees>
            </Position>
            <AltitudeMeters>1495.5999755859375</AltitudeMeters>
            <DistanceMeters>3307.2202637816</DistanceMeters>
          </Trackpoint>
          <Trackpoint>
            <Time>2022-10-08T09:31:45.000Z</Time>
            <Position>
              <LatitudeDegrees>37.2570645622909069061279296875</LatitudeDegrees>
              <LongitudeDegrees>-3.52713176049292087554931640625</LongitudeDegrees>
            </Position>
            <AltitudeMeters>1495.4000244140625</AltitudeMeters>
            <DistanceMeters>3327.0514989748</DistanceMeters>
          </Trackpoint>
          <Trackpoint>
            <Time>2022-10-08T09:31:46.000Z</Time>
            <Position>
              <LatitudeDegrees>37.25708023644983768463134765625</LatitudeDegrees>
              <LongitudeDegrees>-3.52709923870861530303955078125</LongitudeDegrees>
            </Position>
            <AltitudeMeters>1495.4000244140625</AltitudeMeters>
            <DistanceMeters>3330.4192543123</DistanceMeters>
          </Trackpoint>
          <Trackpoint>
            <Time>2022-10-08T09:31:50.000Z</Time>
            <Position>
              <LatitudeDegrees>37.257154919207096099853515625</LatitudeDegrees>
              <LongitudeDegrees>-3.5270245559513568878173828125</LongitudeDegrees>
            </Position>
            <AltitudeMeters>1495.199951171875</AltitudeMeters>
            <DistanceMeters>3341.0435639628</DistanceMeters>
          </Trackpoint>
          <Trackpoint>
            <Time>2022-10-08T09:31:58.000Z</Time>
            <Position>
              <LatitudeDegrees>37.25730277597904205322265625</LatitudeDegrees>
              <LongitudeDegrees>-3.52690058760344982147216796875</LongitudeDegrees>
            </Position>
            <AltitudeMeters>1495.199951171875</AltitudeMeters>
            <DistanceMeters>3360.8280711241</DistanceMeters>
          </Trackpoint>
          <Trackpoint>
            <Time>2022-10-08T09:32:00.000Z</Time>
            <Position>
              <LatitudeDegrees>37.25732968188822269439697265625</LatitudeDegrees>
              <LongitudeDegrees>-3.526841662824153900146484375</LongitudeDegrees>
            </Position>
            <AltitudeMeters>1495.199951171875</AltitudeMeters>
            <DistanceMeters>3366.8455960755</DistanceMeters>
          </Trackpoint>
          <Trackpoint>
            <Time>2022-10-08T09:32:04.000Z</Time>
            <Position>
              <LatitudeDegrees>37.25738517008721828460693359375</LatitudeDegrees>
              <LongitudeDegrees>-3.52670461870729923248291015625</LongitudeDegrees>
            </Position>
            <AltitudeMeters>1495</AltitudeMeters>
            <DistanceMeters>3380.4662759609</DistanceMeters>
          </Trackpoint>
          <Trackpoint>
            <Time>2022-10-08T09:32:09.000Z</Time>
            <Position>
              <LatitudeDegrees>37.2574414126574993133544921875</LatitudeDegrees>
              <LongitudeDegrees>-3.526566736400127410888671875</LongitudeDegrees>
            </Position>
            <AltitudeMeters>1494.5999755859375</AltitudeMeters>
            <DistanceMeters>3394.1916340536</DistanceMeters>
          </Trackpoint>
          <Trackpoint>
            <Time>2022-10-08T09:32:16.000Z</Time>
            <Position>
              <LatitudeDegrees>37.25758901797235012054443359375</LatitudeDegrees>
              <LongitudeDegrees>-3.5264267586171627044677734375</LongitudeDegrees>
            </Position>
            <AltitudeMeters>1494.4000244140625</AltitudeMeters>
            <DistanceMeters>3414.7749556174</DistanceMeters>
          </Trackpoint>
          <Trackpoint>
            <Time>2022-10-08T09:32:17.000Z</Time>
            <Position>
              <LatitudeDegrees>37.2576130740344524383544921875</LatitudeDegrees>
              <LongitudeDegrees>-3.5264069773256778717041015625</LongitudeDegrees>
            </Position>
            <AltitudeMeters>1494</AltitudeMeters>
            <DistanceMeters>3417.9749722873</DistanceMeters>
          </Trackpoint>
          <Trackpoint>
            <Time>2022-10-08T09:32:24.000Z</Time>
            <Position>
              <LatitudeDegrees>37.257752716541290283203125</LatitudeDegrees>
              <LongitudeDegrees>-3.52635475806891918182373046875</LongitudeDegrees>
            </Position>
            <AltitudeMeters>1493.5999755859375</AltitudeMeters>
            <DistanceMeters>3434.1914418846</DistanceMeters>
          </Trackpoint>
          <Trackpoint>
            <Time>2022-10-08T09:32:26.000Z</Time>
            <Position>
              <LatitudeDegrees>37.25777752697467803955078125</LatitudeDegrees>
              <LongitudeDegrees>-3.526308573782444000244140625</LongitudeDegrees>
            </Position>
            <AltitudeMeters>1493.4000244140625</AltitudeMeters>
            <DistanceMeters>3439.1291748056</DistanceMeters>
          </Trackpoint>
          <Trackpoint>
            <Time>2022-10-08T09:32:27.000Z</Time>
            <Position>
              <LatitudeDegrees>37.25778758525848388671875</LatitudeDegrees>
              <LongitudeDegrees>-3.52628082968294620513916015625</LongitudeDegrees>
            </Position>
            <AltitudeMeters>1493.199951171875</AltitudeMeters>
            <DistanceMeters>3441.8303415473</DistanceMeters>
          </Trackpoint>
          <Trackpoint>
            <Time>2022-10-08T09:32:29.000Z</Time>
            <Position>
              <LatitudeDegrees>37.25781281478703022003173828125</LatitudeDegrees>
              <LongitudeDegrees>-3.52622282691299915313720703125</LongitudeDegrees>
            </Position>
            <AltitudeMeters>1492.5999755859375</AltitudeMeters>
            <DistanceMeters>3447.6866398947</DistanceMeters>
          </Trackpoint>
          <Trackpoint>
            <Time>2022-10-08T09:32:33.000Z</Time>
            <Position>
              <LatitudeDegrees>37.25786629132926464080810546875</LatitudeDegrees>
              <LongitudeDegrees>-3.52611654438078403472900390625</LongitudeDegrees>
            </Position>
            <AltitudeMeters>1492.199951171875</AltitudeMeters>
            <DistanceMeters>3458.8254571722</DistanceMeters>
          </Trackpoint>
          <Trackpoint>
            <Time>2022-10-08T09:32:36.000Z</Time>
            <Position>
              <LatitudeDegrees>37.257887832820415496826171875</LatitudeDegrees>
              <LongitudeDegrees>-3.52601814083755016326904296875</LongitudeDegrees>
            </Position>
            <AltitudeMeters>1492.4000244140625</AltitudeMeters>
            <DistanceMeters>3467.8664887489</DistanceMeters>
          </Trackpoint>
          <Trackpoint>
            <Time>2022-10-08T09:32:40.000Z</Time>
            <Position>
              <LatitudeDegrees>37.25791758857667446136474609375</LatitudeDegrees>
              <LongitudeDegrees>-3.525838516652584075927734375</LongitudeDegrees>
            </Position>
            <AltitudeMeters>1492</AltitudeMeters>
            <DistanceMeters>3484.1202242101</DistanceMeters>
          </Trackpoint>
          <Trackpoint>
            <Time>2022-10-08T09:32:42.000Z</Time>
            <Position>
              <LatitudeDegrees>37.2579530440270900726318359375</LatitudeDegrees>
              <LongitudeDegrees>-3.52578260935842990875244140625</LongitudeDegrees>
            </Position>
            <AltitudeMeters>1492</AltitudeMeters>
            <DistanceMeters>3490.4528831689</DistanceMeters>
          </Trackpoint>
          <Trackpoint>
            <Time>2022-10-08T09:32:49.000Z</Time>
            <Position>
              <LatitudeDegrees>37.25810282863676548004150390625</LatitudeDegrees>
              <LongitudeDegrees>-3.52561019361019134521484375</LongitudeDegrees>
            </Position>
            <AltitudeMeters>1491.800048828125</AltitudeMeters>
            <DistanceMeters>3513.0632513171</DistanceMeters>
          </Trackpoint>
          <Trackpoint>
            <Time>2022-10-08T09:32:51.000Z</Time>
            <Position>
              <LatitudeDegrees>37.2581441514194011688232421875</LatitudeDegrees>
              <LongitudeDegrees>-3.52555378340184688568115234375</LongitudeDegrees>
            </Position>
            <AltitudeMeters>1491.5999755859375</AltitudeMeters>
            <DistanceMeters>3519.8548365868</DistanceMeters>
          </Trackpoint>
          <Trackpoint>
            <Time>2022-10-08T09:32:55.000Z</Time>
            <Position>
              <LatitudeDegrees>37.25822101347148418426513671875</LatitudeDegrees>
              <LongitudeDegrees>-3.52544096298515796661376953125</LongitudeDegrees>
            </Position>
            <AltitudeMeters>1491.199951171875</AltitudeMeters>
            <DistanceMeters>3533.010460674</DistanceMeters>
          </Trackpoint>
          <Trackpoint>
            <Time>2022-10-08T09:32:59.000Z</Time>
            <Position>
              <LatitudeDegrees>37.2583065927028656005859375</LatitudeDegrees>
              <LongitudeDegrees>-3.5253505222499370574951171875</LongitudeDegrees>
            </Position>
            <AltitudeMeters>1491.199951171875</AltitudeMeters>
            <DistanceMeters>3545.456783882</DistanceMeters>
          </Trackpoint>
          <Trackpoint>
            <Time>2022-10-08T09:33:03.000Z</Time>
            <Position>
              <LatitudeDegrees>37.25839116610586643218994140625</LatitudeDegrees>
              <LongitudeDegrees>-3.52534063160419464111328125</LongitudeDegrees>
            </Position>
            <AltitudeMeters>1491</AltitudeMeters>
            <DistanceMeters>3554.9099122789</DistanceMeters>
          </Trackpoint>
          <Trackpoint>
            <Time>2022-10-08T09:33:04.000Z</Time>
            <Position>
              <LatitudeDegrees>37.25841362960636615753173828125</LatitudeDegrees>
              <LongitudeDegrees>-3.5253444872796535491943359375</LongitudeDegrees>
            </Position>
            <AltitudeMeters>1490.5999755859375</AltitudeMeters>
            <DistanceMeters>3557.4348348459</DistanceMeters>
          </Trackpoint>
          <Trackpoint>
            <Time>2022-10-08T09:33:06.000Z</Time>
            <Position>
              <LatitudeDegrees>37.25845520384609699249267578125</LatitudeDegrees>
              <LongitudeDegrees>-3.5253600776195526123046875</LongitudeDegrees>
            </Position>
            <AltitudeMeters>1490.4000244140625</AltitudeMeters>
            <DistanceMeters>3562.2634637795</DistanceMeters>
          </Trackpoint>
          <Trackpoint>
            <Time>2022-10-08T09:33:09.000Z</Time>
            <Position>
              <LatitudeDegrees>37.25851287133991718292236328125</LatitudeDegrees>
              <LongitudeDegrees>-3.5253682918846607208251953125</LongitudeDegrees>
            </Position>
            <AltitudeMeters>1490.199951171875</AltitudeMeters>
            <DistanceMeters>3568.7224848486</DistanceMeters>
          </Trackpoint>
          <Trackpoint>
            <Time>2022-10-08T09:33:14.000Z</Time>
            <Position>
              <LatitudeDegrees>37.2586520947515964508056640625</LatitudeDegrees>
              <LongitudeDegrees>-3.52533937431871891021728515625</LongitudeDegrees>
            </Position>
            <AltitudeMeters>1490.199951171875</AltitudeMeters>
            <DistanceMeters>3584.4289376109</DistanceMeters>
          </Trackpoint>
          <Trackpoint>
            <Time>2022-10-08T09:33:15.000Z</Time>
            <Position>
              <LatitudeDegrees>37.25867799483239650726318359375</LatitudeDegrees>
              <LongitudeDegrees>-3.5253297351300716400146484375</LongitudeDegrees>
            </Position>
            <AltitudeMeters>1490</AltitudeMeters>
            <DistanceMeters>3587.4339461706</DistanceMeters>
          </Trackpoint>
          <Trackpoint>
            <Time>2022-10-08T09:33:22.000Z</Time>
            <Position>
              <LatitudeDegrees>37.2588351555168628692626953125</LatitudeDegrees>
              <LongitudeDegrees>-3.52530199103057384490966796875</LongitudeDegrees>
            </Position>
            <AltitudeMeters>1489.5999755859375</AltitudeMeters>
            <DistanceMeters>3605.0976717485</DistanceMeters>
          </Trackpoint>
          <Trackpoint>
            <Time>2022-10-08T09:33:28.000Z</Time>
            <Position>
              <LatitudeDegrees>37.2589810006320476531982421875</LatitudeDegrees>
              <LongitudeDegrees>-3.52529369294643402099609375</LongitudeDegrees>
            </Position>
            <AltitudeMeters>1489.4000244140625</AltitudeMeters>
            <DistanceMeters>3621.3469620475</DistanceMeters>
          </Trackpoint>
          <Trackpoint>
            <Time>2022-10-08T09:33:35.000Z</Time>
            <Position>
              <LatitudeDegrees>37.2591543383896350860595703125</LatitudeDegrees>
              <LongitudeDegrees>-3.52524273097515106201171875</LongitudeDegrees>
            </Position>
            <AltitudeMeters>1489.199951171875</AltitudeMeters>
            <DistanceMeters>3641.160886532</DistanceMeters>
          </Trackpoint>
          <Trackpoint>
            <Time>2022-10-08T09:33:39.000Z</Time>
            <Position>
              <LatitudeDegrees>37.2592780552804470062255859375</LatitudeDegrees>
              <LongitudeDegrees>-3.52520828135311603546142578125</LongitudeDegrees>
            </Position>
            <AltitudeMeters>1489</AltitudeMeters>
            <DistanceMeters>3655.2649126942</DistanceMeters>
          </Trackpoint>
          <Trackpoint>
            <Time>2022-10-08T09:33:41.000Z</Time>
            <Position>
              <LatitudeDegrees>37.259337566792964935302734375</LatitudeDegrees>
              <LongitudeDegrees>-3.52516922168433666229248046875</LongitudeDegrees>
            </Position>
            <AltitudeMeters>1488.800048828125</AltitudeMeters>
            <DistanceMeters>3662.7382668813</DistanceMeters>
          </Trackpoint>
          <Trackpoint>
            <Time>2022-10-08T09:33:42.000Z</Time>
            <Position>
              <LatitudeDegrees>37.25935827009379863739013671875</LatitudeDegrees>
              <LongitudeDegrees>-3.52514022029936313629150390625</LongitudeDegrees>
            </Position>
            <AltitudeMeters>1488.800048828125</AltitudeMeters>
            <DistanceMeters>3666.1907588662</DistanceMeters>
          </Trackpoint>
          <Trackpoint>
            <Time>2022-10-08T09:33:49.000Z</Time>
            <Position>
              <LatitudeDegrees>37.2595114074647426605224609375</LatitudeDegrees>
              <LongitudeDegrees>-3.5249924473464488983154296875</LongitudeDegrees>
            </Position>
            <AltitudeMeters>1488.199951171875</AltitudeMeters>
            <DistanceMeters>3687.6821380689</DistanceMeters>
          </Trackpoint>
          <Trackpoint>
            <Time>2022-10-08T09:33:56.000Z</Time>
            <Position>
              <LatitudeDegrees>37.2596632875502109527587890625</LatitudeDegrees>
              <LongitudeDegrees>-3.5249833948910236358642578125</LongitudeDegrees>
            </Position>
            <AltitudeMeters>1488</AltitudeMeters>
            <DistanceMeters>3704.6056995904</DistanceMeters>
          </Trackpoint>
          <Trackpoint>
            <Time>2022-10-08T09:33:58.000Z</Time>
            <Position>
              <LatitudeDegrees>37.2597102262079715728759765625</LatitudeDegrees>
              <LongitudeDegrees>-3.52499504573643207550048828125</LongitudeDegrees>
            </Position>
            <AltitudeMeters>1488</AltitudeMeters>
            <DistanceMeters>3709.9314361696</DistanceMeters>
          </Trackpoint>
          <Trackpoint>
            <Time>2022-10-08T09:34:02.000Z</Time>
            <Position>
              <LatitudeDegrees>37.25981273688375949859619140625</LatitudeDegrees>
              <LongitudeDegrees>-3.524966798722743988037109375</LongitudeDegrees>
            </Position>
            <AltitudeMeters>1487.800048828125</AltitudeMeters>
            <DistanceMeters>3721.6127667935</DistanceMeters>
          </Trackpoint>
          <Trackpoint>
            <Time>2022-10-08T09:34:09.000Z</Time>
            <Position>
              <LatitudeDegrees>37.2600153274834156036376953125</LatitudeDegrees>
              <LongitudeDegrees>-3.52488239295780658721923828125</LongitudeDegrees>
            </Position>
            <AltitudeMeters>1487.800048828125</AltitudeMeters>
            <DistanceMeters>3745.3690652761</DistanceMeters>
          </Trackpoint>
          <Trackpoint>
            <Time>2022-10-08T09:34:11.000Z</Time>
            <Position>
              <LatitudeDegrees>37.260065115988254547119140625</LatitudeDegrees>
              <LongitudeDegrees>-3.5248553194105625152587890625</LongitudeDegrees>
            </Position>
            <AltitudeMeters>1487.5999755859375</AltitudeMeters>
            <DistanceMeters>3751.4075624965</DistanceMeters>
          </Trackpoint>
          <Trackpoint>
            <Time>2022-10-08T09:34:17.000Z</Time>
            <Position>
              <LatitudeDegrees>37.260205931961536407470703125</LatitudeDegrees>
              <LongitudeDegrees>-3.5248150862753391265869140625</LongitudeDegrees>
            </Position>
            <AltitudeMeters>1488</AltitudeMeters>
            <DistanceMeters>3767.4808473836</DistanceMeters>
          </Trackpoint>
          <Trackpoint>
            <Time>2022-10-08T09:34:22.000Z</Time>
            <Position>
              <LatitudeDegrees>37.26031355559825897216796875</LatitudeDegrees>
              <LongitudeDegrees>-3.52478046901524066925048828125</LongitudeDegrees>
            </Position>
            <AltitudeMeters>1487.5999755859375</AltitudeMeters>
            <DistanceMeters>3779.8456451689</DistanceMeters>
          </Trackpoint>
          <Trackpoint>
            <Time>2022-10-08T09:34:28.000Z</Time>
            <Position>
              <LatitudeDegrees>37.2604572214186191558837890625</LatitudeDegrees>
              <LongitudeDegrees>-3.52476119063794612884521484375</LongitudeDegrees>
            </Position>
            <AltitudeMeters>1488</AltitudeMeters>
            <DistanceMeters>3795.9270741874</DistanceMeters>
          </Trackpoint>
          <Trackpoint>
            <Time>2022-10-08T09:34:34.000Z</Time>
            <Position>
              <LatitudeDegrees>37.260652519762516021728515625</LatitudeDegrees>
              <LongitudeDegrees>-3.52470695972442626953125</LongitudeDegrees>
            </Position>
            <AltitudeMeters>1488.199951171875</AltitudeMeters>
            <DistanceMeters>3818.1888947643</DistanceMeters>
          </Trackpoint>
          <Trackpoint>
            <Time>2022-10-08T09:34:36.000Z</Time>
            <Position>
              <LatitudeDegrees>37.26072804071009159088134765625</LatitudeDegrees>
              <LongitudeDegrees>-3.524705283343791961669921875</LongitudeDegrees>
            </Position>
            <AltitudeMeters>1488</AltitudeMeters>
            <DistanceMeters>3826.5954028533</DistanceMeters>
          </Trackpoint>
          <Trackpoint>
            <Time>2022-10-08T09:34:37.000Z</Time>
            <Position>
              <LatitudeDegrees>37.2607559524476528167724609375</LatitudeDegrees>
              <LongitudeDegrees>-3.52470000274479389190673828125</LongitudeDegrees>
            </Position>
            <AltitudeMeters>1488.199951171875</AltitudeMeters>
            <DistanceMeters>3829.735600853</DistanceMeters>
          </Trackpoint>
          <Trackpoint>
            <Time>2022-10-08T09:34:43.000Z</Time>
            <Position>
              <LatitudeDegrees>37.260875813663005828857421875</LatitudeDegrees>
              <LongitudeDegrees>-3.52472850121557712554931640625</LongitudeDegrees>
            </Position>
            <AltitudeMeters>1488</AltitudeMeters>
            <DistanceMeters>3843.3131194261</DistanceMeters>
          </Trackpoint>
          <Trackpoint>
            <Time>2022-10-08T09:34:49.000Z</Time>
            <Position>
              <LatitudeDegrees>37.260999865829944610595703125</LatitudeDegrees>
              <LongitudeDegrees>-3.52478248067200183868408203125</LongitudeDegrees>
            </Position>
            <AltitudeMeters>1488</AltitudeMeters>
            <DistanceMeters>3857.9250025162</DistanceMeters>
          </Trackpoint>
          <Trackpoint>
            <Time>2022-10-08T09:34:57.000Z</Time>
            <Position>
              <LatitudeDegrees>37.2611495666205883026123046875</LatitudeDegrees>
              <LongitudeDegrees>-3.52493469603359699249267578125</LongitudeDegrees>
            </Position>
            <AltitudeMeters>1488.5999755859375</AltitudeMeters>
            <DistanceMeters>3879.3593727966</DistanceMeters>
          </Trackpoint>
          <Trackpoint>
            <Time>2022-10-08T09:34:58.000Z</Time>
            <Position>
              <LatitudeDegrees>37.26114965043962001800537109375</LatitudeDegrees>
              <LongitudeDegrees>-3.52494810707867145538330078125</LongitudeDegrees>
            </Position>
            <AltitudeMeters>1488.5999755859375</AltitudeMeters>
            <DistanceMeters>3880.5462560787</DistanceMeters>
          </Trackpoint>
          <Trackpoint>
            <Time>2022-10-08T09:35:00.000Z</Time>
            <Position>
              <LatitudeDegrees>37.26112618111073970794677734375</LatitudeDegrees>
              <LongitudeDegrees>-3.52496017701923847198486328125</LongitudeDegrees>
            </Position>
            <AltitudeMeters>1488.4000244140625</AltitudeMeters>
            <DistanceMeters>3883.3684055119</DistanceMeters>
          </Trackpoint>
          <Trackpoint>
            <Time>2022-10-08T09:35:04.000Z</Time>
            <Position>
              <LatitudeDegrees>37.2610402666032314300537109375</LatitudeDegrees>
              <LongitudeDegrees>-3.52492488920688629150390625</LongitudeDegrees>
            </Position>
            <AltitudeMeters>1486.5999755859375</AltitudeMeters>
            <DistanceMeters>3893.4286787082</DistanceMeters>
          </Trackpoint>
          <Trackpoint>
            <Time>2022-10-08T09:35:06.000Z</Time>
            <Position>
              <LatitudeDegrees>37.2610104270279407501220703125</LatitudeDegrees>
              <LongitudeDegrees>-3.52490033023059368133544921875</LongitudeDegrees>
            </Position>
            <AltitudeMeters>1486.199951171875</AltitudeMeters>
            <DistanceMeters>3897.398248382</DistanceMeters>
          </Trackpoint>
          <Trackpoint>
            <Time>2022-10-08T09:35:09.000Z</Time>
            <Position>
              <LatitudeDegrees>37.26094814948737621307373046875</LatitudeDegrees>
              <LongitudeDegrees>-3.5248787887394428253173828125</LongitudeDegrees>
            </Position>
            <AltitudeMeters>1485.199951171875</AltitudeMeters>
            <DistanceMeters>3904.5870679992</DistanceMeters>
          </Trackpoint>
          <Trackpoint>
            <Time>2022-10-08T09:35:11.000Z</Time>
            <Position>
              <LatitudeDegrees>37.26089852862060070037841796875</LatitudeDegrees>
              <LongitudeDegrees>-3.52487702853977680206298828125</LongitudeDegrees>
            </Position>
            <AltitudeMeters>1484.4000244140625</AltitudeMeters>
            <DistanceMeters>3910.1117090174</DistanceMeters>
          </Trackpoint>
          <Trackpoint>
            <Time>2022-10-08T09:35:12.000Z</Time>
            <Position>
              <LatitudeDegrees>37.26087405346333980560302734375</LatitudeDegrees>
              <LongitudeDegrees>-3.52487518452107906341552734375</LongitudeDegrees>
            </Position>
            <AltitudeMeters>1484</AltitudeMeters>
            <DistanceMeters>3912.839488882</DistanceMeters>
          </Trackpoint>
          <Trackpoint>
            <Time>2022-10-08T09:35:13.000Z</Time>
            <Position>
              <LatitudeDegrees>37.26084656082093715667724609375</LatitudeDegrees>
              <LongitudeDegrees>-3.524872921407222747802734375</LongitudeDegrees>
            </Position>
            <AltitudeMeters>1483.5999755859375</AltitudeMeters>
            <DistanceMeters>3915.906953577</DistanceMeters>
          </Trackpoint>
          <Trackpoint>
            <Time>2022-10-08T09:35:18.000Z</Time>
            <Position>
              <LatitudeDegrees>37.26071999408304691314697265625</LatitudeDegrees>
              <LongitudeDegrees>-3.52486780844628810882568359375</LongitudeDegrees>
            </Position>
            <AltitudeMeters>1483.4000244140625</AltitudeMeters>
            <DistanceMeters>3930.0016930839</DistanceMeters>
          </Trackpoint>
          <Trackpoint>
            <Time>2022-10-08T09:35:19.000Z</Time>
            <Position>
              <LatitudeDegrees>37.26070138625800609588623046875</LatitudeDegrees>
              <LongitudeDegrees>-3.5248653776943683624267578125</LongitudeDegrees>
            </Position>
            <AltitudeMeters>1483.5999755859375</AltitudeMeters>
            <DistanceMeters>3932.0836240849</DistanceMeters>
          </Trackpoint>
          <Trackpoint>
            <Time>2022-10-08T09:35:21.000Z</Time>
            <Position>
              <LatitudeDegrees>37.260660566389560699462890625</LatitudeDegrees>
              <LongitudeDegrees>-3.52487769909203052520751953125</LongitudeDegrees>
            </Position>
            <AltitudeMeters>1483.5999755859375</AltitudeMeters>
            <DistanceMeters>3936.7563882392</DistanceMeters>
          </Trackpoint>
          <Trackpoint>
            <Time>2022-10-08T09:35:24.000Z</Time>
            <Position>
              <LatitudeDegrees>37.26061270572245121002197265625</LatitudeDegrees>
              <LongitudeDegrees>-3.5249290801584720611572265625</LongitudeDegrees>
            </Position>
            <AltitudeMeters>1483.4000244140625</AltitudeMeters>
            <DistanceMeters>3943.7626351339</DistanceMeters>
          </Trackpoint>
          <Trackpoint>
            <Time>2022-10-08T09:35:25.000Z</Time>
            <Position>
              <LatitudeDegrees>37.26058420725166797637939453125</LatitudeDegrees>
              <LongitudeDegrees>-3.52494257502257823944091796875</LongitudeDegrees>
            </Position>
            <AltitudeMeters>1483.4000244140625</AltitudeMeters>
            <DistanceMeters>3947.1531052065</DistanceMeters>
          </Trackpoint>
          <Trackpoint>
            <Time>2022-10-08T09:35:27.000Z</Time>
            <Position>
              <LatitudeDegrees>37.2605386935174465179443359375</LatitudeDegrees>
              <LongitudeDegrees>-3.52496168576180934906005859375</LongitudeDegrees>
            </Position>
            <AltitudeMeters>1482.800048828125</AltitudeMeters>
            <DistanceMeters>3952.4932345504</DistanceMeters>
          </Trackpoint>
          <Trackpoint>
            <Time>2022-10-08T09:35:29.000Z</Time>
            <Position>
              <LatitudeDegrees>37.26049804128706455230712890625</LatitudeDegrees>
              <LongitudeDegrees>-3.52498163469135761260986328125</LongitudeDegrees>
            </Position>
            <AltitudeMeters>1482.199951171875</AltitudeMeters>
            <DistanceMeters>3957.3516931356</DistanceMeters>
          </Trackpoint>
          <Trackpoint>
            <Time>2022-10-08T09:35:30.000Z</Time>
            <Position>
              <LatitudeDegrees>37.2604749910533428192138671875</LatitudeDegrees>
              <LongitudeDegrees>-3.52499873377382755279541015625</LongitudeDegrees>
            </Position>
            <AltitudeMeters>1481.800048828125</AltitudeMeters>
            <DistanceMeters>3960.331049634</DistanceMeters>
          </Trackpoint>
          <Trackpoint>
            <Time>2022-10-08T09:35:32.000Z</Time>
            <Position>
              <LatitudeDegrees>37.2604387812316417694091796875</LatitudeDegrees>
              <LongitudeDegrees>-3.5250373743474483489990234375</LongitudeDegrees>
            </Position>
            <AltitudeMeters>1481</AltitudeMeters>
            <DistanceMeters>3965.6184986097</DistanceMeters>
          </Trackpoint>
          <Trackpoint>
            <Time>2022-10-08T09:35:33.000Z</Time>
            <Position>
              <LatitudeDegrees>37.26042780093848705291748046875</LatitudeDegrees>
              <LongitudeDegrees>-3.52505925111472606658935546875</LongitudeDegrees>
            </Position>
            <AltitudeMeters>1480.5999755859375</AltitudeMeters>
            <DistanceMeters>3967.9109873208</DistanceMeters>
          </Trackpoint>
          <Trackpoint>
            <Time>2022-10-08T09:35:35.000Z</Time>
            <Position>
              <LatitudeDegrees>37.26042595691978931427001953125</LatitudeDegrees>
              <LongitudeDegrees>-3.525101579725742340087890625</LongitudeDegrees>
            </Position>
            <AltitudeMeters>1479.800048828125</AltitudeMeters>
            <DistanceMeters>3971.6666469706</DistanceMeters>
          </Trackpoint>
          <Trackpoint>
            <Time>2022-10-08T09:35:36.000Z</Time>
            <Position>
              <LatitudeDegrees>37.26043023169040679931640625</LatitudeDegrees>
              <LongitudeDegrees>-3.525117672979831695556640625</LongitudeDegrees>
            </Position>
            <AltitudeMeters>1479.4000244140625</AltitudeMeters>
            <DistanceMeters>3973.1691512505</DistanceMeters>
          </Trackpoint>
          <Trackpoint>
            <Time>2022-10-08T09:35:39.000Z</Time>
            <Position>
              <LatitudeDegrees>37.260443978011608123779296875</LatitudeDegrees>
              <LongitudeDegrees>-3.52518313564360141754150390625</LongitudeDegrees>
            </Position>
            <AltitudeMeters>1477.800048828125</AltitudeMeters>
            <DistanceMeters>3979.1671362915</DistanceMeters>
          </Trackpoint>
          <Trackpoint>
            <Time>2022-10-08T09:35:40.000Z</Time>
            <Position>
              <LatitudeDegrees>37.2604389488697052001953125</LatitudeDegrees>
              <LongitudeDegrees>-3.5252076946198940277099609375</LongitudeDegrees>
            </Position>
            <AltitudeMeters>1477.199951171875</AltitudeMeters>
            <DistanceMeters>3981.4138700835</DistanceMeters>
          </Trackpoint>
          <Trackpoint>
            <Time>2022-10-08T09:35:41.000Z</Time>
            <Position>
              <LatitudeDegrees>37.26042126305401325225830078125</LatitudeDegrees>
              <LongitudeDegrees>-3.52523946203291416168212890625</LongitudeDegrees>
            </Position>
            <AltitudeMeters>1476.4000244140625</AltitudeMeters>
            <DistanceMeters>3984.848004594</DistanceMeters>
          </Trackpoint>
          <Trackpoint>
            <Time>2022-10-08T09:35:43.000Z</Time>
            <Position>
              <LatitudeDegrees>37.26038957946002483367919921875</LatitudeDegrees>
              <LongitudeDegrees>-3.525295369327068328857421875</LongitudeDegrees>
            </Position>
            <AltitudeMeters>1475</AltitudeMeters>
            <DistanceMeters>3990.9274867171</DistanceMeters>
          </Trackpoint>
          <Trackpoint>
            <Time>2022-10-08T09:35:44.000Z</Time>
            <Position>
              <LatitudeDegrees>37.2603687085211277008056640625</LatitudeDegrees>
              <LongitudeDegrees>-3.5253123007714748382568359375</LongitudeDegrees>
            </Position>
            <AltitudeMeters>1474.4000244140625</AltitudeMeters>
            <DistanceMeters>3993.6914412521</DistanceMeters>
          </Trackpoint>
          <Trackpoint>
            <Time>2022-10-08T09:35:45.000Z</Time>
            <Position>
              <LatitudeDegrees>37.2603475861251354217529296875</LatitudeDegrees>
              <LongitudeDegrees>-3.525322861969470977783203125</LongitudeDegrees>
            </Position>
            <AltitudeMeters>1473.800048828125</AltitudeMeters>
            <DistanceMeters>3996.2199376674</DistanceMeters>
          </Trackpoint>
          <Trackpoint>
            <Time>2022-10-08T09:35:47.000Z</Time>
            <Position>
              <LatitudeDegrees>37.26030643098056316375732421875</LatitudeDegrees>
              <LongitudeDegrees>-3.5253397934138774871826171875</LongitudeDegrees>
            </Position>
            <AltitudeMeters>1472.800048828125</AltitudeMeters>
            <DistanceMeters>4001.0392069703</DistanceMeters>
          </Trackpoint>
          <Trackpoint>
            <Time>2022-10-08T09:35:48.000Z</Time>
            <Position>
              <LatitudeDegrees>37.2602832131087779998779296875</LatitudeDegrees>
              <LongitudeDegrees>-3.52534926496446132659912109375</LongitudeDegrees>
            </Position>
            <AltitudeMeters>1472.199951171875</AltitudeMeters>
            <DistanceMeters>4003.7537128882</DistanceMeters>
          </Trackpoint>
          <Trackpoint>
            <Time>2022-10-08T09:35:52.000Z</Time>
            <Position>
              <LatitudeDegrees>37.26020651869475841522216796875</LatitudeDegrees>
              <LongitudeDegrees>-3.5253941081464290618896484375</LongitudeDegrees>
            </Position>
            <AltitudeMeters>1471.199951171875</AltitudeMeters>
            <DistanceMeters>4013.1695129353</DistanceMeters>
          </Trackpoint>
          <Trackpoint>
            <Time>2022-10-08T09:35:54.000Z</Time>
            <Position>
              <LatitudeDegrees>37.260171733796596527099609375</LatitudeDegrees>
              <LongitudeDegrees>-3.5254262946546077728271484375</LongitudeDegrees>
            </Position>
            <AltitudeMeters>1470.199951171875</AltitudeMeters>
            <DistanceMeters>4017.9775266308</DistanceMeters>
          </Trackpoint>
          <Trackpoint>
            <Time>2022-10-08T09:35:55.000Z</Time>
            <Position>
              <LatitudeDegrees>37.2601467557251453399658203125</LatitudeDegrees>
              <LongitudeDegrees>-3.5254454053938388824462890625</LongitudeDegrees>
            </Position>
            <AltitudeMeters>1469.800048828125</AltitudeMeters>
            <DistanceMeters>4021.2334918864</DistanceMeters>
          </Trackpoint>
          <Trackpoint>
            <Time>2022-10-08T09:35:58.000Z</Time>
            <Position>
              <LatitudeDegrees>37.26008347235620021820068359375</LatitudeDegrees>
              <LongitudeDegrees>-3.5255131311714649200439453125</LongitudeDegrees>
            </Position>
            <AltitudeMeters>1468.800048828125</AltitudeMeters>
            <DistanceMeters>4030.4857956367</DistanceMeters>
          </Trackpoint>
          <Trackpoint>
            <Time>2022-10-08T09:35:59.000Z</Time>
            <Position>
              <LatitudeDegrees>37.2600729949772357940673828125</LatitudeDegrees>
              <LongitudeDegrees>-3.52554489858448505401611328125</LongitudeDegrees>
            </Position>
            <AltitudeMeters>1468.5999755859375</AltitudeMeters>
            <DistanceMeters>4033.5325838775</DistanceMeters>
          </Trackpoint>
          <Trackpoint>
            <Time>2022-10-08T09:36:00.000Z</Time>
            <Position>
              <LatitudeDegrees>37.260059081017971038818359375</LatitudeDegrees>
              <LongitudeDegrees>-3.52558664046227931976318359375</LongitudeDegrees>
            </Position>
            <AltitudeMeters>1468</AltitudeMeters>
            <DistanceMeters>4037.5417653489</DistanceMeters>
          </Trackpoint>
          <Trackpoint>
            <Time>2022-10-08T09:36:01.000Z</Time>
            <Position>
              <LatitudeDegrees>37.26004533469676971435546875</LatitudeDegrees>
              <LongitudeDegrees>-3.52562502957880496978759765625</LongitudeDegrees>
            </Position>
            <AltitudeMeters>1467.4000244140625</AltitudeMeters>
            <DistanceMeters>4041.2720934578</DistanceMeters>
          </Trackpoint>
          <Trackpoint>
            <Time>2022-10-08T09:36:03.000Z</Time>
            <Position>
              <LatitudeDegrees>37.2599942050874233245849609375</LatitudeDegrees>
              <LongitudeDegrees>-3.5257045738399028778076171875</LongitudeDegrees>
            </Position>
            <AltitudeMeters>1466.4000244140625</AltitudeMeters>
            <DistanceMeters>4050.3300885212</DistanceMeters>
          </Trackpoint>
          <Trackpoint>
            <Time>2022-10-08T09:36:05.000Z</Time>
            <Position>
              <LatitudeDegrees>37.2599603421986103057861328125</LatitudeDegrees>
              <LongitudeDegrees>-3.52575595490634441375732421875</LongitudeDegrees>
            </Position>
            <AltitudeMeters>1465</AltitudeMeters>
            <DistanceMeters>4056.2393444481</DistanceMeters>
          </Trackpoint>
          <Trackpoint>
            <Time>2022-10-08T09:36:06.000Z</Time>
            <Position>
              <LatitudeDegrees>37.2599455900490283966064453125</LatitudeDegrees>
              <LongitudeDegrees>-3.52578051388263702392578125</LongitudeDegrees>
            </Position>
            <AltitudeMeters>1464.4000244140625</AltitudeMeters>
            <DistanceMeters>4058.9638118891</DistanceMeters>
          </Trackpoint>
          <Trackpoint>
            <Time>2022-10-08T09:36:08.000Z</Time>
            <Position>
              <LatitudeDegrees>37.25990929640829563140869140625</LatitudeDegrees>
              <LongitudeDegrees>-3.525825440883636474609375</LongitudeDegrees>
            </Position>
            <AltitudeMeters>1463.5999755859375</AltitudeMeters>
            <DistanceMeters>4064.6352431276</DistanceMeters>
          </Trackpoint>
          <Trackpoint>
            <Time>2022-10-08T09:36:09.000Z</Time>
            <Position>
              <LatitudeDegrees>37.25990544073283672332763671875</LatitudeDegrees>
              <LongitudeDegrees>-3.52584396488964557647705078125</LongitudeDegrees>
            </Position>
            <AltitudeMeters>1463</AltitudeMeters>
            <DistanceMeters>4066.3324745159</DistanceMeters>
          </Trackpoint>
          <Trackpoint>
            <Time>2022-10-08T09:36:11.000Z</Time>
            <Position>
              <LatitudeDegrees>37.259910218417644500732421875</LatitudeDegrees>
              <LongitudeDegrees>-3.52590791881084442138671875</LongitudeDegrees>
            </Position>
            <AltitudeMeters>1462.4000244140625</AltitudeMeters>
            <DistanceMeters>4072.0229801286</DistanceMeters>
          </Trackpoint>
          <Trackpoint>
            <Time>2022-10-08T09:36:14.000Z</Time>
            <Position>
              <LatitudeDegrees>37.2598983161151409149169921875</LatitudeDegrees>
              <LongitudeDegrees>-3.52600942365825176239013671875</LongitudeDegrees>
            </Position>
            <AltitudeMeters>1461</AltitudeMeters>
            <DistanceMeters>4081.1118271022</DistanceMeters>
          </Trackpoint>
          <Trackpoint>
            <Time>2022-10-08T09:36:16.000Z</Time>
            <Position>
              <LatitudeDegrees>37.25987878628075122833251953125</LatitudeDegrees>
              <LongitudeDegrees>-3.526074886322021484375</LongitudeDegrees>
            </Position>
            <AltitudeMeters>1459.800048828125</AltitudeMeters>
            <DistanceMeters>4087.3053531362</DistanceMeters>
          </Trackpoint>
          <Trackpoint>
            <Time>2022-10-08T09:36:20.000Z</Time>
            <Position>
              <LatitudeDegrees>37.25982212461531162261962890625</LatitudeDegrees>
              <LongitudeDegrees>-3.52618544362485408782958984375</LongitudeDegrees>
            </Position>
            <AltitudeMeters>1458.4000244140625</AltitudeMeters>
            <DistanceMeters>4098.9537834445</DistanceMeters>
          </Trackpoint>
          <Trackpoint>
            <Time>2022-10-08T09:36:21.000Z</Time>
            <Position>
              <LatitudeDegrees>37.25980167277157306671142578125</LatitudeDegrees>
              <LongitudeDegrees>-3.52620539255440235137939453125</LongitudeDegrees>
            </Position>
            <AltitudeMeters>1458.199951171875</AltitudeMeters>
            <DistanceMeters>4101.8360864002</DistanceMeters>
          </Trackpoint>
          <Trackpoint>
            <Time>2022-10-08T09:36:27.000Z</Time>
            <Position>
              <LatitudeDegrees>37.25967896170914173126220703125</LatitudeDegrees>
              <LongitudeDegrees>-3.52638266980648040771484375</LongitudeDegrees>
            </Position>
            <AltitudeMeters>1457.800048828125</AltitudeMeters>
            <DistanceMeters>4122.6484554836</DistanceMeters>
          </Trackpoint>
          <Trackpoint>
            <Time>2022-10-08T09:36:28.000Z</Time>
            <Position>
              <LatitudeDegrees>37.259662784636020660400390625</LatitudeDegrees>
              <LongitudeDegrees>-3.526413179934024810791015625</LongitudeDegrees>
            </Position>
            <AltitudeMeters>1457.4000244140625</AltitudeMeters>
            <DistanceMeters>4125.8960898975</DistanceMeters>
          </Trackpoint>
          <Trackpoint>
            <Time>2022-10-08T09:36:30.000Z</Time>
            <Position>
              <LatitudeDegrees>37.25963168777525424957275390625</LatitudeDegrees>
              <LongitudeDegrees>-3.52646355517208576202392578125</LongitudeDegrees>
            </Position>
            <AltitudeMeters>1456.800048828125</AltitudeMeters>
            <DistanceMeters>4131.5435875735</DistanceMeters>
          </Trackpoint>
          <Trackpoint>
            <Time>2022-10-08T09:36:33.000Z</Time>
            <Position>
              <LatitudeDegrees>37.25956521928310394287109375</LatitudeDegrees>
              <LongitudeDegrees>-3.526496998965740203857421875</LongitudeDegrees>
            </Position>
            <AltitudeMeters>1456.4000244140625</AltitudeMeters>
            <DistanceMeters>4139.5133778911</DistanceMeters>
          </Trackpoint>
          <Trackpoint>
            <Time>2022-10-08T09:36:34.000Z</Time>
            <Position>
              <LatitudeDegrees>37.25954669527709484100341796875</LatitudeDegrees>
              <LongitudeDegrees>-3.52650747634470462799072265625</LongitudeDegrees>
            </Position>
            <AltitudeMeters>1456</AltitudeMeters>
            <DistanceMeters>4141.7741351243</DistanceMeters>
          </Trackpoint>
          <Trackpoint>
            <Time>2022-10-08T09:36:39.000Z</Time>
            <Position>
              <LatitudeDegrees>37.2594331204891204833984375</LatitudeDegrees>
              <LongitudeDegrees>-3.5265709273517131805419921875</LongitudeDegrees>
            </Position>
            <AltitudeMeters>1455.5999755859375</AltitudeMeters>
            <DistanceMeters>4155.6086018733</DistanceMeters>
          </Trackpoint>
          <Trackpoint>
            <Time>2022-10-08T09:36:45.000Z</Time>
            <Position>
              <LatitudeDegrees>37.25927344523370265960693359375</LatitudeDegrees>
              <LongitudeDegrees>-3.526656590402126312255859375</LongitudeDegrees>
            </Position>
            <AltitudeMeters>1455.5999755859375</AltitudeMeters>
            <DistanceMeters>4174.932933201</DistanceMeters>
          </Trackpoint>
          <Trackpoint>
            <Time>2022-10-08T09:36:46.000Z</Time>
            <Position>
              <LatitudeDegrees>37.25924796424806118011474609375</LatitudeDegrees>
              <LongitudeDegrees>-3.5266778804361820220947265625</LongitudeDegrees>
            </Position>
            <AltitudeMeters>1455.4000244140625</AltitudeMeters>
            <DistanceMeters>4178.3380203004</DistanceMeters>
          </Trackpoint>
          <Trackpoint>
            <Time>2022-10-08T09:36:49.000Z</Time>
            <Position>
              <LatitudeDegrees>37.2591479681432247161865234375</LatitudeDegrees>
              <LongitudeDegrees>-3.52675491012632846832275390625</LongitudeDegrees>
            </Position>
            <AltitudeMeters>1455.4000244140625</AltitudeMeters>
            <DistanceMeters>4191.3930447279</DistanceMeters>
          </Trackpoint>
          <Trackpoint>
            <Time>2022-10-08T09:36:51.000Z</Time>
            <Position>
              <LatitudeDegrees>37.259104549884796142578125</LatitudeDegrees>
              <LongitudeDegrees>-3.52681073360145092010498046875</LongitudeDegrees>
            </Position>
            <AltitudeMeters>1455.199951171875</AltitudeMeters>
            <DistanceMeters>4198.3071769724</DistanceMeters>
          </Trackpoint>
          <Trackpoint>
            <Time>2022-10-08T09:36:54.000Z</Time>
            <Position>
              <LatitudeDegrees>37.259087450802326202392578125</LatitudeDegrees>
              <LongitudeDegrees>-3.526917435228824615478515625</LongitudeDegrees>
            </Position>
            <AltitudeMeters>1454.800048828125</AltitudeMeters>
            <DistanceMeters>4207.9494623377</DistanceMeters>
          </Trackpoint>
          <Trackpoint>
            <Time>2022-10-08T09:36:56.000Z</Time>
            <Position>
              <LatitudeDegrees>37.259093485772609710693359375</LatitudeDegrees>
              <LongitudeDegrees>-3.5269994102418422698974609375</LongitudeDegrees>
            </Position>
            <AltitudeMeters>1454.5999755859375</AltitudeMeters>
            <DistanceMeters>4215.2436525195</DistanceMeters>
          </Trackpoint>
          <Trackpoint>
            <Time>2022-10-08T09:37:00.000Z</Time>
            <Position>
              <LatitudeDegrees>37.25912726484239101409912109375</LatitudeDegrees>
              <LongitudeDegrees>-3.52717651985585689544677734375</LongitudeDegrees>
            </Position>
            <AltitudeMeters>1453.800048828125</AltitudeMeters>
            <DistanceMeters>4231.377498421</DistanceMeters>
          </Trackpoint>
          <Trackpoint>
            <Time>2022-10-08T09:37:01.000Z</Time>
            <Position>
              <LatitudeDegrees>37.25912994705140590667724609375</LatitudeDegrees>
              <LongitudeDegrees>-3.52722127921879291534423828125</LongitudeDegrees>
            </Position>
            <AltitudeMeters>1453.800048828125</AltitudeMeters>
            <DistanceMeters>4235.3550220136</DistanceMeters>
          </Trackpoint>
          <Trackpoint>
            <Time>2022-10-08T09:37:03.000Z</Time>
            <Position>
              <LatitudeDegrees>37.2591432742774486541748046875</LatitudeDegrees>
              <LongitudeDegrees>-3.52731884457170963287353515625</LongitudeDegrees>
            </Position>
            <AltitudeMeters>1453.4000244140625</AltitudeMeters>
            <DistanceMeters>4244.1242939901</DistanceMeters>
          </Trackpoint>
          <Trackpoint>
            <Time>2022-10-08T09:37:07.000Z</Time>
            <Position>
              <LatitudeDegrees>37.2591838426887989044189453125</LatitudeDegrees>
              <LongitudeDegrees>-3.5274999774992465972900390625</LongitudeDegrees>
            </Position>
            <AltitudeMeters>1452.5999755859375</AltitudeMeters>
            <DistanceMeters>4260.7935615882</DistanceMeters>
          </Trackpoint>
          <Trackpoint>
            <Time>2022-10-08T09:37:11.000Z</Time>
            <Position>
              <LatitudeDegrees>37.2591821663081645965576171875</LatitudeDegrees>
              <LongitudeDegrees>-3.52773274295032024383544921875</LongitudeDegrees>
            </Position>
            <AltitudeMeters>1452.199951171875</AltitudeMeters>
            <DistanceMeters>4281.4141396497</DistanceMeters>
          </Trackpoint>
          <Trackpoint>
            <Time>2022-10-08T09:37:13.000Z</Time>
            <Position>
              <LatitudeDegrees>37.25918233394622802734375</LatitudeDegrees>
              <LongitudeDegrees>-3.52784640155732631683349609375</LongitudeDegrees>
            </Position>
            <AltitudeMeters>1451.4000244140625</AltitudeMeters>
            <DistanceMeters>4291.482487983</DistanceMeters>
          </Trackpoint>
          <Trackpoint>
            <Time>2022-10-08T09:37:17.000Z</Time>
            <Position>
              <LatitudeDegrees>37.259153835475444793701171875</LatitudeDegrees>
              <LongitudeDegrees>-3.5280642472207546234130859375</LongitudeDegrees>
            </Position>
            <AltitudeMeters>1451.199951171875</AltitudeMeters>
            <DistanceMeters>4311.0395306495</DistanceMeters>
          </Trackpoint>
          <Trackpoint>
            <Time>2022-10-08T09:37:22.000Z</Time>
            <Position>
              <LatitudeDegrees>37.2591177932918071746826171875</LatitudeDegrees>
              <LongitudeDegrees>-3.52833070792257785797119140625</LongitudeDegrees>
            </Position>
            <AltitudeMeters>1450.5999755859375</AltitudeMeters>
            <DistanceMeters>4334.9824914724</DistanceMeters>
          </Trackpoint>
          <Trackpoint>
            <Time>2022-10-08T09:37:24.000Z</Time>
            <Position>
              <LatitudeDegrees>37.25912994705140590667724609375</LatitudeDegrees>
              <LongitudeDegrees>-3.52842173539102077484130859375</LongitudeDegrees>
            </Position>
            <AltitudeMeters>1450.4000244140625</AltitudeMeters>
            <DistanceMeters>4343.1592075609</DistanceMeters>
          </Trackpoint>
          <Trackpoint>
            <Time>2022-10-08T09:37:25.000Z</Time>
            <Position>
              <LatitudeDegrees>37.25914277136325836181640625</LatitudeDegrees>
              <LongitudeDegrees>-3.528461046516895294189453125</LongitudeDegrees>
            </Position>
            <AltitudeMeters>1450.199951171875</AltitudeMeters>
            <DistanceMeters>4346.9232731741</DistanceMeters>
          </Trackpoint>
          <Trackpoint>
            <Time>2022-10-08T09:37:28.000Z</Time>
            <Position>
              <LatitudeDegrees>37.25919666700065135955810546875</LatitudeDegrees>
              <LongitudeDegrees>-3.52856523357331752777099609375</LongitudeDegrees>
            </Position>
            <AltitudeMeters>1449.4000244140625</AltitudeMeters>
            <DistanceMeters>4357.9316166407</DistanceMeters>
          </Trackpoint>
          <Trackpoint>
            <Time>2022-10-08T09:37:30.000Z</Time>
            <Position>
              <LatitudeDegrees>37.259218879044055938720703125</LatitudeDegrees>
              <LongitudeDegrees>-3.5285899601876735687255859375</LongitudeDegrees>
            </Position>
            <AltitudeMeters>1449</AltitudeMeters>
            <DistanceMeters>4361.2343931006</DistanceMeters>
          </Trackpoint>
          <Trackpoint>
            <Time>2022-10-08T09:37:31.000Z</Time>
            <Position>
              <LatitudeDegrees>37.259224914014339447021484375</LatitudeDegrees>
              <LongitudeDegrees>-3.528589121997356414794921875</LongitudeDegrees>
            </Position>
            <AltitudeMeters>1448.800048828125</AltitudeMeters>
            <DistanceMeters>4361.9063334419</DistanceMeters>
          </Trackpoint>
          <Trackpoint>
            <Time>2022-10-08T09:37:34.000Z</Time>
            <Position>
              <LatitudeDegrees>37.2592066414654254913330078125</LatitudeDegrees>
              <LongitudeDegrees>-3.5285809077322483062744140625</LongitudeDegrees>
            </Position>
            <AltitudeMeters>1448.5999755859375</AltitudeMeters>
            <DistanceMeters>4364.0670160936</DistanceMeters>
          </Trackpoint>
          <Trackpoint>
            <Time>2022-10-08T09:37:39.000Z</Time>
            <Position>
              <LatitudeDegrees>37.25919851101934909820556640625</LatitudeDegrees>
              <LongitudeDegrees>-3.52856137789785861968994140625</LongitudeDegrees>
            </Position>
            <AltitudeMeters>1449</AltitudeMeters>
            <DistanceMeters>4366.0191155427</DistanceMeters>
          </Trackpoint>
          <Trackpoint>
            <Time>2022-10-08T09:37:40.000Z</Time>
            <Position>
              <LatitudeDegrees>37.2591959126293659210205078125</LatitudeDegrees>
              <LongitudeDegrees>-3.52855802513659000396728515625</LongitudeDegrees>
            </Position>
            <AltitudeMeters>1449</AltitudeMeters>
            <DistanceMeters>4366.4333273876</DistanceMeters>
          </Trackpoint>
          <Trackpoint>
            <Time>2022-10-08T08:01:17.000Z</Time>
            <Position>
              <LatitudeDegrees>37.25906037725508213043212890625</LatitudeDegrees>
              <LongitudeDegrees>-3.52853874675929546356201171875</LongitudeDegrees>
            </Position>
            <AltitudeMeters>1453.5999755859375</AltitudeMeters>
            <DistanceMeters>4381.6150160669</DistanceMeters>
          </Trackpoint>
          <Trackpoint>
            <Time>2022-10-08T08:01:18.000Z</Time>
            <Position>
              <LatitudeDegrees>37.2590611316263675689697265625</LatitudeDegrees>
              <LongitudeDegrees>-3.528538830578327178955078125</LongitudeDegrees>
            </Position>
            <AltitudeMeters>1453.5999755859375</AltitudeMeters>
            <DistanceMeters>4381.7100427813</DistanceMeters>
          </Trackpoint>
          <Trackpoint>
            <Time>2022-10-08T08:01:29.000Z</Time>
            <Position>
              <LatitudeDegrees>37.25920043885707855224609375</LatitudeDegrees>
              <LongitudeDegrees>-3.52879120968282222747802734375</LongitudeDegrees>
            </Position>
            <AltitudeMeters>1452.800048828125</AltitudeMeters>
            <DistanceMeters>4408.9179020636</DistanceMeters>
          </Trackpoint>
          <Trackpoint>
            <Time>2022-10-08T08:01:30.000Z</Time>
            <Position>
              <LatitudeDegrees>37.25922818295657634735107421875</LatitudeDegrees>
              <LongitudeDegrees>-3.5288330353796482086181640625</LongitudeDegrees>
            </Position>
            <AltitudeMeters>1452.800048828125</AltitudeMeters>
            <DistanceMeters>4413.7418534518</DistanceMeters>
          </Trackpoint>
          <Trackpoint>
            <Time>2022-10-08T08:01:31.000Z</Time>
            <Position>
              <LatitudeDegrees>37.25925148464739322662353515625</LatitudeDegrees>
              <LongitudeDegrees>-3.52887569926679134368896484375</LongitudeDegrees>
            </Position>
            <AltitudeMeters>1452.5999755859375</AltitudeMeters>
            <DistanceMeters>4418.3258460222</DistanceMeters>
          </Trackpoint>
          <Trackpoint>
            <Time>2022-10-08T08:01:33.000Z</Time>
            <Position>
              <LatitudeDegrees>37.25928836502134799957275390625</LatitudeDegrees>
              <LongitudeDegrees>-3.528964631259441375732421875</LongitudeDegrees>
            </Position>
            <AltitudeMeters>1452.4000244140625</AltitudeMeters>
            <DistanceMeters>4427.2097003726</DistanceMeters>
          </Trackpoint>
          <Trackpoint>
            <Time>2022-10-08T08:01:34.000Z</Time>
            <Position>
              <LatitudeDegrees>37.25931887514889240264892578125</LatitudeDegrees>
              <LongitudeDegrees>-3.5290067084133625030517578125</LongitudeDegrees>
            </Position>
            <AltitudeMeters>1452.199951171875</AltitudeMeters>
            <DistanceMeters>4432.2523876786</DistanceMeters>
          </Trackpoint>
          <Trackpoint>
            <Time>2022-10-08T08:01:35.000Z</Time>
            <Position>
              <LatitudeDegrees>37.25935072638094425201416015625</LatitudeDegrees>
              <LongitudeDegrees>-3.52905021049082279205322265625</LongitudeDegrees>
            </Position>
            <AltitudeMeters>1452</AltitudeMeters>
            <DistanceMeters>4437.4883510173</DistanceMeters>
          </Trackpoint>
          <Trackpoint>
            <Time>2022-10-08T08:01:36.000Z</Time>
            <Position>
              <LatitudeDegrees>37.25937956012785434722900390625</LatitudeDegrees>
              <LongitudeDegrees>-3.5290910303592681884765625</LongitudeDegrees>
            </Position>
            <AltitudeMeters>1451.5999755859375</AltitudeMeters>
            <DistanceMeters>4442.3225870311</DistanceMeters>
          </Trackpoint>
          <Trackpoint>
            <Time>2022-10-08T08:01:41.000Z</Time>
            <Position>
              <LatitudeDegrees>37.2594953142106533050537109375</LatitudeDegrees>
              <LongitudeDegrees>-3.52926604449748992919921875</LongitudeDegrees>
            </Position>
            <AltitudeMeters>1450.800048828125</AltitudeMeters>
            <DistanceMeters>4462.4805732872</DistanceMeters>
          </Trackpoint>
          <Trackpoint>
            <Time>2022-10-08T08:01:43.000Z</Time>
            <Position>
              <LatitudeDegrees>37.25952808745205402374267578125</LatitudeDegrees>
              <LongitudeDegrees>-3.52932211942970752716064453125</LongitudeDegrees>
            </Position>
            <AltitudeMeters>1450.800048828125</AltitudeMeters>
            <DistanceMeters>4468.6434055519</DistanceMeters>
          </Trackpoint>
          <Trackpoint>
            <Time>2022-10-08T08:01:44.000Z</Time>
            <Position>
              <LatitudeDegrees>37.25954149849712848663330078125</LatitudeDegrees>
              <LongitudeDegrees>-3.5293450020253658294677734375</LongitudeDegrees>
            </Position>
            <AltitudeMeters>1450.5999755859375</AltitudeMeters>
            <DistanceMeters>4471.1593712884</DistanceMeters>
          </Trackpoint>
          <Trackpoint>
            <Time>2022-10-08T08:01:45.000Z</Time>
            <Position>
              <LatitudeDegrees>37.25955021567642688751220703125</LatitudeDegrees>
              <LongitudeDegrees>-3.52936796844005584716796875</LongitudeDegrees>
            </Position>
            <AltitudeMeters>1450.4000244140625</AltitudeMeters>
            <DistanceMeters>4473.4161307161</DistanceMeters>
          </Trackpoint>
          <Trackpoint>
            <Time>2022-10-08T08:01:47.000Z</Time>
            <Position>
              <LatitudeDegrees>37.25957100279629230499267578125</LatitudeDegrees>
              <LongitudeDegrees>-3.5294204391539096832275390625</LongitudeDegrees>
            </Position>
            <AltitudeMeters>1450</AltitudeMeters>
            <DistanceMeters>4478.6087994193</DistanceMeters>
          </Trackpoint>
          <Trackpoint>
            <Time>2022-10-08T08:01:50.000Z</Time>
            <Position>
              <LatitudeDegrees>37.25962699390947818756103515625</LatitudeDegrees>
              <LongitudeDegrees>-3.52951574139297008514404296875</LongitudeDegrees>
            </Position>
            <AltitudeMeters>1449.199951171875</AltitudeMeters>
            <DistanceMeters>4489.1022617725</DistanceMeters>
          </Trackpoint>
          <Trackpoint>
            <Time>2022-10-08T08:01:54.000Z</Time>
            <Position>
              <LatitudeDegrees>37.2597360424697399139404296875</LatitudeDegrees>
              <LongitudeDegrees>-3.52965303696691989898681640625</LongitudeDegrees>
            </Position>
            <AltitudeMeters>1448.4000244140625</AltitudeMeters>
            <DistanceMeters>4506.2850257938</DistanceMeters>
          </Trackpoint>
          <Trackpoint>
            <Time>2022-10-08T08:01:55.000Z</Time>
            <Position>
              <LatitudeDegrees>37.2597652114927768707275390625</LatitudeDegrees>
              <LongitudeDegrees>-3.52969293482601642608642578125</LongitudeDegrees>
            </Position>
            <AltitudeMeters>1448.4000244140625</AltitudeMeters>
            <DistanceMeters>4511.0836396491</DistanceMeters>
          </Trackpoint>
          <Trackpoint>
            <Time>2022-10-08T08:01:59.000Z</Time>
            <Position>
              <LatitudeDegrees>37.25984894670546054840087890625</LatitudeDegrees>
              <LongitudeDegrees>-3.52983542717993259429931640625</LongitudeDegrees>
            </Position>
            <AltitudeMeters>1448</AltitudeMeters>
            <DistanceMeters>4526.774273931</DistanceMeters>
          </Trackpoint>
          <Trackpoint>
            <Time>2022-10-08T08:02:00.000Z</Time>
            <Position>
              <LatitudeDegrees>37.25986151956021785736083984375</LatitudeDegrees>
              <LongitudeDegrees>-3.52984406054019927978515625</LongitudeDegrees>
            </Position>
            <AltitudeMeters>1448</AltitudeMeters>
            <DistanceMeters>4528.3700438258</DistanceMeters>
          </Trackpoint>
          <Trackpoint>
            <Time>2022-10-08T08:02:01.000Z</Time>
            <Position>
              <LatitudeDegrees>37.25987727753818035125732421875</LatitudeDegrees>
              <LongitudeDegrees>-3.52983743883669376373291015625</LongitudeDegrees>
            </Position>
            <AltitudeMeters>1448</AltitudeMeters>
            <DistanceMeters>4530.2200165208</DistanceMeters>
          </Trackpoint>
          <Trackpoint>
            <Time>2022-10-08T08:02:02.000Z</Time>
            <Position>
              <LatitudeDegrees>37.25988850928843021392822265625</LatitudeDegrees>
              <LongitudeDegrees>-3.5298220999538898468017578125</LongitudeDegrees>
            </Position>
            <AltitudeMeters>1448</AltitudeMeters>
            <DistanceMeters>4532.0675470066</DistanceMeters>
          </Trackpoint>
          <Trackpoint>
            <Time>2022-10-08T08:02:06.000Z</Time>
            <Position>
              <LatitudeDegrees>37.259911559522151947021484375</LatitudeDegrees>
              <LongitudeDegrees>-3.52972042746841907501220703125</LongitudeDegrees>
            </Position>
            <AltitudeMeters>1448.5999755859375</AltitudeMeters>
            <DistanceMeters>4541.4323802899</DistanceMeters>
          </Trackpoint>
          <Trackpoint>
            <Time>2022-10-08T08:02:07.000Z</Time>
            <Position>
              <LatitudeDegrees>37.25991365499794483184814453125</LatitudeDegrees>
              <LongitudeDegrees>-3.52968455292284488677978515625</LongitudeDegrees>
            </Position>
            <AltitudeMeters>1449</AltitudeMeters>
            <DistanceMeters>4544.6182562954</DistanceMeters>
          </Trackpoint>
          <Trackpoint>
            <Time>2022-10-08T08:02:10.000Z</Time>
            <Position>
              <LatitudeDegrees>37.2599164210259914398193359375</LatitudeDegrees>
              <LongitudeDegrees>-3.5295807011425495147705078125</LongitudeDegrees>
            </Position>
            <AltitudeMeters>1450.199951171875</AltitudeMeters>
            <DistanceMeters>4553.8226127204</DistanceMeters>
          </Trackpoint>
          <Trackpoint>
            <Time>2022-10-08T08:02:13.000Z</Time>
            <Position>
              <LatitudeDegrees>37.25991214625537395477294921875</LatitudeDegrees>
              <LongitudeDegrees>-3.52948724292218685150146484375</LongitudeDegrees>
            </Position>
            <AltitudeMeters>1451</AltitudeMeters>
            <DistanceMeters>4562.1155652825</DistanceMeters>
          </Trackpoint>
          <Trackpoint>
            <Time>2022-10-08T08:02:14.000Z</Time>
            <Position>
              <LatitudeDegrees>37.2599080391228199005126953125</LatitudeDegrees>
              <LongitudeDegrees>-3.52945287711918354034423828125</LongitudeDegrees>
            </Position>
            <AltitudeMeters>1451.4000244140625</AltitudeMeters>
            <DistanceMeters>4565.1933161154</DistanceMeters>
          </Trackpoint>
          <Trackpoint>
            <Time>2022-10-08T08:02:19.000Z</Time>
            <Position>
              <LatitudeDegrees>37.2598926164209842681884765625</LatitudeDegrees>
              <LongitudeDegrees>-3.52930636145174503326416015625</LongitudeDegrees>
            </Position>
            <AltitudeMeters>1452.199951171875</AltitudeMeters>
            <DistanceMeters>4578.2852938492</DistanceMeters>
          </Trackpoint>
          <Trackpoint>
            <Time>2022-10-08T08:02:20.000Z</Time>
            <Position>
              <LatitudeDegrees>37.2598889283835887908935546875</LatitudeDegrees>
              <LongitudeDegrees>-3.529275096952915191650390625</LongitudeDegrees>
            </Position>
            <AltitudeMeters>1452.4000244140625</AltitudeMeters>
            <DistanceMeters>4581.0833425044</DistanceMeters>
          </Trackpoint>
          <Trackpoint>
            <Time>2022-10-08T08:02:22.000Z</Time>
            <Position>
              <LatitudeDegrees>37.25988515652716159820556640625</LatitudeDegrees>
              <LongitudeDegrees>-3.52921382524073123931884765625</LongitudeDegrees>
            </Position>
            <AltitudeMeters>1453.199951171875</AltitudeMeters>
            <DistanceMeters>4586.5264740307</DistanceMeters>
          </Trackpoint>
          <Trackpoint>
            <Time>2022-10-08T08:02:24.000Z</Time>
            <Position>
              <LatitudeDegrees>37.2598835639655590057373046875</LatitudeDegrees>
              <LongitudeDegrees>-3.52915582247078418731689453125</LongitudeDegrees>
            </Position>
            <AltitudeMeters>1454</AltitudeMeters>
            <DistanceMeters>4591.666707846</DistanceMeters>
          </Trackpoint>
          <Trackpoint>
            <Time>2022-10-08T08:02:28.000Z</Time>
            <Position>
              <LatitudeDegrees>37.25987191312015056610107421875</LatitudeDegrees>
              <LongitudeDegrees>-3.52905373089015483856201171875</LongitudeDegrees>
            </Position>
            <AltitudeMeters>1454.800048828125</AltitudeMeters>
            <DistanceMeters>4600.8031199781</DistanceMeters>
          </Trackpoint>
          <Trackpoint>
            <Time>2022-10-08T08:02:29.000Z</Time>
            <Position>
              <LatitudeDegrees>37.25986721925437450408935546875</LatitudeDegrees>
              <LongitudeDegrees>-3.52903311140835285186767578125</LongitudeDegrees>
            </Position>
            <AltitudeMeters>1455</AltitudeMeters>
            <DistanceMeters>4602.6988969757</DistanceMeters>
          </Trackpoint>
          <Trackpoint>
            <Time>2022-10-08T08:02:33.000Z</Time>
            <Position>
              <LatitudeDegrees>37.25984559394419193267822265625</LatitudeDegrees>
              <LongitudeDegrees>-3.52893210947513580322265625</LongitudeDegrees>
            </Position>
            <AltitudeMeters>1456</AltitudeMeters>
            <DistanceMeters>4611.9638797968</DistanceMeters>
          </Trackpoint>
          <Trackpoint>
            <Time>2022-10-08T08:02:34.000Z</Time>
            <Position>
              <LatitudeDegrees>37.25984140299260616302490234375</LatitudeDegrees>
              <LongitudeDegrees>-3.52891735732555389404296875</LongitudeDegrees>
            </Position>
            <AltitudeMeters>1456.199951171875</AltitudeMeters>
            <DistanceMeters>4613.3474896429</DistanceMeters>
          </Trackpoint>
          <Trackpoint>
            <Time>2022-10-08T08:02:35.000Z</Time>
            <Position>
              <LatitudeDegrees>37.2598366253077983856201171875</LatitudeDegrees>
              <LongitudeDegrees>-3.52890201844274997711181640625</LongitudeDegrees>
            </Position>
            <AltitudeMeters>1456.5999755859375</AltitudeMeters>
            <DistanceMeters>4614.8073177289</DistanceMeters>
          </Trackpoint>
          <Trackpoint>
            <Time>2022-10-08T08:02:37.000Z</Time>
            <Position>
              <LatitudeDegrees>37.259835116565227508544921875</LatitudeDegrees>
              <LongitudeDegrees>-3.52886103093624114990234375</LongitudeDegrees>
            </Position>
            <AltitudeMeters>1457.199951171875</AltitudeMeters>
            <DistanceMeters>4618.4432539102</DistanceMeters>
          </Trackpoint>
          <Trackpoint>
            <Time>2022-10-08T08:02:40.000Z</Time>
            <Position>
              <LatitudeDegrees>37.2598580829799175262451171875</LatitudeDegrees>
              <LongitudeDegrees>-3.52878249250352382659912109375</LongitudeDegrees>
            </Position>
            <AltitudeMeters>1458</AltitudeMeters>
            <DistanceMeters>4625.855337631</DistanceMeters>
          </Trackpoint>
          <Trackpoint>
            <Time>2022-10-08T08:02:41.000Z</Time>
            <Position>
              <LatitudeDegrees>37.2598711587488651275634765625</LatitudeDegrees>
              <LongitudeDegrees>-3.52876690216362476348876953125</LongitudeDegrees>
            </Position>
            <AltitudeMeters>1458.4000244140625</AltitudeMeters>
            <DistanceMeters>4627.8621794519</DistanceMeters>
          </Trackpoint>
          <Trackpoint>
            <Time>2022-10-08T08:02:44.000Z</Time>
            <Position>
              <LatitudeDegrees>37.259928323328495025634765625</LatitudeDegrees>
              <LongitudeDegrees>-3.5287369787693023681640625</LongitudeDegrees>
            </Position>
            <AltitudeMeters>1459.5999755859375</AltitudeMeters>
            <DistanceMeters>4634.7553835145</DistanceMeters>
          </Trackpoint>
          <Trackpoint>
            <Time>2022-10-08T08:02:46.000Z</Time>
            <Position>
              <LatitudeDegrees>37.259982638061046600341796875</LatitudeDegrees>
              <LongitudeDegrees>-3.528727926313877105712890625</LongitudeDegrees>
            </Position>
            <AltitudeMeters>1460</AltitudeMeters>
            <DistanceMeters>4640.8534040782</DistanceMeters>
          </Trackpoint>
          <Trackpoint>
            <Time>2022-10-08T08:02:48.000Z</Time>
            <Position>
              <LatitudeDegrees>37.260035611689090728759765625</LatitudeDegrees>
              <LongitudeDegrees>-3.5287130065262317657470703125</LongitudeDegrees>
            </Position>
            <AltitudeMeters>1460.4000244140625</AltitudeMeters>
            <DistanceMeters>4646.8956386866</DistanceMeters>
          </Trackpoint>
          <Trackpoint>
            <Time>2022-10-08T08:02:49.000Z</Time>
            <Position>
              <LatitudeDegrees>37.2600569017231464385986328125</LatitudeDegrees>
              <LongitudeDegrees>-3.5287036187946796417236328125</LongitudeDegrees>
            </Position>
            <AltitudeMeters>1460.800048828125</AltitudeMeters>
            <DistanceMeters>4649.4062149866</DistanceMeters>
          </Trackpoint>
          <Trackpoint>
            <Time>2022-10-08T08:02:54.000Z</Time>
            <Position>
              <LatitudeDegrees>37.260160334408283233642578125</LatitudeDegrees>
              <LongitudeDegrees>-3.528670258820056915283203125</LongitudeDegrees>
            </Position>
            <AltitudeMeters>1462.199951171875</AltitudeMeters>
            <DistanceMeters>4661.291774119</DistanceMeters>
          </Trackpoint>
          <Trackpoint>
            <Time>2022-10-08T08:02:55.000Z</Time>
            <Position>
              <LatitudeDegrees>37.26018338464200496673583984375</LatitudeDegrees>
              <LongitudeDegrees>-3.52865626104176044464111328125</LongitudeDegrees>
            </Position>
            <AltitudeMeters>1462.199951171875</AltitudeMeters>
            <DistanceMeters>4664.1394062312</DistanceMeters>
          </Trackpoint>
          <Trackpoint>
            <Time>2022-10-08T08:02:58.000Z</Time>
            <Position>
              <LatitudeDegrees>37.2602510266005992889404296875</LatitudeDegrees>
              <LongitudeDegrees>-3.52866196073591709136962890625</LongitudeDegrees>
            </Position>
            <AltitudeMeters>1463.199951171875</AltitudeMeters>
            <DistanceMeters>4671.6855086726</DistanceMeters>
          </Trackpoint>
          <Trackpoint>
            <Time>2022-10-08T08:03:00.000Z</Time>
            <Position>
              <LatitudeDegrees>37.2602781839668750762939453125</LatitudeDegrees>
              <LongitudeDegrees>-3.5286798141896724700927734375</LongitudeDegrees>
            </Position>
            <AltitudeMeters>1463.5999755859375</AltitudeMeters>
            <DistanceMeters>4675.0972191726</DistanceMeters>
          </Trackpoint>
          <Trackpoint>
            <Time>2022-10-08T08:03:03.000Z</Time>
            <Position>
              <LatitudeDegrees>37.26031682454049587249755859375</LatitudeDegrees>
              <LongitudeDegrees>-3.52869607508182525634765625</LongitudeDegrees>
            </Position>
            <AltitudeMeters>1464.4000244140625</AltitudeMeters>
            <DistanceMeters>4679.632692041</DistanceMeters>
          </Trackpoint>
          <Trackpoint>
            <Time>2022-10-08T08:03:08.000Z</Time>
            <Position>
              <LatitudeDegrees>37.26041824556887149810791015625</LatitudeDegrees>
              <LongitudeDegrees>-3.52873907424509525299072265625</LongitudeDegrees>
            </Position>
            <AltitudeMeters>1465.4000244140625</AltitudeMeters>
            <DistanceMeters>4691.5459498435</DistanceMeters>
          </Trackpoint>
          <Trackpoint>
            <Time>2022-10-08T08:03:09.000Z</Time>
            <Position>
              <LatitudeDegrees>37.26043584756553173065185546875</LatitudeDegrees>
              <LongitudeDegrees>-3.5287569276988506317138671875</LongitudeDegrees>
            </Position>
            <AltitudeMeters>1465.800048828125</AltitudeMeters>
            <DistanceMeters>4694.0637094952</DistanceMeters>
          </Trackpoint>
          <Trackpoint>
            <Time>2022-10-08T08:03:12.000Z</Time>
            <Position>
              <LatitudeDegrees>37.2604773379862308502197265625</LatitudeDegrees>
              <LongitudeDegrees>-3.52878869511187076568603515625</LongitudeDegrees>
            </Position>
            <AltitudeMeters>1466.5999755859375</AltitudeMeters>
            <DistanceMeters>4699.4710551957</DistanceMeters>
          </Trackpoint>
          <Trackpoint>
            <Time>2022-10-08T08:03:16.000Z</Time>
            <Position>
              <LatitudeDegrees>37.26054489612579345703125</LatitudeDegrees>
              <LongitudeDegrees>-3.52880646474659442901611328125</LongitudeDegrees>
            </Position>
            <AltitudeMeters>1467.4000244140625</AltitudeMeters>
            <DistanceMeters>4707.1535404471</DistanceMeters>
          </Trackpoint>
          <Trackpoint>
            <Time>2022-10-08T08:03:18.000Z</Time>
            <Position>
              <LatitudeDegrees>37.2605863027274608612060546875</LatitudeDegrees>
              <LongitudeDegrees>-3.52880629710853099822998046875</LongitudeDegrees>
            </Position>
            <AltitudeMeters>1467.800048828125</AltitudeMeters>
            <DistanceMeters>4711.7620911734</DistanceMeters>
          </Trackpoint>
          <Trackpoint>
            <Time>2022-10-08T08:03:23.000Z</Time>
            <Position>
              <LatitudeDegrees>37.26069333963096141815185546875</LatitudeDegrees>
              <LongitudeDegrees>-3.52881769649684429168701171875</LongitudeDegrees>
            </Position>
            <AltitudeMeters>1469</AltitudeMeters>
            <DistanceMeters>4723.7180984545</DistanceMeters>
          </Trackpoint>
          <Trackpoint>
            <Time>2022-10-08T08:03:24.000Z</Time>
            <Position>
              <LatitudeDegrees>37.26071764715015888214111328125</LatitudeDegrees>
              <LongitudeDegrees>-3.528829179704189300537109375</LongitudeDegrees>
            </Position>
            <AltitudeMeters>1469.4000244140625</AltitudeMeters>
            <DistanceMeters>4726.6082231423</DistanceMeters>
          </Trackpoint>
          <Trackpoint>
            <Time>2022-10-08T08:03:28.000Z</Time>
            <Position>
              <LatitudeDegrees>37.26078872568905353546142578125</LatitudeDegrees>
              <LongitudeDegrees>-3.52884116582572460174560546875</LongitudeDegrees>
            </Position>
            <AltitudeMeters>1470.199951171875</AltitudeMeters>
            <DistanceMeters>4734.5904671494</DistanceMeters>
          </Trackpoint>
          <Trackpoint>
            <Time>2022-10-08T08:03:31.000Z</Time>
            <Position>
              <LatitudeDegrees>37.26084086112678050994873046875</LatitudeDegrees>
              <LongitudeDegrees>-3.52887603454291820526123046875</LongitudeDegrees>
            </Position>
            <AltitudeMeters>1470.800048828125</AltitudeMeters>
            <DistanceMeters>4741.1645028855</DistanceMeters>
          </Trackpoint>
          <Trackpoint>
            <Time>2022-10-08T08:03:34.000Z</Time>
            <Position>
              <LatitudeDegrees>37.260896265506744384765625</LatitudeDegrees>
              <LongitudeDegrees>-3.5289235599339008331298828125</LongitudeDegrees>
            </Position>
            <AltitudeMeters>1471.199951171875</AltitudeMeters>
            <DistanceMeters>4748.6312084486</DistanceMeters>
          </Trackpoint>
          <Trackpoint>
            <Time>2022-10-08T08:03:39.000Z</Time>
            <Position>
              <LatitudeDegrees>37.26096860133111476898193359375</LatitudeDegrees>
              <LongitudeDegrees>-3.5289976559579372406005859375</LongitudeDegrees>
            </Position>
            <AltitudeMeters>1472.4000244140625</AltitudeMeters>
            <DistanceMeters>4759.0187193838</DistanceMeters>
          </Trackpoint>
          <Trackpoint>
            <Time>2022-10-08T08:03:45.000Z</Time>
            <Position>
              <LatitudeDegrees>37.2610550187528133392333984375</LatitudeDegrees>
              <LongitudeDegrees>-3.5290637053549289703369140625</LongitudeDegrees>
            </Position>
            <AltitudeMeters>1473.5999755859375</AltitudeMeters>
            <DistanceMeters>4770.276878779</DistanceMeters>
          </Trackpoint>
          <Trackpoint>
            <Time>2022-10-08T08:03:47.000Z</Time>
            <Position>
              <LatitudeDegrees>37.261087708175182342529296875</LatitudeDegrees>
              <LongitudeDegrees>-3.5290781222283840179443359375</LongitudeDegrees>
            </Position>
            <AltitudeMeters>1474</AltitudeMeters>
            <DistanceMeters>4774.1333714735</DistanceMeters>
          </Trackpoint>
          <Trackpoint>
            <Time>2022-10-08T08:03:51.000Z</Time>
            <Position>
              <LatitudeDegrees>37.2611685097217559814453125</LatitudeDegrees>
              <LongitudeDegrees>-3.52912656962871551513671875</LongitudeDegrees>
            </Position>
            <AltitudeMeters>1474.800048828125</AltitudeMeters>
            <DistanceMeters>4784.098498199</DistanceMeters>
          </Trackpoint>
          <Trackpoint>
            <Time>2022-10-08T08:03:55.000Z</Time>
            <Position>
              <LatitudeDegrees>37.26125232875347137451171875</LatitudeDegrees>
              <LongitudeDegrees>-3.5291401483118534088134765625</LongitudeDegrees>
            </Position>
            <AltitudeMeters>1475.5999755859375</AltitudeMeters>
            <DistanceMeters>4793.5047030127</DistanceMeters>
          </Trackpoint>
          <Trackpoint>
            <Time>2022-10-08T08:03:56.000Z</Time>
            <Position>
              <LatitudeDegrees>37.2612742893397808074951171875</LatitudeDegrees>
              <LongitudeDegrees>-3.52913939394056797027587890625</LongitudeDegrees>
            </Position>
            <AltitudeMeters>1476</AltitudeMeters>
            <DistanceMeters>4795.9496796191</DistanceMeters>
          </Trackpoint>
          <Trackpoint>
            <Time>2022-10-08T08:04:00.000Z</Time>
            <Position>
              <LatitudeDegrees>37.2613185457885265350341796875</LatitudeDegrees>
              <LongitudeDegrees>-3.52909178473055362701416015625</LongitudeDegrees>
            </Position>
            <AltitudeMeters>1477.199951171875</AltitudeMeters>
            <DistanceMeters>4802.4352093643</DistanceMeters>
          </Trackpoint>
          <Trackpoint>
            <Time>2022-10-08T08:04:01.000Z</Time>
            <Position>
              <LatitudeDegrees>37.26131980307400226593017578125</LatitudeDegrees>
              <LongitudeDegrees>-3.52907351218163967132568359375</LongitudeDegrees>
            </Position>
            <AltitudeMeters>1477.4000244140625</AltitudeMeters>
            <DistanceMeters>4804.0645780993</DistanceMeters>
          </Trackpoint>
          <Trackpoint>
            <Time>2022-10-08T08:04:04.000Z</Time>
            <Position>
              <LatitudeDegrees>37.26131175644695758819580078125</LatitudeDegrees>
              <LongitudeDegrees>-3.52901936508715152740478515625</LongitudeDegrees>
            </Position>
            <AltitudeMeters>1478.199951171875</AltitudeMeters>
            <DistanceMeters>4808.945289283</DistanceMeters>
          </Trackpoint>
          <Trackpoint>
            <Time>2022-10-08T08:04:07.000Z</Time>
            <Position>
              <LatitudeDegrees>37.26128778420388698577880859375</LatitudeDegrees>
              <LongitudeDegrees>-3.528974689543247222900390625</LongitudeDegrees>
            </Position>
            <AltitudeMeters>1478.5999755859375</AltitudeMeters>
            <DistanceMeters>4813.7184311066</DistanceMeters>
          </Trackpoint>
          <Trackpoint>
            <Time>2022-10-08T08:04:12.000Z</Time>
            <Position>
              <LatitudeDegrees>37.2612441144883632659912109375</LatitudeDegrees>
              <LongitudeDegrees>-3.52892498485743999481201171875</LongitudeDegrees>
            </Position>
            <AltitudeMeters>1479.5999755859375</AltitudeMeters>
            <DistanceMeters>4820.277339871</DistanceMeters>
          </Trackpoint>
          <Trackpoint>
            <Time>2022-10-08T08:04:13.000Z</Time>
            <Position>
              <LatitudeDegrees>37.2612357325851917266845703125</LatitudeDegrees>
              <LongitudeDegrees>-3.52891509421169757843017578125</LongitudeDegrees>
            </Position>
            <AltitudeMeters>1479.800048828125</AltitudeMeters>
            <DistanceMeters>4821.559320336</DistanceMeters>
          </Trackpoint>
          <Trackpoint>
            <Time>2022-10-08T08:04:17.000Z</Time>
            <Position>
              <LatitudeDegrees>37.2612154483795166015625</LatitudeDegrees>
              <LongitudeDegrees>-3.5288451053202152252197265625</LongitudeDegrees>
            </Position>
            <AltitudeMeters>1480.5999755859375</AltitudeMeters>
            <DistanceMeters>4828.1580344996</DistanceMeters>
          </Trackpoint>
          <Trackpoint>
            <Time>2022-10-08T08:04:18.000Z</Time>
            <Position>
              <LatitudeDegrees>37.26120782084763050079345703125</LatitudeDegrees>
              <LongitudeDegrees>-3.528833873569965362548828125</LongitudeDegrees>
            </Position>
            <AltitudeMeters>1480.800048828125</AltitudeMeters>
            <DistanceMeters>4829.4678873633</DistanceMeters>
          </Trackpoint>
          <Trackpoint>
            <Time>2022-10-08T08:04:20.000Z</Time>
            <Position>
              <LatitudeDegrees>37.2612062282860279083251953125</LatitudeDegrees>
              <LongitudeDegrees>-3.5287897847592830657958984375</LongitudeDegrees>
            </Position>
            <AltitudeMeters>1481.199951171875</AltitudeMeters>
            <DistanceMeters>4833.3767093524</DistanceMeters>
          </Trackpoint>
          <Trackpoint>
            <Time>2022-10-08T08:04:21.000Z</Time>
            <Position>
              <LatitudeDegrees>37.26120413281023502349853515625</LatitudeDegrees>
              <LongitudeDegrees>-3.5287683270871639251708984375</LongitudeDegrees>
            </Position>
            <AltitudeMeters>1481.4000244140625</AltitudeMeters>
            <DistanceMeters>4835.2914445916</DistanceMeters>
          </Trackpoint>
          <Trackpoint>
            <Time>2022-10-08T08:04:23.000Z</Time>
            <Position>
              <LatitudeDegrees>37.2612065635621547698974609375</LatitudeDegrees>
              <LongitudeDegrees>-3.52872499264776706695556640625</LongitudeDegrees>
            </Position>
            <AltitudeMeters>1481.800048828125</AltitudeMeters>
            <DistanceMeters>4839.1397332201</DistanceMeters>
          </Trackpoint>
          <Trackpoint>
            <Time>2022-10-08T08:04:27.000Z</Time>
            <Position>
              <LatitudeDegrees>37.26120245642960071563720703125</LatitudeDegrees>
              <LongitudeDegrees>-3.52867805399000644683837890625</LongitudeDegrees>
            </Position>
            <AltitudeMeters>1482.5999755859375</AltitudeMeters>
            <DistanceMeters>4843.323067793</DistanceMeters>
          </Trackpoint>
          <Trackpoint>
            <Time>2022-10-08T08:04:28.000Z</Time>
            <Position>
              <LatitudeDegrees>37.26120295934379100799560546875</LatitudeDegrees>
              <LongitudeDegrees>-3.5286586917936801910400390625</LongitudeDegrees>
            </Position>
            <AltitudeMeters>1483</AltitudeMeters>
            <DistanceMeters>4845.0388197916</DistanceMeters>
          </Trackpoint>
          <Trackpoint>
            <Time>2022-10-08T08:04:34.000Z</Time>
            <Position>
              <LatitudeDegrees>37.2612303681671619415283203125</LatitudeDegrees>
              <LongitudeDegrees>-3.52854050695896148681640625</LongitudeDegrees>
            </Position>
            <AltitudeMeters>1484</AltitudeMeters>
            <DistanceMeters>4855.9437304602</DistanceMeters>
          </Trackpoint>
          <Trackpoint>
            <Time>2022-10-08T08:04:39.000Z</Time>
            <Position>
              <LatitudeDegrees>37.261251993477344512939453125</LatitudeDegrees>
              <LongitudeDegrees>-3.5284491442143917083740234375</LongitudeDegrees>
            </Position>
            <AltitudeMeters>1484.5999755859375</AltitudeMeters>
            <DistanceMeters>4864.3877510429</DistanceMeters>
          </Trackpoint>
          <Trackpoint>
            <Time>2022-10-08T08:04:40.000Z</Time>
            <Position>
              <LatitudeDegrees>37.261255681514739990234375</LatitudeDegrees>
              <LongitudeDegrees>-3.5284327156841754913330078125</LongitudeDegrees>
            </Position>
            <AltitudeMeters>1485</AltitudeMeters>
            <DistanceMeters>4865.9022276577</DistanceMeters>
          </Trackpoint>
          <Trackpoint>
            <Time>2022-10-08T08:04:45.000Z</Time>
            <Position>
              <LatitudeDegrees>37.2612806595861911773681640625</LatitudeDegrees>
              <LongitudeDegrees>-3.5283472202718257904052734375</LongitudeDegrees>
            </Position>
            <AltitudeMeters>1486</AltitudeMeters>
            <DistanceMeters>4873.9699901113</DistanceMeters>
          </Trackpoint>
          <Trackpoint>
            <Time>2022-10-08T08:04:46.000Z</Time>
            <Position>
              <LatitudeDegrees>37.2612865269184112548828125</LatitudeDegrees>
              <LongitudeDegrees>-3.52832836098968982696533203125</LongitudeDegrees>
            </Position>
            <AltitudeMeters>1486.199951171875</AltitudeMeters>
            <DistanceMeters>4875.7629505722</DistanceMeters>
          </Trackpoint>
          <Trackpoint>
            <Time>2022-10-08T08:04:52.000Z</Time>
            <Position>
              <LatitudeDegrees>37.261312007904052734375</LatitudeDegrees>
              <LongitudeDegrees>-3.5282355733215808868408203125</LongitudeDegrees>
            </Position>
            <AltitudeMeters>1487.4000244140625</AltitudeMeters>
            <DistanceMeters>4884.4577651181</DistanceMeters>
          </Trackpoint>
          <Trackpoint>
            <Time>2022-10-08T08:04:56.000Z</Time>
            <Position>
              <LatitudeDegrees>37.2613294422626495361328125</LatitudeDegrees>
              <LongitudeDegrees>-3.52819089777767658233642578125</LongitudeDegrees>
            </Position>
            <AltitudeMeters>1488</AltitudeMeters>
            <DistanceMeters>4888.8639725979</DistanceMeters>
          </Trackpoint>
          <Trackpoint>
            <Time>2022-10-08T08:04:58.000Z</Time>
            <Position>
              <LatitudeDegrees>37.2613403387367725372314453125</LatitudeDegrees>
              <LongitudeDegrees>-3.5281480662524700164794921875</LongitudeDegrees>
            </Position>
            <AltitudeMeters>1488.4000244140625</AltitudeMeters>
            <DistanceMeters>4892.8460341538</DistanceMeters>
          </Trackpoint>
          <Trackpoint>
            <Time>2022-10-08T08:05:03.000Z</Time>
            <Position>
              <LatitudeDegrees>37.26137160323560237884521484375</LatitudeDegrees>
              <LongitudeDegrees>-3.52808319032192230224609375</LongitudeDegrees>
            </Position>
            <AltitudeMeters>1489.199951171875</AltitudeMeters>
            <DistanceMeters>4899.5640935512</DistanceMeters>
          </Trackpoint>
          <Trackpoint>
            <Time>2022-10-08T08:05:05.000Z</Time>
            <Position>
              <LatitudeDegrees>37.2613832540810108184814453125</LatitudeDegrees>
              <LongitudeDegrees>-3.5280538536608219146728515625</LongitudeDegrees>
            </Position>
            <AltitudeMeters>1489.5999755859375</AltitudeMeters>
            <DistanceMeters>4902.4682442702</DistanceMeters>
          </Trackpoint>
          <Trackpoint>
            <Time>2022-10-08T08:05:12.000Z</Time>
            <Position>
              <LatitudeDegrees>37.26142776198685169219970703125</LatitudeDegrees>
              <LongitudeDegrees>-3.52791815064847469329833984375</LongitudeDegrees>
            </Position>
            <AltitudeMeters>1490.5999755859375</AltitudeMeters>
            <DistanceMeters>4915.4698992045</DistanceMeters>
          </Trackpoint>
          <Trackpoint>
            <Time>2022-10-08T08:05:13.000Z</Time>
            <Position>
              <LatitudeDegrees>37.2614355571568012237548828125</LatitudeDegrees>
              <LongitudeDegrees>-3.52790339849889278411865234375</LongitudeDegrees>
            </Position>
            <AltitudeMeters>1491</AltitudeMeters>
            <DistanceMeters>4917.0371199269</DistanceMeters>
          </Trackpoint>
          <Trackpoint>
            <Time>2022-10-08T08:05:17.000Z</Time>
            <Position>
              <LatitudeDegrees>37.261461205780506134033203125</LatitudeDegrees>
              <LongitudeDegrees>-3.5278352536261081695556640625</LongitudeDegrees>
            </Position>
            <AltitudeMeters>1491.5999755859375</AltitudeMeters>
            <DistanceMeters>4923.7154091957</DistanceMeters>
          </Trackpoint>
          <Trackpoint>
            <Time>2022-10-08T08:05:19.000Z</Time>
            <Position>
              <LatitudeDegrees>37.26147092878818511962890625</LatitudeDegrees>
              <LongitudeDegrees>-3.527801893651485443115234375</LongitudeDegrees>
            </Position>
            <AltitudeMeters>1491.800048828125</AltitudeMeters>
            <DistanceMeters>4926.8613532166</DistanceMeters>
          </Trackpoint>
          <Trackpoint>
            <Time>2022-10-08T08:05:22.000Z</Time>
            <Position>
              <LatitudeDegrees>37.2614898718893527984619140625</LatitudeDegrees>
              <LongitudeDegrees>-3.52774481289088726043701171875</LongitudeDegrees>
            </Position>
            <AltitudeMeters>1492.199951171875</AltitudeMeters>
            <DistanceMeters>4932.3392126546</DistanceMeters>
          </Trackpoint>
          <Trackpoint>
            <Time>2022-10-08T08:05:24.000Z</Time>
            <Position>
              <LatitudeDegrees>37.26149506866931915283203125</LatitudeDegrees>
              <LongitudeDegrees>-3.52770365774631500244140625</LongitudeDegrees>
            </Position>
            <AltitudeMeters>1492.800048828125</AltitudeMeters>
            <DistanceMeters>4936.0306060709</DistanceMeters>
          </Trackpoint>
          <Trackpoint>
            <Time>2022-10-08T08:05:28.000Z</Time>
            <Position>
              <LatitudeDegrees>37.26152054965496063232421875</LatitudeDegrees>
              <LongitudeDegrees>-3.52760550566017627716064453125</LongitudeDegrees>
            </Position>
            <AltitudeMeters>1493.4000244140625</AltitudeMeters>
            <DistanceMeters>4945.175909129</DistanceMeters>
          </Trackpoint>
          <Trackpoint>
            <Time>2022-10-08T08:05:31.000Z</Time>
            <Position>
              <LatitudeDegrees>37.2615532390773296356201171875</LatitudeDegrees>
              <LongitudeDegrees>-3.52751414291560649871826171875</LongitudeDegrees>
            </Position>
            <AltitudeMeters>1493.800048828125</AltitudeMeters>
            <DistanceMeters>4954.0485753821</DistanceMeters>
          </Trackpoint>
          <Trackpoint>
            <Time>2022-10-08T08:05:35.000Z</Time>
            <Position>
              <LatitudeDegrees>37.2616115771234035491943359375</LatitudeDegrees>
              <LongitudeDegrees>-3.52739847265183925628662109375</LongitudeDegrees>
            </Position>
            <AltitudeMeters>1494.4000244140625</AltitudeMeters>
            <DistanceMeters>4966.1792854079</DistanceMeters>
          </Trackpoint>
          <Trackpoint>
            <Time>2022-10-08T08:05:38.000Z</Time>
            <Position>
              <LatitudeDegrees>37.26164870895445346832275390625</LatitudeDegrees>
              <LongitudeDegrees>-3.5273301601409912109375</LongitudeDegrees>
            </Position>
            <AltitudeMeters>1494.800048828125</AltitudeMeters>
            <DistanceMeters>4973.5074410157</DistanceMeters>
          </Trackpoint>
          <Trackpoint>
            <Time>2022-10-08T08:05:41.000Z</Time>
            <Position>
              <LatitudeDegrees>37.261679805815219879150390625</LatitudeDegrees>
              <LongitudeDegrees>-3.52727810852229595184326171875</LongitudeDegrees>
            </Position>
            <AltitudeMeters>1495.199951171875</AltitudeMeters>
            <DistanceMeters>4979.2728301084</DistanceMeters>
          </Trackpoint>
          <Trackpoint>
            <Time>2022-10-08T08:05:46.000Z</Time>
            <Position>
              <LatitudeDegrees>37.2617259062826633453369140625</LatitudeDegrees>
              <LongitudeDegrees>-3.52714969776570796966552734375</LongitudeDegrees>
            </Position>
            <AltitudeMeters>1496</AltitudeMeters>
            <DistanceMeters>4991.7513972617</DistanceMeters>
          </Trackpoint>
          <Trackpoint>
            <Time>2022-10-08T08:05:48.000Z</Time>
            <Position>
              <LatitudeDegrees>37.2617443464696407318115234375</LatitudeDegrees>
              <LongitudeDegrees>-3.527104519307613372802734375</LongitudeDegrees>
            </Position>
            <AltitudeMeters>1496</AltitudeMeters>
            <DistanceMeters>4996.2488822516</DistanceMeters>
          </Trackpoint>
          <Trackpoint>
            <Time>2022-10-08T08:05:49.000Z</Time>
            <Position>
              <LatitudeDegrees>37.26176018826663494110107421875</LatitudeDegrees>
              <LongitudeDegrees>-3.52708783932030200958251953125</LongitudeDegrees>
            </Position>
            <AltitudeMeters>1496.199951171875</AltitudeMeters>
            <DistanceMeters>4998.5492354411</DistanceMeters>
          </Trackpoint>
          <Trackpoint>
            <Time>2022-10-08T08:05:53.000Z</Time>
            <Position>
              <LatitudeDegrees>37.2618003375828266143798828125</LatitudeDegrees>
              <LongitudeDegrees>-3.5270030982792377471923828125</LongitudeDegrees>
            </Position>
            <AltitudeMeters>1496.4000244140625</AltitudeMeters>
            <DistanceMeters>5007.2854935705</DistanceMeters>
          </Trackpoint>
          <Trackpoint>
            <Time>2022-10-08T08:06:01.000Z</Time>
            <Position>
              <LatitudeDegrees>37.26185741834342479705810546875</LatitudeDegrees>
              <LongitudeDegrees>-3.52679044939577579498291015625</LongitudeDegrees>
            </Position>
            <AltitudeMeters>1496.5999755859375</AltitudeMeters>
            <DistanceMeters>5027.1651639795</DistanceMeters>
          </Trackpoint>
          <Trackpoint>
            <Time>2022-10-08T08:06:07.000Z</Time>
            <Position>
              <LatitudeDegrees>37.26191206835210323333740234375</LatitudeDegrees>
              <LongitudeDegrees>-3.52655927650630474090576171875</LongitudeDegrees>
            </Position>
            <AltitudeMeters>1496.199951171875</AltitudeMeters>
            <DistanceMeters>5048.5275836282</DistanceMeters>
          </Trackpoint>
          <Trackpoint>
            <Time>2022-10-08T08:06:08.000Z</Time>
            <Position>
              <LatitudeDegrees>37.26192782633006572723388671875</LatitudeDegrees>
              <LongitudeDegrees>-3.52651812136173248291015625</LongitudeDegrees>
            </Position>
            <AltitudeMeters>1496.199951171875</AltitudeMeters>
            <DistanceMeters>5052.5737581911</DistanceMeters>
          </Trackpoint>
          <Trackpoint>
            <Time>2022-10-08T08:06:13.000Z</Time>
            <Position>
              <LatitudeDegrees>37.2619974799454212188720703125</LatitudeDegrees>
              <LongitudeDegrees>-3.52634972892701625823974609375</LongitudeDegrees>
            </Position>
            <AltitudeMeters>1494.800048828125</AltitudeMeters>
            <DistanceMeters>5069.3846258781</DistanceMeters>
          </Trackpoint>
          <Trackpoint>
            <Time>2022-10-08T08:06:14.000Z</Time>
            <Position>
              <LatitudeDegrees>37.26201382465660572052001953125</LatitudeDegrees>
              <LongitudeDegrees>-3.5263147763907909393310546875</LongitudeDegrees>
            </Position>
            <AltitudeMeters>1494.4000244140625</AltitudeMeters>
            <DistanceMeters>5072.9755796736</DistanceMeters>
          </Trackpoint>
          <Trackpoint>
            <Time>2022-10-08T08:06:16.000Z</Time>
            <Position>
              <LatitudeDegrees>37.2620467655360698699951171875</LatitudeDegrees>
              <LongitudeDegrees>-3.5262478888034820556640625</LongitudeDegrees>
            </Position>
            <AltitudeMeters>1493.5999755859375</AltitudeMeters>
            <DistanceMeters>5079.9437014463</DistanceMeters>
          </Trackpoint>
          <Trackpoint>
            <Time>2022-10-08T08:06:19.000Z</Time>
            <Position>
              <LatitudeDegrees>37.2620960511267185211181640625</LatitudeDegrees>
              <LongitudeDegrees>-3.5261649079620838165283203125</LongitudeDegrees>
            </Position>
            <AltitudeMeters>1492.5999755859375</AltitudeMeters>
            <DistanceMeters>5089.1156255712</DistanceMeters>
          </Trackpoint>
          <Trackpoint>
            <Time>2022-10-08T08:06:20.000Z</Time>
            <Position>
              <LatitudeDegrees>37.26210937835276126861572265625</LatitudeDegrees>
              <LongitudeDegrees>-3.52613599039614200592041015625</LongitudeDegrees>
            </Position>
            <AltitudeMeters>1492.199951171875</AltitudeMeters>
            <DistanceMeters>5092.0767409399</DistanceMeters>
          </Trackpoint>
          <Trackpoint>
            <Time>2022-10-08T08:06:23.000Z</Time>
            <Position>
              <LatitudeDegrees>37.262149862945079803466796875</LatitudeDegrees>
              <LongitudeDegrees>-3.52604278363287448883056640625</LongitudeDegrees>
            </Position>
            <AltitudeMeters>1491.4000244140625</AltitudeMeters>
            <DistanceMeters>5101.4829457537</DistanceMeters>
          </Trackpoint>
          <Trackpoint>
            <Time>2022-10-08T08:06:26.000Z</Time>
            <Position>
              <LatitudeDegrees>37.26218045689165592193603515625</LatitudeDegrees>
              <LongitudeDegrees>-3.52593834511935710906982421875</LongitudeDegrees>
            </Position>
            <AltitudeMeters>1490.5999755859375</AltitudeMeters>
            <DistanceMeters>5111.3410227817</DistanceMeters>
          </Trackpoint>
          <Trackpoint>
            <Time>2022-10-08T08:06:27.000Z</Time>
            <Position>
              <LatitudeDegrees>37.2621889226138591766357421875</LatitudeDegrees>
              <LongitudeDegrees>-3.5259087570011615753173828125</LongitudeDegrees>
            </Position>
            <AltitudeMeters>1490.4000244140625</AltitudeMeters>
            <DistanceMeters>5114.1277530775</DistanceMeters>
          </Trackpoint>
          <Trackpoint>
            <Time>2022-10-08T08:06:31.000Z</Time>
            <Position>
              <LatitudeDegrees>37.26223007775843143463134765625</LatitudeDegrees>
              <LongitudeDegrees>-3.52577003650367259979248046875</LongitudeDegrees>
            </Position>
            <AltitudeMeters>1489.5999755859375</AltitudeMeters>
            <DistanceMeters>5127.2414396606</DistanceMeters>
          </Trackpoint>
          <Trackpoint>
            <Time>2022-10-08T08:06:33.000Z</Time>
            <Position>
              <LatitudeDegrees>37.262248098850250244140625</LatitudeDegrees>
              <LongitudeDegrees>-3.5257022269070148468017578125</LongitudeDegrees>
            </Position>
            <AltitudeMeters>1489.199951171875</AltitudeMeters>
            <DistanceMeters>5133.5740986193</DistanceMeters>
          </Trackpoint>
          <Trackpoint>
            <Time>2022-10-08T08:06:36.000Z</Time>
            <Position>
              <LatitudeDegrees>37.2622740827500820159912109375</LatitudeDegrees>
              <LongitudeDegrees>-3.52557809092104434967041015625</LongitudeDegrees>
            </Position>
            <AltitudeMeters>1488.199951171875</AltitudeMeters>
            <DistanceMeters>5144.9439963485</DistanceMeters>
          </Trackpoint>
          <Trackpoint>
            <Time>2022-10-08T08:06:39.000Z</Time>
            <Position>
              <LatitudeDegrees>37.26228900253772735595703125</LatitudeDegrees>
              <LongitudeDegrees>-3.52543274872004985809326171875</LongitudeDegrees>
            </Position>
            <AltitudeMeters>1487.4000244140625</AltitudeMeters>
            <DistanceMeters>5157.9254942049</DistanceMeters>
          </Trackpoint>
          <Trackpoint>
            <Time>2022-10-08T08:06:40.000Z</Time>
            <Position>
              <LatitudeDegrees>37.26229436695575714111328125</LatitudeDegrees>
              <LongitudeDegrees>-3.525399975478649139404296875</LongitudeDegrees>
            </Position>
            <AltitudeMeters>1487.199951171875</AltitudeMeters>
            <DistanceMeters>5160.8896575574</DistanceMeters>
          </Trackpoint>
          <Trackpoint>
            <Time>2022-10-08T08:06:43.000Z</Time>
            <Position>
              <LatitudeDegrees>37.26228355430066585540771484375</LatitudeDegrees>
              <LongitudeDegrees>-3.5252844728529453277587890625</LongitudeDegrees>
            </Position>
            <AltitudeMeters>1486</AltitudeMeters>
            <DistanceMeters>5171.1920610887</DistanceMeters>
          </Trackpoint>
          <Trackpoint>
            <Time>2022-10-08T08:06:45.000Z</Time>
            <Position>
              <LatitudeDegrees>37.26225472055375576019287109375</LatitudeDegrees>
              <LongitudeDegrees>-3.52521766908466815948486328125</LongitudeDegrees>
            </Position>
            <AltitudeMeters>1485.199951171875</AltitudeMeters>
            <DistanceMeters>5177.9242192621</DistanceMeters>
          </Trackpoint>
          <Trackpoint>
            <Time>2022-10-08T08:06:46.000Z</Time>
            <Position>
              <LatitudeDegrees>37.2622355259954929351806640625</LatitudeDegrees>
              <LongitudeDegrees>-3.5251884162425994873046875</LongitudeDegrees>
            </Position>
            <AltitudeMeters>1484.800048828125</AltitudeMeters>
            <DistanceMeters>5181.2839209684</DistanceMeters>
          </Trackpoint>
          <Trackpoint>
            <Time>2022-10-08T08:06:49.000Z</Time>
            <Position>
              <LatitudeDegrees>37.26219118572771549224853515625</LatitudeDegrees>
              <LongitudeDegrees>-3.52511188946664333343505859375</LongitudeDegrees>
            </Position>
            <AltitudeMeters>1483.800048828125</AltitudeMeters>
            <DistanceMeters>5189.6689179983</DistanceMeters>
          </Trackpoint>
          <Trackpoint>
            <Time>2022-10-08T08:06:51.000Z</Time>
            <Position>
              <LatitudeDegrees>37.2621859051287174224853515625</LatitudeDegrees>
              <LongitudeDegrees>-3.52503527887165546417236328125</LongitudeDegrees>
            </Position>
            <AltitudeMeters>1482.800048828125</AltitudeMeters>
            <DistanceMeters>5196.4804180364</DistanceMeters>
          </Trackpoint>
          <Trackpoint>
            <Time>2022-10-08T08:06:52.000Z</Time>
            <Position>
              <LatitudeDegrees>37.2621877491474151611328125</LatitudeDegrees>
              <LongitudeDegrees>-3.52498783729970455169677734375</LongitudeDegrees>
            </Position>
            <AltitudeMeters>1482.5999755859375</AltitudeMeters>
            <DistanceMeters>5200.68743002</DistanceMeters>
          </Trackpoint>
          <Trackpoint>
            <Time>2022-10-08T08:06:56.000Z</Time>
            <Position>
              <LatitudeDegrees>37.26224751211702823638916015625</LatitudeDegrees>
              <LongitudeDegrees>-3.5248214565217494964599609375</LongitudeDegrees>
            </Position>
            <AltitudeMeters>1481.5999755859375</AltitudeMeters>
            <DistanceMeters>5216.8570568976</DistanceMeters>
          </Trackpoint>
          <Trackpoint>
            <Time>2022-10-08T08:06:57.000Z</Time>
            <Position>
              <LatitudeDegrees>37.26227081380784511566162109375</LatitudeDegrees>
              <LongitudeDegrees>-3.52480092085897922515869140625</LongitudeDegrees>
            </Position>
            <AltitudeMeters>1481.4000244140625</AltitudeMeters>
            <DistanceMeters>5220.0258808128</DistanceMeters>
          </Trackpoint>
          <Trackpoint>
            <Time>2022-10-08T08:07:01.000Z</Time>
            <Position>
              <LatitudeDegrees>37.26238765753805637359619140625</LatitudeDegrees>
              <LongitudeDegrees>-3.52479807101190090179443359375</LongitudeDegrees>
            </Position>
            <AltitudeMeters>1480.4000244140625</AltitudeMeters>
            <DistanceMeters>5233.0337850409</DistanceMeters>
          </Trackpoint>
          <Trackpoint>
            <Time>2022-10-08T08:07:02.000Z</Time>
            <Position>
              <LatitudeDegrees>37.26241766475141048431396484375</LatitudeDegrees>
              <LongitudeDegrees>-3.52480527944862842559814453125</LongitudeDegrees>
            </Position>
            <AltitudeMeters>1480.199951171875</AltitudeMeters>
            <DistanceMeters>5236.433564129</DistanceMeters>
          </Trackpoint>
          <Trackpoint>
            <Time>2022-10-08T08:07:06.000Z</Time>
            <Position>
              <LatitudeDegrees>37.2625319100916385650634765625</LatitudeDegrees>
              <LongitudeDegrees>-3.52483964525163173675537109375</LongitudeDegrees>
            </Position>
            <AltitudeMeters>1479</AltitudeMeters>
            <DistanceMeters>5249.5086322832</DistanceMeters>
          </Trackpoint>
          <Trackpoint>
            <Time>2022-10-08T08:07:07.000Z</Time>
            <Position>
              <LatitudeDegrees>37.2625496797263622283935546875</LatitudeDegrees>
              <LongitudeDegrees>-3.5248536430299282073974609375</LongitudeDegrees>
            </Position>
            <AltitudeMeters>1478.5999755859375</AltitudeMeters>
            <DistanceMeters>5251.8440479148</DistanceMeters>
          </Trackpoint>
          <Trackpoint>
            <Time>2022-10-08T08:07:09.000Z</Time>
            <Position>
              <LatitudeDegrees>37.262603826820850372314453125</LatitudeDegrees>
              <LongitudeDegrees>-3.52487887255847454071044921875</LongitudeDegrees>
            </Position>
            <AltitudeMeters>1478</AltitudeMeters>
            <DistanceMeters>5258.2715357391</DistanceMeters>
          </Trackpoint>
          <Trackpoint>
            <Time>2022-10-08T08:07:10.000Z</Time>
            <Position>
              <LatitudeDegrees>37.26264028809964656829833984375</LatitudeDegrees>
              <LongitudeDegrees>-3.524885661900043487548828125</LongitudeDegrees>
            </Position>
            <AltitudeMeters>1477.4000244140625</AltitudeMeters>
            <DistanceMeters>5262.3742254046</DistanceMeters>
          </Trackpoint>
          <Trackpoint>
            <Time>2022-10-08T08:07:11.000Z</Time>
            <Position>
              <LatitudeDegrees>37.2626839578151702880859375</LatitudeDegrees>
              <LongitudeDegrees>-3.52489940822124481201171875</LongitudeDegrees>
            </Position>
            <AltitudeMeters>1477</AltitudeMeters>
            <DistanceMeters>5267.3854770038</DistanceMeters>
          </Trackpoint>
          <Trackpoint>
            <Time>2022-10-08T08:07:12.000Z</Time>
            <Position>
              <LatitudeDegrees>37.26272326894104480743408203125</LatitudeDegrees>
              <LongitudeDegrees>-3.52491776458919048309326171875</LongitudeDegrees>
            </Position>
            <AltitudeMeters>1476.5999755859375</AltitudeMeters>
            <DistanceMeters>5272.0543745756</DistanceMeters>
          </Trackpoint>
          <Trackpoint>
            <Time>2022-10-08T08:07:15.000Z</Time>
            <Position>
              <LatitudeDegrees>37.26282519288361072540283203125</LatitudeDegrees>
              <LongitudeDegrees>-3.5249599255621433258056640625</LongitudeDegrees>
            </Position>
            <AltitudeMeters>1475.4000244140625</AltitudeMeters>
            <DistanceMeters>5283.9979133135</DistanceMeters>
          </Trackpoint>
          <Trackpoint>
            <Time>2022-10-08T08:07:16.000Z</Time>
            <Position>
              <LatitudeDegrees>37.26286123506724834442138671875</LatitudeDegrees>
              <LongitudeDegrees>-3.5249773599207401275634765625</LongitudeDegrees>
            </Position>
            <AltitudeMeters>1475.199951171875</AltitudeMeters>
            <DistanceMeters>5288.2962311711</DistanceMeters>
          </Trackpoint>
          <Trackpoint>
            <Time>2022-10-08T08:07:20.000Z</Time>
            <Position>
              <LatitudeDegrees>37.2630002908408641815185546875</LatitudeDegrees>
              <LongitudeDegrees>-3.525053970515727996826171875</LongitudeDegrees>
            </Position>
            <AltitudeMeters>1474.199951171875</AltitudeMeters>
            <DistanceMeters>5305.1957645283</DistanceMeters>
          </Trackpoint>
          <Trackpoint>
            <Time>2022-10-08T08:07:22.000Z</Time>
            <Position>
              <LatitudeDegrees>37.26306726224720478057861328125</LatitudeDegrees>
              <LongitudeDegrees>-3.525112979114055633544921875</LongitudeDegrees>
            </Position>
            <AltitudeMeters>1473.4000244140625</AltitudeMeters>
            <DistanceMeters>5314.3004941649</DistanceMeters>
          </Trackpoint>
          <Trackpoint>
            <Time>2022-10-08T08:07:23.000Z</Time>
            <Position>
              <LatitudeDegrees>37.26309944875538349151611328125</LatitudeDegrees>
              <LongitudeDegrees>-3.5251401364803314208984375</LongitudeDegrees>
            </Position>
            <AltitudeMeters>1473</AltitudeMeters>
            <DistanceMeters>5318.6155860095</DistanceMeters>
          </Trackpoint>
          <Trackpoint>
            <Time>2022-10-08T08:07:26.000Z</Time>
            <Position>
              <LatitudeDegrees>37.263197265565395355224609375</LatitudeDegrees>
              <LongitudeDegrees>-3.5252009890973567962646484375</LongitudeDegrees>
            </Position>
            <AltitudeMeters>1472</AltitudeMeters>
            <DistanceMeters>5330.7641484512</DistanceMeters>
          </Trackpoint>
          <Trackpoint>
            <Time>2022-10-08T08:07:27.000Z</Time>
            <Position>
              <LatitudeDegrees>37.2632329724729061126708984375</LatitudeDegrees>
              <LongitudeDegrees>-3.52522202767431735992431640625</LongitudeDegrees>
            </Position>
            <AltitudeMeters>1471.800048828125</AltitudeMeters>
            <DistanceMeters>5335.1539301236</DistanceMeters>
          </Trackpoint>
          <Trackpoint>
            <Time>2022-10-08T08:07:30.000Z</Time>
            <Position>
              <LatitudeDegrees>37.263331711292266845703125</LatitudeDegrees>
              <LongitudeDegrees>-3.52526393719017505645751953125</LongitudeDegrees>
            </Position>
            <AltitudeMeters>1471</AltitudeMeters>
            <DistanceMeters>5346.7541973261</DistanceMeters>
          </Trackpoint>
          <Trackpoint>
            <Time>2022-10-08T08:07:34.000Z</Time>
            <Position>
              <LatitudeDegrees>37.2634415142238140106201171875</LatitudeDegrees>
              <LongitudeDegrees>-3.5252871550619602203369140625</LongitudeDegrees>
            </Position>
            <AltitudeMeters>1469.5999755859375</AltitudeMeters>
            <DistanceMeters>5359.147444287</DistanceMeters>
          </Trackpoint>
          <Trackpoint>
            <Time>2022-10-08T08:07:37.000Z</Time>
            <Position>
              <LatitudeDegrees>37.263540588319301605224609375</LatitudeDegrees>
              <LongitudeDegrees>-3.5253136418759822845458984375</LongitudeDegrees>
            </Position>
            <AltitudeMeters>1468.4000244140625</AltitudeMeters>
            <DistanceMeters>5370.4208331241</DistanceMeters>
          </Trackpoint>
          <Trackpoint>
            <Time>2022-10-08T08:07:39.000Z</Time>
            <Position>
              <LatitudeDegrees>37.26361610926687717437744140625</LatitudeDegrees>
              <LongitudeDegrees>-3.52533216588199138641357421875</LongitudeDegrees>
            </Position>
            <AltitudeMeters>1467.199951171875</AltitudeMeters>
            <DistanceMeters>5378.984843918</DistanceMeters>
          </Trackpoint>
          <Trackpoint>
            <Time>2022-10-08T08:07:40.000Z</Time>
            <Position>
              <LatitudeDegrees>37.2636591084301471710205078125</LatitudeDegrees>
              <LongitudeDegrees>-3.52533719502389430999755859375</LongitudeDegrees>
            </Position>
            <AltitudeMeters>1466.800048828125</AltitudeMeters>
            <DistanceMeters>5383.7909791162</DistanceMeters>
          </Trackpoint>
          <Trackpoint>
            <Time>2022-10-08T08:07:42.000Z</Time>
            <Position>
              <LatitudeDegrees>37.26373915560543537139892578125</LatitudeDegrees>
              <LongitudeDegrees>-3.5253407992422580718994140625</LongitudeDegrees>
            </Position>
            <AltitudeMeters>1465.800048828125</AltitudeMeters>
            <DistanceMeters>5392.7052750899</DistanceMeters>
          </Trackpoint>
          <Trackpoint>
            <Time>2022-10-08T08:07:44.000Z</Time>
            <Position>
              <LatitudeDegrees>37.263813503086566925048828125</LatitudeDegrees>
              <LongitudeDegrees>-3.5253441520035266876220703125</LongitudeDegrees>
            </Position>
            <AltitudeMeters>1464.4000244140625</AltitudeMeters>
            <DistanceMeters>5400.9851507148</DistanceMeters>
          </Trackpoint>
          <Trackpoint>
            <Time>2022-10-08T08:07:47.000Z</Time>
            <Position>
              <LatitudeDegrees>37.26392246782779693603515625</LatitudeDegrees>
              <LongitudeDegrees>-3.525348342955112457275390625</LongitudeDegrees>
            </Position>
            <AltitudeMeters>1463.199951171875</AltitudeMeters>
            <DistanceMeters>5413.1188379673</DistanceMeters>
          </Trackpoint>
          <Trackpoint>
            <Time>2022-10-08T08:07:50.000Z</Time>
            <Position>
              <LatitudeDegrees>37.26402665488421916961669921875</LatitudeDegrees>
              <LongitudeDegrees>-3.525322191417217254638671875</LongitudeDegrees>
            </Position>
            <AltitudeMeters>1462</AltitudeMeters>
            <DistanceMeters>5424.94422438</DistanceMeters>
          </Trackpoint>
          <Trackpoint>
            <Time>2022-10-08T08:07:52.000Z</Time>
            <Position>
              <LatitudeDegrees>37.26408298127353191375732421875</LatitudeDegrees>
              <LongitudeDegrees>-3.52530433796346187591552734375</LongitudeDegrees>
            </Position>
            <AltitudeMeters>1461.4000244140625</AltitudeMeters>
            <DistanceMeters>5431.4088352564</DistanceMeters>
          </Trackpoint>
          <Trackpoint>
            <Time>2022-10-08T08:07:53.000Z</Time>
            <Position>
              <LatitudeDegrees>37.26411961019039154052734375</LatitudeDegrees>
              <LongitudeDegrees>-3.5252858139574527740478515625</LongitudeDegrees>
            </Position>
            <AltitudeMeters>1461.199951171875</AltitudeMeters>
            <DistanceMeters>5435.8027291374</DistanceMeters>
          </Trackpoint>
          <Trackpoint>
            <Time>2022-10-08T08:07:54.000Z</Time>
            <Position>
              <LatitudeDegrees>37.264150120317935943603515625</LatitudeDegrees>
              <LongitudeDegrees>-3.52526779286563396453857421875</LongitudeDegrees>
            </Position>
            <AltitudeMeters>1460.800048828125</AltitudeMeters>
            <DistanceMeters>5439.5535769215</DistanceMeters>
          </Trackpoint>
          <Trackpoint>
            <Time>2022-10-08T08:07:58.000Z</Time>
            <Position>
              <LatitudeDegrees>37.26427341811358928680419921875</LatitudeDegrees>
              <LongitudeDegrees>-3.5252003185451030731201171875</LongitudeDegrees>
            </Position>
            <AltitudeMeters>1459.800048828125</AltitudeMeters>
            <DistanceMeters>5454.5220189489</DistanceMeters>
          </Trackpoint>
          <Trackpoint>
            <Time>2022-10-08T08:07:59.000Z</Time>
            <Position>
              <LatitudeDegrees>37.26429789327085018157958984375</LatitudeDegrees>
              <LongitudeDegrees>-3.52517995052039623260498046875</LongitudeDegrees>
            </Position>
            <AltitudeMeters>1459.800048828125</AltitudeMeters>
            <DistanceMeters>5457.7890589481</DistanceMeters>
          </Trackpoint>
          <Trackpoint>
            <Time>2022-10-08T08:08:02.000Z</Time>
            <Position>
              <LatitudeDegrees>37.26434801705181598663330078125</LatitudeDegrees>
              <LongitudeDegrees>-3.5251104645431041717529296875</LongitudeDegrees>
            </Position>
            <AltitudeMeters>1459.4000244140625</AltitudeMeters>
            <DistanceMeters>5466.0961549621</DistanceMeters>
          </Trackpoint>
          <Trackpoint>
            <Time>2022-10-08T08:08:04.000Z</Time>
            <Position>
              <LatitudeDegrees>37.26435572840273380279541015625</LatitudeDegrees>
              <LongitudeDegrees>-3.52506914176046848297119140625</LongitudeDegrees>
            </Position>
            <AltitudeMeters>1458.800048828125</AltitudeMeters>
            <DistanceMeters>5469.8566203204</DistanceMeters>
          </Trackpoint>
          <Trackpoint>
            <Time>2022-10-08T08:08:05.000Z</Time>
            <Position>
              <LatitudeDegrees>37.2643507830798625946044921875</LatitudeDegrees>
              <LongitudeDegrees>-3.5250457562506198883056640625</LongitudeDegrees>
            </Position>
            <AltitudeMeters>1458.4000244140625</AltitudeMeters>
            <DistanceMeters>5472.002625676</DistanceMeters>
          </Trackpoint>
          <Trackpoint>
            <Time>2022-10-08T08:08:07.000Z</Time>
            <Position>
              <LatitudeDegrees>37.264343909919261932373046875</LatitudeDegrees>
              <LongitudeDegrees>-3.525004684925079345703125</LongitudeDegrees>
            </Position>
            <AltitudeMeters>1458</AltitudeMeters>
            <DistanceMeters>5475.7196159853</DistanceMeters>
          </Trackpoint>
          <Trackpoint>
            <Time>2022-10-08T08:08:10.000Z</Time>
            <Position>
              <LatitudeDegrees>37.2643333487212657928466796875</LatitudeDegrees>
              <LongitudeDegrees>-3.52496956475079059600830078125</LongitudeDegrees>
            </Position>
            <AltitudeMeters>1457.199951171875</AltitudeMeters>
            <DistanceMeters>5479.0455509883</DistanceMeters>
          </Trackpoint>
          <Trackpoint>
            <Time>2022-10-08T08:08:16.000Z</Time>
            <Position>
              <LatitudeDegrees>37.26431013084948062896728515625</LatitudeDegrees>
              <LongitudeDegrees>-3.524899743497371673583984375</LongitudeDegrees>
            </Position>
            <AltitudeMeters>1456.199951171875</AltitudeMeters>
            <DistanceMeters>5485.7488084341</DistanceMeters>
          </Trackpoint>
          <Trackpoint>
            <Time>2022-10-08T08:08:17.000Z</Time>
            <Position>
              <LatitudeDegrees>37.26430694572627544403076171875</LatitudeDegrees>
              <LongitudeDegrees>-3.5248794592916965484619140625</LongitudeDegrees>
            </Position>
            <AltitudeMeters>1456</AltitudeMeters>
            <DistanceMeters>5487.5766837811</DistanceMeters>
          </Trackpoint>
          <Trackpoint>
            <Time>2022-10-08T08:08:18.000Z</Time>
            <Position>
              <LatitudeDegrees>37.26430493406951427459716796875</LatitudeDegrees>
              <LongitudeDegrees>-3.5248543135821819305419921875</LongitudeDegrees>
            </Position>
            <AltitudeMeters>1455.800048828125</AltitudeMeters>
            <DistanceMeters>5489.8133469989</DistanceMeters>
          </Trackpoint>
          <Trackpoint>
            <Time>2022-10-08T08:08:24.000Z</Time>
            <Position>
              <LatitudeDegrees>37.2642852365970611572265625</LatitudeDegrees>
              <LongitudeDegrees>-3.52467133663594722747802734375</LongitudeDegrees>
            </Position>
            <AltitudeMeters>1455</AltitudeMeters>
            <DistanceMeters>5506.1689877561</DistanceMeters>
          </Trackpoint>
          <Trackpoint>
            <Time>2022-10-08T08:08:25.000Z</Time>
            <Position>
              <LatitudeDegrees>37.2642843984067440032958984375</LatitudeDegrees>
              <LongitudeDegrees>-3.52464552037417888641357421875</LongitudeDegrees>
            </Position>
            <AltitudeMeters>1455</AltitudeMeters>
            <DistanceMeters>5508.4575340933</DistanceMeters>
          </Trackpoint>
          <Trackpoint>
            <Time>2022-10-08T08:08:29.000Z</Time>
            <Position>
              <LatitudeDegrees>37.26427157409489154815673828125</LatitudeDegrees>
              <LongitudeDegrees>-3.5245616175234317779541015625</LongitudeDegrees>
            </Position>
            <AltitudeMeters>1454.5999755859375</AltitudeMeters>
            <DistanceMeters>5516.0251456588</DistanceMeters>
          </Trackpoint>
          <Trackpoint>
            <Time>2022-10-08T08:08:32.000Z</Time>
            <Position>
              <LatitudeDegrees>37.26426067762076854705810546875</LatitudeDegrees>
              <LongitudeDegrees>-3.524481318891048431396484375</LongitudeDegrees>
            </Position>
            <AltitudeMeters>1454.199951171875</AltitudeMeters>
            <DistanceMeters>5523.2402957404</DistanceMeters>
          </Trackpoint>
          <Trackpoint>
            <Time>2022-10-08T08:08:33.000Z</Time>
            <Position>
              <LatitudeDegrees>37.2642548941075801849365234375</LatitudeDegrees>
              <LongitudeDegrees>-3.52446044795215129852294921875</LongitudeDegrees>
            </Position>
            <AltitudeMeters>1454</AltitudeMeters>
            <DistanceMeters>5525.1970155497</DistanceMeters>
          </Trackpoint>
          <Trackpoint>
            <Time>2022-10-08T08:08:37.000Z</Time>
            <Position>
              <LatitudeDegrees>37.26422488689422607421875</LatitudeDegrees>
              <LongitudeDegrees>-3.52438081987202167510986328125</LongitudeDegrees>
            </Position>
            <AltitudeMeters>1453.4000244140625</AltitudeMeters>
            <DistanceMeters>5533.0013646971</DistanceMeters>
          </Trackpoint>
          <Trackpoint>
            <Time>2022-10-08T08:08:38.000Z</Time>
            <Position>
              <LatitudeDegrees>37.2642186842858791351318359375</LatitudeDegrees>
              <LongitudeDegrees>-3.52435315959155559539794921875</LongitudeDegrees>
            </Position>
            <AltitudeMeters>1453.4000244140625</AltitudeMeters>
            <DistanceMeters>5535.5458813134</DistanceMeters>
          </Trackpoint>
          <Trackpoint>
            <Time>2022-10-08T08:08:40.000Z</Time>
            <Position>
              <LatitudeDegrees>37.26420686580240726470947265625</LatitudeDegrees>
              <LongitudeDegrees>-3.5243071429431438446044921875</LongitudeDegrees>
            </Position>
            <AltitudeMeters>1453</AltitudeMeters>
            <DistanceMeters>5539.8294680505</DistanceMeters>
          </Trackpoint>
          <Trackpoint>
            <Time>2022-10-08T08:08:46.000Z</Time>
            <Position>
              <LatitudeDegrees>37.2641630284488201141357421875</LatitudeDegrees>
              <LongitudeDegrees>-3.52406649850308895111083984375</LongitudeDegrees>
            </Position>
            <AltitudeMeters>1452.4000244140625</AltitudeMeters>
            <DistanceMeters>5561.6971777652</DistanceMeters>
          </Trackpoint>
          <Trackpoint>
            <Time>2022-10-08T08:08:47.000Z</Time>
            <Position>
              <LatitudeDegrees>37.2641499526798725128173828125</LatitudeDegrees>
              <LongitudeDegrees>-3.523997850716114044189453125</LongitudeDegrees>
            </Position>
            <AltitudeMeters>1452</AltitudeMeters>
            <DistanceMeters>5567.9494734176</DistanceMeters>
          </Trackpoint>
          <Trackpoint>
            <Time>2022-10-08T08:08:49.000Z</Time>
            <Position>
              <LatitudeDegrees>37.264142744243144989013671875</LatitudeDegrees>
              <LongitudeDegrees>-3.5238902270793914794921875</LongitudeDegrees>
            </Position>
            <AltitudeMeters>1451.800048828125</AltitudeMeters>
            <DistanceMeters>5577.515600883</DistanceMeters>
          </Trackpoint>
          <Trackpoint>
            <Time>2022-10-08T08:08:51.000Z</Time>
            <Position>
              <LatitudeDegrees>37.26413930766284465789794921875</LatitudeDegrees>
              <LongitudeDegrees>-3.5237975232303142547607421875</LongitudeDegrees>
            </Position>
            <AltitudeMeters>1451.199951171875</AltitudeMeters>
            <DistanceMeters>5585.7363728727</DistanceMeters>
          </Trackpoint>
          <Trackpoint>
            <Time>2022-10-08T08:08:52.000Z</Time>
            <Position>
              <LatitudeDegrees>37.26413830183446407318115234375</LatitudeDegrees>
              <LongitudeDegrees>-3.5237596370279788970947265625</LongitudeDegrees>
            </Position>
            <AltitudeMeters>1451.199951171875</AltitudeMeters>
            <DistanceMeters>5589.0947304293</DistanceMeters>
          </Trackpoint>
          <Trackpoint>
            <Time>2022-10-08T08:08:54.000Z</Time>
            <Position>
              <LatitudeDegrees>37.26414349861443042755126953125</LatitudeDegrees>
              <LongitudeDegrees>-3.523689396679401397705078125</LongitudeDegrees>
            </Position>
            <AltitudeMeters>1450.800048828125</AltitudeMeters>
            <DistanceMeters>5595.3441368508</DistanceMeters>
          </Trackpoint>
          <Trackpoint>
            <Time>2022-10-08T08:08:58.000Z</Time>
            <Position>
              <LatitudeDegrees>37.26415540091693401336669921875</LatitudeDegrees>
              <LongitudeDegrees>-3.52355386130511760711669921875</LongitudeDegrees>
            </Position>
            <AltitudeMeters>1450.4000244140625</AltitudeMeters>
            <DistanceMeters>5607.4230004192</DistanceMeters>
          </Trackpoint>
          <Trackpoint>
            <Time>2022-10-08T08:09:04.000Z</Time>
            <Position>
              <LatitudeDegrees>37.26415942423045635223388671875</LatitudeDegrees>
              <LongitudeDegrees>-3.5233174078166484832763671875</LongitudeDegrees>
            </Position>
            <AltitudeMeters>1449.5999755859375</AltitudeMeters>
            <DistanceMeters>5628.3728890939</DistanceMeters>
          </Trackpoint>
          <Trackpoint>
            <Time>2022-10-08T08:09:05.000Z</Time>
            <Position>
              <LatitudeDegrees>37.26416051387786865234375</LatitudeDegrees>
              <LongitudeDegrees>-3.5232899151742458343505859375</LongitudeDegrees>
            </Position>
            <AltitudeMeters>1449.5999755859375</AltitudeMeters>
            <DistanceMeters>5630.8123194324</DistanceMeters>
          </Trackpoint>
          <Trackpoint>
            <Time>2022-10-08T08:09:09.000Z</Time>
            <Position>
              <LatitudeDegrees>37.26412572897970676422119140625</LatitudeDegrees>
              <LongitudeDegrees>-3.52316896431148052215576171875</LongitudeDegrees>
            </Position>
            <AltitudeMeters>1449.199951171875</AltitudeMeters>
            <DistanceMeters>5642.2040369753</DistanceMeters>
          </Trackpoint>
          <Trackpoint>
            <Time>2022-10-08T08:09:11.000Z</Time>
            <Position>
              <LatitudeDegrees>37.26409605704247951507568359375</LatitudeDegrees>
              <LongitudeDegrees>-3.5230947844684123992919921875</LongitudeDegrees>
            </Position>
            <AltitudeMeters>1448.800048828125</AltitudeMeters>
            <DistanceMeters>5649.5580241811</DistanceMeters>
          </Trackpoint>
          <Trackpoint>
            <Time>2022-10-08T08:09:12.000Z</Time>
            <Position>
              <LatitudeDegrees>37.26407325826585292816162109375</LatitudeDegrees>
              <LongitudeDegrees>-3.5230508632957935333251953125</LongitudeDegrees>
            </Position>
            <AltitudeMeters>1448.5999755859375</AltitudeMeters>
            <DistanceMeters>5654.2026826857</DistanceMeters>
          </Trackpoint>
          <Trackpoint>
            <Time>2022-10-08T08:09:17.000Z</Time>
            <Position>
              <LatitudeDegrees>37.2639687359333038330078125</LatitudeDegrees>
              <LongitudeDegrees>-3.522897474467754364013671875</LongitudeDegrees>
            </Position>
            <AltitudeMeters>1448.199951171875</AltitudeMeters>
            <DistanceMeters>5672.0899314558</DistanceMeters>
          </Trackpoint>
          <Trackpoint>
            <Time>2022-10-08T08:09:21.000Z</Time>
            <Position>
              <LatitudeDegrees>37.2639102302491664886474609375</LatitudeDegrees>
              <LongitudeDegrees>-3.5227610170841217041015625</LongitudeDegrees>
            </Position>
            <AltitudeMeters>1447.5999755859375</AltitudeMeters>
            <DistanceMeters>5685.8198941594</DistanceMeters>
          </Trackpoint>
          <Trackpoint>
            <Time>2022-10-08T08:09:23.000Z</Time>
            <Position>
              <LatitudeDegrees>37.263871841132640838623046875</LatitudeDegrees>
              <LongitudeDegrees>-3.522709719836711883544921875</LongitudeDegrees>
            </Position>
            <AltitudeMeters>1447.4000244140625</AltitudeMeters>
            <DistanceMeters>5692.0584540472</DistanceMeters>
          </Trackpoint>
          <Trackpoint>
            <Time>2022-10-08T08:09:29.000Z</Time>
            <Position>
              <LatitudeDegrees>37.26379279978573322296142578125</LatitudeDegrees>
              <LongitudeDegrees>-3.5225147567689418792724609375</LongitudeDegrees>
            </Position>
            <AltitudeMeters>1446.5999755859375</AltitudeMeters>
            <DistanceMeters>5711.4404098346</DistanceMeters>
          </Trackpoint>
          <Trackpoint>
            <Time>2022-10-08T08:09:33.000Z</Time>
            <Position>
              <LatitudeDegrees>37.263789363205432891845703125</LatitudeDegrees>
              <LongitudeDegrees>-3.5223801434040069580078125</LongitudeDegrees>
            </Position>
            <AltitudeMeters>1446.5999755859375</AltitudeMeters>
            <DistanceMeters>5723.3707101204</DistanceMeters>
          </Trackpoint>
          <Trackpoint>
            <Time>2022-10-08T08:09:34.000Z</Time>
            <Position>
              <LatitudeDegrees>37.263790033757686614990234375</LatitudeDegrees>
              <LongitudeDegrees>-3.52234535850584506988525390625</LongitudeDegrees>
            </Position>
            <AltitudeMeters>1446.4000244140625</AltitudeMeters>
            <DistanceMeters>5726.4528587896</DistanceMeters>
          </Trackpoint>
          <Trackpoint>
            <Time>2022-10-08T08:09:39.000Z</Time>
            <Position>
              <LatitudeDegrees>37.26377150975167751312255859375</LatitudeDegrees>
              <LongitudeDegrees>-3.5222029499709606170654296875</LongitudeDegrees>
            </Position>
            <AltitudeMeters>1445.800048828125</AltitudeMeters>
            <DistanceMeters>5739.234570061</DistanceMeters>
          </Trackpoint>
          <Trackpoint>
            <Time>2022-10-08T08:09:41.000Z</Time>
            <Position>
              <LatitudeDegrees>37.2637630440294742584228515625</LatitudeDegrees>
              <LongitudeDegrees>-3.5221442766487598419189453125</LongitudeDegrees>
            </Position>
            <AltitudeMeters>1445.4000244140625</AltitudeMeters>
            <DistanceMeters>5744.5160382409</DistanceMeters>
          </Trackpoint>
          <Trackpoint>
            <Time>2022-10-08T08:09:48.000Z</Time>
            <Position>
              <LatitudeDegrees>37.26372792385518550872802734375</LatitudeDegrees>
              <LongitudeDegrees>-3.52192291058599948883056640625</LongitudeDegrees>
            </Position>
            <AltitudeMeters>1445</AltitudeMeters>
            <DistanceMeters>5764.5105260895</DistanceMeters>
          </Trackpoint>
          <Trackpoint>
            <Time>2022-10-08T08:09:51.000Z</Time>
            <Position>
              <LatitudeDegrees>37.2637244872748851776123046875</LatitudeDegrees>
              <LongitudeDegrees>-3.52180254645645618438720703125</LongitudeDegrees>
            </Position>
            <AltitudeMeters>1444.4000244140625</AltitudeMeters>
            <DistanceMeters>5775.1793645256</DistanceMeters>
          </Trackpoint>
          <Trackpoint>
            <Time>2022-10-08T08:09:55.000Z</Time>
            <Position>
              <LatitudeDegrees>37.2637174464762210845947265625</LatitudeDegrees>
              <LongitudeDegrees>-3.5216393508017063140869140625</LongitudeDegrees>
            </Position>
            <AltitudeMeters>1444.199951171875</AltitudeMeters>
            <DistanceMeters>5789.6562096304</DistanceMeters>
          </Trackpoint>
          <Trackpoint>
            <Time>2022-10-08T08:09:59.000Z</Time>
            <Position>
              <LatitudeDegrees>37.2637114115059375762939453125</LatitudeDegrees>
              <LongitudeDegrees>-3.5214869678020477294921875</LongitudeDegrees>
            </Position>
            <AltitudeMeters>1443.800048828125</AltitudeMeters>
            <DistanceMeters>5803.1707324172</DistanceMeters>
          </Trackpoint>
          <Trackpoint>
            <Time>2022-10-08T08:10:00.000Z</Time>
            <Position>
              <LatitudeDegrees>37.263710908591747283935546875</LatitudeDegrees>
              <LongitudeDegrees>-3.52146006189286708831787109375</LongitudeDegrees>
            </Position>
            <AltitudeMeters>1443.5999755859375</AltitudeMeters>
            <DistanceMeters>5805.5539902889</DistanceMeters>
          </Trackpoint>
          <Trackpoint>
            <Time>2022-10-08T08:10:01.000Z</Time>
            <Position>
              <LatitudeDegrees>37.26371585391461849212646484375</LatitudeDegrees>
              <LongitudeDegrees>-3.5214344970881938934326171875</LongitudeDegrees>
            </Position>
            <AltitudeMeters>1443.4000244140625</AltitudeMeters>
            <DistanceMeters>5807.8855361322</DistanceMeters>
          </Trackpoint>
          <Trackpoint>
            <Time>2022-10-08T08:10:02.000Z</Time>
            <Position>
              <LatitudeDegrees>37.26371954195201396942138671875</LatitudeDegrees>
              <LongitudeDegrees>-3.52141119539737701416015625</LongitudeDegrees>
            </Position>
            <AltitudeMeters>1443.199951171875</AltitudeMeters>
            <DistanceMeters>5809.989042124</DistanceMeters>
          </Trackpoint>
          <Trackpoint>
            <Time>2022-10-08T08:10:06.000Z</Time>
            <Position>
              <LatitudeDegrees>37.2637154348194599151611328125</LatitudeDegrees>
              <LongitudeDegrees>-3.5213013924658298492431640625</LongitudeDegrees>
            </Position>
            <AltitudeMeters>1442</AltitudeMeters>
            <DistanceMeters>5819.7259190661</DistanceMeters>
          </Trackpoint>
          <Trackpoint>
            <Time>2022-10-08T08:10:09.000Z</Time>
            <Position>
              <LatitudeDegrees>37.26372909732162952423095703125</LatitudeDegrees>
              <LongitudeDegrees>-3.52124950848519802093505859375</LongitudeDegrees>
            </Position>
            <AltitudeMeters>1441.5999755859375</AltitudeMeters>
            <DistanceMeters>5824.5676210859</DistanceMeters>
          </Trackpoint>
          <Trackpoint>
            <Time>2022-10-08T08:10:11.000Z</Time>
            <Position>
              <LatitudeDegrees>37.2637300193309783935546875</LatitudeDegrees>
              <LongitudeDegrees>-3.52119066752493381500244140625</LongitudeDegrees>
            </Position>
            <AltitudeMeters>1441.4000244140625</AltitudeMeters>
            <DistanceMeters>5829.7811160841</DistanceMeters>
          </Trackpoint>
          <Trackpoint>
            <Time>2022-10-08T08:10:14.000Z</Time>
            <Position>
              <LatitudeDegrees>37.26372532546520233154296875</LatitudeDegrees>
              <LongitudeDegrees>-3.5210871510207653045654296875</LongitudeDegrees>
            </Position>
            <AltitudeMeters>1441</AltitudeMeters>
            <DistanceMeters>5838.9658302407</DistanceMeters>
          </Trackpoint>
          <Trackpoint>
            <Time>2022-10-08T08:10:15.000Z</Time>
            <Position>
              <LatitudeDegrees>37.26372574456036090850830078125</LatitudeDegrees>
              <LongitudeDegrees>-3.52106711827218532562255859375</LongitudeDegrees>
            </Position>
            <AltitudeMeters>1440.800048828125</AltitudeMeters>
            <DistanceMeters>5840.7436172796</DistanceMeters>
          </Trackpoint>
          <Trackpoint>
            <Time>2022-10-08T08:10:16.000Z</Time>
            <Position>
              <LatitudeDegrees>37.263719625771045684814453125</LatitudeDegrees>
              <LongitudeDegrees>-3.521029986441135406494140625</LongitudeDegrees>
            </Position>
            <AltitudeMeters>1440.800048828125</AltitudeMeters>
            <DistanceMeters>5844.1033189858</DistanceMeters>
          </Trackpoint>
          <Trackpoint>
            <Time>2022-10-08T08:10:22.000Z</Time>
            <Position>
              <LatitudeDegrees>37.2636802308261394500732421875</LatitudeDegrees>
              <LongitudeDegrees>-3.52078163065016269683837890625</LongitudeDegrees>
            </Position>
            <AltitudeMeters>1440</AltitudeMeters>
            <DistanceMeters>5866.5352600468</DistanceMeters>
          </Trackpoint>
          <Trackpoint>
            <Time>2022-10-08T08:10:24.000Z</Time>
            <Position>
              <LatitudeDegrees>37.26365701295435428619384765625</LatitudeDegrees>
              <LongitudeDegrees>-3.5207247175276279449462890625</LongitudeDegrees>
            </Position>
            <AltitudeMeters>1439.800048828125</AltitudeMeters>
            <DistanceMeters>5872.2003188887</DistanceMeters>
          </Trackpoint>
          <Trackpoint>
            <Time>2022-10-08T08:10:26.000Z</Time>
            <Position>
              <LatitudeDegrees>37.26362884975969791412353515625</LatitudeDegrees>
              <LongitudeDegrees>-3.520668558776378631591796875</LongitudeDegrees>
            </Position>
            <AltitudeMeters>1439.4000244140625</AltitudeMeters>
            <DistanceMeters>5878.0797008823</DistanceMeters>
          </Trackpoint>
          <Trackpoint>
            <Time>2022-10-08T08:10:29.000Z</Time>
            <Position>
              <LatitudeDegrees>37.263587526977062225341796875</LatitudeDegrees>
              <LongitudeDegrees>-3.52055749855935573577880859375</LongitudeDegrees>
            </Position>
            <AltitudeMeters>1439</AltitudeMeters>
            <DistanceMeters>5888.9393877267</DistanceMeters>
          </Trackpoint>
          <Trackpoint>
            <Time>2022-10-08T08:10:31.000Z</Time>
            <Position>
              <LatitudeDegrees>37.263556681573390960693359375</LatitudeDegrees>
              <LongitudeDegrees>-3.52047166787087917327880859375</LongitudeDegrees>
            </Position>
            <AltitudeMeters>1438.5999755859375</AltitudeMeters>
            <DistanceMeters>5897.2811962283</DistanceMeters>
          </Trackpoint>
          <Trackpoint>
            <Time>2022-10-08T08:10:36.000Z</Time>
            <Position>
              <LatitudeDegrees>37.263471521437168121337890625</LatitudeDegrees>
              <LongitudeDegrees>-3.52027854882180690765380859375</LongitudeDegrees>
            </Position>
            <AltitudeMeters>1438</AltitudeMeters>
            <DistanceMeters>5916.8382388948</DistanceMeters>
          </Trackpoint>
          <Trackpoint>
            <Time>2022-10-08T08:10:38.000Z</Time>
            <Position>
              <LatitudeDegrees>37.2634421847760677337646484375</LatitudeDegrees>
              <LongitudeDegrees>-3.52022255770862102508544921875</LongitudeDegrees>
            </Position>
            <AltitudeMeters>1438</AltitudeMeters>
            <DistanceMeters>5922.7756978157</DistanceMeters>
          </Trackpoint>
          <Trackpoint>
            <Time>2022-10-08T08:10:42.000Z</Time>
            <Position>
              <LatitudeDegrees>37.26336280815303325653076171875</LatitudeDegrees>
              <LongitudeDegrees>-3.5201289318501949310302734375</LongitudeDegrees>
            </Position>
            <AltitudeMeters>1437.5999755859375</AltitudeMeters>
            <DistanceMeters>5934.893001269</DistanceMeters>
          </Trackpoint>
          <Trackpoint>
            <Time>2022-10-08T08:10:44.000Z</Time>
            <Position>
              <LatitudeDegrees>37.26331771351397037506103515625</LatitudeDegrees>
              <LongitudeDegrees>-3.520088531076908111572265625</LongitudeDegrees>
            </Position>
            <AltitudeMeters>1437.4000244140625</AltitudeMeters>
            <DistanceMeters>5941.0580310136</DistanceMeters>
          </Trackpoint>
          <Trackpoint>
            <Time>2022-10-08T08:10:50.000Z</Time>
            <Position>
              <LatitudeDegrees>37.26313917897641658782958984375</LatitudeDegrees>
              <LongitudeDegrees>-3.5199795663356781005859375</LongitudeDegrees>
            </Position>
            <AltitudeMeters>1436.5999755859375</AltitudeMeters>
            <DistanceMeters>5963.1492385709</DistanceMeters>
          </Trackpoint>
          <Trackpoint>
            <Time>2022-10-08T08:10:51.000Z</Time>
            <Position>
              <LatitudeDegrees>37.2631077468395233154296875</LatitudeDegrees>
              <LongitudeDegrees>-3.5199529118835926055908203125</LongitudeDegrees>
            </Position>
            <AltitudeMeters>1436.4000244140625</AltitudeMeters>
            <DistanceMeters>5967.3691095106</DistanceMeters>
          </Trackpoint>
          <Trackpoint>
            <Time>2022-10-08T08:10:56.000Z</Time>
            <Position>
              <LatitudeDegrees>37.26296299137175083160400390625</LatitudeDegrees>
              <LongitudeDegrees>-3.519809246063232421875</LongitudeDegrees>
            </Position>
            <AltitudeMeters>1435.5999755859375</AltitudeMeters>
            <DistanceMeters>5987.9005982183</DistanceMeters>
          </Trackpoint>
          <Trackpoint>
            <Time>2022-10-08T08:10:57.000Z</Time>
            <Position>
              <LatitudeDegrees>37.26293499581515789031982421875</LatitudeDegrees>
              <LongitudeDegrees>-3.51978753693401813507080078125</LongitudeDegrees>
            </Position>
            <AltitudeMeters>1435.4000244140625</AltitudeMeters>
            <DistanceMeters>5991.5625189601</DistanceMeters>
          </Trackpoint>
          <Trackpoint>
            <Time>2022-10-08T08:10:58.000Z</Time>
            <Position>
              <LatitudeDegrees>37.26290264166891574859619140625</LatitudeDegrees>
              <LongitudeDegrees>-3.5197678394615650177001953125</LongitudeDegrees>
            </Position>
            <AltitudeMeters>1435.199951171875</AltitudeMeters>
            <DistanceMeters>5995.5638094439</DistanceMeters>
          </Trackpoint>
          <Trackpoint>
            <Time>2022-10-08T08:11:04.000Z</Time>
            <Position>
              <LatitudeDegrees>37.2627568803727626800537109375</LatitudeDegrees>
              <LongitudeDegrees>-3.51966868154704570770263671875</LongitudeDegrees>
            </Position>
            <AltitudeMeters>1434</AltitudeMeters>
            <DistanceMeters>6014.0127021295</DistanceMeters>
          </Trackpoint>
          <Trackpoint>
            <Time>2022-10-08T08:11:05.000Z</Time>
            <Position>
              <LatitudeDegrees>37.262728549540042877197265625</LatitudeDegrees>
              <LongitudeDegrees>-3.5196501575410366058349609375</LongitudeDegrees>
            </Position>
            <AltitudeMeters>1434</AltitudeMeters>
            <DistanceMeters>6017.5682762071</DistanceMeters>
          </Trackpoint>
          <Trackpoint>
            <Time>2022-10-08T08:11:10.000Z</Time>
            <Position>
              <LatitudeDegrees>37.26260860450565814971923828125</LatitudeDegrees>
              <LongitudeDegrees>-3.5195584595203399658203125</LongitudeDegrees>
            </Position>
            <AltitudeMeters>1433</AltitudeMeters>
            <DistanceMeters>6033.195187523</DistanceMeters>
          </Trackpoint>
          <Trackpoint>
            <Time>2022-10-08T08:11:12.000Z</Time>
            <Position>
              <LatitudeDegrees>37.26255864836275577545166015625</LatitudeDegrees>
              <LongitudeDegrees>-3.51954345591366291046142578125</LongitudeDegrees>
            </Position>
            <AltitudeMeters>1432.5999755859375</AltitudeMeters>
            <DistanceMeters>6038.9126062349</DistanceMeters>
          </Trackpoint>
          <Trackpoint>
            <Time>2022-10-08T08:11:14.000Z</Time>
            <Position>
              <LatitudeDegrees>37.2625044174492359161376953125</LatitudeDegrees>
              <LongitudeDegrees>-3.51953624747693538665771484375</LongitudeDegrees>
            </Position>
            <AltitudeMeters>1432.199951171875</AltitudeMeters>
            <DistanceMeters>6044.9824259926</DistanceMeters>
          </Trackpoint>
          <Trackpoint>
            <Time>2022-10-08T08:11:16.000Z</Time>
            <Position>
              <LatitudeDegrees>37.26246359758079051971435546875</LatitudeDegrees>
              <LongitudeDegrees>-3.51950892247259616851806640625</LongitudeDegrees>
            </Position>
            <AltitudeMeters>1431.800048828125</AltitudeMeters>
            <DistanceMeters>6050.1296819884</DistanceMeters>
          </Trackpoint>
          <Trackpoint>
            <Time>2022-10-08T08:11:18.000Z</Time>
            <Position>
              <LatitudeDegrees>37.2624132223427295684814453125</LatitudeDegrees>
              <LongitudeDegrees>-3.51948193274438381195068359375</LongitudeDegrees>
            </Position>
            <AltitudeMeters>1431.4000244140625</AltitudeMeters>
            <DistanceMeters>6056.2247401908</DistanceMeters>
          </Trackpoint>
          <Trackpoint>
            <Time>2022-10-08T08:11:19.000Z</Time>
            <Position>
              <LatitudeDegrees>37.2623860649764537811279296875</LatitudeDegrees>
              <LongitudeDegrees>-3.51948059163987636566162109375</LongitudeDegrees>
            </Position>
            <AltitudeMeters>1431.199951171875</AltitudeMeters>
            <DistanceMeters>6059.2477250339</DistanceMeters>
          </Trackpoint>
          <Trackpoint>
            <Time>2022-10-08T08:11:21.000Z</Time>
            <Position>
              <LatitudeDegrees>37.262341976165771484375</LatitudeDegrees>
              <LongitudeDegrees>-3.519463241100311279296875</LongitudeDegrees>
            </Position>
            <AltitudeMeters>1431</AltitudeMeters>
            <DistanceMeters>6064.3905932904</DistanceMeters>
          </Trackpoint>
          <Trackpoint>
            <Time>2022-10-08T08:11:22.000Z</Time>
            <Position>
              <LatitudeDegrees>37.262322194874286651611328125</LatitudeDegrees>
              <LongitudeDegrees>-3.51944019086658954620361328125</LongitudeDegrees>
            </Position>
            <AltitudeMeters>1430.800048828125</AltitudeMeters>
            <DistanceMeters>6067.39409897</DistanceMeters>
          </Trackpoint>
          <Trackpoint>
            <Time>2022-10-08T08:11:23.000Z</Time>
            <Position>
              <LatitudeDegrees>37.26229813881218433380126953125</LatitudeDegrees>
              <LongitudeDegrees>-3.51942510344088077545166015625</LongitudeDegrees>
            </Position>
            <AltitudeMeters>1430.4000244140625</AltitudeMeters>
            <DistanceMeters>6070.3870633588</DistanceMeters>
          </Trackpoint>
          <Trackpoint>
            <Time>2022-10-08T08:11:28.000Z</Time>
            <Position>
              <LatitudeDegrees>37.26217810995876789093017578125</LatitudeDegrees>
              <LongitudeDegrees>-3.519338853657245635986328125</LongitudeDegrees>
            </Position>
            <AltitudeMeters>1429.800048828125</AltitudeMeters>
            <DistanceMeters>6085.776697694</DistanceMeters>
          </Trackpoint>
          <Trackpoint>
            <Time>2022-10-08T08:11:29.000Z</Time>
            <Position>
              <LatitudeDegrees>37.26215220987796783447265625</LatitudeDegrees>
              <LongitudeDegrees>-3.5193292982876300811767578125</LongitudeDegrees>
            </Position>
            <AltitudeMeters>1429.4000244140625</AltitudeMeters>
            <DistanceMeters>6088.7786997412</DistanceMeters>
          </Trackpoint>
          <Trackpoint>
            <Time>2022-10-08T08:11:33.000Z</Time>
            <Position>
              <LatitudeDegrees>37.26206545718014240264892578125</LatitudeDegrees>
              <LongitudeDegrees>-3.5192937590181827545166015625</LongitudeDegrees>
            </Position>
            <AltitudeMeters>1428.800048828125</AltitudeMeters>
            <DistanceMeters>6098.9354508603</DistanceMeters>
          </Trackpoint>
          <Trackpoint>
            <Time>2022-10-08T08:11:36.000Z</Time>
            <Position>
              <LatitudeDegrees>37.26200141943991184234619140625</LatitudeDegrees>
              <LongitudeDegrees>-3.5192538611590862274169921875</LongitudeDegrees>
            </Position>
            <AltitudeMeters>1428.4000244140625</AltitudeMeters>
            <DistanceMeters>6106.8910655943</DistanceMeters>
          </Trackpoint>
          <Trackpoint>
            <Time>2022-10-08T08:11:42.000Z</Time>
            <Position>
              <LatitudeDegrees>37.26187166757881641387939453125</LatitudeDegrees>
              <LongitudeDegrees>-3.51917599327862262725830078125</LongitudeDegrees>
            </Position>
            <AltitudeMeters>1428</AltitudeMeters>
            <DistanceMeters>6122.8956633215</DistanceMeters>
          </Trackpoint>
          <Trackpoint>
            <Time>2022-10-08T08:11:45.000Z</Time>
            <Position>
              <LatitudeDegrees>37.26180260069668292999267578125</LatitudeDegrees>
              <LongitudeDegrees>-3.5190909169614315032958984375</LongitudeDegrees>
            </Position>
            <AltitudeMeters>1428</AltitudeMeters>
            <DistanceMeters>6133.6609780443</DistanceMeters>
          </Trackpoint>
          <Trackpoint>
            <Time>2022-10-08T08:11:46.000Z</Time>
            <Position>
              <LatitudeDegrees>37.26178868673741817474365234375</LatitudeDegrees>
              <LongitudeDegrees>-3.51906820200383663177490234375</LongitudeDegrees>
            </Position>
            <AltitudeMeters>1427.5999755859375</AltitudeMeters>
            <DistanceMeters>6136.1983870584</DistanceMeters>
          </Trackpoint>
          <Trackpoint>
            <Time>2022-10-08T08:11:48.000Z</Time>
            <Position>
              <LatitudeDegrees>37.26177527569234371185302734375</LatitudeDegrees>
              <LongitudeDegrees>-3.51901992224156856536865234375</LongitudeDegrees>
            </Position>
            <AltitudeMeters>1427.5999755859375</AltitudeMeters>
            <DistanceMeters>6140.7278830216</DistanceMeters>
          </Trackpoint>
          <Trackpoint>
            <Time>2022-10-08T08:11:49.000Z</Time>
            <Position>
              <LatitudeDegrees>37.26176672615110874176025390625</LatitudeDegrees>
              <LongitudeDegrees>-3.51900299079716205596923828125</LongitudeDegrees>
            </Position>
            <AltitudeMeters>1427.5999755859375</AltitudeMeters>
            <DistanceMeters>6142.5005833918</DistanceMeters>
          </Trackpoint>
          <Trackpoint>
            <Time>2022-10-08T08:11:52.000Z</Time>
            <Position>
              <LatitudeDegrees>37.26171978749334812164306640625</LatitudeDegrees>
              <LongitudeDegrees>-3.5189514420926570892333984375</LongitudeDegrees>
            </Position>
            <AltitudeMeters>1427.5999755859375</AltitudeMeters>
            <DistanceMeters>6149.4388351545</DistanceMeters>
          </Trackpoint>
          <Trackpoint>
            <Time>2022-10-08T08:11:53.000Z</Time>
            <Position>
              <LatitudeDegrees>37.261705286800861358642578125</LatitudeDegrees>
              <LongitudeDegrees>-3.51893275044858455657958984375</LongitudeDegrees>
            </Position>
            <AltitudeMeters>1427.5999755859375</AltitudeMeters>
            <DistanceMeters>6151.7509349047</DistanceMeters>
          </Trackpoint>
          <Trackpoint>
            <Time>2022-10-08T08:11:54.000Z</Time>
            <Position>
              <LatitudeDegrees>37.26168961264193058013916015625</LatitudeDegrees>
              <LongitudeDegrees>-3.51891665719449520111083984375</LongitudeDegrees>
            </Position>
            <AltitudeMeters>1427.5999755859375</AltitudeMeters>
            <DistanceMeters>6154.0036894322</DistanceMeters>
          </Trackpoint>
          <Trackpoint>
            <Time>2022-10-08T08:12:01.000Z</Time>
            <Position>
              <LatitudeDegrees>37.26158416830003261566162109375</LatitudeDegrees>
              <LongitudeDegrees>-3.51873761974275112152099609375</LongitudeDegrees>
            </Position>
            <AltitudeMeters>1427.800048828125</AltitudeMeters>
            <DistanceMeters>6173.7335788224</DistanceMeters>
          </Trackpoint>
          <Trackpoint>
            <Time>2022-10-08T08:12:07.000Z</Time>
            <Position>
              <LatitudeDegrees>37.2615575976669788360595703125</LatitudeDegrees>
              <LongitudeDegrees>-3.51858020760118961334228515625</LongitudeDegrees>
            </Position>
            <AltitudeMeters>1428.800048828125</AltitudeMeters>
            <DistanceMeters>6187.9875859779</DistanceMeters>
          </Trackpoint>
          <Trackpoint>
            <Time>2022-10-08T08:12:08.000Z</Time>
            <Position>
              <LatitudeDegrees>37.26155164651572704315185546875</LatitudeDegrees>
              <LongitudeDegrees>-3.51855908520519733428955078125</LongitudeDegrees>
            </Position>
            <AltitudeMeters>1429</AltitudeMeters>
            <DistanceMeters>6189.971802027</DistanceMeters>
          </Trackpoint>
          <Trackpoint>
            <Time>2022-10-08T08:12:12.000Z</Time>
            <Position>
              <LatitudeDegrees>37.26149498485028743743896484375</LatitudeDegrees>
              <LongitudeDegrees>-3.51847283542156219482421875</LongitudeDegrees>
            </Position>
            <AltitudeMeters>1430.199951171875</AltitudeMeters>
            <DistanceMeters>6199.8783085148</DistanceMeters>
          </Trackpoint>
          <Trackpoint>
            <Time>2022-10-08T08:12:13.000Z</Time>
            <Position>
              <LatitudeDegrees>37.26147034205496311187744140625</LatitudeDegrees>
              <LongitudeDegrees>-3.51844727061688899993896484375</LongitudeDegrees>
            </Position>
            <AltitudeMeters>1430.5999755859375</AltitudeMeters>
            <DistanceMeters>6203.4351522136</DistanceMeters>
          </Trackpoint>
          <Trackpoint>
            <Time>2022-10-08T08:12:17.000Z</Time>
            <Position>
              <LatitudeDegrees>37.26138233207166194915771484375</LatitudeDegrees>
              <LongitudeDegrees>-3.51836018264293670654296875</LongitudeDegrees>
            </Position>
            <AltitudeMeters>1431.199951171875</AltitudeMeters>
            <DistanceMeters>6215.9039463067</DistanceMeters>
          </Trackpoint>
          <Trackpoint>
            <Time>2022-10-08T08:12:18.000Z</Time>
            <Position>
              <LatitudeDegrees>37.26135802455246448516845703125</LatitudeDegrees>
              <LongitudeDegrees>-3.51834400556981563568115234375</LongitudeDegrees>
            </Position>
            <AltitudeMeters>1431.199951171875</AltitudeMeters>
            <DistanceMeters>6218.9655176923</DistanceMeters>
          </Trackpoint>
          <Trackpoint>
            <Time>2022-10-08T08:12:24.000Z</Time>
            <Position>
              <LatitudeDegrees>37.261258698999881744384765625</LatitudeDegrees>
              <LongitudeDegrees>-3.5182326100766658782958984375</LongitudeDegrees>
            </Position>
            <AltitudeMeters>1432.4000244140625</AltitudeMeters>
            <DistanceMeters>6233.7838971208</DistanceMeters>
          </Trackpoint>
          <Trackpoint>
            <Time>2022-10-08T08:12:28.000Z</Time>
            <Position>
              <LatitudeDegrees>37.26120396517217159271240234375</LatitudeDegrees>
              <LongitudeDegrees>-3.5181571729481220245361328125</LongitudeDegrees>
            </Position>
            <AltitudeMeters>1433</AltitudeMeters>
            <DistanceMeters>6242.8259274306</DistanceMeters>
          </Trackpoint>
          <Trackpoint>
            <Time>2022-10-08T08:12:30.000Z</Time>
            <Position>
              <LatitudeDegrees>37.26117161102592945098876953125</LatitudeDegrees>
              <LongitudeDegrees>-3.51811685599386692047119140625</LongitudeDegrees>
            </Position>
            <AltitudeMeters>1433.5999755859375</AltitudeMeters>
            <DistanceMeters>6247.8980756726</DistanceMeters>
          </Trackpoint>
          <Trackpoint>
            <Time>2022-10-08T08:12:31.000Z</Time>
            <Position>
              <LatitudeDegrees>37.261160798370838165283203125</LatitudeDegrees>
              <LongitudeDegrees>-3.51809196174144744873046875</LongitudeDegrees>
            </Position>
            <AltitudeMeters>1433.800048828125</AltitudeMeters>
            <DistanceMeters>6250.4086519725</DistanceMeters>
          </Trackpoint>
          <Trackpoint>
            <Time>2022-10-08T08:12:35.000Z</Time>
            <Position>
              <LatitudeDegrees>37.26111327297985553741455078125</LatitudeDegrees>
              <LongitudeDegrees>-3.5180019401013851165771484375</LongitudeDegrees>
            </Position>
            <AltitudeMeters>1435</AltitudeMeters>
            <DistanceMeters>6259.9780827403</DistanceMeters>
          </Trackpoint>
          <Trackpoint>
            <Time>2022-10-08T08:12:39.000Z</Time>
            <Position>
              <LatitudeDegrees>37.26109206676483154296875</LatitudeDegrees>
              <LongitudeDegrees>-3.51791988126933574676513671875</LongitudeDegrees>
            </Position>
            <AltitudeMeters>1436.199951171875</AltitudeMeters>
            <DistanceMeters>6267.6204995334</DistanceMeters>
          </Trackpoint>
          <Trackpoint>
            <Time>2022-10-08T08:12:40.000Z</Time>
            <Position>
              <LatitudeDegrees>37.26108762435615062713623046875</LatitudeDegrees>
              <LongitudeDegrees>-3.51789758540689945220947265625</LongitudeDegrees>
            </Position>
            <AltitudeMeters>1436.199951171875</AltitudeMeters>
            <DistanceMeters>6269.6585954988</DistanceMeters>
          </Trackpoint>
          <Trackpoint>
            <Time>2022-10-08T08:12:45.000Z</Time>
            <Position>
              <LatitudeDegrees>37.2610902227461338043212890625</LatitudeDegrees>
              <LongitudeDegrees>-3.51776473224163055419921875</LongitudeDegrees>
            </Position>
            <AltitudeMeters>1436.199951171875</AltitudeMeters>
            <DistanceMeters>6281.4311743693</DistanceMeters>
          </Trackpoint>
          <Trackpoint>
            <Time>2022-10-08T08:12:47.000Z</Time>
            <Position>
              <LatitudeDegrees>37.261092402040958404541015625</LatitudeDegrees>
              <LongitudeDegrees>-3.5177182964980602264404296875</LongitudeDegrees>
            </Position>
            <AltitudeMeters>1435.800048828125</AltitudeMeters>
            <DistanceMeters>6285.5514345206</DistanceMeters>
          </Trackpoint>
          <Trackpoint>
            <Time>2022-10-08T08:12:51.000Z</Time>
            <Position>
              <LatitudeDegrees>37.26113171316683292388916015625</LatitudeDegrees>
              <LongitudeDegrees>-3.51763171143829822540283203125</LongitudeDegrees>
            </Position>
            <AltitudeMeters>1435</AltitudeMeters>
            <DistanceMeters>6294.3822748073</DistanceMeters>
          </Trackpoint>
          <Trackpoint>
            <Time>2022-10-08T08:12:53.000Z</Time>
            <Position>
              <LatitudeDegrees>37.261172197759151458740234375</LatitudeDegrees>
              <LongitudeDegrees>-3.5175758041441440582275390625</LongitudeDegrees>
            </Position>
            <AltitudeMeters>1434.5999755859375</AltitudeMeters>
            <DistanceMeters>6301.0774446683</DistanceMeters>
          </Trackpoint>
          <Trackpoint>
            <Time>2022-10-08T08:12:55.000Z</Time>
            <Position>
              <LatitudeDegrees>37.26121502928435802459716796875</LatitudeDegrees>
              <LongitudeDegrees>-3.5175308771431446075439453125</LongitudeDegrees>
            </Position>
            <AltitudeMeters>1433.800048828125</AltitudeMeters>
            <DistanceMeters>6307.2869878412</DistanceMeters>
          </Trackpoint>
          <Trackpoint>
            <Time>2022-10-08T08:12:57.000Z</Time>
            <Position>
              <LatitudeDegrees>37.261256687343120574951171875</LatitudeDegrees>
              <LongitudeDegrees>-3.51749793626368045806884765625</LongitudeDegrees>
            </Position>
            <AltitudeMeters>1432.5999755859375</AltitudeMeters>
            <DistanceMeters>6312.7656714513</DistanceMeters>
          </Trackpoint>
          <Trackpoint>
            <Time>2022-10-08T08:12:58.000Z</Time>
            <Position>
              <LatitudeDegrees>37.26127169094979763031005859375</LatitudeDegrees>
              <LongitudeDegrees>-3.51747798733413219451904296875</LongitudeDegrees>
            </Position>
            <AltitudeMeters>1432</AltitudeMeters>
            <DistanceMeters>6315.1958298812</DistanceMeters>
          </Trackpoint>
          <Trackpoint>
            <Time>2022-10-08T08:12:59.000Z</Time>
            <Position>
              <LatitudeDegrees>37.26128543727099895477294921875</LatitudeDegrees>
              <LongitudeDegrees>-3.51745921187102794647216796875</LongitudeDegrees>
            </Position>
            <AltitudeMeters>1431</AltitudeMeters>
            <DistanceMeters>6317.4565871144</DistanceMeters>
          </Trackpoint>
          <Trackpoint>
            <Time>2022-10-08T08:13:01.000Z</Time>
            <Position>
              <LatitudeDegrees>37.2613081522285938262939453125</LatitudeDegrees>
              <LongitudeDegrees>-3.51742300204932689666748046875</LongitudeDegrees>
            </Position>
            <AltitudeMeters>1429.800048828125</AltitudeMeters>
            <DistanceMeters>6321.541630721</DistanceMeters>
          </Trackpoint>
          <Trackpoint>
            <Time>2022-10-08T08:13:03.000Z</Time>
            <Position>
              <LatitudeDegrees>37.2613299451768398284912109375</LatitudeDegrees>
              <LongitudeDegrees>-3.5173813439905643463134765625</LongitudeDegrees>
            </Position>
            <AltitudeMeters>1428.4000244140625</AltitudeMeters>
            <DistanceMeters>6325.9580733074</DistanceMeters>
          </Trackpoint>
          <Trackpoint>
            <Time>2022-10-08T08:13:05.000Z</Time>
            <Position>
              <LatitudeDegrees>37.26134595461189746856689453125</LatitudeDegrees>
              <LongitudeDegrees>-3.5173401050269603729248046875</LongitudeDegrees>
            </Position>
            <AltitudeMeters>1427.199951171875</AltitudeMeters>
            <DistanceMeters>6330.023173539</DistanceMeters>
          </Trackpoint>
          <Trackpoint>
            <Time>2022-10-08T08:13:08.000Z</Time>
            <Position>
              <LatitudeDegrees>37.26138870231807231903076171875</LatitudeDegrees>
              <LongitudeDegrees>-3.5172760672867298126220703125</LongitudeDegrees>
            </Position>
            <AltitudeMeters>1426.199951171875</AltitudeMeters>
            <DistanceMeters>6337.4267243097</DistanceMeters>
          </Trackpoint>
          <Trackpoint>
            <Time>2022-10-08T08:13:10.000Z</Time>
            <Position>
              <LatitudeDegrees>37.2614187933504581451416015625</LatitudeDegrees>
              <LongitudeDegrees>-3.5172247700393199920654296875</LongitudeDegrees>
            </Position>
            <AltitudeMeters>1425.199951171875</AltitudeMeters>
            <DistanceMeters>6343.0726228075</DistanceMeters>
          </Trackpoint>
          <Trackpoint>
            <Time>2022-10-08T08:13:11.000Z</Time>
            <Position>
              <LatitudeDegrees>37.2614332102239131927490234375</LatitudeDegrees>
              <LongitudeDegrees>-3.517198450863361358642578125</LongitudeDegrees>
            </Position>
            <AltitudeMeters>1424.5999755859375</AltitudeMeters>
            <DistanceMeters>6345.9027602257</DistanceMeters>
          </Trackpoint>
          <Trackpoint>
            <Time>2022-10-08T08:13:13.000Z</Time>
            <Position>
              <LatitudeDegrees>37.2614660672843456268310546875</LatitudeDegrees>
              <LongitudeDegrees>-3.517154864966869354248046875</LongitudeDegrees>
            </Position>
            <AltitudeMeters>1423.5999755859375</AltitudeMeters>
            <DistanceMeters>6351.2208613363</DistanceMeters>
          </Trackpoint>
          <Trackpoint>
            <Time>2022-10-08T08:13:15.000Z</Time>
            <Position>
              <LatitudeDegrees>37.261491380631923675537109375</LatitudeDegrees>
              <LongitudeDegrees>-3.5171114467084407806396484375</LongitudeDegrees>
            </Position>
            <AltitudeMeters>1422.4000244140625</AltitudeMeters>
            <DistanceMeters>6355.9873770797</DistanceMeters>
          </Trackpoint>
          <Trackpoint>
            <Time>2022-10-08T08:13:16.000Z</Time>
            <Position>
              <LatitudeDegrees>37.2615052945911884307861328125</LatitudeDegrees>
              <LongitudeDegrees>-3.5170856304466724395751953125</LongitudeDegrees>
            </Position>
            <AltitudeMeters>1421.800048828125</AltitudeMeters>
            <DistanceMeters>6358.7480625958</DistanceMeters>
          </Trackpoint>
          <Trackpoint>
            <Time>2022-10-08T08:13:17.000Z</Time>
            <Position>
              <LatitudeDegrees>37.2615210525691509246826171875</LatitudeDegrees>
              <LongitudeDegrees>-3.51706065237522125244140625</LongitudeDegrees>
            </Position>
            <AltitudeMeters>1421.199951171875</AltitudeMeters>
            <DistanceMeters>6361.5702120291</DistanceMeters>
          </Trackpoint>
          <Trackpoint>
            <Time>2022-10-08T08:13:19.000Z</Time>
            <Position>
              <LatitudeDegrees>37.2615612857043743133544921875</LatitudeDegrees>
              <LongitudeDegrees>-3.51701413281261920928955078125</LongitudeDegrees>
            </Position>
            <AltitudeMeters>1420</AltitudeMeters>
            <DistanceMeters>6367.6563744959</DistanceMeters>
          </Trackpoint>
          <Trackpoint>
            <Time>2022-10-08T08:13:22.000Z</Time>
            <Position>
              <LatitudeDegrees>37.2615944780409336090087890625</LatitudeDegrees>
              <LongitudeDegrees>-3.516958057880401611328125</LongitudeDegrees>
            </Position>
            <AltitudeMeters>1418.4000244140625</AltitudeMeters>
            <DistanceMeters>6373.8477131642</DistanceMeters>
          </Trackpoint>
          <Trackpoint>
            <Time>2022-10-08T08:13:23.000Z</Time>
            <Position>
              <LatitudeDegrees>37.2616035304963588714599609375</LatitudeDegrees>
              <LongitudeDegrees>-3.5169179923832416534423828125</LongitudeDegrees>
            </Position>
            <AltitudeMeters>1418</AltitudeMeters>
            <DistanceMeters>6377.537883252</DistanceMeters>
          </Trackpoint>
          <Trackpoint>
            <Time>2022-10-08T08:13:26.000Z</Time>
            <Position>
              <LatitudeDegrees>37.26163093931972980499267578125</LatitudeDegrees>
              <LongitudeDegrees>-3.5168060101568698883056640625</LongitudeDegrees>
            </Position>
            <AltitudeMeters>1417.199951171875</AltitudeMeters>
            <DistanceMeters>6387.9162623077</DistanceMeters>
          </Trackpoint>
          <Trackpoint>
            <Time>2022-10-08T08:13:28.000Z</Time>
            <Position>
              <LatitudeDegrees>37.261662371456623077392578125</LatitudeDegrees>
              <LongitudeDegrees>-3.51674817502498626708984375</LongitudeDegrees>
            </Position>
            <AltitudeMeters>1416.199951171875</AltitudeMeters>
            <DistanceMeters>6394.1199858512</DistanceMeters>
          </Trackpoint>
          <Trackpoint>
            <Time>2022-10-08T08:13:29.000Z</Time>
            <Position>
              <LatitudeDegrees>37.2616856731474399566650390625</LatitudeDegrees>
              <LongitudeDegrees>-3.51673920638859272003173828125</LongitudeDegrees>
            </Position>
            <AltitudeMeters>1415.5999755859375</AltitudeMeters>
            <DistanceMeters>6396.8311631279</DistanceMeters>
          </Trackpoint>
          <Trackpoint>
            <Time>2022-10-08T08:13:31.000Z</Time>
            <Position>
              <LatitudeDegrees>37.261727415025234222412109375</LatitudeDegrees>
              <LongitudeDegrees>-3.5167060978710651397705078125</LongitudeDegrees>
            </Position>
            <AltitudeMeters>1414.800048828125</AltitudeMeters>
            <DistanceMeters>6402.3263042206</DistanceMeters>
          </Trackpoint>
          <Trackpoint>
            <Time>2022-10-08T08:13:32.000Z</Time>
            <Position>
              <LatitudeDegrees>37.261743843555450439453125</LatitudeDegrees>
              <LongitudeDegrees>-3.5166839696466922760009765625</LongitudeDegrees>
            </Position>
            <AltitudeMeters>1414.199951171875</AltitudeMeters>
            <DistanceMeters>6405.0073377618</DistanceMeters>
          </Trackpoint>
          <Trackpoint>
            <Time>2022-10-08T08:13:33.000Z</Time>
            <Position>
              <LatitudeDegrees>37.2617560811340808868408203125</LatitudeDegrees>
              <LongitudeDegrees>-3.51665874011814594268798828125</LongitudeDegrees>
            </Position>
            <AltitudeMeters>1413.5999755859375</AltitudeMeters>
            <DistanceMeters>6407.6253194312</DistanceMeters>
          </Trackpoint>
          <Trackpoint>
            <Time>2022-10-08T08:13:34.000Z</Time>
            <Position>
              <LatitudeDegrees>37.26176052354276180267333984375</LatitudeDegrees>
              <LongitudeDegrees>-3.5166346840560436248779296875</LongitudeDegrees>
            </Position>
            <AltitudeMeters>1413</AltitudeMeters>
            <DistanceMeters>6409.8129986844</DistanceMeters>
          </Trackpoint>
          <Trackpoint>
            <Time>2022-10-08T08:13:35.000Z</Time>
            <Position>
              <LatitudeDegrees>37.2617654688656330108642578125</LatitudeDegrees>
              <LongitudeDegrees>-3.51661004126071929931640625</LongitudeDegrees>
            </Position>
            <AltitudeMeters>1412.5999755859375</AltitudeMeters>
            <DistanceMeters>6412.065753212</DistanceMeters>
          </Trackpoint>
          <Trackpoint>
            <Time>2022-10-08T08:13:37.000Z</Time>
            <Position>
              <LatitudeDegrees>37.26177879609167575836181640625</LatitudeDegrees>
              <LongitudeDegrees>-3.5165790282189846038818359375</LongitudeDegrees>
            </Position>
            <AltitudeMeters>1411.5999755859375</AltitudeMeters>
            <DistanceMeters>6415.1886497136</DistanceMeters>
          </Trackpoint>
          <Trackpoint>
            <Time>2022-10-08T08:13:39.000Z</Time>
            <Position>
              <LatitudeDegrees>37.26179681718349456787109375</LatitudeDegrees>
              <LongitudeDegrees>-3.51654826663434505462646484375</LongitudeDegrees>
            </Position>
            <AltitudeMeters>1410.199951171875</AltitudeMeters>
            <DistanceMeters>6418.5724548101</DistanceMeters>
          </Trackpoint>
          <Trackpoint>
            <Time>2022-10-08T08:13:40.000Z</Time>
            <Position>
              <LatitudeDegrees>37.26180980913341045379638671875</LatitudeDegrees>
              <LongitudeDegrees>-3.51652714423835277557373046875</LongitudeDegrees>
            </Position>
            <AltitudeMeters>1409.800048828125</AltitudeMeters>
            <DistanceMeters>6420.9386009161</DistanceMeters>
          </Trackpoint>
          <Trackpoint>
            <Time>2022-10-08T08:13:41.000Z</Time>
            <Position>
              <LatitudeDegrees>37.2618221305310726165771484375</LatitudeDegrees>
              <LongitudeDegrees>-3.51651012897491455078125</LongitudeDegrees>
            </Position>
            <AltitudeMeters>1409.199951171875</AltitudeMeters>
            <DistanceMeters>6422.9766968815</DistanceMeters>
          </Trackpoint>
          <Trackpoint>
            <Time>2022-10-08T08:13:43.000Z</Time>
            <Position>
              <LatitudeDegrees>37.26184241473674774169921875</LatitudeDegrees>
              <LongitudeDegrees>-3.5164834745228290557861328125</LongitudeDegrees>
            </Position>
            <AltitudeMeters>1408</AltitudeMeters>
            <DistanceMeters>6426.2437368808</DistanceMeters>
          </Trackpoint>
          <Trackpoint>
            <Time>2022-10-08T08:13:46.000Z</Time>
            <Position>
              <LatitudeDegrees>37.2618658840656280517578125</LatitudeDegrees>
              <LongitudeDegrees>-3.516450785100460052490234375</LongitudeDegrees>
            </Position>
            <AltitudeMeters>1406.5999755859375</AltitudeMeters>
            <DistanceMeters>6430.1433072073</DistanceMeters>
          </Trackpoint>
          <Trackpoint>
            <Time>2022-10-08T08:13:47.000Z</Time>
            <Position>
              <LatitudeDegrees>37.26186948828399181365966796875</LatitudeDegrees>
              <LongitudeDegrees>-3.51643837988376617431640625</LongitudeDegrees>
            </Position>
            <AltitudeMeters>1406</AltitudeMeters>
            <DistanceMeters>6431.3148752248</DistanceMeters>
          </Trackpoint>
          <Trackpoint>
            <Time>2022-10-08T08:13:48.000Z</Time>
            <Position>
              <LatitudeDegrees>37.26187535561621189117431640625</LatitudeDegrees>
              <LongitudeDegrees>-3.51642220281064510345458984375</LongitudeDegrees>
            </Position>
            <AltitudeMeters>1405.5999755859375</AltitudeMeters>
            <DistanceMeters>6432.8907150079</DistanceMeters>
          </Trackpoint>
          <Trackpoint>
            <Time>2022-10-08T08:13:51.000Z</Time>
            <Position>
              <LatitudeDegrees>37.26189916022121906280517578125</LatitudeDegrees>
              <LongitudeDegrees>-3.51636252366006374359130859375</LongitudeDegrees>
            </Position>
            <AltitudeMeters>1404.4000244140625</AltitudeMeters>
            <DistanceMeters>6438.8037900109</DistanceMeters>
          </Trackpoint>
          <Trackpoint>
            <Time>2022-10-08T08:13:52.000Z</Time>
            <Position>
              <LatitudeDegrees>37.26190100423991680145263671875</LatitudeDegrees>
              <LongitudeDegrees>-3.5163460113108158111572265625</LongitudeDegrees>
            </Position>
            <AltitudeMeters>1404</AltitudeMeters>
            <DistanceMeters>6440.2820587616</DistanceMeters>
          </Trackpoint>
          <Trackpoint>
            <Time>2022-10-08T08:13:53.000Z</Time>
            <Position>
              <LatitudeDegrees>37.26189865730702877044677734375</LatitudeDegrees>
              <LongitudeDegrees>-3.51633377373218536376953125</LongitudeDegrees>
            </Position>
            <AltitudeMeters>1403.4000244140625</AltitudeMeters>
            <DistanceMeters>6441.3983698963</DistanceMeters>
          </Trackpoint>
          <Trackpoint>
            <Time>2022-10-08T08:13:54.000Z</Time>
            <Position>
              <LatitudeDegrees>37.2618968971073627471923828125</LatitudeDegrees>
              <LongitudeDegrees>-3.51631726138293743133544921875</LongitudeDegrees>
            </Position>
            <AltitudeMeters>1402.800048828125</AltitudeMeters>
            <DistanceMeters>6442.8735812109</DistanceMeters>
          </Trackpoint>
          <Trackpoint>
            <Time>2022-10-08T08:13:57.000Z</Time>
            <Position>
              <LatitudeDegrees>37.2618844918906688690185546875</LatitudeDegrees>
              <LongitudeDegrees>-3.516252972185611724853515625</LongitudeDegrees>
            </Position>
            <AltitudeMeters>1401.4000244140625</AltitudeMeters>
            <DistanceMeters>6448.7329626322</DistanceMeters>
          </Trackpoint>
          <Trackpoint>
            <Time>2022-10-08T08:13:59.000Z</Time>
            <Position>
              <LatitudeDegrees>37.26187552325427532196044921875</LatitudeDegrees>
              <LongitudeDegrees>-3.5162048600614070892333984375</LongitudeDegrees>
            </Position>
            <AltitudeMeters>1400.4000244140625</AltitudeMeters>
            <DistanceMeters>6453.1103845006</DistanceMeters>
          </Trackpoint>
          <Trackpoint>
            <Time>2022-10-08T08:14:01.000Z</Time>
            <Position>
              <LatitudeDegrees>37.2618677280843257904052734375</LatitudeDegrees>
              <LongitudeDegrees>-3.516169488430023193359375</LongitudeDegrees>
            </Position>
            <AltitudeMeters>1399.4000244140625</AltitudeMeters>
            <DistanceMeters>6456.3607982342</DistanceMeters>
          </Trackpoint>
          <Trackpoint>
            <Time>2022-10-08T08:14:04.000Z</Time>
            <Position>
              <LatitudeDegrees>37.26186521351337432861328125</LatitudeDegrees>
              <LongitudeDegrees>-3.51609170436859130859375</LongitudeDegrees>
            </Position>
            <AltitudeMeters>1398.4000244140625</AltitudeMeters>
            <DistanceMeters>6463.256621793</DistanceMeters>
          </Trackpoint>
          <Trackpoint>
            <Time>2022-10-08T08:14:07.000Z</Time>
            <Position>
              <LatitudeDegrees>37.26188843138515949249267578125</LatitudeDegrees>
              <LongitudeDegrees>-3.5160067118704319000244140625</LongitudeDegrees>
            </Position>
            <AltitudeMeters>1397.199951171875</AltitudeMeters>
            <DistanceMeters>6471.2162082352</DistanceMeters>
          </Trackpoint>
          <Trackpoint>
            <Time>2022-10-08T08:14:11.000Z</Time>
            <Position>
              <LatitudeDegrees>37.26192648522555828094482421875</LatitudeDegrees>
              <LongitudeDegrees>-3.51592599414288997650146484375</LongitudeDegrees>
            </Position>
            <AltitudeMeters>1396.199951171875</AltitudeMeters>
            <DistanceMeters>6479.5265647043</DistanceMeters>
          </Trackpoint>
          <Trackpoint>
            <Time>2022-10-08T08:14:13.000Z</Time>
            <Position>
              <LatitudeDegrees>37.2619367949664592742919921875</LatitudeDegrees>
              <LongitudeDegrees>-3.51587670855224132537841796875</LongitudeDegrees>
            </Position>
            <AltitudeMeters>1395.199951171875</AltitudeMeters>
            <DistanceMeters>6484.0410837854</DistanceMeters>
          </Trackpoint>
          <Trackpoint>
            <Time>2022-10-08T08:14:14.000Z</Time>
            <Position>
              <LatitudeDegrees>37.26194257847964763641357421875</LatitudeDegrees>
              <LongitudeDegrees>-3.51584737189114093780517578125</LongitudeDegrees>
            </Position>
            <AltitudeMeters>1394.800048828125</AltitudeMeters>
            <DistanceMeters>6486.7187470758</DistanceMeters>
          </Trackpoint>
          <Trackpoint>
            <Time>2022-10-08T08:14:16.000Z</Time>
            <Position>
              <LatitudeDegrees>37.26195800118148326873779296875</LatitudeDegrees>
              <LongitudeDegrees>-3.51580814458429813385009765625</LongitudeDegrees>
            </Position>
            <AltitudeMeters>1394.199951171875</AltitudeMeters>
            <DistanceMeters>6490.5950916428</DistanceMeters>
          </Trackpoint>
          <Trackpoint>
            <Time>2022-10-08T08:14:18.000Z</Time>
            <Position>
              <LatitudeDegrees>37.26197292096912860870361328125</LatitudeDegrees>
              <LongitudeDegrees>-3.51576975546777248382568359375</LongitudeDegrees>
            </Position>
            <AltitudeMeters>1393.5999755859375</AltitudeMeters>
            <DistanceMeters>6494.3794940052</DistanceMeters>
          </Trackpoint>
          <Trackpoint>
            <Time>2022-10-08T08:14:19.000Z</Time>
            <Position>
              <LatitudeDegrees>37.26197727955877780914306640625</LatitudeDegrees>
              <LongitudeDegrees>-3.51574125699698925018310546875</LongitudeDegrees>
            </Position>
            <AltitudeMeters>1393.199951171875</AltitudeMeters>
            <DistanceMeters>6496.9504891349</DistanceMeters>
          </Trackpoint>
          <Trackpoint>
            <Time>2022-10-08T08:14:21.000Z</Time>
            <Position>
              <LatitudeDegrees>37.2619931213557720184326171875</LatitudeDegrees>
              <LongitudeDegrees>-3.51569917984306812286376953125</LongitudeDegrees>
            </Position>
            <AltitudeMeters>1392.199951171875</AltitudeMeters>
            <DistanceMeters>6501.0740354174</DistanceMeters>
          </Trackpoint>
          <Trackpoint>
            <Time>2022-10-08T08:14:22.000Z</Time>
            <Position>
              <LatitudeDegrees>37.2619946300983428955078125</LatitudeDegrees>
              <LongitudeDegrees>-3.515674956142902374267578125</LongitudeDegrees>
            </Position>
            <AltitudeMeters>1391.800048828125</AltitudeMeters>
            <DistanceMeters>6503.2263432987</DistanceMeters>
          </Trackpoint>
          <Trackpoint>
            <Time>2022-10-08T08:14:23.000Z</Time>
            <Position>
              <LatitudeDegrees>37.26199504919350147247314453125</LatitudeDegrees>
              <LongitudeDegrees>-3.51564888842403888702392578125</LongitudeDegrees>
            </Position>
            <AltitudeMeters>1391.4000244140625</AltitudeMeters>
            <DistanceMeters>6505.5345341707</DistanceMeters>
          </Trackpoint>
          <Trackpoint>
            <Time>2022-10-08T08:14:24.000Z</Time>
            <Position>
              <LatitudeDegrees>37.26199739612638950347900390625</LatitudeDegrees>
              <LongitudeDegrees>-3.51562424562871456146240234375</LongitudeDegrees>
            </Position>
            <AltitudeMeters>1390.800048828125</AltitudeMeters>
            <DistanceMeters>6507.7345616647</DistanceMeters>
          </Trackpoint>
          <Trackpoint>
            <Time>2022-10-08T08:14:26.000Z</Time>
            <Position>
              <LatitudeDegrees>37.26199303753674030303955078125</LatitudeDegrees>
              <LongitudeDegrees>-3.515574373304843902587890625</LongitudeDegrees>
            </Position>
            <AltitudeMeters>1389.800048828125</AltitudeMeters>
            <DistanceMeters>6512.1785212935</DistanceMeters>
          </Trackpoint>
          <Trackpoint>
            <Time>2022-10-08T08:14:28.000Z</Time>
            <Position>
              <LatitudeDegrees>37.26198532618582248687744140625</LatitudeDegrees>
              <LongitudeDegrees>-3.51552869193255901336669921875</LongitudeDegrees>
            </Position>
            <AltitudeMeters>1388.800048828125</AltitudeMeters>
            <DistanceMeters>6516.3140943838</DistanceMeters>
          </Trackpoint>
          <Trackpoint>
            <Time>2022-10-08T08:14:29.000Z</Time>
            <Position>
              <LatitudeDegrees>37.26198247633874416351318359375</LatitudeDegrees>
              <LongitudeDegrees>-3.5155081562697887420654296875</LongitudeDegrees>
            </Position>
            <AltitudeMeters>1388.4000244140625</AltitudeMeters>
            <DistanceMeters>6518.1640670788</DistanceMeters>
          </Trackpoint>
          <Trackpoint>
            <Time>2022-10-08T08:14:31.000Z</Time>
            <Position>
              <LatitudeDegrees>37.26197292096912860870361328125</LatitudeDegrees>
              <LongitudeDegrees>-3.5154680907726287841796875</LongitudeDegrees>
            </Position>
            <AltitudeMeters>1387.5999755859375</AltitudeMeters>
            <DistanceMeters>6521.8688904477</DistanceMeters>
          </Trackpoint>
          <Trackpoint>
            <Time>2022-10-08T08:14:34.000Z</Time>
            <Position>
              <LatitudeDegrees>37.26194836199283599853515625</LatitudeDegrees>
              <LongitudeDegrees>-3.51540396921336650848388671875</LongitudeDegrees>
            </Position>
            <AltitudeMeters>1386</AltitudeMeters>
            <DistanceMeters>6528.1722495802</DistanceMeters>
          </Trackpoint>
          <Trackpoint>
            <Time>2022-10-08T08:14:35.000Z</Time>
            <Position>
              <LatitudeDegrees>37.26194031536579132080078125</LatitudeDegrees>
              <LongitudeDegrees>-3.5153834335505962371826171875</LongitudeDegrees>
            </Position>
            <AltitudeMeters>1385.5999755859375</AltitudeMeters>
            <DistanceMeters>6530.2014649109</DistanceMeters>
          </Trackpoint>
          <Trackpoint>
            <Time>2022-10-08T08:14:36.000Z</Time>
            <Position>
              <LatitudeDegrees>37.2619354538619518280029296875</LatitudeDegrees>
              <LongitudeDegrees>-3.5153686814010143280029296875</LongitudeDegrees>
            </Position>
            <AltitudeMeters>1384.800048828125</AltitudeMeters>
            <DistanceMeters>6531.6141385796</DistanceMeters>
          </Trackpoint>
          <Trackpoint>
            <Time>2022-10-08T08:14:37.000Z</Time>
            <Position>
              <LatitudeDegrees>37.26192983798682689666748046875</LatitudeDegrees>
              <LongitudeDegrees>-3.5153566114604473114013671875</LongitudeDegrees>
            </Position>
            <AltitudeMeters>1384.4000244140625</AltitudeMeters>
            <DistanceMeters>6532.8531353493</DistanceMeters>
          </Trackpoint>
          <Trackpoint>
            <Time>2022-10-08T08:14:39.000Z</Time>
            <Position>
              <LatitudeDegrees>37.26193092763423919677734375</LatitudeDegrees>
              <LongitudeDegrees>-3.5153304599225521087646484375</LongitudeDegrees>
            </Position>
            <AltitudeMeters>1383.5999755859375</AltitudeMeters>
            <DistanceMeters>6535.1730330972</DistanceMeters>
          </Trackpoint>
          <Trackpoint>
            <Time>2022-10-08T08:14:40.000Z</Time>
            <Position>
              <LatitudeDegrees>37.26193453185260295867919921875</LatitudeDegrees>
              <LongitudeDegrees>-3.51531193591654300689697265625</LongitudeDegrees>
            </Position>
            <AltitudeMeters>1383.199951171875</AltitudeMeters>
            <DistanceMeters>6536.8622649215</DistanceMeters>
          </Trackpoint>
          <Trackpoint>
            <Time>2022-10-08T08:14:41.000Z</Time>
            <Position>
              <LatitudeDegrees>37.2619327716529369354248046875</LatitudeDegrees>
              <LongitudeDegrees>-3.51529634557664394378662109375</LongitudeDegrees>
            </Position>
            <AltitudeMeters>1382.800048828125</AltitudeMeters>
            <DistanceMeters>6538.2588666944</DistanceMeters>
          </Trackpoint>
          <Trackpoint>
            <Time>2022-10-08T08:14:43.000Z</Time>
            <Position>
              <LatitudeDegrees>37.26192698813974857330322265625</LatitudeDegrees>
              <LongitudeDegrees>-3.515253849327564239501953125</LongitudeDegrees>
            </Position>
            <AltitudeMeters>1382</AltitudeMeters>
            <DistanceMeters>6542.0788933348</DistanceMeters>
          </Trackpoint>
          <Trackpoint>
            <Time>2022-10-08T08:14:46.000Z</Time>
            <Position>
              <LatitudeDegrees>37.26192958652973175048828125</LatitudeDegrees>
              <LongitudeDegrees>-3.5151805914938449859619140625</LongitudeDegrees>
            </Position>
            <AltitudeMeters>1380.5999755859375</AltitudeMeters>
            <DistanceMeters>6548.5741621626</DistanceMeters>
          </Trackpoint>
          <Trackpoint>
            <Time>2022-10-08T08:14:49.000Z</Time>
            <Position>
              <LatitudeDegrees>37.26192564703524112701416015625</LatitudeDegrees>
              <LongitudeDegrees>-3.51508646272122859954833984375</LongitudeDegrees>
            </Position>
            <AltitudeMeters>1379.199951171875</AltitudeMeters>
            <DistanceMeters>6556.9235447834</DistanceMeters>
          </Trackpoint>
          <Trackpoint>
            <Time>2022-10-08T08:14:51.000Z</Time>
            <Position>
              <LatitudeDegrees>37.26192480884492397308349609375</LatitudeDegrees>
              <LongitudeDegrees>-3.51504555903375148773193359375</LongitudeDegrees>
            </Position>
            <AltitudeMeters>1378.199951171875</AltitudeMeters>
            <DistanceMeters>6560.548287702</DistanceMeters>
          </Trackpoint>
          <Trackpoint>
            <Time>2022-10-08T08:14:52.000Z</Time>
            <Position>
              <LatitudeDegrees>37.26191123016178607940673828125</LatitudeDegrees>
              <LongitudeDegrees>-3.51503315381705760955810546875</LongitudeDegrees>
            </Position>
            <AltitudeMeters>1377.800048828125</AltitudeMeters>
            <DistanceMeters>6562.415266413</DistanceMeters>
          </Trackpoint>
          <Trackpoint>
            <Time>2022-10-08T08:14:53.000Z</Time>
            <Position>
              <LatitudeDegrees>37.26189781911671161651611328125</LatitudeDegrees>
              <LongitudeDegrees>-3.51501253433525562286376953125</LongitudeDegrees>
            </Position>
            <AltitudeMeters>1377.199951171875</AltitudeMeters>
            <DistanceMeters>6564.7718522937</DistanceMeters>
          </Trackpoint>
          <Trackpoint>
            <Time>2022-10-08T08:14:55.000Z</Time>
            <Position>
              <LatitudeDegrees>37.26189195178449153900146484375</LatitudeDegrees>
              <LongitudeDegrees>-3.5149767436087131500244140625</LongitudeDegrees>
            </Position>
            <AltitudeMeters>1376</AltitudeMeters>
            <DistanceMeters>6568.0083455618</DistanceMeters>
          </Trackpoint>
          <Trackpoint>
            <Time>2022-10-08T08:14:57.000Z</Time>
            <Position>
              <LatitudeDegrees>37.2618922032415866851806640625</LatitudeDegrees>
              <LongitudeDegrees>-3.5149572975933551788330078125</LongitudeDegrees>
            </Position>
            <AltitudeMeters>1375</AltitudeMeters>
            <DistanceMeters>6569.7345915543</DistanceMeters>
          </Trackpoint>
          <Trackpoint>
            <Time>2022-10-08T08:14:58.000Z</Time>
            <Position>
              <LatitudeDegrees>37.26188600063323974609375</LatitudeDegrees>
              <LongitudeDegrees>-3.514943383634090423583984375</LongitudeDegrees>
            </Position>
            <AltitudeMeters>1374.4000244140625</AltitudeMeters>
            <DistanceMeters>6571.144065505</DistanceMeters>
          </Trackpoint>
          <Trackpoint>
            <Time>2022-10-08T08:15:00.000Z</Time>
            <Position>
              <LatitudeDegrees>37.26186345331370830535888671875</LatitudeDegrees>
              <LongitudeDegrees>-3.5149281285703182220458984375</LongitudeDegrees>
            </Position>
            <AltitudeMeters>1373.5999755859375</AltitudeMeters>
            <DistanceMeters>6573.9948669361</DistanceMeters>
          </Trackpoint>
          <Trackpoint>
            <Time>2022-10-08T08:15:01.000Z</Time>
            <Position>
              <LatitudeDegrees>37.26185448467731475830078125</LatitudeDegrees>
              <LongitudeDegrees>-3.5149163939058780670166015625</LongitudeDegrees>
            </Position>
            <AltitudeMeters>1373</AltitudeMeters>
            <DistanceMeters>6575.4391479539</DistanceMeters>
          </Trackpoint>
          <Trackpoint>
            <Time>2022-10-08T08:15:03.000Z</Time>
            <Position>
              <LatitudeDegrees>37.26182556711137294769287109375</LatitudeDegrees>
              <LongitudeDegrees>-3.51488630287349224090576171875</LongitudeDegrees>
            </Position>
            <AltitudeMeters>1372.199951171875</AltitudeMeters>
            <DistanceMeters>6579.6181631301</DistanceMeters>
          </Trackpoint>
          <Trackpoint>
            <Time>2022-10-08T08:15:04.000Z</Time>
            <Position>
              <LatitudeDegrees>37.2618120722472667694091796875</LatitudeDegrees>
              <LongitudeDegrees>-3.51487331092357635498046875</LongitudeDegrees>
            </Position>
            <AltitudeMeters>1371.5999755859375</AltitudeMeters>
            <DistanceMeters>6581.5091708699</DistanceMeters>
          </Trackpoint>
          <Trackpoint>
            <Time>2022-10-08T08:15:05.000Z</Time>
            <Position>
              <LatitudeDegrees>37.2617983259260654449462890625</LatitudeDegrees>
              <LongitudeDegrees>-3.51486601866781711578369140625</LongitudeDegrees>
            </Position>
            <AltitudeMeters>1371.199951171875</AltitudeMeters>
            <DistanceMeters>6583.1660182494</DistanceMeters>
          </Trackpoint>
          <Trackpoint>
            <Time>2022-10-08T08:15:07.000Z</Time>
            <Position>
              <LatitudeDegrees>37.2617751918733119964599609375</LatitudeDegrees>
              <LongitudeDegrees>-3.51485931314527988433837890625</LongitudeDegrees>
            </Position>
            <AltitudeMeters>1370.199951171875</AltitudeMeters>
            <DistanceMeters>6585.8063248631</DistanceMeters>
          </Trackpoint>
          <Trackpoint>
            <Time>2022-10-08T08:15:09.000Z</Time>
            <Position>
              <LatitudeDegrees>37.2617651335895061492919921875</LatitudeDegrees>
              <LongitudeDegrees>-3.5148644261062145233154296875</LongitudeDegrees>
            </Position>
            <AltitudeMeters>1369.800048828125</AltitudeMeters>
            <DistanceMeters>6587.0158174774</DistanceMeters>
          </Trackpoint>
          <Trackpoint>
            <Time>2022-10-08T08:15:11.000Z</Time>
            <Position>
              <LatitudeDegrees>37.26174543611705303192138671875</LatitudeDegrees>
              <LongitudeDegrees>-3.51486501283943653106689453125</LongitudeDegrees>
            </Position>
            <AltitudeMeters>1369</AltitudeMeters>
            <DistanceMeters>6589.2076205407</DistanceMeters>
          </Trackpoint>
          <Trackpoint>
            <Time>2022-10-08T08:15:13.000Z</Time>
            <Position>
              <LatitudeDegrees>37.2617205418646335601806640625</LatitudeDegrees>
              <LongitudeDegrees>-3.51487062871456146240234375</LongitudeDegrees>
            </Position>
            <AltitudeMeters>1368.199951171875</AltitudeMeters>
            <DistanceMeters>6592.0201544453</DistanceMeters>
          </Trackpoint>
          <Trackpoint>
            <Time>2022-10-08T08:15:14.000Z</Time>
            <Position>
              <LatitudeDegrees>37.261703945696353912353515625</LatitudeDegrees>
              <LongitudeDegrees>-3.51487473584711551666259765625</LongitudeDegrees>
            </Position>
            <AltitudeMeters>1367.5999755859375</AltitudeMeters>
            <DistanceMeters>6593.9039856592</DistanceMeters>
          </Trackpoint>
          <Trackpoint>
            <Time>2022-10-08T08:15:15.000Z</Time>
            <Position>
              <LatitudeDegrees>37.261689864099025726318359375</LatitudeDegrees>
              <LongitudeDegrees>-3.51487733423709869384765625</LongitudeDegrees>
            </Position>
            <AltitudeMeters>1367</AltitudeMeters>
            <DistanceMeters>6595.4883976168</DistanceMeters>
          </Trackpoint>
          <Trackpoint>
            <Time>2022-10-08T08:15:16.000Z</Time>
            <Position>
              <LatitudeDegrees>37.26167569868266582489013671875</LatitudeDegrees>
              <LongitudeDegrees>-3.5148768313229084014892578125</LongitudeDegrees>
            </Position>
            <AltitudeMeters>1366.4000244140625</AltitudeMeters>
            <DistanceMeters>6597.0670999632</DistanceMeters>
          </Trackpoint>
          <Trackpoint>
            <Time>2022-10-08T08:15:18.000Z</Time>
            <Position>
              <LatitudeDegrees>37.2616459429264068603515625</LatitudeDegrees>
              <LongitudeDegrees>-3.51487255655229091644287109375</LongitudeDegrees>
            </Position>
            <AltitudeMeters>1365.199951171875</AltitudeMeters>
            <DistanceMeters>6600.4011701638</DistanceMeters>
          </Trackpoint>
          <Trackpoint>
            <Time>2022-10-08T08:15:21.000Z</Time>
            <Position>
              <LatitudeDegrees>37.261605374515056610107421875</LatitudeDegrees>
              <LongitudeDegrees>-3.51485730148851871490478515625</LongitudeDegrees>
            </Position>
            <AltitudeMeters>1363.800048828125</AltitudeMeters>
            <DistanceMeters>6605.1143419252</DistanceMeters>
          </Trackpoint>
          <Trackpoint>
            <Time>2022-10-08T08:15:22.000Z</Time>
            <Position>
              <LatitudeDegrees>37.26158483885228633880615234375</LatitudeDegrees>
              <LongitudeDegrees>-3.5148557089269161224365234375</LongitudeDegrees>
            </Position>
            <AltitudeMeters>1363.5999755859375</AltitudeMeters>
            <DistanceMeters>6607.4028882624</DistanceMeters>
          </Trackpoint>
          <Trackpoint>
            <Time>2022-10-08T08:15:24.000Z</Time>
            <Position>
              <LatitudeDegrees>37.26154066622257232666015625</LatitudeDegrees>
              <LongitudeDegrees>-3.514848835766315460205078125</LongitudeDegrees>
            </Position>
            <AltitudeMeters>1362.5999755859375</AltitudeMeters>
            <DistanceMeters>6612.3570529523</DistanceMeters>
          </Trackpoint>
          <Trackpoint>
            <Time>2022-10-08T08:15:26.000Z</Time>
            <Position>
              <LatitudeDegrees>37.26150873117148876190185546875</LatitudeDegrees>
              <LongitudeDegrees>-3.5148191638290882110595703125</LongitudeDegrees>
            </Position>
            <AltitudeMeters>1362</AltitudeMeters>
            <DistanceMeters>6616.777582946</DistanceMeters>
          </Trackpoint>
          <Trackpoint>
            <Time>2022-10-08T08:15:27.000Z</Time>
            <Position>
              <LatitudeDegrees>37.2615046240389347076416015625</LatitudeDegrees>
              <LongitudeDegrees>-3.51478722877800464630126953125</LongitudeDegrees>
            </Position>
            <AltitudeMeters>1361.4000244140625</AltitudeMeters>
            <DistanceMeters>6619.6426029263</DistanceMeters>
          </Trackpoint>
          <Trackpoint>
            <Time>2022-10-08T08:15:28.000Z</Time>
            <Position>
              <LatitudeDegrees>37.26150839589536190032958984375</LatitudeDegrees>
              <LongitudeDegrees>-3.51476459763944149017333984375</LongitudeDegrees>
            </Position>
            <AltitudeMeters>1361</AltitudeMeters>
            <DistanceMeters>6621.6895409981</DistanceMeters>
          </Trackpoint>
          <Trackpoint>
            <Time>2022-10-08T08:15:31.000Z</Time>
            <Position>
              <LatitudeDegrees>37.2615217231214046478271484375</LatitudeDegrees>
              <LongitudeDegrees>-3.51469201035797595977783203125</LongitudeDegrees>
            </Position>
            <AltitudeMeters>1360.199951171875</AltitudeMeters>
            <DistanceMeters>6628.2882551617</DistanceMeters>
          </Trackpoint>
          <Trackpoint>
            <Time>2022-10-08T08:15:32.000Z</Time>
            <Position>
              <LatitudeDegrees>37.261526249349117279052734375</LatitudeDegrees>
              <LongitudeDegrees>-3.5146662779152393341064453125</LongitudeDegrees>
            </Position>
            <AltitudeMeters>1359.800048828125</AltitudeMeters>
            <DistanceMeters>6630.619801005</DistanceMeters>
          </Trackpoint>
          <Trackpoint>
            <Time>2022-10-08T08:15:35.000Z</Time>
            <Position>
              <LatitudeDegrees>37.2615351341664791107177734375</LatitudeDegrees>
              <LongitudeDegrees>-3.514589332044124603271484375</LongitudeDegrees>
            </Position>
            <AltitudeMeters>1359</AltitudeMeters>
            <DistanceMeters>6637.5064519678</DistanceMeters>
          </Trackpoint>
          <Trackpoint>
            <Time>2022-10-08T08:15:37.000Z</Time>
            <Position>
              <LatitudeDegrees>37.2615354694426059722900390625</LatitudeDegrees>
              <LongitudeDegrees>-3.51455136202275753021240234375</LongitudeDegrees>
            </Position>
            <AltitudeMeters>1358.800048828125</AltitudeMeters>
            <DistanceMeters>6640.8688403611</DistanceMeters>
          </Trackpoint>
          <Trackpoint>
            <Time>2022-10-08T08:15:38.000Z</Time>
            <Position>
              <LatitudeDegrees>37.2615354694426059722900390625</LatitudeDegrees>
              <LongitudeDegrees>-3.51453342474997043609619140625</LongitudeDegrees>
            </Position>
            <AltitudeMeters>1358.800048828125</AltitudeMeters>
            <DistanceMeters>6642.4560994225</DistanceMeters>
          </Trackpoint>
          <Trackpoint>
            <Time>2022-10-08T08:15:42.000Z</Time>
            <Position>
              <LatitudeDegrees>37.2615612857043743133544921875</LatitudeDegrees>
              <LongitudeDegrees>-3.51442781277000904083251953125</LongitudeDegrees>
            </Position>
            <AltitudeMeters>1357.800048828125</AltitudeMeters>
            <DistanceMeters>6652.2429283697</DistanceMeters>
          </Trackpoint>
          <Trackpoint>
            <Time>2022-10-08T08:15:45.000Z</Time>
            <Position>
              <LatitudeDegrees>37.2615472041070461273193359375</LatitudeDegrees>
              <LongitudeDegrees>-3.5142917744815349578857421875</LongitudeDegrees>
            </Position>
            <AltitudeMeters>1357.5999755859375</AltitudeMeters>
            <DistanceMeters>6664.3952067636</DistanceMeters>
          </Trackpoint>
          <Trackpoint>
            <Time>2022-10-08T08:15:49.000Z</Time>
            <Position>
              <LatitudeDegrees>37.261546365916728973388671875</LatitudeDegrees>
              <LongitudeDegrees>-3.5141583345830440521240234375</LongitudeDegrees>
            </Position>
            <AltitudeMeters>1356.5999755859375</AltitudeMeters>
            <DistanceMeters>6676.2160105812</DistanceMeters>
          </Trackpoint>
          <Trackpoint>
            <Time>2022-10-08T08:15:50.000Z</Time>
            <Position>
              <LatitudeDegrees>37.2615404985845088958740234375</LatitudeDegrees>
              <LongitudeDegrees>-3.5141372121870517730712890625</LongitudeDegrees>
            </Position>
            <AltitudeMeters>1356.5999755859375</AltitudeMeters>
            <DistanceMeters>6678.2002266303</DistanceMeters>
          </Trackpoint>
          <Trackpoint>
            <Time>2022-10-08T08:15:52.000Z</Time>
            <Position>
              <LatitudeDegrees>37.261544354259967803955078125</LatitudeDegrees>
              <LongitudeDegrees>-3.51410108618438243865966796875</LongitudeDegrees>
            </Position>
            <AltitudeMeters>1356.199951171875</AltitudeMeters>
            <DistanceMeters>6681.4297371649</DistanceMeters>
          </Trackpoint>
          <Trackpoint>
            <Time>2022-10-08T08:15:54.000Z</Time>
            <Position>
              <LatitudeDegrees>37.26155064068734645843505859375</LatitudeDegrees>
              <LongitudeDegrees>-3.51403621025383472442626953125</LongitudeDegrees>
            </Position>
            <AltitudeMeters>1355.5999755859375</AltitudeMeters>
            <DistanceMeters>6687.2185724263</DistanceMeters>
          </Trackpoint>
          <Trackpoint>
            <Time>2022-10-08T08:15:57.000Z</Time>
            <Position>
              <LatitudeDegrees>37.26155969314277172088623046875</LatitudeDegrees>
              <LongitudeDegrees>-3.5139833204448223114013671875</LongitudeDegrees>
            </Position>
            <AltitudeMeters>1354.800048828125</AltitudeMeters>
            <DistanceMeters>6692.0115375287</DistanceMeters>
          </Trackpoint>
          <Trackpoint>
            <Time>2022-10-08T08:15:58.000Z</Time>
            <Position>
              <LatitudeDegrees>37.261557765305042266845703125</LatitudeDegrees>
              <LongitudeDegrees>-3.51396379061043262481689453125</LongitudeDegrees>
            </Position>
            <AltitudeMeters>1354.4000244140625</AltitudeMeters>
            <DistanceMeters>6693.7534059753</DistanceMeters>
          </Trackpoint>
          <Trackpoint>
            <Time>2022-10-08T08:16:03.000Z</Time>
            <Position>
              <LatitudeDegrees>37.26157058961689472198486328125</LatitudeDegrees>
              <LongitudeDegrees>-3.51382381282746791839599609375</LongitudeDegrees>
            </Position>
            <AltitudeMeters>1353.199951171875</AltitudeMeters>
            <DistanceMeters>6706.2348673806</DistanceMeters>
          </Trackpoint>
          <Trackpoint>
            <Time>2022-10-08T08:16:04.000Z</Time>
            <Position>
              <LatitudeDegrees>37.261565141379833221435546875</LatitudeDegrees>
              <LongitudeDegrees>-3.5137888602912425994873046875</LongitudeDegrees>
            </Position>
            <AltitudeMeters>1353</AltitudeMeters>
            <DistanceMeters>6709.3894108089</DistanceMeters>
          </Trackpoint>
          <Trackpoint>
            <Time>2022-10-08T08:16:07.000Z</Time>
            <Position>
              <LatitudeDegrees>37.26156740449368953704833984375</LatitudeDegrees>
              <LongitudeDegrees>-3.5137110762298107147216796875</LongitudeDegrees>
            </Position>
            <AltitudeMeters>1352.199951171875</AltitudeMeters>
            <DistanceMeters>6716.283924744</DistanceMeters>
          </Trackpoint>
          <Trackpoint>
            <Time>2022-10-08T08:16:09.000Z</Time>
            <Position>
              <LatitudeDegrees>37.26157042197883129119873046875</LatitudeDegrees>
              <LongitudeDegrees>-3.5136688314378261566162109375</LongitudeDegrees>
            </Position>
            <AltitudeMeters>1351.800048828125</AltitudeMeters>
            <DistanceMeters>6720.0419880163</DistanceMeters>
          </Trackpoint>
          <Trackpoint>
            <Time>2022-10-08T08:16:11.000Z</Time>
            <Position>
              <LatitudeDegrees>37.26156321354210376739501953125</LatitudeDegrees>
              <LongitudeDegrees>-3.51362734101712703704833984375</LongitudeDegrees>
            </Position>
            <AltitudeMeters>1351</AltitudeMeters>
            <DistanceMeters>6723.8048539272</DistanceMeters>
          </Trackpoint>
          <Trackpoint>
            <Time>2022-10-08T08:16:13.000Z</Time>
            <Position>
              <LatitudeDegrees>37.26155499927699565887451171875</LatitudeDegrees>
              <LongitudeDegrees>-3.51357621140778064727783203125</LongitudeDegrees>
            </Position>
            <AltitudeMeters>1350.4000244140625</AltitudeMeters>
            <DistanceMeters>6728.425146203</DistanceMeters>
          </Trackpoint>
          <Trackpoint>
            <Time>2022-10-08T08:16:14.000Z</Time>
            <Position>
              <LatitudeDegrees>37.2615606151521205902099609375</LatitudeDegrees>
              <LongitudeDegrees>-3.513562045991420745849609375</LongitudeDegrees>
            </Position>
            <AltitudeMeters>1350</AltitudeMeters>
            <DistanceMeters>6729.8249771172</DistanceMeters>
          </Trackpoint>
          <Trackpoint>
            <Time>2022-10-08T08:16:15.000Z</Time>
            <Position>
              <LatitudeDegrees>37.26157327182590961456298828125</LatitudeDegrees>
              <LongitudeDegrees>-3.51354218088090419769287109375</LongitudeDegrees>
            </Position>
            <AltitudeMeters>1349.800048828125</AltitudeMeters>
            <DistanceMeters>6732.079734984</DistanceMeters>
          </Trackpoint>
          <Trackpoint>
            <Time>2022-10-08T08:16:16.000Z</Time>
            <Position>
              <LatitudeDegrees>37.26157746277749538421630859375</LatitudeDegrees>
              <LongitudeDegrees>-3.51349423639476299285888671875</LongitudeDegrees>
            </Position>
            <AltitudeMeters>1349.4000244140625</AltitudeMeters>
            <DistanceMeters>6736.3527683995</DistanceMeters>
          </Trackpoint>
          <Trackpoint>
            <Time>2022-10-08T08:16:18.000Z</Time>
            <Position>
              <LatitudeDegrees>37.26157796569168567657470703125</LatitudeDegrees>
              <LongitudeDegrees>-3.5134197212755680084228515625</LongitudeDegrees>
            </Position>
            <AltitudeMeters>1348.5999755859375</AltitudeMeters>
            <DistanceMeters>6742.9542189157</DistanceMeters>
          </Trackpoint>
          <Trackpoint>
            <Time>2022-10-08T08:16:19.000Z</Time>
            <Position>
              <LatitudeDegrees>37.261581905186176300048828125</LatitudeDegrees>
              <LongitudeDegrees>-3.513384349644184112548828125</LongitudeDegrees>
            </Position>
            <AltitudeMeters>1348.199951171875</AltitudeMeters>
            <DistanceMeters>6746.1173383728</DistanceMeters>
          </Trackpoint>
          <Trackpoint>
            <Time>2022-10-08T08:16:21.000Z</Time>
            <Position>
              <LatitudeDegrees>37.26158416830003261566162109375</LatitudeDegrees>
              <LongitudeDegrees>-3.51333732716739177703857421875</LongitudeDegrees>
            </Position>
            <AltitudeMeters>1347.4000244140625</AltitudeMeters>
            <DistanceMeters>6750.28986607</DistanceMeters>
          </Trackpoint>
          <Trackpoint>
            <Time>2022-10-08T08:16:25.000Z</Time>
            <Position>
              <LatitudeDegrees>37.26158492267131805419921875</LatitudeDegrees>
              <LongitudeDegrees>-3.5132192261517047882080078125</LongitudeDegrees>
            </Position>
            <AltitudeMeters>1346.4000244140625</AltitudeMeters>
            <DistanceMeters>6760.7518714503</DistanceMeters>
          </Trackpoint>
          <Trackpoint>
            <Time>2022-10-08T08:16:26.000Z</Time>
            <Position>
              <LatitudeDegrees>37.26157947443425655364990234375</LatitudeDegrees>
              <LongitudeDegrees>-3.51317186839878559112548828125</LongitudeDegrees>
            </Position>
            <AltitudeMeters>1346.199951171875</AltitudeMeters>
            <DistanceMeters>6764.9898924563</DistanceMeters>
          </Trackpoint>
          <Trackpoint>
            <Time>2022-10-08T08:16:30.000Z</Time>
            <Position>
              <LatitudeDegrees>37.26158014498651027679443359375</LatitudeDegrees>
              <LongitudeDegrees>-3.51299635134637355804443359375</LongitudeDegrees>
            </Position>
            <AltitudeMeters>1345</AltitudeMeters>
            <DistanceMeters>6780.537726595</DistanceMeters>
          </Trackpoint>
          <Trackpoint>
            <Time>2022-10-08T08:16:33.000Z</Time>
            <Position>
              <LatitudeDegrees>37.26155986078083515167236328125</LatitudeDegrees>
              <LongitudeDegrees>-3.51286592893302440643310546875</LongitudeDegrees>
            </Position>
            <AltitudeMeters>1344</AltitudeMeters>
            <DistanceMeters>6792.3095383973</DistanceMeters>
          </Trackpoint>
          <Trackpoint>
            <Time>2022-10-08T08:16:34.000Z</Time>
            <Position>
              <LatitudeDegrees>37.2615493834018707275390625</LatitudeDegrees>
              <LongitudeDegrees>-3.51284128613770008087158203125</LongitudeDegrees>
            </Position>
            <AltitudeMeters>1343.800048828125</AltitudeMeters>
            <DistanceMeters>6794.7857092124</DistanceMeters>
          </Trackpoint>
          <Trackpoint>
            <Time>2022-10-08T08:16:35.000Z</Time>
            <Position>
              <LatitudeDegrees>37.2615404985845088958740234375</LatitudeDegrees>
              <LongitudeDegrees>-3.51281337440013885498046875</LongitudeDegrees>
            </Position>
            <AltitudeMeters>1343.5999755859375</AltitudeMeters>
            <DistanceMeters>6797.4498488643</DistanceMeters>
          </Trackpoint>
          <Trackpoint>
            <Time>2022-10-08T08:16:38.000Z</Time>
            <Position>
              <LatitudeDegrees>37.26153186522424221038818359375</LatitudeDegrees>
              <LongitudeDegrees>-3.51271354593336582183837890625</LongitudeDegrees>
            </Position>
            <AltitudeMeters>1342.800048828125</AltitudeMeters>
            <DistanceMeters>6806.3448772399</DistanceMeters>
          </Trackpoint>
          <Trackpoint>
            <Time>2022-10-08T08:16:40.000Z</Time>
            <Position>
              <LatitudeDegrees>37.26155466400086879730224609375</LatitudeDegrees>
              <LongitudeDegrees>-3.51262670941650867462158203125</LongitudeDegrees>
            </Position>
            <AltitudeMeters>1342.199951171875</AltitudeMeters>
            <DistanceMeters>6814.4450337471</DistanceMeters>
          </Trackpoint>
          <Trackpoint>
            <Time>2022-10-08T08:16:41.000Z</Time>
            <Position>
              <LatitudeDegrees>37.26156103424727916717529296875</LatitudeDegrees>
              <LongitudeDegrees>-3.51259653456509113311767578125</LongitudeDegrees>
            </Position>
            <AltitudeMeters>1341.199951171875</AltitudeMeters>
            <DistanceMeters>6817.2122534392</DistanceMeters>
          </Trackpoint>
          <Trackpoint>
            <Time>2022-10-08T08:16:44.000Z</Time>
            <Position>
              <LatitudeDegrees>37.2615780495107173919677734375</LatitudeDegrees>
              <LongitudeDegrees>-3.51250492036342620849609375</LongitudeDegrees>
            </Position>
            <AltitudeMeters>1340</AltitudeMeters>
            <DistanceMeters>6825.5459391743</DistanceMeters>
          </Trackpoint>
          <Trackpoint>
            <Time>2022-10-08T08:16:48.000Z</Time>
            <Position>
              <LatitudeDegrees>37.2615757025778293609619140625</LatitudeDegrees>
              <LongitudeDegrees>-3.51235563866794109344482421875</LongitudeDegrees>
            </Position>
            <AltitudeMeters>1338.800048828125</AltitudeMeters>
            <DistanceMeters>6838.7720739412</DistanceMeters>
          </Trackpoint>
          <Trackpoint>
            <Time>2022-10-08T08:16:50.000Z</Time>
            <Position>
              <LatitudeDegrees>37.26159137673676013946533203125</LatitudeDegrees>
              <LongitudeDegrees>-3.51229394786059856414794921875</LongitudeDegrees>
            </Position>
            <AltitudeMeters>1337.800048828125</AltitudeMeters>
            <DistanceMeters>6844.5084141126</DistanceMeters>
          </Trackpoint>
          <Trackpoint>
            <Time>2022-10-08T08:16:51.000Z</Time>
            <Position>
              <LatitudeDegrees>37.26158986799418926239013671875</LatitudeDegrees>
              <LongitudeDegrees>-3.512257151305675506591796875</LongitudeDegrees>
            </Position>
            <AltitudeMeters>1337.4000244140625</AltitudeMeters>
            <DistanceMeters>6847.7726889484</DistanceMeters>
          </Trackpoint>
          <Trackpoint>
            <Time>2022-10-08T08:16:54.000Z</Time>
            <Position>
              <LatitudeDegrees>37.26159573532640933990478515625</LatitudeDegrees>
              <LongitudeDegrees>-3.5121775232255458831787109375</LongitudeDegrees>
            </Position>
            <AltitudeMeters>1337</AltitudeMeters>
            <DistanceMeters>6854.8571201094</DistanceMeters>
          </Trackpoint>
          <Trackpoint>
            <Time>2022-10-08T08:16:55.000Z</Time>
            <Position>
              <LatitudeDegrees>37.261605374515056610107421875</LatitudeDegrees>
              <LongitudeDegrees>-3.5121614299714565277099609375</LongitudeDegrees>
            </Position>
            <AltitudeMeters>1337</AltitudeMeters>
            <DistanceMeters>6856.6399793042</DistanceMeters>
          </Trackpoint>
          <Trackpoint>
            <Time>2022-10-08T08:16:56.000Z</Time>
            <Position>
              <LatitudeDegrees>37.26162792183458805084228515625</LatitudeDegrees>
              <LongitudeDegrees>-3.51214223541319370269775390625</LongitudeDegrees>
            </Position>
            <AltitudeMeters>1336.800048828125</AltitudeMeters>
            <DistanceMeters>6859.6719123212</DistanceMeters>
          </Trackpoint>
          <Trackpoint>
            <Time>2022-10-08T08:16:58.000Z</Time>
            <Position>
              <LatitudeDegrees>37.2616652213037014007568359375</LatitudeDegrees>
              <LongitudeDegrees>-3.5121081210672855377197265625</LongitudeDegrees>
            </Position>
            <AltitudeMeters>1336</AltitudeMeters>
            <DistanceMeters>6864.8086314462</DistanceMeters>
          </Trackpoint>
          <Trackpoint>
            <Time>2022-10-08T08:16:59.000Z</Time>
            <Position>
              <LatitudeDegrees>37.261673770844936370849609375</LatitudeDegrees>
              <LongitudeDegrees>-3.512101583182811737060546875</LongitudeDegrees>
            </Position>
            <AltitudeMeters>1335.199951171875</AltitudeMeters>
            <DistanceMeters>6865.9249425809</DistanceMeters>
          </Trackpoint>
          <Trackpoint>
            <Time>2022-10-08T08:17:00.000Z</Time>
            <Position>
              <LatitudeDegrees>37.26168391294777393341064453125</LatitudeDegrees>
              <LongitudeDegrees>-3.51210166700184345245361328125</LongitudeDegrees>
            </Position>
            <AltitudeMeters>1334.5999755859375</AltitudeMeters>
            <DistanceMeters>6867.0573165717</DistanceMeters>
          </Trackpoint>
          <Trackpoint>
            <Time>2022-10-08T08:17:02.000Z</Time>
            <Position>
              <LatitudeDegrees>37.26171274669468402862548828125</LatitudeDegrees>
              <LongitudeDegrees>-3.51210837252438068389892578125</LongitudeDegrees>
            </Position>
            <AltitudeMeters>1333.4000244140625</AltitudeMeters>
            <DistanceMeters>6870.3215914075</DistanceMeters>
          </Trackpoint>
          <Trackpoint>
            <Time>2022-10-08T08:17:03.000Z</Time>
            <Position>
              <LatitudeDegrees>37.2617232240736484527587890625</LatitudeDegrees>
              <LongitudeDegrees>-3.5120938718318939208984375</LongitudeDegrees>
            </Position>
            <AltitudeMeters>1333.199951171875</AltitudeMeters>
            <DistanceMeters>6872.0530605465</DistanceMeters>
          </Trackpoint>
          <Trackpoint>
            <Time>2022-10-08T08:17:05.000Z</Time>
            <Position>
              <LatitudeDegrees>37.261743843555450439453125</LatitudeDegrees>
              <LongitudeDegrees>-3.51206495426595211029052734375</LongitudeDegrees>
            </Position>
            <AltitudeMeters>1332.4000244140625</AltitudeMeters>
            <DistanceMeters>6875.4924500478</DistanceMeters>
          </Trackpoint>
          <Trackpoint>
            <Time>2022-10-08T08:17:06.000Z</Time>
            <Position>
              <LatitudeDegrees>37.26175599731504917144775390625</LatitudeDegrees>
              <LongitudeDegrees>-3.5120514594018459320068359375</LongitudeDegrees>
            </Position>
            <AltitudeMeters>1331.5999755859375</AltitudeMeters>
            <DistanceMeters>6877.2979576208</DistanceMeters>
          </Trackpoint>
          <Trackpoint>
            <Time>2022-10-08T08:17:07.000Z</Time>
            <Position>
              <LatitudeDegrees>37.26176823489367961883544921875</LatitudeDegrees>
              <LongitudeDegrees>-3.51203687489032745361328125</LongitudeDegrees>
            </Position>
            <AltitudeMeters>1331</AltitudeMeters>
            <DistanceMeters>6879.1745848649</DistanceMeters>
          </Trackpoint>
          <Trackpoint>
            <Time>2022-10-08T08:17:08.000Z</Time>
            <Position>
              <LatitudeDegrees>37.26177225820720195770263671875</LatitudeDegrees>
              <LongitudeDegrees>-3.512025810778141021728515625</LongitudeDegrees>
            </Position>
            <AltitudeMeters>1330.800048828125</AltitudeMeters>
            <DistanceMeters>6880.2496894109</DistanceMeters>
          </Trackpoint>
          <Trackpoint>
            <Time>2022-10-08T08:17:10.000Z</Time>
            <Position>
              <LatitudeDegrees>37.26179321296513080596923828125</LatitudeDegrees>
              <LongitudeDegrees>-3.5120058618485927581787109375</LongitudeDegrees>
            </Position>
            <AltitudeMeters>1330.199951171875</AltitudeMeters>
            <DistanceMeters>6883.1770675117</DistanceMeters>
          </Trackpoint>
          <Trackpoint>
            <Time>2022-10-08T08:17:11.000Z</Time>
            <Position>
              <LatitudeDegrees>37.261803857982158660888671875</LatitudeDegrees>
              <LongitudeDegrees>-3.5119877569377422332763671875</LongitudeDegrees>
            </Position>
            <AltitudeMeters>1330</AltitudeMeters>
            <DistanceMeters>6885.1748897732</DistanceMeters>
          </Trackpoint>
          <Trackpoint>
            <Time>2022-10-08T08:17:13.000Z</Time>
            <Position>
              <LatitudeDegrees>37.261823974549770355224609375</LatitudeDegrees>
              <LongitudeDegrees>-3.5119636170566082000732421875</LongitudeDegrees>
            </Position>
            <AltitudeMeters>1328.5999755859375</AltitudeMeters>
            <DistanceMeters>6888.2716527902</DistanceMeters>
          </Trackpoint>
          <Trackpoint>
            <Time>2022-10-08T08:17:14.000Z</Time>
            <Position>
              <LatitudeDegrees>37.26182875223457813262939453125</LatitudeDegrees>
              <LongitudeDegrees>-3.51195313967764377593994140625</LongitudeDegrees>
            </Position>
            <AltitudeMeters>1328.199951171875</AltitudeMeters>
            <DistanceMeters>6889.3467573362</DistanceMeters>
          </Trackpoint>
          <Trackpoint>
            <Time>2022-10-08T08:17:15.000Z</Time>
            <Position>
              <LatitudeDegrees>37.26183436810970306396484375</LatitudeDegrees>
              <LongitudeDegrees>-3.51193972863256931304931640625</LongitudeDegrees>
            </Position>
            <AltitudeMeters>1328</AltitudeMeters>
            <DistanceMeters>6890.6906380187</DistanceMeters>
          </Trackpoint>
          <Trackpoint>
            <Time>2022-10-08T08:17:17.000Z</Time>
            <Position>
              <LatitudeDegrees>37.2618496231734752655029296875</LatitudeDegrees>
              <LongitudeDegrees>-3.5119166783988475799560546875</LongitudeDegrees>
            </Position>
            <AltitudeMeters>1327.5999755859375</AltitudeMeters>
            <DistanceMeters>6893.3462904249</DistanceMeters>
          </Trackpoint>
          <Trackpoint>
            <Time>2022-10-08T08:17:20.000Z</Time>
            <Position>
              <LatitudeDegrees>37.26186747662723064422607421875</LatitudeDegrees>
              <LongitudeDegrees>-3.51187602616846561431884765625</LongitudeDegrees>
            </Position>
            <AltitudeMeters>1326.4000244140625</AltitudeMeters>
            <DistanceMeters>6897.4599704387</DistanceMeters>
          </Trackpoint>
          <Trackpoint>
            <Time>2022-10-08T08:17:21.000Z</Time>
            <Position>
              <LatitudeDegrees>37.26186747662723064422607421875</LatitudeDegrees>
              <LongitudeDegrees>-3.5118586756289005279541015625</LongitudeDegrees>
            </Position>
            <AltitudeMeters>1326</AltitudeMeters>
            <DistanceMeters>6899.0010447733</DistanceMeters>
          </Trackpoint>
          <Trackpoint>
            <Time>2022-10-08T08:17:22.000Z</Time>
            <Position>
              <LatitudeDegrees>37.26186831481754779815673828125</LatitudeDegrees>
              <LongitudeDegrees>-3.511846773326396942138671875</LongitudeDegrees>
            </Position>
            <AltitudeMeters>1325.4000244140625</AltitudeMeters>
            <DistanceMeters>6900.0592174809</DistanceMeters>
          </Trackpoint>
          <Trackpoint>
            <Time>2022-10-08T08:17:23.000Z</Time>
            <Position>
              <LatitudeDegrees>37.261869572103023529052734375</LatitudeDegrees>
              <LongitudeDegrees>-3.51182288490235805511474609375</LongitudeDegrees>
            </Position>
            <AltitudeMeters>1325.199951171875</AltitudeMeters>
            <DistanceMeters>6902.1798254289</DistanceMeters>
          </Trackpoint>
          <Trackpoint>
            <Time>2022-10-08T08:17:27.000Z</Time>
            <Position>
              <LatitudeDegrees>37.26190402172505855560302734375</LatitudeDegrees>
              <LongitudeDegrees>-3.51175767369568347930908203125</LongitudeDegrees>
            </Position>
            <AltitudeMeters>1323.5999755859375</AltitudeMeters>
            <DistanceMeters>6909.1135204746</DistanceMeters>
          </Trackpoint>
          <Trackpoint>
            <Time>2022-10-08T08:17:28.000Z</Time>
            <Position>
              <LatitudeDegrees>37.2619133256375789642333984375</LatitudeDegrees>
              <LongitudeDegrees>-3.51174627430737018585205078125</LongitudeDegrees>
            </Position>
            <AltitudeMeters>1323.199951171875</AltitudeMeters>
            <DistanceMeters>6910.5609242659</DistanceMeters>
          </Trackpoint>
          <Trackpoint>
            <Time>2022-10-08T08:17:30.000Z</Time>
            <Position>
              <LatitudeDegrees>37.2619409859180450439453125</LatitudeDegrees>
              <LongitudeDegrees>-3.5117218829691410064697265625</LongitudeDegrees>
            </Position>
            <AltitudeMeters>1322.5999755859375</AltitudeMeters>
            <DistanceMeters>6914.3213896242</DistanceMeters>
          </Trackpoint>
          <Trackpoint>
            <Time>2022-10-08T08:17:33.000Z</Time>
            <Position>
              <LatitudeDegrees>37.26197677664458751678466796875</LatitudeDegrees>
              <LongitudeDegrees>-3.51169346831738948822021484375</LongitudeDegrees>
            </Position>
            <AltitudeMeters>1321.4000244140625</AltitudeMeters>
            <DistanceMeters>6919.0345613856</DistanceMeters>
          </Trackpoint>
          <Trackpoint>
            <Time>2022-10-08T08:17:34.000Z</Time>
            <Position>
              <LatitudeDegrees>37.2619890980422496795654296875</LatitudeDegrees>
              <LongitudeDegrees>-3.51167452521622180938720703125</LongitudeDegrees>
            </Position>
            <AltitudeMeters>1321</AltitudeMeters>
            <DistanceMeters>6921.2015038747</DistanceMeters>
          </Trackpoint>
          <Trackpoint>
            <Time>2022-10-08T08:17:35.000Z</Time>
            <Position>
              <LatitudeDegrees>37.261996977031230926513671875</LatitudeDegrees>
              <LongitudeDegrees>-3.5116571746766567230224609375</LongitudeDegrees>
            </Position>
            <AltitudeMeters>1320.5999755859375</AltitudeMeters>
            <DistanceMeters>6922.9716554292</DistanceMeters>
          </Trackpoint>
          <Trackpoint>
            <Time>2022-10-08T08:17:36.000Z</Time>
            <Position>
              <LatitudeDegrees>37.26200259290635585784912109375</LatitudeDegrees>
              <LongitudeDegrees>-3.5116400755941867828369140625</LongitudeDegrees>
            </Position>
            <AltitudeMeters>1320.199951171875</AltitudeMeters>
            <DistanceMeters>6924.6093161706</DistanceMeters>
          </Trackpoint>
          <Trackpoint>
            <Time>2022-10-08T08:17:38.000Z</Time>
            <Position>
              <LatitudeDegrees>37.2620125673711299896240234375</LatitudeDegrees>
              <LongitudeDegrees>-3.5115985013544559478759765625</LongitudeDegrees>
            </Position>
            <AltitudeMeters>1319.5999755859375</AltitudeMeters>
            <DistanceMeters>6928.4552575658</DistanceMeters>
          </Trackpoint>
          <Trackpoint>
            <Time>2022-10-08T08:17:40.000Z</Time>
            <Position>
              <LatitudeDegrees>37.262038886547088623046875</LatitudeDegrees>
              <LongitudeDegrees>-3.51155784912407398223876953125</LongitudeDegrees>
            </Position>
            <AltitudeMeters>1319.199951171875</AltitudeMeters>
            <DistanceMeters>6933.0969988764</DistanceMeters>
          </Trackpoint>
          <Trackpoint>
            <Time>2022-10-08T08:17:41.000Z</Time>
            <Position>
              <LatitudeDegrees>37.26205623708665370941162109375</LatitudeDegrees>
              <LongitudeDegrees>-3.5115465335547924041748046875</LongitudeDegrees>
            </Position>
            <AltitudeMeters>1318.5999755859375</AltitudeMeters>
            <DistanceMeters>6935.2722597934</DistanceMeters>
          </Trackpoint>
          <Trackpoint>
            <Time>2022-10-08T08:17:44.000Z</Time>
            <Position>
              <LatitudeDegrees>37.26209932006895542144775390625</LatitudeDegrees>
              <LongitudeDegrees>-3.511518202722072601318359375</LongitudeDegrees>
            </Position>
            <AltitudeMeters>1317.5999755859375</AltitudeMeters>
            <DistanceMeters>6940.6837787952</DistanceMeters>
          </Trackpoint>
          <Trackpoint>
            <Time>2022-10-08T08:17:47.000Z</Time>
            <Position>
              <LatitudeDegrees>37.26212278939783573150634765625</LatitudeDegrees>
              <LongitudeDegrees>-3.511486016213893890380859375</LongitudeDegrees>
            </Position>
            <AltitudeMeters>1316.800048828125</AltitudeMeters>
            <DistanceMeters>6944.5507939997</DistanceMeters>
          </Trackpoint>
          <Trackpoint>
            <Time>2022-10-08T08:17:49.000Z</Time>
            <Position>
              <LatitudeDegrees>37.2621627710759639739990234375</LatitudeDegrees>
              <LongitudeDegrees>-3.51145424880087375640869140625</LongitudeDegrees>
            </Position>
            <AltitudeMeters>1316.4000244140625</AltitudeMeters>
            <DistanceMeters>6949.8159943456</DistanceMeters>
          </Trackpoint>
          <Trackpoint>
            <Time>2022-10-08T08:17:50.000Z</Time>
            <Position>
              <LatitudeDegrees>37.2621781937777996063232421875</LatitudeDegrees>
              <LongitudeDegrees>-3.51143865846097469329833984375</LongitudeDegrees>
            </Position>
            <AltitudeMeters>1316.199951171875</AltitudeMeters>
            <DistanceMeters>6952.0201225467</DistanceMeters>
          </Trackpoint>
          <Trackpoint>
            <Time>2022-10-08T08:17:52.000Z</Time>
            <Position>
              <LatitudeDegrees>37.26220426149666309356689453125</LatitudeDegrees>
              <LongitudeDegrees>-3.5114151053130626678466796875</LongitudeDegrees>
            </Position>
            <AltitudeMeters>1315</AltitudeMeters>
            <DistanceMeters>6955.5934302709</DistanceMeters>
          </Trackpoint>
          <Trackpoint>
            <Time>2022-10-08T08:17:53.000Z</Time>
            <Position>
              <LatitudeDegrees>37.2622306644916534423828125</LatitudeDegrees>
              <LongitudeDegrees>-3.5114027000963687896728515625</LongitudeDegrees>
            </Position>
            <AltitudeMeters>1314.5999755859375</AltitudeMeters>
            <DistanceMeters>6958.7307513134</DistanceMeters>
          </Trackpoint>
          <Trackpoint>
            <Time>2022-10-08T08:17:55.000Z</Time>
            <Position>
              <LatitudeDegrees>37.262271232903003692626953125</LatitudeDegrees>
              <LongitudeDegrees>-3.51135919801890850067138671875</LongitudeDegrees>
            </Position>
            <AltitudeMeters>1313.800048828125</AltitudeMeters>
            <DistanceMeters>6964.6659284976</DistanceMeters>
          </Trackpoint>
          <Trackpoint>
            <Time>2022-10-08T08:17:58.000Z</Time>
            <Position>
              <LatitudeDegrees>37.26227416656911373138427734375</LatitudeDegrees>
              <LongitudeDegrees>-3.51128987967967987060546875</LongitudeDegrees>
            </Position>
            <AltitudeMeters>1312.5999755859375</AltitudeMeters>
            <DistanceMeters>6970.8140908242</DistanceMeters>
          </Trackpoint>
          <Trackpoint>
            <Time>2022-10-08T08:17:59.000Z</Time>
            <Position>
              <LatitudeDegrees>37.26228003390133380889892578125</LatitudeDegrees>
              <LongitudeDegrees>-3.5112712718546390533447265625</LongitudeDegrees>
            </Position>
            <AltitudeMeters>1312.199951171875</AltitudeMeters>
            <DistanceMeters>6972.5867911944</DistanceMeters>
          </Trackpoint>
          <Trackpoint>
            <Time>2022-10-08T08:18:02.000Z</Time>
            <Position>
              <LatitudeDegrees>37.2623089514672756195068359375</LatitudeDegrees>
              <LongitudeDegrees>-3.51122123189270496368408203125</LongitudeDegrees>
            </Position>
            <AltitudeMeters>1311.199951171875</AltitudeMeters>
            <DistanceMeters>6978.0654748045</DistanceMeters>
          </Trackpoint>
          <Trackpoint>
            <Time>2022-10-08T08:18:04.000Z</Time>
            <Position>
              <LatitudeDegrees>37.26233736611902713775634765625</LatitudeDegrees>
              <LongitudeDegrees>-3.511195667088031768798828125</LongitudeDegrees>
            </Position>
            <AltitudeMeters>1310</AltitudeMeters>
            <DistanceMeters>6981.9557714668</DistanceMeters>
          </Trackpoint>
          <Trackpoint>
            <Time>2022-10-08T08:18:06.000Z</Time>
            <Position>
              <LatitudeDegrees>37.26235211826860904693603515625</LatitudeDegrees>
              <LongitudeDegrees>-3.511176891624927520751953125</LongitudeDegrees>
            </Position>
            <AltitudeMeters>1309</AltitudeMeters>
            <DistanceMeters>6984.295050485</DistanceMeters>
          </Trackpoint>
          <Trackpoint>
            <Time>2022-10-08T08:18:08.000Z</Time>
            <Position>
              <LatitudeDegrees>37.26237609051167964935302734375</LatitudeDegrees>
              <LongitudeDegrees>-3.5111569426953792572021484375</LongitudeDegrees>
            </Position>
            <AltitudeMeters>1307.800048828125</AltitudeMeters>
            <DistanceMeters>6987.4950671548</DistanceMeters>
          </Trackpoint>
          <Trackpoint>
            <Time>2022-10-08T08:18:10.000Z</Time>
            <Position>
              <LatitudeDegrees>37.26239469833672046661376953125</LatitudeDegrees>
              <LongitudeDegrees>-3.511142693459987640380859375</LongitudeDegrees>
            </Position>
            <AltitudeMeters>1307</AltitudeMeters>
            <DistanceMeters>6989.9215069009</DistanceMeters>
          </Trackpoint>
          <Trackpoint>
            <Time>2022-10-08T08:18:12.000Z</Time>
            <Position>
              <LatitudeDegrees>37.262403666973114013671875</LatitudeDegrees>
              <LongitudeDegrees>-3.511113189160823822021484375</LongitudeDegrees>
            </Position>
            <AltitudeMeters>1306</AltitudeMeters>
            <DistanceMeters>6992.7179414524</DistanceMeters>
          </Trackpoint>
          <Trackpoint>
            <Time>2022-10-08T08:18:15.000Z</Time>
            <Position>
              <LatitudeDegrees>37.26241515018045902252197265625</LatitudeDegrees>
              <LongitudeDegrees>-3.51105392910540103912353515625</LongitudeDegrees>
            </Position>
            <AltitudeMeters>1304.800048828125</AltitudeMeters>
            <DistanceMeters>6998.1211106283</DistanceMeters>
          </Trackpoint>
          <Trackpoint>
            <Time>2022-10-08T08:18:17.000Z</Time>
            <Position>
              <LatitudeDegrees>37.26242252625524997711181640625</LatitudeDegrees>
              <LongitudeDegrees>-3.5110208205878734588623046875</LongitudeDegrees>
            </Position>
            <AltitudeMeters>1304</AltitudeMeters>
            <DistanceMeters>7001.1649336243</DistanceMeters>
          </Trackpoint>
          <Trackpoint>
            <Time>2022-10-08T08:18:18.000Z</Time>
            <Position>
              <LatitudeDegrees>37.26242822594940662384033203125</LatitudeDegrees>
              <LongitudeDegrees>-3.51100212894380092620849609375</LongitudeDegrees>
            </Position>
            <AltitudeMeters>1303.4000244140625</AltitudeMeters>
            <DistanceMeters>7002.9350851789</DistanceMeters>
          </Trackpoint>
          <Trackpoint>
            <Time>2022-10-08T08:18:20.000Z</Time>
            <Position>
              <LatitudeDegrees>37.2624346800148487091064453125</LatitudeDegrees>
              <LongitudeDegrees>-3.5109571181237697601318359375</LongitudeDegrees>
            </Position>
            <AltitudeMeters>1302.5999755859375</AltitudeMeters>
            <DistanceMeters>7006.9857207955</DistanceMeters>
          </Trackpoint>
          <Trackpoint>
            <Time>2022-10-08T08:18:21.000Z</Time>
            <Position>
              <LatitudeDegrees>37.2624356858432292938232421875</LatitudeDegrees>
              <LongitudeDegrees>-3.51093524135649204254150390625</LongitudeDegrees>
            </Position>
            <AltitudeMeters>1302</AltitudeMeters>
            <DistanceMeters>7008.9262212148</DistanceMeters>
          </Trackpoint>
          <Trackpoint>
            <Time>2022-10-08T08:18:23.000Z</Time>
            <Position>
              <LatitudeDegrees>37.26243258453905582427978515625</LatitudeDegrees>
              <LongitudeDegrees>-3.51089157164096832275390625</LongitudeDegrees>
            </Position>
            <AltitudeMeters>1300.800048828125</AltitudeMeters>
            <DistanceMeters>7012.8095480953</DistanceMeters>
          </Trackpoint>
          <Trackpoint>
            <Time>2022-10-08T08:18:24.000Z</Time>
            <Position>
              <LatitudeDegrees>37.26243258453905582427978515625</LatitudeDegrees>
              <LongitudeDegrees>-3.51086852140724658966064453125</LongitudeDegrees>
            </Position>
            <AltitudeMeters>1300</AltitudeMeters>
            <DistanceMeters>7014.8520698987</DistanceMeters>
          </Trackpoint>
          <Trackpoint>
            <Time>2022-10-08T08:18:25.000Z</Time>
            <Position>
              <LatitudeDegrees>37.26242872886359691619873046875</LatitudeDegrees>
              <LongitudeDegrees>-3.51084102876484394073486328125</LongitudeDegrees>
            </Position>
            <AltitudeMeters>1299.4000244140625</AltitudeMeters>
            <DistanceMeters>7017.3264166466</DistanceMeters>
          </Trackpoint>
          <Trackpoint>
            <Time>2022-10-08T08:18:27.000Z</Time>
            <Position>
              <LatitudeDegrees>37.26242185570299625396728515625</LatitudeDegrees>
              <LongitudeDegrees>-3.51079635322093963623046875</LongitudeDegrees>
            </Position>
            <AltitudeMeters>1298.5999755859375</AltitudeMeters>
            <DistanceMeters>7021.3580586941</DistanceMeters>
          </Trackpoint>
          <Trackpoint>
            <Time>2022-10-08T08:18:28.000Z</Time>
            <Position>
              <LatitudeDegrees>37.26242369972169399261474609375</LatitudeDegrees>
              <LongitudeDegrees>-3.51077489554882049560546875</LongitudeDegrees>
            </Position>
            <AltitudeMeters>1297.800048828125</AltitudeMeters>
            <DistanceMeters>7023.2727939333</DistanceMeters>
          </Trackpoint>
          <Trackpoint>
            <Time>2022-10-08T08:18:29.000Z</Time>
            <Position>
              <LatitudeDegrees>37.26242579519748687744140625</LatitudeDegrees>
              <LongitudeDegrees>-3.51075268350541591644287109375</LongitudeDegrees>
            </Position>
            <AltitudeMeters>1297.4000244140625</AltitudeMeters>
            <DistanceMeters>7025.2570099824</DistanceMeters>
          </Trackpoint>
          <Trackpoint>
            <Time>2022-10-08T08:18:30.000Z</Time>
            <Position>
              <LatitudeDegrees>37.26242856122553348541259765625</LatitudeDegrees>
              <LongitudeDegrees>-3.51073206402361392974853515625</LongitudeDegrees>
            </Position>
            <AltitudeMeters>1296.800048828125</AltitudeMeters>
            <DistanceMeters>7027.1094216669</DistanceMeters>
          </Trackpoint>
          <Trackpoint>
            <Time>2022-10-08T08:18:31.000Z</Time>
            <Position>
              <LatitudeDegrees>37.2624340094625949859619140625</LatitudeDegrees>
              <LongitudeDegrees>-3.5107098519802093505859375</LongitudeDegrees>
            </Position>
            <AltitudeMeters>1296.4000244140625</AltitudeMeters>
            <DistanceMeters>7029.1695517425</DistanceMeters>
          </Trackpoint>
          <Trackpoint>
            <Time>2022-10-08T08:18:32.000Z</Time>
            <Position>
              <LatitudeDegrees>37.262442894279956817626953125</LatitudeDegrees>
              <LongitudeDegrees>-3.510684706270694732666015625</LongitudeDegrees>
            </Position>
            <AltitudeMeters>1295.5999755859375</AltitudeMeters>
            <DistanceMeters>7031.6034231745</DistanceMeters>
          </Trackpoint>
          <Trackpoint>
            <Time>2022-10-08T08:18:34.000Z</Time>
            <Position>
              <LatitudeDegrees>37.26245136000216007232666015625</LatitudeDegrees>
              <LongitudeDegrees>-3.51064790971577167510986328125</LongitudeDegrees>
            </Position>
            <AltitudeMeters>1294.5999755859375</AltitudeMeters>
            <DistanceMeters>7034.9952246707</DistanceMeters>
          </Trackpoint>
          <Trackpoint>
            <Time>2022-10-08T08:18:35.000Z</Time>
            <Position>
              <LatitudeDegrees>37.26245261728763580322265625</LatitudeDegrees>
              <LongitudeDegrees>-3.51063533686101436614990234375</LongitudeDegrees>
            </Position>
            <AltitudeMeters>1294</AltitudeMeters>
            <DistanceMeters>7036.1195959182</DistanceMeters>
          </Trackpoint>
          <Trackpoint>
            <Time>2022-10-08T08:18:36.000Z</Time>
            <Position>
              <LatitudeDegrees>37.262454964220523834228515625</LatitudeDegrees>
              <LongitudeDegrees>-3.5106181539595127105712890625</LongitudeDegrees>
            </Position>
            <AltitudeMeters>1293.199951171875</AltitudeMeters>
            <DistanceMeters>7037.6665187532</DistanceMeters>
          </Trackpoint>
          <Trackpoint>
            <Time>2022-10-08T08:18:38.000Z</Time>
            <Position>
              <LatitudeDegrees>37.2624551318585872650146484375</LatitudeDegrees>
              <LongitudeDegrees>-3.51058588363230228424072265625</LongitudeDegrees>
            </Position>
            <AltitudeMeters>1292</AltitudeMeters>
            <DistanceMeters>7040.5252281092</DistanceMeters>
          </Trackpoint>
          <Trackpoint>
            <Time>2022-10-08T08:18:39.000Z</Time>
            <Position>
              <LatitudeDegrees>37.26245890371501445770263671875</LatitudeDegrees>
              <LongitudeDegrees>-3.51056559942662715911865234375</LongitudeDegrees>
            </Position>
            <AltitudeMeters>1291.5999755859375</AltitudeMeters>
            <DistanceMeters>7042.3703131531</DistanceMeters>
          </Trackpoint>
          <Trackpoint>
            <Time>2022-10-08T08:18:40.000Z</Time>
            <Position>
              <LatitudeDegrees>37.262460328638553619384765625</LatitudeDegrees>
              <LongitudeDegrees>-3.51054548285901546478271484375</LongitudeDegrees>
            </Position>
            <AltitudeMeters>1291.199951171875</AltitudeMeters>
            <DistanceMeters>7044.1582301146</DistanceMeters>
          </Trackpoint>
          <Trackpoint>
            <Time>2022-10-08T08:18:41.000Z</Time>
            <Position>
              <LatitudeDegrees>37.2624621726572513580322265625</LatitudeDegrees>
              <LongitudeDegrees>-3.5105259530246257781982421875</LongitudeDegrees>
            </Position>
            <AltitudeMeters>1290.800048828125</AltitudeMeters>
            <DistanceMeters>7045.8975045635</DistanceMeters>
          </Trackpoint>
          <Trackpoint>
            <Time>2022-10-08T08:18:43.000Z</Time>
            <Position>
              <LatitudeDegrees>37.26246963255107402801513671875</LatitudeDegrees>
              <LongitudeDegrees>-3.5104872286319732666015625</LongitudeDegrees>
            </Position>
            <AltitudeMeters>1289.199951171875</AltitudeMeters>
            <DistanceMeters>7049.426311078</DistanceMeters>
          </Trackpoint>
          <Trackpoint>
            <Time>2022-10-08T08:18:45.000Z</Time>
            <Position>
              <LatitudeDegrees>37.26248421706259250640869140625</LatitudeDegrees>
              <LongitudeDegrees>-3.510446660220623016357421875</LongitudeDegrees>
            </Position>
            <AltitudeMeters>1287.800048828125</AltitudeMeters>
            <DistanceMeters>7053.3696334889</DistanceMeters>
          </Trackpoint>
          <Trackpoint>
            <Time>2022-10-08T08:18:46.000Z</Time>
            <Position>
              <LatitudeDegrees>37.26248606108129024505615234375</LatitudeDegrees>
              <LongitudeDegrees>-3.51042947731912136077880859375</LongitudeDegrees>
            </Position>
            <AltitudeMeters>1287.199951171875</AltitudeMeters>
            <DistanceMeters>7054.9077752341</DistanceMeters>
          </Trackpoint>
          <Trackpoint>
            <Time>2022-10-08T08:18:47.000Z</Time>
            <Position>
              <LatitudeDegrees>37.262484468519687652587890625</LatitudeDegrees>
              <LongitudeDegrees>-3.51041656918823719024658203125</LongitudeDegrees>
            </Position>
            <AltitudeMeters>1286.800048828125</AltitudeMeters>
            <DistanceMeters>7056.0638251092</DistanceMeters>
          </Trackpoint>
          <Trackpoint>
            <Time>2022-10-08T08:18:50.000Z</Time>
            <Position>
              <LatitudeDegrees>37.26248404942452907562255859375</LatitudeDegrees>
              <LongitudeDegrees>-3.51034440100193023681640625</LongitudeDegrees>
            </Position>
            <AltitudeMeters>1285</AltitudeMeters>
            <DistanceMeters>7062.456799846</DistanceMeters>
          </Trackpoint>
          <Trackpoint>
            <Time>2022-10-08T08:18:51.000Z</Time>
            <Position>
              <LatitudeDegrees>37.262493856251239776611328125</LatitudeDegrees>
              <LongitudeDegrees>-3.51032235659658908843994140625</LongitudeDegrees>
            </Position>
            <AltitudeMeters>1284.5999755859375</AltitudeMeters>
            <DistanceMeters>7064.6914435029</DistanceMeters>
          </Trackpoint>
          <Trackpoint>
            <Time>2022-10-08T08:18:53.000Z</Time>
            <Position>
              <LatitudeDegrees>37.26250936277210712432861328125</LatitudeDegrees>
              <LongitudeDegrees>-3.51029285229742527008056640625</LongitudeDegrees>
            </Position>
            <AltitudeMeters>1283.800048828125</AltitudeMeters>
            <DistanceMeters>7067.8230027021</DistanceMeters>
          </Trackpoint>
          <Trackpoint>
            <Time>2022-10-08T08:18:55.000Z</Time>
            <Position>
              <LatitudeDegrees>37.26251003332436084747314453125</LatitudeDegrees>
              <LongitudeDegrees>-3.510256893932819366455078125</LongitudeDegrees>
            </Position>
            <AltitudeMeters>1282.5999755859375</AltitudeMeters>
            <DistanceMeters>7071.0102955973</DistanceMeters>
          </Trackpoint>
          <Trackpoint>
            <Time>2022-10-08T08:18:57.000Z</Time>
            <Position>
              <LatitudeDegrees>37.26250953041017055511474609375</LatitudeDegrees>
              <LongitudeDegrees>-3.51022948510944843292236328125</LongitudeDegrees>
            </Position>
            <AltitudeMeters>1281.4000244140625</AltitudeMeters>
            <DistanceMeters>7073.4404540271</DistanceMeters>
          </Trackpoint>
          <Trackpoint>
            <Time>2022-10-08T08:18:58.000Z</Time>
            <Position>
              <LatitudeDegrees>37.2625111229717731475830078125</LatitudeDegrees>
              <LongitudeDegrees>-3.5102144815027713775634765625</LongitudeDegrees>
            </Position>
            <AltitudeMeters>1280.800048828125</AltitudeMeters>
            <DistanceMeters>7074.7843347096</DistanceMeters>
          </Trackpoint>
          <Trackpoint>
            <Time>2022-10-08T08:18:59.000Z</Time>
            <Position>
              <LatitudeDegrees>37.26251439191401004791259765625</LatitudeDegrees>
              <LongitudeDegrees>-3.51019956171512603759765625</LongitudeDegrees>
            </Position>
            <AltitudeMeters>1280.199951171875</AltitudeMeters>
            <DistanceMeters>7076.1548294744</DistanceMeters>
          </Trackpoint>
          <Trackpoint>
            <Time>2022-10-08T08:19:01.000Z</Time>
            <Position>
              <LatitudeDegrees>37.26250299252569675445556640625</LatitudeDegrees>
              <LongitudeDegrees>-3.51015773601830005645751953125</LongitudeDegrees>
            </Position>
            <AltitudeMeters>1279</AltitudeMeters>
            <DistanceMeters>7080.0705758659</DistanceMeters>
          </Trackpoint>
          <Trackpoint>
            <Time>2022-10-08T08:19:03.000Z</Time>
            <Position>
              <LatitudeDegrees>37.26248455233871936798095703125</LatitudeDegrees>
              <LongitudeDegrees>-3.51010643877089023590087890625</LongitudeDegrees>
            </Position>
            <AltitudeMeters>1278.199951171875</AltitudeMeters>
            <DistanceMeters>7085.0565361996</DistanceMeters>
          </Trackpoint>
          <Trackpoint>
            <Time>2022-10-08T08:19:04.000Z</Time>
            <Position>
              <LatitudeDegrees>37.2624720633029937744140625</LatitudeDegrees>
              <LongitudeDegrees>-3.51008548401296138763427734375</LongitudeDegrees>
            </Position>
            <AltitudeMeters>1277.5999755859375</AltitudeMeters>
            <DistanceMeters>7087.3764339475</DistanceMeters>
          </Trackpoint>
          <Trackpoint>
            <Time>2022-10-08T08:19:05.000Z</Time>
            <Position>
              <LatitudeDegrees>37.26246275939047336578369140625</LatitudeDegrees>
              <LongitudeDegrees>-3.51005715318024158477783203125</LongitudeDegrees>
            </Position>
            <AltitudeMeters>1277.199951171875</AltitudeMeters>
            <DistanceMeters>7090.0909398654</DistanceMeters>
          </Trackpoint>
          <Trackpoint>
            <Time>2022-10-08T08:19:06.000Z</Time>
            <Position>
              <LatitudeDegrees>37.26245722733438014984130859375</LatitudeDegrees>
              <LongitudeDegrees>-3.51002521812915802001953125</LongitudeDegrees>
            </Position>
            <AltitudeMeters>1276.5999755859375</AltitudeMeters>
            <DistanceMeters>7092.9841873252</DistanceMeters>
          </Trackpoint>
          <Trackpoint>
            <Time>2022-10-08T08:19:07.000Z</Time>
            <Position>
              <LatitudeDegrees>37.26245705969631671905517578125</LatitudeDegrees>
              <LongitudeDegrees>-3.51000535301864147186279296875</LongitudeDegrees>
            </Position>
            <AltitudeMeters>1276.199951171875</AltitudeMeters>
            <DistanceMeters>7094.7466703171</DistanceMeters>
          </Trackpoint>
          <Trackpoint>
            <Time>2022-10-08T08:19:08.000Z</Time>
            <Position>
              <LatitudeDegrees>37.26245186291635036468505859375</LatitudeDegrees>
              <LongitudeDegrees>-3.50999294780194759368896484375</LongitudeDegrees>
            </Position>
            <AltitudeMeters>1275.5999755859375</AltitudeMeters>
            <DistanceMeters>7095.9893058517</DistanceMeters>
          </Trackpoint>
          <Trackpoint>
            <Time>2022-10-08T08:19:09.000Z</Time>
            <Position>
              <LatitudeDegrees>37.26243962533771991729736328125</LatitudeDegrees>
              <LongitudeDegrees>-3.50997551344335079193115234375</LongitudeDegrees>
            </Position>
            <AltitudeMeters>1275.4000244140625</AltitudeMeters>
            <DistanceMeters>7098.0472431326</DistanceMeters>
          </Trackpoint>
          <Trackpoint>
            <Time>2022-10-08T08:19:10.000Z</Time>
            <Position>
              <LatitudeDegrees>37.26242713630199432373046875</LatitudeDegrees>
              <LongitudeDegrees>-3.50994735024869441986083984375</LongitudeDegrees>
            </Position>
            <AltitudeMeters>1274.800048828125</AltitudeMeters>
            <DistanceMeters>7100.9012103631</DistanceMeters>
          </Trackpoint>
          <Trackpoint>
            <Time>2022-10-08T08:19:11.000Z</Time>
            <Position>
              <LatitudeDegrees>37.26241716183722019195556640625</LatitudeDegrees>
              <LongitudeDegrees>-3.5099187679588794708251953125</LongitudeDegrees>
            </Position>
            <AltitudeMeters>1273.800048828125</AltitudeMeters>
            <DistanceMeters>7103.6651648981</DistanceMeters>
          </Trackpoint>
          <Trackpoint>
            <Time>2022-10-08T08:19:12.000Z</Time>
            <Position>
              <LatitudeDegrees>37.2624165751039981842041015625</LatitudeDegrees>
              <LongitudeDegrees>-3.50989219732582569122314453125</LongitudeDegrees>
            </Position>
            <AltitudeMeters>1273.199951171875</AltitudeMeters>
            <DistanceMeters>7106.0198340758</DistanceMeters>
          </Trackpoint>
          <Trackpoint>
            <Time>2022-10-08T08:19:13.000Z</Time>
            <Position>
              <LatitudeDegrees>37.26242336444556713104248046875</LatitudeDegrees>
              <LongitudeDegrees>-3.50986654870212078094482421875</LongitudeDegrees>
            </Position>
            <AltitudeMeters>1272.800048828125</AltitudeMeters>
            <DistanceMeters>7108.4125456058</DistanceMeters>
          </Trackpoint>
          <Trackpoint>
            <Time>2022-10-08T08:19:14.000Z</Time>
            <Position>
              <LatitudeDegrees>37.26242738775908946990966796875</LatitudeDegrees>
              <LongitudeDegrees>-3.50983821786940097808837890625</LongitudeDegrees>
            </Position>
            <AltitudeMeters>1272.4000244140625</AltitudeMeters>
            <DistanceMeters>7110.9623799219</DistanceMeters>
          </Trackpoint>
          <Trackpoint>
            <Time>2022-10-08T08:19:17.000Z</Time>
            <Position>
              <LatitudeDegrees>37.26241414435207843780517578125</LatitudeDegrees>
              <LongitudeDegrees>-3.50976982153952121734619140625</LongitudeDegrees>
            </Position>
            <AltitudeMeters>1271.800048828125</AltitudeMeters>
            <DistanceMeters>7117.1980442143</DistanceMeters>
          </Trackpoint>
          <Trackpoint>
            <Time>2022-10-08T08:19:19.000Z</Time>
            <Position>
              <LatitudeDegrees>37.2623803652822971343994140625</LatitudeDegrees>
              <LongitudeDegrees>-3.5097514651715755462646484375</LongitudeDegrees>
            </Position>
            <AltitudeMeters>1271.5999755859375</AltitudeMeters>
            <DistanceMeters>7121.2952276504</DistanceMeters>
          </Trackpoint>
          <Trackpoint>
            <Time>2022-10-08T08:19:22.000Z</Time>
            <Position>
              <LatitudeDegrees>37.26233602501451969146728515625</LatitudeDegrees>
              <LongitudeDegrees>-3.5096991620957851409912109375</LongitudeDegrees>
            </Position>
            <AltitudeMeters>1270.199951171875</AltitudeMeters>
            <DistanceMeters>7128.0648390095</DistanceMeters>
          </Trackpoint>
          <Trackpoint>
            <Time>2022-10-08T08:19:23.000Z</Time>
            <Position>
              <LatitudeDegrees>37.26233602501451969146728515625</LatitudeDegrees>
              <LongitudeDegrees>-3.50968055427074432373046875</LongitudeDegrees>
            </Position>
            <AltitudeMeters>1269.800048828125</AltitudeMeters>
            <DistanceMeters>7129.7162272395</DistanceMeters>
          </Trackpoint>
          <Trackpoint>
            <Time>2022-10-08T08:19:25.000Z</Time>
            <Position>
              <LatitudeDegrees>37.2623340971767902374267578125</LatitudeDegrees>
              <LongitudeDegrees>-3.50965113379061222076416015625</LongitudeDegrees>
            </Position>
            <AltitudeMeters>1269</AltitudeMeters>
            <DistanceMeters>7132.3307573824</DistanceMeters>
          </Trackpoint>
          <Trackpoint>
            <Time>2022-10-08T08:19:27.000Z</Time>
            <Position>
              <LatitudeDegrees>37.262328229844570159912109375</LatitudeDegrees>
              <LongitudeDegrees>-3.5096341185271739959716796875</LongitudeDegrees>
            </Position>
            <AltitudeMeters>1268</AltitudeMeters>
            <DistanceMeters>7133.9711728116</DistanceMeters>
          </Trackpoint>
          <Trackpoint>
            <Time>2022-10-08T08:19:28.000Z</Time>
            <Position>
              <LatitudeDegrees>37.26231808774173259735107421875</LatitudeDegrees>
              <LongitudeDegrees>-3.50962179712951183319091796875</LongitudeDegrees>
            </Position>
            <AltitudeMeters>1267.199951171875</AltitudeMeters>
            <DistanceMeters>7135.5412718114</DistanceMeters>
          </Trackpoint>
          <Trackpoint>
            <Time>2022-10-08T08:19:29.000Z</Time>
            <Position>
              <LatitudeDegrees>37.26230568252503871917724609375</LatitudeDegrees>
              <LongitudeDegrees>-3.509617857635021209716796875</LongitudeDegrees>
            </Position>
            <AltitudeMeters>1266.800048828125</AltitudeMeters>
            <DistanceMeters>7136.9635014424</DistanceMeters>
          </Trackpoint>
          <Trackpoint>
            <Time>2022-10-08T08:19:31.000Z</Time>
            <Position>
              <LatitudeDegrees>37.2622881643474102020263671875</LatitudeDegrees>
              <LongitudeDegrees>-3.50960545241832733154296875</LongitudeDegrees>
            </Position>
            <AltitudeMeters>1266.199951171875</AltitudeMeters>
            <DistanceMeters>7139.2021823992</DistanceMeters>
          </Trackpoint>
          <Trackpoint>
            <Time>2022-10-08T08:19:32.000Z</Time>
            <Position>
              <LatitudeDegrees>37.26227701641619205474853515625</LatitudeDegrees>
              <LongitudeDegrees>-3.509592711925506591796875</LongitudeDegrees>
            </Position>
            <AltitudeMeters>1266</AltitudeMeters>
            <DistanceMeters>7140.8779967607</DistanceMeters>
          </Trackpoint>
          <Trackpoint>
            <Time>2022-10-08T08:19:34.000Z</Time>
            <Position>
              <LatitudeDegrees>37.26226310245692729949951171875</LatitudeDegrees>
              <LongitudeDegrees>-3.509552143514156341552734375</LongitudeDegrees>
            </Position>
            <AltitudeMeters>1265.5999755859375</AltitudeMeters>
            <DistanceMeters>7144.7914363793</DistanceMeters>
          </Trackpoint>
          <Trackpoint>
            <Time>2022-10-08T08:19:36.000Z</Time>
            <Position>
              <LatitudeDegrees>37.262248434126377105712890625</LatitudeDegrees>
              <LongitudeDegrees>-3.50950227119028568267822265625</LongitudeDegrees>
            </Position>
            <AltitudeMeters>1264.5999755859375</AltitudeMeters>
            <DistanceMeters>7149.5007747348</DistanceMeters>
          </Trackpoint>
          <Trackpoint>
            <Time>2022-10-08T08:19:37.000Z</Time>
            <Position>
              <LatitudeDegrees>37.26224382407963275909423828125</LatitudeDegrees>
              <LongitudeDegrees>-3.5094765387475490570068359375</LongitudeDegrees>
            </Position>
            <AltitudeMeters>1264.199951171875</AltitudeMeters>
            <DistanceMeters>7151.8342562744</DistanceMeters>
          </Trackpoint>
          <Trackpoint>
            <Time>2022-10-08T08:19:39.000Z</Time>
            <Position>
              <LatitudeDegrees>37.262231670320034027099609375</LatitudeDegrees>
              <LongitudeDegrees>-3.50940705277025699615478515625</LongitudeDegrees>
            </Position>
            <AltitudeMeters>1263.4000244140625</AltitudeMeters>
            <DistanceMeters>7158.1368990754</DistanceMeters>
          </Trackpoint>
          <Trackpoint>
            <Time>2022-10-08T08:19:42.000Z</Time>
            <Position>
              <LatitudeDegrees>37.2622038424015045166015625</LatitudeDegrees>
              <LongitudeDegrees>-3.5093109123408794403076171875</LongitudeDegrees>
            </Position>
            <AltitudeMeters>1262.199951171875</AltitudeMeters>
            <DistanceMeters>7167.1998773571</DistanceMeters>
          </Trackpoint>
          <Trackpoint>
            <Time>2022-10-08T08:19:43.000Z</Time>
            <Position>
              <LatitudeDegrees>37.2621929459273815155029296875</LatitudeDegrees>
              <LongitudeDegrees>-3.509281240403652191162109375</LongitudeDegrees>
            </Position>
            <AltitudeMeters>1261.800048828125</AltitudeMeters>
            <DistanceMeters>7170.0946849397</DistanceMeters>
          </Trackpoint>
          <Trackpoint>
            <Time>2022-10-08T08:19:45.000Z</Time>
            <Position>
              <LatitudeDegrees>37.26216738112270832061767578125</LatitudeDegrees>
              <LongitudeDegrees>-3.50920555181801319122314453125</LongitudeDegrees>
            </Position>
            <AltitudeMeters>1261</AltitudeMeters>
            <DistanceMeters>7177.3777247605</DistanceMeters>
          </Trackpoint>
          <Trackpoint>
            <Time>2022-10-08T08:19:47.000Z</Time>
            <Position>
              <LatitudeDegrees>37.262131758034229278564453125</LatitudeDegrees>
              <LongitudeDegrees>-3.50912055931985378265380859375</LongitudeDegrees>
            </Position>
            <AltitudeMeters>1260</AltitudeMeters>
            <DistanceMeters>7185.8861983516</DistanceMeters>
          </Trackpoint>
          <Trackpoint>
            <Time>2022-10-08T08:19:50.000Z</Time>
            <Position>
              <LatitudeDegrees>37.26205791346728801727294921875</LatitudeDegrees>
              <LongitudeDegrees>-3.5090108402073383331298828125</LongitudeDegrees>
            </Position>
            <AltitudeMeters>1258.4000244140625</AltitudeMeters>
            <DistanceMeters>7198.6148130271</DistanceMeters>
          </Trackpoint>
          <Trackpoint>
            <Time>2022-10-08T08:19:54.000Z</Time>
            <Position>
              <LatitudeDegrees>37.2619455121457576751708984375</LatitudeDegrees>
              <LongitudeDegrees>-3.50882434286177158355712890625</LongitudeDegrees>
            </Position>
            <AltitudeMeters>1257.199951171875</AltitudeMeters>
            <DistanceMeters>7219.3376100239</DistanceMeters>
          </Trackpoint>
          <Trackpoint>
            <Time>2022-10-08T08:19:56.000Z</Time>
            <Position>
              <LatitudeDegrees>37.26189647801220417022705078125</LatitudeDegrees>
              <LongitudeDegrees>-3.50875125266611576080322265625</LongitudeDegrees>
            </Position>
            <AltitudeMeters>1255.800048828125</AltitudeMeters>
            <DistanceMeters>7227.8051248284</DistanceMeters>
          </Trackpoint>
          <Trackpoint>
            <Time>2022-10-08T08:19:57.000Z</Time>
            <Position>
              <LatitudeDegrees>37.26188105531036853790283203125</LatitudeDegrees>
              <LongitudeDegrees>-3.50871495902538299560546875</LongitudeDegrees>
            </Position>
            <AltitudeMeters>1255.4000244140625</AltitudeMeters>
            <DistanceMeters>7231.4497431142</DistanceMeters>
          </Trackpoint>
          <Trackpoint>
            <Time>2022-10-08T08:19:59.000Z</Time>
            <Position>
              <LatitudeDegrees>37.261852137744426727294921875</LatitudeDegrees>
              <LongitudeDegrees>-3.50865066982805728912353515625</LongitudeDegrees>
            </Position>
            <AltitudeMeters>1254</AltitudeMeters>
            <DistanceMeters>7237.9907294459</DistanceMeters>
          </Trackpoint>
          <Trackpoint>
            <Time>2022-10-08T08:20:00.000Z</Time>
            <Position>
              <LatitudeDegrees>37.26184467785060405731201171875</LatitudeDegrees>
              <LongitudeDegrees>-3.50862636230885982513427734375</LongitudeDegrees>
            </Position>
            <AltitudeMeters>1253.5999755859375</AltitudeMeters>
            <DistanceMeters>7240.298920318</DistanceMeters>
          </Trackpoint>
          <Trackpoint>
            <Time>2022-10-08T08:20:02.000Z</Time>
            <Position>
              <LatitudeDegrees>37.26184383966028690338134765625</LatitudeDegrees>
              <LongitudeDegrees>-3.5085679404437541961669921875</LongitudeDegrees>
            </Position>
            <AltitudeMeters>1252.5999755859375</AltitudeMeters>
            <DistanceMeters>7245.4741697548</DistanceMeters>
          </Trackpoint>
          <Trackpoint>
            <Time>2022-10-08T08:20:03.000Z</Time>
            <Position>
              <LatitudeDegrees>37.2618412412703037261962890625</LatitudeDegrees>
              <LongitudeDegrees>-3.5085453093051910400390625</LongitudeDegrees>
            </Position>
            <AltitudeMeters>1252.199951171875</AltitudeMeters>
            <DistanceMeters>7247.5011588475</DistanceMeters>
          </Trackpoint>
          <Trackpoint>
            <Time>2022-10-08T08:20:05.000Z</Time>
            <Position>
              <LatitudeDegrees>37.261815257370471954345703125</LatitudeDegrees>
              <LongitudeDegrees>-3.50850440561771392822265625</LongitudeDegrees>
            </Position>
            <AltitudeMeters>1251</AltitudeMeters>
            <DistanceMeters>7252.1370602632</DistanceMeters>
          </Trackpoint>
          <Trackpoint>
            <Time>2022-10-08T08:20:06.000Z</Time>
            <Position>
              <LatitudeDegrees>37.2618013434112071990966796875</LatitudeDegrees>
              <LongitudeDegrees>-3.508492000401020050048828125</LongitudeDegrees>
            </Position>
            <AltitudeMeters>1250.4000244140625</AltitudeMeters>
            <DistanceMeters>7254.0352173961</DistanceMeters>
          </Trackpoint>
          <Trackpoint>
            <Time>2022-10-08T08:20:08.000Z</Time>
            <Position>
              <LatitudeDegrees>37.26178072392940521240234375</LatitudeDegrees>
              <LongitudeDegrees>-3.50843466818332672119140625</LongitudeDegrees>
            </Position>
            <AltitudeMeters>1249.800048828125</AltitudeMeters>
            <DistanceMeters>7259.6078678329</DistanceMeters>
          </Trackpoint>
          <Trackpoint>
            <Time>2022-10-08T08:20:09.000Z</Time>
            <Position>
              <LatitudeDegrees>37.26177343167364597320556640625</LatitudeDegrees>
              <LongitudeDegrees>-3.508397452533245086669921875</LongitudeDegrees>
            </Position>
            <AltitudeMeters>1249.5999755859375</AltitudeMeters>
            <DistanceMeters>7263.0049898053</DistanceMeters>
          </Trackpoint>
          <Trackpoint>
            <Time>2022-10-08T08:20:11.000Z</Time>
            <Position>
              <LatitudeDegrees>37.2617681510746479034423828125</LatitudeDegrees>
              <LongitudeDegrees>-3.5083429701626300811767578125</LongitudeDegrees>
            </Position>
            <AltitudeMeters>1249.800048828125</AltitudeMeters>
            <DistanceMeters>7267.8671642294</DistanceMeters>
          </Trackpoint>
          <Trackpoint>
            <Time>2022-10-08T08:20:16.000Z</Time>
            <Position>
              <LatitudeDegrees>37.2616796381771564483642578125</LatitudeDegrees>
              <LongitudeDegrees>-3.50823995657265186309814453125</LongitudeDegrees>
            </Position>
            <AltitudeMeters>1250.4000244140625</AltitudeMeters>
            <DistanceMeters>7281.2955519401</DistanceMeters>
          </Trackpoint>
          <Trackpoint>
            <Time>2022-10-08T08:20:20.000Z</Time>
            <Position>
              <LatitudeDegrees>37.26158869452774524688720703125</LatitudeDegrees>
              <LongitudeDegrees>-3.50818430073559284210205078125</LongitudeDegrees>
            </Position>
            <AltitudeMeters>1249.4000244140625</AltitudeMeters>
            <DistanceMeters>7292.554112374</DistanceMeters>
          </Trackpoint>
          <Trackpoint>
            <Time>2022-10-08T08:20:21.000Z</Time>
            <Position>
              <LatitudeDegrees>37.26157243363559246063232421875</LatitudeDegrees>
              <LongitudeDegrees>-3.5081649385392665863037109375</LongitudeDegrees>
            </Position>
            <AltitudeMeters>1249</AltitudeMeters>
            <DistanceMeters>7295.0466397246</DistanceMeters>
          </Trackpoint>
          <Trackpoint>
            <Time>2022-10-08T08:20:23.000Z</Time>
            <Position>
              <LatitudeDegrees>37.26153706200420856475830078125</LatitudeDegrees>
              <LongitudeDegrees>-3.50812009535729885101318359375</LongitudeDegrees>
            </Position>
            <AltitudeMeters>1248.5999755859375</AltitudeMeters>
            <DistanceMeters>7300.6395088275</DistanceMeters>
          </Trackpoint>
          <Trackpoint>
            <Time>2022-10-08T08:20:26.000Z</Time>
            <Position>
              <LatitudeDegrees>37.2614801488816738128662109375</LatitudeDegrees>
              <LongitudeDegrees>-3.5080330073833465576171875</LongitudeDegrees>
            </Position>
            <AltitudeMeters>1248</AltitudeMeters>
            <DistanceMeters>7310.6218378924</DistanceMeters>
          </Trackpoint>
          <Trackpoint>
            <Time>2022-10-08T08:20:27.000Z</Time>
            <Position>
              <LatitudeDegrees>37.2614617086946964263916015625</LatitudeDegrees>
              <LongitudeDegrees>-3.50799788720905780792236328125</LongitudeDegrees>
            </Position>
            <AltitudeMeters>1247.5999755859375</AltitudeMeters>
            <DistanceMeters>7314.3485331537</DistanceMeters>
          </Trackpoint>
          <Trackpoint>
            <Time>2022-10-08T08:20:28.000Z</Time>
            <Position>
              <LatitudeDegrees>37.26144687272608280181884765625</LatitudeDegrees>
              <LongitudeDegrees>-3.50796050392091274261474609375</LongitudeDegrees>
            </Position>
            <AltitudeMeters>1247.5999755859375</AltitudeMeters>
            <DistanceMeters>7318.0472580438</DistanceMeters>
          </Trackpoint>
          <Trackpoint>
            <Time>2022-10-08T08:20:33.000Z</Time>
            <Position>
              <LatitudeDegrees>37.2613497264683246612548828125</LatitudeDegrees>
              <LongitudeDegrees>-3.50779588334262371063232421875</LongitudeDegrees>
            </Position>
            <AltitudeMeters>1246.800048828125</AltitudeMeters>
            <DistanceMeters>7336.2015889335</DistanceMeters>
          </Trackpoint>
          <Trackpoint>
            <Time>2022-10-08T08:20:35.000Z</Time>
            <Position>
              <LatitudeDegrees>37.2612897120416164398193359375</LatitudeDegrees>
              <LongitudeDegrees>-3.5077156685292720794677734375</LongitudeDegrees>
            </Position>
            <AltitudeMeters>1246.4000244140625</AltitudeMeters>
            <DistanceMeters>7345.953756134</DistanceMeters>
          </Trackpoint>
          <Trackpoint>
            <Time>2022-10-08T08:20:39.000Z</Time>
            <Position>
              <LatitudeDegrees>37.26119868457317352294921875</LatitudeDegrees>
              <LongitudeDegrees>-3.50756554864346981048583984375</LongitudeDegrees>
            </Position>
            <AltitudeMeters>1245.4000244140625</AltitudeMeters>
            <DistanceMeters>7362.6717074444</DistanceMeters>
          </Trackpoint>
          <Trackpoint>
            <Time>2022-10-08T08:20:40.000Z</Time>
            <Position>
              <LatitudeDegrees>37.26117814891040325164794921875</LatitudeDegrees>
              <LongitudeDegrees>-3.5075341165065765380859375</LongitudeDegrees>
            </Position>
            <AltitudeMeters>1245.199951171875</AltitudeMeters>
            <DistanceMeters>7366.2727058856</DistanceMeters>
          </Trackpoint>
          <Trackpoint>
            <Time>2022-10-08T08:20:43.000Z</Time>
            <Position>
              <LatitudeDegrees>37.2611095011234283447265625</LatitudeDegrees>
              <LongitudeDegrees>-3.50743562914431095123291015625</LongitudeDegrees>
            </Position>
            <AltitudeMeters>1244.199951171875</AltitudeMeters>
            <DistanceMeters>7377.8698589223</DistanceMeters>
          </Trackpoint>
          <Trackpoint>
            <Time>2022-10-08T08:20:47.000Z</Time>
            <Position>
              <LatitudeDegrees>37.26101000793278217315673828125</LatitudeDegrees>
              <LongitudeDegrees>-3.50731375627219676971435546875</LongitudeDegrees>
            </Position>
            <AltitudeMeters>1243.199951171875</AltitudeMeters>
            <DistanceMeters>7393.3355844096</DistanceMeters>
          </Trackpoint>
          <Trackpoint>
            <Time>2022-10-08T08:20:52.000Z</Time>
            <Position>
              <LatitudeDegrees>37.26090355776250362396240234375</LatitudeDegrees>
              <LongitudeDegrees>-3.50717880763113498687744140625</LongitudeDegrees>
            </Position>
            <AltitudeMeters>1241.800048828125</AltitudeMeters>
            <DistanceMeters>7410.1665834329</DistanceMeters>
          </Trackpoint>
          <Trackpoint>
            <Time>2022-10-08T08:20:54.000Z</Time>
            <Position>
              <LatitudeDegrees>37.2608592174947261810302734375</LatitudeDegrees>
              <LongitudeDegrees>-3.5071182064712047576904296875</LongitudeDegrees>
            </Position>
            <AltitudeMeters>1241.199951171875</AltitudeMeters>
            <DistanceMeters>7417.4582972302</DistanceMeters>
          </Trackpoint>
          <Trackpoint>
            <Time>2022-10-08T08:20:56.000Z</Time>
            <Position>
              <LatitudeDegrees>37.26081311702728271484375</LatitudeDegrees>
              <LongitudeDegrees>-3.50707168690860271453857421875</LongitudeDegrees>
            </Position>
            <AltitudeMeters>1240.800048828125</AltitudeMeters>
            <DistanceMeters>7424.0391973681</DistanceMeters>
          </Trackpoint>
          <Trackpoint>
            <Time>2022-10-08T08:20:59.000Z</Time>
            <Position>
              <LatitudeDegrees>37.2607205808162689208984375</LatitudeDegrees>
              <LongitudeDegrees>-3.50699566304683685302734375</LongitudeDegrees>
            </Position>
            <AltitudeMeters>1239.800048828125</AltitudeMeters>
            <DistanceMeters>7436.3450651541</DistanceMeters>
          </Trackpoint>
          <Trackpoint>
            <Time>2022-10-08T08:21:02.000Z</Time>
            <Position>
              <LatitudeDegrees>37.26062376983463764190673828125</LatitudeDegrees>
              <LongitudeDegrees>-3.50692366249859333038330078125</LongitudeDegrees>
            </Position>
            <AltitudeMeters>1238.5999755859375</AltitudeMeters>
            <DistanceMeters>7448.8666152696</DistanceMeters>
          </Trackpoint>
          <Trackpoint>
            <Time>2022-10-08T08:21:05.000Z</Time>
            <Position>
              <LatitudeDegrees>37.26053123362362384796142578125</LatitudeDegrees>
              <LongitudeDegrees>-3.50686750374734401702880859375</LongitudeDegrees>
            </Position>
            <AltitudeMeters>1237.5999755859375</AltitudeMeters>
            <DistanceMeters>7460.3046110521</DistanceMeters>
          </Trackpoint>
          <Trackpoint>
            <Time>2022-10-08T08:21:06.000Z</Time>
            <Position>
              <LatitudeDegrees>37.26050642319023609161376953125</LatitudeDegrees>
              <LongitudeDegrees>-3.50684453733265399932861328125</LongitudeDegrees>
            </Position>
            <AltitudeMeters>1237</AltitudeMeters>
            <DistanceMeters>7463.7361150493</DistanceMeters>
          </Trackpoint>
          <Trackpoint>
            <Time>2022-10-08T08:21:10.000Z</Time>
            <Position>
              <LatitudeDegrees>37.26039594970643520355224609375</LatitudeDegrees>
              <LongitudeDegrees>-3.5067460499703884124755859375</LongitudeDegrees>
            </Position>
            <AltitudeMeters>1236</AltitudeMeters>
            <DistanceMeters>7478.8127553995</DistanceMeters>
          </Trackpoint>
          <Trackpoint>
            <Time>2022-10-08T08:21:12.000Z</Time>
            <Position>
              <LatitudeDegrees>37.2603422217071056365966796875</LatitudeDegrees>
              <LongitudeDegrees>-3.5066865384578704833984375</LongitudeDegrees>
            </Position>
            <AltitudeMeters>1235</AltitudeMeters>
            <DistanceMeters>7486.7848114713</DistanceMeters>
          </Trackpoint>
          <Trackpoint>
            <Time>2022-10-08T08:21:13.000Z</Time>
            <Position>
              <LatitudeDegrees>37.26031213067471981048583984375</LatitudeDegrees>
              <LongitudeDegrees>-3.50666231475770473480224609375</LongitudeDegrees>
            </Position>
            <AltitudeMeters>1234.5999755859375</AltitudeMeters>
            <DistanceMeters>7490.7623350639</DistanceMeters>
          </Trackpoint>
          <Trackpoint>
            <Time>2022-10-08T08:21:17.000Z</Time>
            <Position>
              <LatitudeDegrees>37.26019796915352344512939453125</LatitudeDegrees>
              <LongitudeDegrees>-3.50656516849994659423828125</LongitudeDegrees>
            </Position>
            <AltitudeMeters>1233.199951171875</AltitudeMeters>
            <DistanceMeters>7506.1084874696</DistanceMeters>
          </Trackpoint>
          <Trackpoint>
            <Time>2022-10-08T08:21:18.000Z</Time>
            <Position>
              <LatitudeDegrees>37.26016310043632984161376953125</LatitudeDegrees>
              <LongitudeDegrees>-3.50654211826622486114501953125</LongitudeDegrees>
            </Position>
            <AltitudeMeters>1233</AltitudeMeters>
            <DistanceMeters>7510.4941530777</DistanceMeters>
          </Trackpoint>
          <Trackpoint>
            <Time>2022-10-08T08:21:21.000Z</Time>
            <Position>
              <LatitudeDegrees>37.26004340685904026031494140625</LatitudeDegrees>
              <LongitudeDegrees>-3.50650750100612640380859375</LongitudeDegrees>
            </Position>
            <AltitudeMeters>1231.800048828125</AltitudeMeters>
            <DistanceMeters>7524.1644651446</DistanceMeters>
          </Trackpoint>
          <Trackpoint>
            <Time>2022-10-08T08:21:24.000Z</Time>
            <Position>
              <LatitudeDegrees>37.2599469311535358428955078125</LatitudeDegrees>
              <LongitudeDegrees>-3.506474308669567108154296875</LongitudeDegrees>
            </Position>
            <AltitudeMeters>1230.800048828125</AltitudeMeters>
            <DistanceMeters>7535.297606178</DistanceMeters>
          </Trackpoint>
          <Trackpoint>
            <Time>2022-10-08T08:21:25.000Z</Time>
            <Position>
              <LatitudeDegrees>37.2599167563021183013916015625</LatitudeDegrees>
              <LongitudeDegrees>-3.5064721293747425079345703125</LongitudeDegrees>
            </Position>
            <AltitudeMeters>1230.4000244140625</AltitudeMeters>
            <DistanceMeters>7538.6599945714</DistanceMeters>
          </Trackpoint>
          <Trackpoint>
            <Time>2022-10-08T08:21:29.000Z</Time>
            <Position>
              <LatitudeDegrees>37.2597826458513736724853515625</LatitudeDegrees>
              <LongitudeDegrees>-3.50646902807056903839111328125</LongitudeDegrees>
            </Position>
            <AltitudeMeters>1229.4000244140625</AltitudeMeters>
            <DistanceMeters>7553.5891722711</DistanceMeters>
          </Trackpoint>
          <Trackpoint>
            <Time>2022-10-08T08:21:31.000Z</Time>
            <Position>
              <LatitudeDegrees>37.25971349515020847320556640625</LatitudeDegrees>
              <LongitudeDegrees>-3.5064838640391826629638671875</LongitudeDegrees>
            </Position>
            <AltitudeMeters>1228.5999755859375</AltitudeMeters>
            <DistanceMeters>7561.3969918178</DistanceMeters>
          </Trackpoint>
          <Trackpoint>
            <Time>2022-10-08T08:21:32.000Z</Time>
            <Position>
              <LatitudeDegrees>37.25967778824269771575927734375</LatitudeDegrees>
              <LongitudeDegrees>-3.50649568252265453338623046875</LongitudeDegrees>
            </Position>
            <AltitudeMeters>1228.4000244140625</AltitudeMeters>
            <DistanceMeters>7565.5073778126</DistanceMeters>
          </Trackpoint>
          <Trackpoint>
            <Time>2022-10-08T08:21:36.000Z</Time>
            <Position>
              <LatitudeDegrees>37.259547449648380279541015625</LatitudeDegrees>
              <LongitudeDegrees>-3.5065284557640552520751953125</LongitudeDegrees>
            </Position>
            <AltitudeMeters>1227</AltitudeMeters>
            <DistanceMeters>7580.3019721945</DistanceMeters>
          </Trackpoint>
          <Trackpoint>
            <Time>2022-10-08T08:21:38.000Z</Time>
            <Position>
              <LatitudeDegrees>37.25948550738394260406494140625</LatitudeDegrees>
              <LongitudeDegrees>-3.5065489076077938079833984375</LongitudeDegrees>
            </Position>
            <AltitudeMeters>1226</AltitudeMeters>
            <DistanceMeters>7587.4308760532</DistanceMeters>
          </Trackpoint>
          <Trackpoint>
            <Time>2022-10-08T08:21:41.000Z</Time>
            <Position>
              <LatitudeDegrees>37.25941543467342853546142578125</LatitudeDegrees>
              <LongitudeDegrees>-3.50656173191964626312255859375</LongitudeDegrees>
            </Position>
            <AltitudeMeters>1224.800048828125</AltitudeMeters>
            <DistanceMeters>7595.3123667661</DistanceMeters>
          </Trackpoint>
          <Trackpoint>
            <Time>2022-10-08T08:21:43.000Z</Time>
            <Position>
              <LatitudeDegrees>37.25936966948211193084716796875</LatitudeDegrees>
              <LongitudeDegrees>-3.50656382739543914794921875</LongitudeDegrees>
            </Position>
            <AltitudeMeters>1224</AltitudeMeters>
            <DistanceMeters>7600.4102643726</DistanceMeters>
          </Trackpoint>
          <Trackpoint>
            <Time>2022-10-08T08:21:44.000Z</Time>
            <Position>
              <LatitudeDegrees>37.25934854708611965179443359375</LatitudeDegrees>
              <LongitudeDegrees>-3.50656206719577312469482421875</LongitudeDegrees>
            </Position>
            <AltitudeMeters>1223.800048828125</AltitudeMeters>
            <DistanceMeters>7602.7687653985</DistanceMeters>
          </Trackpoint>
          <Trackpoint>
            <Time>2022-10-08T08:21:47.000Z</Time>
            <Position>
              <LatitudeDegrees>37.2592512331902980804443359375</LatitudeDegrees>
              <LongitudeDegrees>-3.506591655313968658447265625</LongitudeDegrees>
            </Position>
            <AltitudeMeters>1222.5999755859375</AltitudeMeters>
            <DistanceMeters>7613.9128508852</DistanceMeters>
          </Trackpoint>
          <Trackpoint>
            <Time>2022-10-08T08:21:49.000Z</Time>
            <Position>
              <LatitudeDegrees>37.2591868601739406585693359375</LatitudeDegrees>
              <LongitudeDegrees>-3.50662040524184703826904296875</LongitudeDegrees>
            </Position>
            <AltitudeMeters>1221.800048828125</AltitudeMeters>
            <DistanceMeters>7621.5161757759</DistanceMeters>
          </Trackpoint>
          <Trackpoint>
            <Time>2022-10-08T08:21:50.000Z</Time>
            <Position>
              <LatitudeDegrees>37.25914302282035350799560546875</LatitudeDegrees>
              <LongitudeDegrees>-3.5066454671323299407958984375</LongitudeDegrees>
            </Position>
            <AltitudeMeters>1221.4000244140625</AltitudeMeters>
            <DistanceMeters>7626.8765585276</DistanceMeters>
          </Trackpoint>
          <Trackpoint>
            <Time>2022-10-08T08:21:52.000Z</Time>
            <Position>
              <LatitudeDegrees>37.2590276040136814117431640625</LatitudeDegrees>
              <LongitudeDegrees>-3.5066826827824115753173828125</LongitudeDegrees>
            </Position>
            <AltitudeMeters>1220.800048828125</AltitudeMeters>
            <DistanceMeters>7640.1395102778</DistanceMeters>
          </Trackpoint>
          <Trackpoint>
            <Time>2022-10-08T08:21:53.000Z</Time>
            <Position>
              <LatitudeDegrees>37.25898376666009426116943359375</LatitudeDegrees>
              <LongitudeDegrees>-3.5066950879991054534912109375</LongitudeDegrees>
            </Position>
            <AltitudeMeters>1220.5999755859375</AltitudeMeters>
            <DistanceMeters>7645.1417439615</DistanceMeters>
          </Trackpoint>
          <Trackpoint>
            <Time>2022-10-08T08:21:54.000Z</Time>
            <Position>
              <LatitudeDegrees>37.25895493291318416595458984375</LatitudeDegrees>
              <LongitudeDegrees>-3.50669927895069122314453125</LongitudeDegrees>
            </Position>
            <AltitudeMeters>1220.199951171875</AltitudeMeters>
            <DistanceMeters>7648.3726522501</DistanceMeters>
          </Trackpoint>
          <Trackpoint>
            <Time>2022-10-08T08:21:56.000Z</Time>
            <Position>
              <LatitudeDegrees>37.2588971816003322601318359375</LatitudeDegrees>
              <LongitudeDegrees>-3.5066944174468517303466796875</LongitudeDegrees>
            </Position>
            <AltitudeMeters>1219.5999755859375</AltitudeMeters>
            <DistanceMeters>7654.8148747964</DistanceMeters>
          </Trackpoint>
          <Trackpoint>
            <Time>2022-10-08T08:21:58.000Z</Time>
            <Position>
              <LatitudeDegrees>37.25882182829082012176513671875</LatitudeDegrees>
              <LongitudeDegrees>-3.50668511353433132171630859375</LongitudeDegrees>
            </Position>
            <AltitudeMeters>1219</AltitudeMeters>
            <DistanceMeters>7663.2423033029</DistanceMeters>
          </Trackpoint>
          <Trackpoint>
            <Time>2022-10-08T08:22:02.000Z</Time>
            <Position>
              <LatitudeDegrees>37.25865729153156280517578125</LatitudeDegrees>
              <LongitudeDegrees>-3.50665234029293060302734375</LongitudeDegrees>
            </Position>
            <AltitudeMeters>1217.5999755859375</AltitudeMeters>
            <DistanceMeters>7681.7844480151</DistanceMeters>
          </Trackpoint>
          <Trackpoint>
            <Time>2022-10-08T08:22:07.000Z</Time>
            <Position>
              <LatitudeDegrees>37.2584800980985164642333984375</LatitudeDegrees>
              <LongitudeDegrees>-3.50658134557306766510009765625</LongitudeDegrees>
            </Position>
            <AltitudeMeters>1216.5999755859375</AltitudeMeters>
            <DistanceMeters>7702.485009543</DistanceMeters>
          </Trackpoint>
          <Trackpoint>
            <Time>2022-10-08T08:22:08.000Z</Time>
            <Position>
              <LatitudeDegrees>37.25843894295394420623779296875</LatitudeDegrees>
              <LongitudeDegrees>-3.50655972026288509368896484375</LongitudeDegrees>
            </Position>
            <AltitudeMeters>1216.4000244140625</AltitudeMeters>
            <DistanceMeters>7707.4510078081</DistanceMeters>
          </Trackpoint>
          <Trackpoint>
            <Time>2022-10-08T08:22:12.000Z</Time>
            <Position>
              <LatitudeDegrees>37.25830164737999439239501953125</LatitudeDegrees>
              <LongitudeDegrees>-3.5065175592899322509765625</LongitudeDegrees>
            </Position>
            <AltitudeMeters>1215.5999755859375</AltitudeMeters>
            <DistanceMeters>7723.1818760254</DistanceMeters>
          </Trackpoint>
          <Trackpoint>
            <Time>2022-10-08T08:22:13.000Z</Time>
            <Position>
              <LatitudeDegrees>37.25826661102473735809326171875</LatitudeDegrees>
              <LongitudeDegrees>-3.506507165729999542236328125</LongitudeDegrees>
            </Position>
            <AltitudeMeters>1215.5999755859375</AltitudeMeters>
            <DistanceMeters>7727.1888045145</DistanceMeters>
          </Trackpoint>
          <Trackpoint>
            <Time>2022-10-08T08:22:14.000Z</Time>
            <Position>
              <LatitudeDegrees>37.25822805427014827728271484375</LatitudeDegrees>
              <LongitudeDegrees>-3.5064987838268280029296875</LongitudeDegrees>
            </Position>
            <AltitudeMeters>1215.4000244140625</AltitudeMeters>
            <DistanceMeters>7731.543475631</DistanceMeters>
          </Trackpoint>
          <Trackpoint>
            <Time>2022-10-08T08:22:19.000Z</Time>
            <Position>
              <LatitudeDegrees>37.25805924274027347564697265625</LatitudeDegrees>
              <LongitudeDegrees>-3.506417982280254364013671875</LongitudeDegrees>
            </Position>
            <AltitudeMeters>1214.800048828125</AltitudeMeters>
            <DistanceMeters>7751.6496553338</DistanceMeters>
          </Trackpoint>
          <Trackpoint>
            <Time>2022-10-08T08:22:22.000Z</Time>
            <Position>
              <LatitudeDegrees>37.257978022098541259765625</LatitudeDegrees>
              <LongitudeDegrees>-3.506371714174747467041015625</LongitudeDegrees>
            </Position>
            <AltitudeMeters>1214.4000244140625</AltitudeMeters>
            <DistanceMeters>7761.5757403667</DistanceMeters>
          </Trackpoint>
          <Trackpoint>
            <Time>2022-10-08T08:22:26.000Z</Time>
            <Position>
              <LatitudeDegrees>37.25784047506749629974365234375</LatitudeDegrees>
              <LongitudeDegrees>-3.50632754154503345489501953125</LongitudeDegrees>
            </Position>
            <AltitudeMeters>1214</AltitudeMeters>
            <DistanceMeters>7777.3776286662</DistanceMeters>
          </Trackpoint>
          <Trackpoint>
            <Time>2022-10-08T08:22:32.000Z</Time>
            <Position>
              <LatitudeDegrees>37.2576546482741832733154296875</LatitudeDegrees>
              <LongitudeDegrees>-3.5062417946755886077880859375</LongitudeDegrees>
            </Position>
            <AltitudeMeters>1213.5999755859375</AltitudeMeters>
            <DistanceMeters>7799.4113301223</DistanceMeters>
          </Trackpoint>
          <Trackpoint>
            <Time>2022-10-08T08:22:33.000Z</Time>
            <Position>
              <LatitudeDegrees>37.2576274909079074859619140625</LatitudeDegrees>
              <LongitudeDegrees>-3.50622058846056461334228515625</LongitudeDegrees>
            </Position>
            <AltitudeMeters>1213.5999755859375</AltitudeMeters>
            <DistanceMeters>7802.9694429893</DistanceMeters>
          </Trackpoint>
          <Trackpoint>
            <Time>2022-10-08T08:22:36.000Z</Time>
            <Position>
              <LatitudeDegrees>37.25753822363913059234619140625</LatitudeDegrees>
              <LongitudeDegrees>-3.50617230869829654693603515625</LongitudeDegrees>
            </Position>
            <AltitudeMeters>1213.199951171875</AltitudeMeters>
            <DistanceMeters>7813.7870564339</DistanceMeters>
          </Trackpoint>
          <Trackpoint>
            <Time>2022-10-08T08:22:40.000Z</Time>
            <Position>
              <LatitudeDegrees>37.257419787347316741943359375</LatitudeDegrees>
              <LongitudeDegrees>-3.5061046667397022247314453125</LongitudeDegrees>
            </Position>
            <AltitudeMeters>1212.800048828125</AltitudeMeters>
            <DistanceMeters>7828.2673318121</DistanceMeters>
          </Trackpoint>
          <Trackpoint>
            <Time>2022-10-08T08:22:46.000Z</Time>
            <Position>
              <LatitudeDegrees>37.257240749895572662353515625</LatitudeDegrees>
              <LongitudeDegrees>-3.5060315765440464019775390625</LongitudeDegrees>
            </Position>
            <AltitudeMeters>1212.199951171875</AltitudeMeters>
            <DistanceMeters>7849.2202374949</DistanceMeters>
          </Trackpoint>
          <Trackpoint>
            <Time>2022-10-08T08:22:48.000Z</Time>
            <Position>
              <LatitudeDegrees>37.2571923024952411651611328125</LatitudeDegrees>
              <LongitudeDegrees>-3.50600282661616802215576171875</LongitudeDegrees>
            </Position>
            <AltitudeMeters>1212</AltitudeMeters>
            <DistanceMeters>7855.1834950809</DistanceMeters>
          </Trackpoint>
          <Trackpoint>
            <Time>2022-10-08T08:22:54.000Z</Time>
            <Position>
              <LatitudeDegrees>37.2570055536925792694091796875</LatitudeDegrees>
              <LongitudeDegrees>-3.50591984577476978302001953125</LongitudeDegrees>
            </Position>
            <AltitudeMeters>1211.5999755859375</AltitudeMeters>
            <DistanceMeters>7877.2305119953</DistanceMeters>
          </Trackpoint>
          <Trackpoint>
            <Time>2022-10-08T08:22:55.000Z</Time>
            <Position>
              <LatitudeDegrees>37.25697110407054424285888671875</LatitudeDegrees>
              <LongitudeDegrees>-3.50592068396508693695068359375</LongitudeDegrees>
            </Position>
            <AltitudeMeters>1211.4000244140625</AltitudeMeters>
            <DistanceMeters>7881.0670500967</DistanceMeters>
          </Trackpoint>
          <Trackpoint>
            <Time>2022-10-08T08:22:57.000Z</Time>
            <Position>
              <LatitudeDegrees>37.25689214654266834259033203125</LatitudeDegrees>
              <LongitudeDegrees>-3.5059319995343685150146484375</LongitudeDegrees>
            </Position>
            <AltitudeMeters>1210.800048828125</AltitudeMeters>
            <DistanceMeters>7889.912194658</DistanceMeters>
          </Trackpoint>
          <Trackpoint>
            <Time>2022-10-08T08:22:59.000Z</Time>
            <Position>
              <LatitudeDegrees>37.25683028809726238250732421875</LatitudeDegrees>
              <LongitudeDegrees>-3.50592001341283321380615234375</LongitudeDegrees>
            </Position>
            <AltitudeMeters>1209.4000244140625</AltitudeMeters>
            <DistanceMeters>7896.8790203976</DistanceMeters>
          </Trackpoint>
          <Trackpoint>
            <Time>2022-10-08T08:23:00.000Z</Time>
            <Position>
              <LatitudeDegrees>37.2568063996732234954833984375</LatitudeDegrees>
              <LongitudeDegrees>-3.5059128887951374053955078125</LongitudeDegrees>
            </Position>
            <AltitudeMeters>1208.4000244140625</AltitudeMeters>
            <DistanceMeters>7899.6101086684</DistanceMeters>
          </Trackpoint>
          <Trackpoint>
            <Time>2022-10-08T08:23:01.000Z</Time>
            <Position>
              <LatitudeDegrees>37.25677748210728168487548828125</LatitudeDegrees>
              <LongitudeDegrees>-3.50591800175607204437255859375</LongitudeDegrees>
            </Position>
            <AltitudeMeters>1208</AltitudeMeters>
            <DistanceMeters>7902.860522402</DistanceMeters>
          </Trackpoint>
          <Trackpoint>
            <Time>2022-10-08T08:23:02.000Z</Time>
            <Position>
              <LatitudeDegrees>37.25674278102815151214599609375</LatitudeDegrees>
              <LongitudeDegrees>-3.50591481663286685943603515625</LongitudeDegrees>
            </Position>
            <AltitudeMeters>1207</AltitudeMeters>
            <DistanceMeters>7906.7333710917</DistanceMeters>
          </Trackpoint>
          <Trackpoint>
            <Time>2022-10-08T08:23:03.000Z</Time>
            <Position>
              <LatitudeDegrees>37.25670506246387958526611328125</LatitudeDegrees>
              <LongitudeDegrees>-3.50590593181550502777099609375</LongitudeDegrees>
            </Position>
            <AltitudeMeters>1206.199951171875</AltitudeMeters>
            <DistanceMeters>7911.0042907136</DistanceMeters>
          </Trackpoint>
          <Trackpoint>
            <Time>2022-10-08T08:23:04.000Z</Time>
            <Position>
              <LatitudeDegrees>37.25666935555636882781982421875</LatitudeDegrees>
              <LongitudeDegrees>-3.5058934427797794342041015625</LongitudeDegrees>
            </Position>
            <AltitudeMeters>1205.4000244140625</AltitudeMeters>
            <DistanceMeters>7915.1300262961</DistanceMeters>
          </Trackpoint>
          <Trackpoint>
            <Time>2022-10-08T08:23:06.000Z</Time>
            <Position>
              <LatitudeDegrees>37.25660263560712337493896484375</LatitudeDegrees>
              <LongitudeDegrees>-3.50588011555373668670654296875</LongitudeDegrees>
            </Position>
            <AltitudeMeters>1204.4000244140625</AltitudeMeters>
            <DistanceMeters>7922.6491558079</DistanceMeters>
          </Trackpoint>
          <Trackpoint>
            <Time>2022-10-08T08:23:08.000Z</Time>
            <Position>
              <LatitudeDegrees>37.256553433835506439208984375</LatitudeDegrees>
              <LongitudeDegrees>-3.5058981366455554962158203125</LongitudeDegrees>
            </Position>
            <AltitudeMeters>1203</AltitudeMeters>
            <DistanceMeters>7928.3539253479</DistanceMeters>
          </Trackpoint>
          <Trackpoint>
            <Time>2022-10-08T08:23:10.000Z</Time>
            <Position>
              <LatitudeDegrees>37.25652401335537433624267578125</LatitudeDegrees>
              <LongitudeDegrees>-3.50595320574939250946044921875</LongitudeDegrees>
            </Position>
            <AltitudeMeters>1201.800048828125</AltitudeMeters>
            <DistanceMeters>7934.2286978685</DistanceMeters>
          </Trackpoint>
          <Trackpoint>
            <Time>2022-10-08T08:23:12.000Z</Time>
            <Position>
              <LatitudeDegrees>37.2564553655683994293212890625</LatitudeDegrees>
              <LongitudeDegrees>-3.5060064308345317840576171875</LongitudeDegrees>
            </Position>
            <AltitudeMeters>1200.5999755859375</AltitudeMeters>
            <DistanceMeters>7943.2075910348</DistanceMeters>
          </Trackpoint>
          <Trackpoint>
            <Time>2022-10-08T08:23:13.000Z</Time>
            <Position>
              <LatitudeDegrees>37.25640951655805110931396484375</LatitudeDegrees>
              <LongitudeDegrees>-3.50601288489997386932373046875</LongitudeDegrees>
            </Position>
            <AltitudeMeters>1199.800048828125</AltitudeMeters>
            <DistanceMeters>7948.3425519126</DistanceMeters>
          </Trackpoint>
          <Trackpoint>
            <Time>2022-10-08T08:23:14.000Z</Time>
            <Position>
              <LatitudeDegrees>37.2563802637159824371337890625</LatitudeDegrees>
              <LongitudeDegrees>-3.506009280681610107421875</LongitudeDegrees>
            </Position>
            <AltitudeMeters>1199.199951171875</AltitudeMeters>
            <DistanceMeters>7951.6137352743</DistanceMeters>
          </Trackpoint>
          <Trackpoint>
            <Time>2022-10-08T08:23:16.000Z</Time>
            <Position>
              <LatitudeDegrees>37.2563252784311771392822265625</LatitudeDegrees>
              <LongitudeDegrees>-3.50596561096608638763427734375</LongitudeDegrees>
            </Position>
            <AltitudeMeters>1197.5999755859375</AltitudeMeters>
            <DistanceMeters>7958.8532493243</DistanceMeters>
          </Trackpoint>
          <Trackpoint>
            <Time>2022-10-08T08:23:17.000Z</Time>
            <Position>
              <LatitudeDegrees>37.25629233755171298980712890625</LatitudeDegrees>
              <LongitudeDegrees>-3.50594918243587017059326171875</LongitudeDegrees>
            </Position>
            <AltitudeMeters>1197</AltitudeMeters>
            <DistanceMeters>7962.7965717353</DistanceMeters>
          </Trackpoint>
          <Trackpoint>
            <Time>2022-10-08T08:23:18.000Z</Time>
            <Position>
              <LatitudeDegrees>37.256264425814151763916015625</LatitudeDegrees>
              <LongitudeDegrees>-3.50594113580882549285888671875</LongitudeDegrees>
            </Position>
            <AltitudeMeters>1196.5999755859375</AltitudeMeters>
            <DistanceMeters>7965.9852808904</DistanceMeters>
          </Trackpoint>
          <Trackpoint>
            <Time>2022-10-08T08:23:21.000Z</Time>
            <Position>
              <LatitudeDegrees>37.2561858035624027252197265625</LatitudeDegrees>
              <LongitudeDegrees>-3.50592370145022869110107421875</LongitudeDegrees>
            </Position>
            <AltitudeMeters>1195.4000244140625</AltitudeMeters>
            <DistanceMeters>7974.8711679269</DistanceMeters>
          </Trackpoint>
          <Trackpoint>
            <Time>2022-10-08T08:23:24.000Z</Time>
            <Position>
              <LatitudeDegrees>37.25610860623419284820556640625</LatitudeDegrees>
              <LongitudeDegrees>-3.50591397844254970550537109375</LongitudeDegrees>
            </Position>
            <AltitudeMeters>1195</AltitudeMeters>
            <DistanceMeters>7983.5055359479</DistanceMeters>
          </Trackpoint>
          <Trackpoint>
            <Time>2022-10-08T08:23:30.000Z</Time>
            <Position>
              <LatitudeDegrees>37.25593644194304943084716796875</LatitudeDegrees>
              <LongitudeDegrees>-3.505889587104320526123046875</LongitudeDegrees>
            </Position>
            <AltitudeMeters>1194.800048828125</AltitudeMeters>
            <DistanceMeters>8002.7889360082</DistanceMeters>
          </Trackpoint>
          <Trackpoint>
            <Time>2022-10-08T08:23:36.000Z</Time>
            <Position>
              <LatitudeDegrees>37.2557437419891357421875</LatitudeDegrees>
              <LongitudeDegrees>-3.50585245527327060699462890625</LongitudeDegrees>
            </Position>
            <AltitudeMeters>1194.800048828125</AltitudeMeters>
            <DistanceMeters>8024.4875116708</DistanceMeters>
          </Trackpoint>
          <Trackpoint>
            <Time>2022-10-08T08:23:42.000Z</Time>
            <Position>
              <LatitudeDegrees>37.25560485385358333587646484375</LatitudeDegrees>
              <LongitudeDegrees>-3.5058397985994815826416015625</LongitudeDegrees>
            </Position>
            <AltitudeMeters>1194.800048828125</AltitudeMeters>
            <DistanceMeters>8039.9864823967</DistanceMeters>
          </Trackpoint>
          <Trackpoint>
            <Time>2022-10-08T08:23:47.000Z</Time>
            <Position>
              <LatitudeDegrees>37.25549790076911449432373046875</LatitudeDegrees>
              <LongitudeDegrees>-3.5058240406215190887451171875</LongitudeDegrees>
            </Position>
            <AltitudeMeters>1193.800048828125</AltitudeMeters>
            <DistanceMeters>8051.9719092173</DistanceMeters>
          </Trackpoint>
          <Trackpoint>
            <Time>2022-10-08T08:23:48.000Z</Time>
            <Position>
              <LatitudeDegrees>37.255463115870952606201171875</LatitudeDegrees>
              <LongitudeDegrees>-3.50583367981016635894775390625</LongitudeDegrees>
            </Position>
            <AltitudeMeters>1193.4000244140625</AltitudeMeters>
            <DistanceMeters>8055.9357877488</DistanceMeters>
          </Trackpoint>
          <Trackpoint>
            <Time>2022-10-08T08:23:49.000Z</Time>
            <Position>
              <LatitudeDegrees>37.2554327733814716339111328125</LatitudeDegrees>
              <LongitudeDegrees>-3.5058330930769443511962890625</LongitudeDegrees>
            </Position>
            <AltitudeMeters>1192.800048828125</AltitudeMeters>
            <DistanceMeters>8059.3142513974</DistanceMeters>
          </Trackpoint>
          <Trackpoint>
            <Time>2022-10-08T08:23:51.000Z</Time>
            <Position>
              <LatitudeDegrees>37.2553717531263828277587890625</LatitudeDegrees>
              <LongitudeDegrees>-3.50581456907093524932861328125</LongitudeDegrees>
            </Position>
            <AltitudeMeters>1192</AltitudeMeters>
            <DistanceMeters>8066.3011386339</DistanceMeters>
          </Trackpoint>
          <Trackpoint>
            <Time>2022-10-08T08:23:53.000Z</Time>
            <Position>
              <LatitudeDegrees>37.255314923822879791259765625</LatitudeDegrees>
              <LongitudeDegrees>-3.505799062550067901611328125</LongitudeDegrees>
            </Position>
            <AltitudeMeters>1191.5999755859375</AltitudeMeters>
            <DistanceMeters>8072.7741251703</DistanceMeters>
          </Trackpoint>
          <Trackpoint>
            <Time>2022-10-08T08:23:55.000Z</Time>
            <Position>
              <LatitudeDegrees>37.25527645088732242584228515625</LatitudeDegrees>
              <LongitudeDegrees>-3.505821861326694488525390625</LongitudeDegrees>
            </Position>
            <AltitudeMeters>1191.5999755859375</AltitudeMeters>
            <DistanceMeters>8077.5092787909</DistanceMeters>
          </Trackpoint>
          <Trackpoint>
            <Time>2022-10-08T08:23:59.000Z</Time>
            <Position>
              <LatitudeDegrees>37.25516916252672672271728515625</LatitudeDegrees>
              <LongitudeDegrees>-3.50583770312368869781494140625</LongitudeDegrees>
            </Position>
            <AltitudeMeters>1191.199951171875</AltitudeMeters>
            <DistanceMeters>8089.5330687037</DistanceMeters>
          </Trackpoint>
          <Trackpoint>
            <Time>2022-10-08T08:24:03.000Z</Time>
            <Position>
              <LatitudeDegrees>37.2550746984779834747314453125</LatitudeDegrees>
              <LongitudeDegrees>-3.50584826432168483734130859375</LongitudeDegrees>
            </Position>
            <AltitudeMeters>1190.5999755859375</AltitudeMeters>
            <DistanceMeters>8100.0887360555</DistanceMeters>
          </Trackpoint>
          <Trackpoint>
            <Time>2022-10-08T08:24:04.000Z</Time>
            <Position>
              <LatitudeDegrees>37.25506036542356014251708984375</LatitudeDegrees>
              <LongitudeDegrees>-3.5058522038161754608154296875</LongitudeDegrees>
            </Position>
            <AltitudeMeters>1190.5999755859375</AltitudeMeters>
            <DistanceMeters>8101.7181047905</DistanceMeters>
          </Trackpoint>
          <Trackpoint>
            <Time>2022-10-08T08:24:11.000Z</Time>
            <Position>
              <LatitudeDegrees>37.25489054806530475616455078125</LatitudeDegrees>
              <LongitudeDegrees>-3.50585044361650943756103515625</LongitudeDegrees>
            </Position>
            <AltitudeMeters>1190</AltitudeMeters>
            <DistanceMeters>8120.6195847439</DistanceMeters>
          </Trackpoint>
          <Trackpoint>
            <Time>2022-10-08T08:24:12.000Z</Time>
            <Position>
              <LatitudeDegrees>37.2548597864806652069091796875</LatitudeDegrees>
              <LongitudeDegrees>-3.505833931267261505126953125</LongitudeDegrees>
            </Position>
            <AltitudeMeters>1189.800048828125</AltitudeMeters>
            <DistanceMeters>8124.3414306925</DistanceMeters>
          </Trackpoint>
          <Trackpoint>
            <Time>2022-10-08T08:24:14.000Z</Time>
            <Position>
              <LatitudeDegrees>37.25481209345161914825439453125</LatitudeDegrees>
              <LongitudeDegrees>-3.5058243758976459503173828125</LongitudeDegrees>
            </Position>
            <AltitudeMeters>1189.800048828125</AltitudeMeters>
            <DistanceMeters>8129.715273309</DistanceMeters>
          </Trackpoint>
          <Trackpoint>
            <Time>2022-10-08T08:24:17.000Z</Time>
            <Position>
              <LatitudeDegrees>37.2547352313995361328125</LatitudeDegrees>
              <LongitudeDegrees>-3.5058309137821197509765625</LongitudeDegrees>
            </Position>
            <AltitudeMeters>1189.800048828125</AltitudeMeters>
            <DistanceMeters>8138.289295255</DistanceMeters>
          </Trackpoint>
          <Trackpoint>
            <Time>2022-10-08T08:24:20.000Z</Time>
            <Position>
              <LatitudeDegrees>37.25466323085129261016845703125</LatitudeDegrees>
              <LongitudeDegrees>-3.50582496263086795806884765625</LongitudeDegrees>
            </Position>
            <AltitudeMeters>1190</AltitudeMeters>
            <DistanceMeters>8146.3205987631</DistanceMeters>
          </Trackpoint>
          <Trackpoint>
            <Time>2022-10-08T08:24:22.000Z</Time>
            <Position>
              <LatitudeDegrees>37.25463640876114368438720703125</LatitudeDegrees>
              <LongitudeDegrees>-3.50582295097410678863525390625</LongitudeDegrees>
            </Position>
            <AltitudeMeters>1189.800048828125</AltitudeMeters>
            <DistanceMeters>8149.3135631519</DistanceMeters>
          </Trackpoint>
          <Trackpoint>
            <Time>2022-10-08T08:24:23.000Z</Time>
            <Position>
              <LatitudeDegrees>37.25461813621222972869873046875</LatitudeDegrees>
              <LongitudeDegrees>-3.50582429207861423492431640625</LongitudeDegrees>
            </Position>
            <AltitudeMeters>1189.5999755859375</AltitudeMeters>
            <DistanceMeters>8151.3472236475</DistanceMeters>
          </Trackpoint>
          <Trackpoint>
            <Time>2022-10-08T08:24:24.000Z</Time>
            <Position>
              <LatitudeDegrees>37.25459332577884197235107421875</LatitudeDegrees>
              <LongitudeDegrees>-3.50583158433437347412109375</LongitudeDegrees>
            </Position>
            <AltitudeMeters>1189.4000244140625</AltitudeMeters>
            <DistanceMeters>8154.1837352571</DistanceMeters>
          </Trackpoint>
          <Trackpoint>
            <Time>2022-10-08T08:24:27.000Z</Time>
            <Position>
              <LatitudeDegrees>37.2545221634209156036376953125</LatitudeDegrees>
              <LongitudeDegrees>-3.50586754269897937774658203125</LongitudeDegrees>
            </Position>
            <AltitudeMeters>1188.800048828125</AltitudeMeters>
            <DistanceMeters>8162.720815963</DistanceMeters>
          </Trackpoint>
          <Trackpoint>
            <Time>2022-10-08T08:24:28.000Z</Time>
            <Position>
              <LatitudeDegrees>37.25449341349303722381591796875</LatitudeDegrees>
              <LongitudeDegrees>-3.505883552134037017822265625</LongitudeDegrees>
            </Position>
            <AltitudeMeters>1188.4000244140625</AltitudeMeters>
            <DistanceMeters>8166.220070692</DistanceMeters>
          </Trackpoint>
          <Trackpoint>
            <Time>2022-10-08T08:24:29.000Z</Time>
            <Position>
              <LatitudeDegrees>37.25446860305964946746826171875</LatitudeDegrees>
              <LongitudeDegrees>-3.50589654408395290374755859375</LongitudeDegrees>
            </Position>
            <AltitudeMeters>1188.199951171875</AltitudeMeters>
            <DistanceMeters>8169.2115261498</DistanceMeters>
          </Trackpoint>
          <Trackpoint>
            <Time>2022-10-08T08:24:35.000Z</Time>
            <Position>
              <LatitudeDegrees>37.2543649189174175262451171875</LatitudeDegrees>
              <LongitudeDegrees>-3.5059159062802791595458984375</LongitudeDegrees>
            </Position>
            <AltitudeMeters>1188</AltitudeMeters>
            <DistanceMeters>8180.8785468627</DistanceMeters>
          </Trackpoint>
          <Trackpoint>
            <Time>2022-10-08T08:24:41.000Z</Time>
            <Position>
              <LatitudeDegrees>37.25423776544630527496337890625</LatitudeDegrees>
              <LongitudeDegrees>-3.50593484938144683837890625</LongitudeDegrees>
            </Position>
            <AltitudeMeters>1187.800048828125</AltitudeMeters>
            <DistanceMeters>8195.1303365557</DistanceMeters>
          </Trackpoint>
          <Trackpoint>
            <Time>2022-10-08T08:24:47.000Z</Time>
            <Position>
              <LatitudeDegrees>37.25412704050540924072265625</LatitudeDegrees>
              <LongitudeDegrees>-3.5059221088886260986328125</LongitudeDegrees>
            </Position>
            <AltitudeMeters>1187.4000244140625</AltitudeMeters>
            <DistanceMeters>8207.5060840712</DistanceMeters>
          </Trackpoint>
          <Trackpoint>
            <Time>2022-10-08T08:24:48.000Z</Time>
            <Position>
              <LatitudeDegrees>37.25408957339823246002197265625</LatitudeDegrees>
              <LongitudeDegrees>-3.50593619048595428466796875</LongitudeDegrees>
            </Position>
            <AltitudeMeters>1187.4000244140625</AltitudeMeters>
            <DistanceMeters>8211.8586810407</DistanceMeters>
          </Trackpoint>
          <Trackpoint>
            <Time>2022-10-08T08:24:52.000Z</Time>
            <Position>
              <LatitudeDegrees>37.2539533674716949462890625</LatitudeDegrees>
              <LongitudeDegrees>-3.50597265176475048065185546875</LongitudeDegrees>
            </Position>
            <AltitudeMeters>1186.4000244140625</AltitudeMeters>
            <DistanceMeters>8227.3588169713</DistanceMeters>
          </Trackpoint>
          <Trackpoint>
            <Time>2022-10-08T08:24:53.000Z</Time>
            <Position>
              <LatitudeDegrees>37.2539265453815460205078125</LatitudeDegrees>
              <LongitudeDegrees>-3.505968712270259857177734375</LongitudeDegrees>
            </Position>
            <AltitudeMeters>1186.199951171875</AltitudeMeters>
            <DistanceMeters>8230.3638255311</DistanceMeters>
          </Trackpoint>
          <Trackpoint>
            <Time>2022-10-08T08:24:54.000Z</Time>
            <Position>
              <LatitudeDegrees>37.25390064530074596405029296875</LatitudeDegrees>
              <LongitudeDegrees>-3.50596661679446697235107421875</LongitudeDegrees>
            </Position>
            <AltitudeMeters>1185.4000244140625</AltitudeMeters>
            <DistanceMeters>8233.2523875668</DistanceMeters>
          </Trackpoint>
          <Trackpoint>
            <Time>2022-10-08T08:24:55.000Z</Time>
            <Position>
              <LatitudeDegrees>37.25387549959123134613037109375</LatitudeDegrees>
              <LongitudeDegrees>-3.5059661976993083953857421875</LongitudeDegrees>
            </Position>
            <AltitudeMeters>1185</AltitudeMeters>
            <DistanceMeters>8236.0520493952</DistanceMeters>
          </Trackpoint>
          <Trackpoint>
            <Time>2022-10-08T08:24:57.000Z</Time>
            <Position>
              <LatitudeDegrees>37.25382772274315357208251953125</LatitudeDegrees>
              <LongitudeDegrees>-3.50597751326858997344970703125</LongitudeDegrees>
            </Position>
            <AltitudeMeters>1183.800048828125</AltitudeMeters>
            <DistanceMeters>8241.4644026712</DistanceMeters>
          </Trackpoint>
          <Trackpoint>
            <Time>2022-10-08T08:24:58.000Z</Time>
            <Position>
              <LatitudeDegrees>37.25381112657487392425537109375</LatitudeDegrees>
              <LongitudeDegrees>-3.50598807446658611297607421875</LongitudeDegrees>
            </Position>
            <AltitudeMeters>1183.199951171875</AltitudeMeters>
            <DistanceMeters>8243.5332806846</DistanceMeters>
          </Trackpoint>
          <Trackpoint>
            <Time>2022-10-08T08:25:00.000Z</Time>
            <Position>
              <LatitudeDegrees>37.2537788562476634979248046875</LatitudeDegrees>
              <LongitudeDegrees>-3.50601791404187679290771484375</LongitudeDegrees>
            </Position>
            <AltitudeMeters>1182.5999755859375</AltitudeMeters>
            <DistanceMeters>8247.9924541876</DistanceMeters>
          </Trackpoint>
          <Trackpoint>
            <Time>2022-10-08T08:25:03.000Z</Time>
            <Position>
              <LatitudeDegrees>37.25371188484132289886474609375</LatitudeDegrees>
              <LongitudeDegrees>-3.50604557432234287261962890625</LongitudeDegrees>
            </Position>
            <AltitudeMeters>1182.199951171875</AltitudeMeters>
            <DistanceMeters>8255.8389222589</DistanceMeters>
          </Trackpoint>
          <Trackpoint>
            <Time>2022-10-08T08:25:09.000Z</Time>
            <Position>
              <LatitudeDegrees>37.253557406365871429443359375</LatitudeDegrees>
              <LongitudeDegrees>-3.5060211829841136932373046875</LongitudeDegrees>
            </Position>
            <AltitudeMeters>1182</AltitudeMeters>
            <DistanceMeters>8273.1682102483</DistanceMeters>
          </Trackpoint>
          <Trackpoint>
            <Time>2022-10-08T08:25:13.000Z</Time>
            <Position>
              <LatitudeDegrees>37.25344114936888217926025390625</LatitudeDegrees>
              <LongitudeDegrees>-3.50598136894404888153076171875</LongitudeDegrees>
            </Position>
            <AltitudeMeters>1181.5999755859375</AltitudeMeters>
            <DistanceMeters>8286.5801125282</DistanceMeters>
          </Trackpoint>
          <Trackpoint>
            <Time>2022-10-08T08:25:17.000Z</Time>
            <Position>
              <LatitudeDegrees>37.253324724733829498291015625</LatitudeDegrees>
              <LongitudeDegrees>-3.50598019547760486602783203125</LongitudeDegrees>
            </Position>
            <AltitudeMeters>1180.800048828125</AltitudeMeters>
            <DistanceMeters>8299.5386348803</DistanceMeters>
          </Trackpoint>
          <Trackpoint>
            <Time>2022-10-08T08:25:19.000Z</Time>
            <Position>
              <LatitudeDegrees>37.253264375030994415283203125</LatitudeDegrees>
              <LongitudeDegrees>-3.50599109195172786712646484375</LongitudeDegrees>
            </Position>
            <AltitudeMeters>1180.4000244140625</AltitudeMeters>
            <DistanceMeters>8306.3248996751</DistanceMeters>
          </Trackpoint>
          <Trackpoint>
            <Time>2022-10-08T08:25:25.000Z</Time>
            <Position>
              <LatitudeDegrees>37.253092043101787567138671875</LatitudeDegrees>
              <LongitudeDegrees>-3.505993522703647613525390625</LongitudeDegrees>
            </Position>
            <AltitudeMeters>1179.4000244140625</AltitudeMeters>
            <DistanceMeters>8325.5071194355</DistanceMeters>
          </Trackpoint>
          <Trackpoint>
            <Time>2022-10-08T08:25:28.000Z</Time>
            <Position>
              <LatitudeDegrees>37.25299456156790256500244140625</LatitudeDegrees>
              <LongitudeDegrees>-3.5060267150402069091796875</LongitudeDegrees>
            </Position>
            <AltitudeMeters>1179</AltitudeMeters>
            <DistanceMeters>8336.7484222851</DistanceMeters>
          </Trackpoint>
          <Trackpoint>
            <Time>2022-10-08T08:25:31.000Z</Time>
            <Position>
              <LatitudeDegrees>37.25293102674186229705810546875</LatitudeDegrees>
              <LongitudeDegrees>-3.50604490377008914947509765625</LongitudeDegrees>
            </Position>
            <AltitudeMeters>1178.5999755859375</AltitudeMeters>
            <DistanceMeters>8344.0016440081</DistanceMeters>
          </Trackpoint>
          <Trackpoint>
            <Time>2022-10-08T08:25:32.000Z</Time>
            <Position>
              <LatitudeDegrees>37.2529031150043010711669921875</LatitudeDegrees>
              <LongitudeDegrees>-3.50604926235973834991455078125</LongitudeDegrees>
            </Position>
            <AltitudeMeters>1178.4000244140625</AltitudeMeters>
            <DistanceMeters>8347.1303183065</DistanceMeters>
          </Trackpoint>
          <Trackpoint>
            <Time>2022-10-08T08:25:34.000Z</Time>
            <Position>
              <LatitudeDegrees>37.25284670479595661163330078125</LatitudeDegrees>
              <LongitudeDegrees>-3.50604959763586521148681640625</LongitudeDegrees>
            </Position>
            <AltitudeMeters>1178.199951171875</AltitudeMeters>
            <DistanceMeters>8353.4092763215</DistanceMeters>
          </Trackpoint>
          <Trackpoint>
            <Time>2022-10-08T08:25:35.000Z</Time>
            <Position>
              <LatitudeDegrees>37.25282373838126659393310546875</LatitudeDegrees>
              <LongitudeDegrees>-3.5060459934175014495849609375</LongitudeDegrees>
            </Position>
            <AltitudeMeters>1177.800048828125</AltitudeMeters>
            <DistanceMeters>8355.9855344969</DistanceMeters>
          </Trackpoint>
          <Trackpoint>
            <Time>2022-10-08T08:25:37.000Z</Time>
            <Position>
              <LatitudeDegrees>37.2527743689715862274169921875</LatitudeDegrees>
              <LongitudeDegrees>-3.50603803060948848724365234375</LongitudeDegrees>
            </Position>
            <AltitudeMeters>1177.4000244140625</AltitudeMeters>
            <DistanceMeters>8361.5256815918</DistanceMeters>
          </Trackpoint>
          <Trackpoint>
            <Time>2022-10-08T08:25:41.000Z</Time>
            <Position>
              <LatitudeDegrees>37.2526915557682514190673828125</LatitudeDegrees>
              <LongitudeDegrees>-3.50606267340481281280517578125</LongitudeDegrees>
            </Position>
            <AltitudeMeters>1177</AltitudeMeters>
            <DistanceMeters>8370.9978956702</DistanceMeters>
          </Trackpoint>
          <Trackpoint>
            <Time>2022-10-08T08:25:42.000Z</Time>
            <Position>
              <LatitudeDegrees>37.252664901316165924072265625</LatitudeDegrees>
              <LongitudeDegrees>-3.50607926957309246063232421875</LongitudeDegrees>
            </Position>
            <AltitudeMeters>1177.199951171875</AltitudeMeters>
            <DistanceMeters>8374.307500288</DistanceMeters>
          </Trackpoint>
          <Trackpoint>
            <Time>2022-10-08T08:25:45.000Z</Time>
            <Position>
              <LatitudeDegrees>37.2525881230831146240234375</LatitudeDegrees>
              <LongitudeDegrees>-3.50612034089863300323486328125</LongitudeDegrees>
            </Position>
            <AltitudeMeters>1176.800048828125</AltitudeMeters>
            <DistanceMeters>8383.5953590439</DistanceMeters>
          </Trackpoint>
          <Trackpoint>
            <Time>2022-10-08T08:25:48.000Z</Time>
            <Position>
              <LatitudeDegrees>37.2525279410183429718017578125</LatitudeDegrees>
              <LongitudeDegrees>-3.5061769187450408935546875</LongitudeDegrees>
            </Position>
            <AltitudeMeters>1176.5999755859375</AltitudeMeters>
            <DistanceMeters>8391.9614885264</DistanceMeters>
          </Trackpoint>
          <Trackpoint>
            <Time>2022-10-08T08:25:52.000Z</Time>
            <Position>
              <LatitudeDegrees>37.2524364106357097625732421875</LatitudeDegrees>
              <LongitudeDegrees>-3.50626098923385143280029296875</LongitudeDegrees>
            </Position>
            <AltitudeMeters>1176.4000244140625</AltitudeMeters>
            <DistanceMeters>8404.5814512142</DistanceMeters>
          </Trackpoint>
          <Trackpoint>
            <Time>2022-10-08T08:25:56.000Z</Time>
            <Position>
              <LatitudeDegrees>37.25233037956058979034423828125</LatitudeDegrees>
              <LongitudeDegrees>-3.50634950213134288787841796875</LongitudeDegrees>
            </Position>
            <AltitudeMeters>1176</AltitudeMeters>
            <DistanceMeters>8418.7509508403</DistanceMeters>
          </Trackpoint>
          <Trackpoint>
            <Time>2022-10-08T08:26:03.000Z</Time>
            <Position>
              <LatitudeDegrees>37.25213818252086639404296875</LatitudeDegrees>
              <LongitudeDegrees>-3.50644446909427642822265625</LongitudeDegrees>
            </Position>
            <AltitudeMeters>1175.199951171875</AltitudeMeters>
            <DistanceMeters>8441.7379896491</DistanceMeters>
          </Trackpoint>
          <Trackpoint>
            <Time>2022-10-08T08:26:08.000Z</Time>
            <Position>
              <LatitudeDegrees>37.2520079277455806732177734375</LatitudeDegrees>
              <LongitudeDegrees>-3.506475649774074554443359375</LongitudeDegrees>
            </Position>
            <AltitudeMeters>1174</AltitudeMeters>
            <DistanceMeters>8456.4965286657</DistanceMeters>
          </Trackpoint>
          <Trackpoint>
            <Time>2022-10-08T08:26:11.000Z</Time>
            <Position>
              <LatitudeDegrees>37.2519234381616115570068359375</LatitudeDegrees>
              <LongitudeDegrees>-3.50654236972332000732421875</LongitudeDegrees>
            </Position>
            <AltitudeMeters>1173.5999755859375</AltitudeMeters>
            <DistanceMeters>8467.6036842141</DistanceMeters>
          </Trackpoint>
          <Trackpoint>
            <Time>2022-10-08T08:26:15.000Z</Time>
            <Position>
              <LatitudeDegrees>37.2517715580761432647705078125</LatitudeDegrees>
              <LongitudeDegrees>-3.506664074957370758056640625</LongitudeDegrees>
            </Position>
            <AltitudeMeters>1173</AltitudeMeters>
            <DistanceMeters>8487.6540957631</DistanceMeters>
          </Trackpoint>
          <Trackpoint>
            <Time>2022-10-08T08:26:17.000Z</Time>
            <Position>
              <LatitudeDegrees>37.25170207209885120391845703125</LatitudeDegrees>
              <LongitudeDegrees>-3.50671428255736827850341796875</LongitudeDegrees>
            </Position>
            <AltitudeMeters>1172.4000244140625</AltitudeMeters>
            <DistanceMeters>8496.5754798361</DistanceMeters>
          </Trackpoint>
          <Trackpoint>
            <Time>2022-10-08T08:26:19.000Z</Time>
            <Position>
              <LatitudeDegrees>37.2516646049916744232177734375</LatitudeDegrees>
              <LongitudeDegrees>-3.50673875771462917327880859375</LongitudeDegrees>
            </Position>
            <AltitudeMeters>1172</AltitudeMeters>
            <DistanceMeters>8501.2761815984</DistanceMeters>
          </Trackpoint>
          <Trackpoint>
            <Time>2022-10-08T08:26:21.000Z</Time>
            <Position>
              <LatitudeDegrees>37.251618169248104095458984375</LatitudeDegrees>
              <LongitudeDegrees>-3.50676021538674831390380859375</LongitudeDegrees>
            </Position>
            <AltitudeMeters>1171.800048828125</AltitudeMeters>
            <DistanceMeters>8506.7828136634</DistanceMeters>
          </Trackpoint>
          <Trackpoint>
            <Time>2022-10-08T08:26:22.000Z</Time>
            <Position>
              <LatitudeDegrees>37.2515945322811603546142578125</LatitudeDegrees>
              <LongitudeDegrees>-3.5067722015082836151123046875</LongitudeDegrees>
            </Position>
            <AltitudeMeters>1172</AltitudeMeters>
            <DistanceMeters>8509.620916584</DistanceMeters>
          </Trackpoint>
          <Trackpoint>
            <Time>2022-10-08T08:26:25.000Z</Time>
            <Position>
              <LatitudeDegrees>37.2515311650931835174560546875</LatitudeDegrees>
              <LongitudeDegrees>-3.50678108632564544677734375</LongitudeDegrees>
            </Position>
            <AltitudeMeters>1172</AltitudeMeters>
            <DistanceMeters>8516.7168102029</DistanceMeters>
          </Trackpoint>
          <Trackpoint>
            <Time>2022-10-08T08:26:32.000Z</Time>
            <Position>
              <LatitudeDegrees>37.251386158168315887451171875</LatitudeDegrees>
              <LongitudeDegrees>-3.50681117735803127288818359375</LongitudeDegrees>
            </Position>
            <AltitudeMeters>1172.199951171875</AltitudeMeters>
            <DistanceMeters>8533.075211266</DistanceMeters>
          </Trackpoint>
          <Trackpoint>
            <Time>2022-10-08T08:26:39.000Z</Time>
            <Position>
              <LatitudeDegrees>37.25126822479069232940673828125</LatitudeDegrees>
              <LongitudeDegrees>-3.5070471279323101043701171875</LongitudeDegrees>
            </Position>
            <AltitudeMeters>1171.5999755859375</AltitudeMeters>
            <DistanceMeters>8557.7587547277</DistanceMeters>
          </Trackpoint>
          <Trackpoint>
            <Time>2022-10-08T08:26:41.000Z</Time>
            <Position>
              <LatitudeDegrees>37.251227907836437225341796875</LatitudeDegrees>
              <LongitudeDegrees>-3.50712516345083713531494140625</LongitudeDegrees>
            </Position>
            <AltitudeMeters>1171.4000244140625</AltitudeMeters>
            <DistanceMeters>8566.0009185873</DistanceMeters>
          </Trackpoint>
          <Trackpoint>
            <Time>2022-10-08T08:26:46.000Z</Time>
            <Position>
              <LatitudeDegrees>37.25112087093293666839599609375</LatitudeDegrees>
              <LongitudeDegrees>-3.5073311068117618560791015625</LongitudeDegrees>
            </Position>
            <AltitudeMeters>1171</AltitudeMeters>
            <DistanceMeters>8587.7914786915</DistanceMeters>
          </Trackpoint>
          <Trackpoint>
            <Time>2022-10-08T08:26:49.000Z</Time>
            <Position>
              <LatitudeDegrees>37.2510621137917041778564453125</LatitudeDegrees>
              <LongitudeDegrees>-3.507417775690555572509765625</LongitudeDegrees>
            </Position>
            <AltitudeMeters>1170.800048828125</AltitudeMeters>
            <DistanceMeters>8597.8773009753</DistanceMeters>
          </Trackpoint>
          <Trackpoint>
            <Time>2022-10-08T08:26:54.000Z</Time>
            <Position>
              <LatitudeDegrees>37.2509682364761829376220703125</LatitudeDegrees>
              <LongitudeDegrees>-3.50755230523645877838134765625</LongitudeDegrees>
            </Position>
            <AltitudeMeters>1170.5999755859375</AltitudeMeters>
            <DistanceMeters>8613.7271188503</DistanceMeters>
          </Trackpoint>
          <Trackpoint>
            <Time>2022-10-08T08:26:59.000Z</Time>
            <Position>
              <LatitudeDegrees>37.2508599422872066497802734375</LatitudeDegrees>
              <LongitudeDegrees>-3.50775741040706634521484375</LongitudeDegrees>
            </Position>
            <AltitudeMeters>1169.800048828125</AltitudeMeters>
            <DistanceMeters>8635.5327994229</DistanceMeters>
          </Trackpoint>
          <Trackpoint>
            <Time>2022-10-08T08:27:01.000Z</Time>
            <Position>
              <LatitudeDegrees>37.250827588140964508056640625</LatitudeDegrees>
              <LongitudeDegrees>-3.5078155808150768280029296875</LongitudeDegrees>
            </Position>
            <AltitudeMeters>1169.5999755859375</AltitudeMeters>
            <DistanceMeters>8641.8196622809</DistanceMeters>
          </Trackpoint>
          <Trackpoint>
            <Time>2022-10-08T08:27:02.000Z</Time>
            <Position>
              <LatitudeDegrees>37.2508079744875431060791015625</LatitudeDegrees>
              <LongitudeDegrees>-3.50784583948552608489990234375</LongitudeDegrees>
            </Position>
            <AltitudeMeters>1169.4000244140625</AltitudeMeters>
            <DistanceMeters>8645.2773813573</DistanceMeters>
          </Trackpoint>
          <Trackpoint>
            <Time>2022-10-08T08:27:06.000Z</Time>
            <Position>
              <LatitudeDegrees>37.2507214732468128204345703125</LatitudeDegrees>
              <LongitudeDegrees>-3.50793284364044666290283203125</LongitudeDegrees>
            </Position>
            <AltitudeMeters>1168.5999755859375</AltitudeMeters>
            <DistanceMeters>8657.6103699498</DistanceMeters>
          </Trackpoint>
          <Trackpoint>
            <Time>2022-10-08T08:27:07.000Z</Time>
            <Position>
              <LatitudeDegrees>37.25069942884147167205810546875</LatitudeDegrees>
              <LongitudeDegrees>-3.50796184502542018890380859375</LongitudeDegrees>
            </Position>
            <AltitudeMeters>1168.4000244140625</AltitudeMeters>
            <DistanceMeters>8661.163403424</DistanceMeters>
          </Trackpoint>
          <Trackpoint>
            <Time>2022-10-08T08:27:12.000Z</Time>
            <Position>
              <LatitudeDegrees>37.2505950741469860076904296875</LatitudeDegrees>
              <LongitudeDegrees>-3.50812110118567943572998046875</LongitudeDegrees>
            </Position>
            <AltitudeMeters>1167.5999755859375</AltitudeMeters>
            <DistanceMeters>8679.4384513659</DistanceMeters>
          </Trackpoint>
          <Trackpoint>
            <Time>2022-10-08T08:27:13.000Z</Time>
            <Position>
              <LatitudeDegrees>37.25057939998805522918701171875</LatitudeDegrees>
              <LongitudeDegrees>-3.50815345533192157745361328125</LongitudeDegrees>
            </Position>
            <AltitudeMeters>1167.5999755859375</AltitudeMeters>
            <DistanceMeters>8682.7927732421</DistanceMeters>
          </Trackpoint>
          <Trackpoint>
            <Time>2022-10-08T08:27:14.000Z</Time>
            <Position>
              <LatitudeDegrees>37.2505602054297924041748046875</LatitudeDegrees>
              <LongitudeDegrees>-3.50818664766848087310791015625</LongitudeDegrees>
            </Position>
            <AltitudeMeters>1167.4000244140625</AltitudeMeters>
            <DistanceMeters>8686.4274674297</DistanceMeters>
          </Trackpoint>
          <Trackpoint>
            <Time>2022-10-08T08:27:19.000Z</Time>
            <Position>
              <LatitudeDegrees>37.2504730336368083953857421875</LatitudeDegrees>
              <LongitudeDegrees>-3.50833450444042682647705078125</LongitudeDegrees>
            </Position>
            <AltitudeMeters>1166.800048828125</AltitudeMeters>
            <DistanceMeters>8702.7289118318</DistanceMeters>
          </Trackpoint>
          <Trackpoint>
            <Time>2022-10-08T08:27:21.000Z</Time>
            <Position>
              <LatitudeDegrees>37.25043824873864650726318359375</LatitudeDegrees>
              <LongitudeDegrees>-3.5083909146487712860107421875</LongitudeDegrees>
            </Position>
            <AltitudeMeters>1166.4000244140625</AltitudeMeters>
            <DistanceMeters>8709.0508670943</DistanceMeters>
          </Trackpoint>
          <Trackpoint>
            <Time>2022-10-08T08:27:25.000Z</Time>
            <Position>
              <LatitudeDegrees>37.25036180578172206878662109375</LatitudeDegrees>
              <LongitudeDegrees>-3.508503399789333343505859375</LongitudeDegrees>
            </Position>
            <AltitudeMeters>1166.199951171875</AltitudeMeters>
            <DistanceMeters>8722.1545651823</DistanceMeters>
          </Trackpoint>
          <Trackpoint>
            <Time>2022-10-08T08:27:32.000Z</Time>
            <Position>
              <LatitudeDegrees>37.25023071281611919403076171875</LatitudeDegrees>
              <LongitudeDegrees>-3.508657626807689666748046875</LongitudeDegrees>
            </Position>
            <AltitudeMeters>1165.4000244140625</AltitudeMeters>
            <DistanceMeters>8742.1443103713</DistanceMeters>
          </Trackpoint>
          <Trackpoint>
            <Time>2022-10-08T08:27:34.000Z</Time>
            <Position>
              <LatitudeDegrees>37.2501846961677074432373046875</LatitudeDegrees>
              <LongitudeDegrees>-3.508713282644748687744140625</LongitudeDegrees>
            </Position>
            <AltitudeMeters>1165.4000244140625</AltitudeMeters>
            <DistanceMeters>8749.2541885653</DistanceMeters>
          </Trackpoint>
          <Trackpoint>
            <Time>2022-10-08T08:27:36.000Z</Time>
            <Position>
              <LatitudeDegrees>37.2501471452414989471435546875</LatitudeDegrees>
              <LongitudeDegrees>-3.5087692737579345703125</LongitudeDegrees>
            </Position>
            <AltitudeMeters>1165.4000244140625</AltitudeMeters>
            <DistanceMeters>8755.7411105032</DistanceMeters>
          </Trackpoint>
          <Trackpoint>
            <Time>2022-10-08T08:27:43.000Z</Time>
            <Position>
              <LatitudeDegrees>37.25005167536437511444091796875</LatitudeDegrees>
              <LongitudeDegrees>-3.5089950822293758392333984375</LongitudeDegrees>
            </Position>
            <AltitudeMeters>1164.800048828125</AltitudeMeters>
            <DistanceMeters>8778.3937731283</DistanceMeters>
          </Trackpoint>
          <Trackpoint>
            <Time>2022-10-08T08:27:46.000Z</Time>
            <Position>
              <LatitudeDegrees>37.25001244805753231048583984375</LatitudeDegrees>
              <LongitudeDegrees>-3.50910446606576442718505859375</LongitudeDegrees>
            </Position>
            <AltitudeMeters>1164.5999755859375</AltitudeMeters>
            <DistanceMeters>8789.022756447</DistanceMeters>
          </Trackpoint>
          <Trackpoint>
            <Time>2022-10-08T08:27:48.000Z</Time>
            <Position>
              <LatitudeDegrees>37.249984703958034515380859375</LatitudeDegrees>
              <LongitudeDegrees>-3.50918895564973354339599609375</LongitudeDegrees>
            </Position>
            <AltitudeMeters>1164.800048828125</AltitudeMeters>
            <DistanceMeters>8797.1206830419</DistanceMeters>
          </Trackpoint>
          <Trackpoint>
            <Time>2022-10-08T08:27:55.000Z</Time>
            <Position>
              <LatitudeDegrees>37.249893508851528167724609375</LatitudeDegrees>
              <LongitudeDegrees>-3.50941476412117481231689453125</LongitudeDegrees>
            </Position>
            <AltitudeMeters>1165</AltitudeMeters>
            <DistanceMeters>8819.5542342627</DistanceMeters>
          </Trackpoint>
          <Trackpoint>
            <Time>2022-10-08T08:27:57.000Z</Time>
            <Position>
              <LatitudeDegrees>37.24987850524485111236572265625</LatitudeDegrees>
              <LongitudeDegrees>-3.50946329534053802490234375</LongitudeDegrees>
            </Position>
            <AltitudeMeters>1165</AltitudeMeters>
            <DistanceMeters>8824.165723179</DistanceMeters>
          </Trackpoint>
          <Trackpoint>
            <Time>2022-10-08T08:28:03.000Z</Time>
            <Position>
              <LatitudeDegrees>37.2498135454952716827392578125</LatitudeDegrees>
              <LongitudeDegrees>-3.50962548516690731048583984375</LongitudeDegrees>
            </Position>
            <AltitudeMeters>1164.5999755859375</AltitudeMeters>
            <DistanceMeters>8840.2516437465</DistanceMeters>
          </Trackpoint>
          <Trackpoint>
            <Time>2022-10-08T08:28:04.000Z</Time>
            <Position>
              <LatitudeDegrees>37.2498041577637195587158203125</LatitudeDegrees>
              <LongitudeDegrees>-3.509648032486438751220703125</LongitudeDegrees>
            </Position>
            <AltitudeMeters>1164.4000244140625</AltitudeMeters>
            <DistanceMeters>8842.504398274</DistanceMeters>
          </Trackpoint>
          <Trackpoint>
            <Time>2022-10-08T08:28:10.000Z</Time>
            <Position>
              <LatitudeDegrees>37.24977641366422176361083984375</LatitudeDegrees>
              <LongitudeDegrees>-3.509801588952541351318359375</LongitudeDegrees>
            </Position>
            <AltitudeMeters>1164</AltitudeMeters>
            <DistanceMeters>8856.4548895743</DistanceMeters>
          </Trackpoint>
          <Trackpoint>
            <Time>2022-10-08T08:28:16.000Z</Time>
            <Position>
              <LatitudeDegrees>37.249713800847530364990234375</LatitudeDegrees>
              <LongitudeDegrees>-3.5099942050874233245849609375</LongitudeDegrees>
            </Position>
            <AltitudeMeters>1163.5999755859375</AltitudeMeters>
            <DistanceMeters>8874.8881127443</DistanceMeters>
          </Trackpoint>
          <Trackpoint>
            <Time>2022-10-08T08:28:17.000Z</Time>
            <Position>
              <LatitudeDegrees>37.24970131181180477142333984375</LatitudeDegrees>
              <LongitudeDegrees>-3.510021865367889404296875</LongitudeDegrees>
            </Position>
            <AltitudeMeters>1163.5999755859375</AltitudeMeters>
            <DistanceMeters>8877.7038554736</DistanceMeters>
          </Trackpoint>
          <Trackpoint>
            <Time>2022-10-08T08:28:19.000Z</Time>
            <Position>
              <LatitudeDegrees>37.2496720589697360992431640625</LatitudeDegrees>
              <LongitudeDegrees>-3.51008682511746883392333984375</LongitudeDegrees>
            </Position>
            <AltitudeMeters>1163.4000244140625</AltitudeMeters>
            <DistanceMeters>8884.3162400769</DistanceMeters>
          </Trackpoint>
          <Trackpoint>
            <Time>2022-10-08T08:28:22.000Z</Time>
            <Position>
              <LatitudeDegrees>37.24962302483618259429931640625</LatitudeDegrees>
              <LongitudeDegrees>-3.51016829721629619598388671875</LongitudeDegrees>
            </Position>
            <AltitudeMeters>1163.199951171875</AltitudeMeters>
            <DistanceMeters>8893.3657573718</DistanceMeters>
          </Trackpoint>
          <Trackpoint>
            <Time>2022-10-08T08:28:24.000Z</Time>
            <Position>
              <LatitudeDegrees>37.24958798848092555999755859375</LatitudeDegrees>
              <LongitudeDegrees>-3.5102218575775623321533203125</LongitudeDegrees>
            </Position>
            <AltitudeMeters>1163</AltitudeMeters>
            <DistanceMeters>8899.5080419128</DistanceMeters>
          </Trackpoint>
          <Trackpoint>
            <Time>2022-10-08T08:28:29.000Z</Time>
            <Position>
              <LatitudeDegrees>37.24949427880346775054931640625</LatitudeDegrees>
              <LongitudeDegrees>-3.51040047593414783477783203125</LongitudeDegrees>
            </Position>
            <AltitudeMeters>1162.4000244140625</AltitudeMeters>
            <DistanceMeters>8918.4610480316</DistanceMeters>
          </Trackpoint>
          <Trackpoint>
            <Time>2022-10-08T08:28:30.000Z</Time>
            <Position>
              <LatitudeDegrees>37.24947231821715831756591796875</LatitudeDegrees>
              <LongitudeDegrees>-3.51043157279491424560546875</LongitudeDegrees>
            </Position>
            <AltitudeMeters>1162.199951171875</AltitudeMeters>
            <DistanceMeters>8922.1438696155</DistanceMeters>
          </Trackpoint>
          <Trackpoint>
            <Time>2022-10-08T08:28:35.000Z</Time>
            <Position>
              <LatitudeDegrees>37.24936737678945064544677734375</LatitudeDegrees>
              <LongitudeDegrees>-3.51060063578188419342041015625</LongitudeDegrees>
            </Position>
            <AltitudeMeters>1161.800048828125</AltitudeMeters>
            <DistanceMeters>8941.1380435688</DistanceMeters>
          </Trackpoint>
          <Trackpoint>
            <Time>2022-10-08T08:28:37.000Z</Time>
            <Position>
              <LatitudeDegrees>37.2493304125964641571044921875</LatitudeDegrees>
              <LongitudeDegrees>-3.5106674395501613616943359375</LongitudeDegrees>
            </Position>
            <AltitudeMeters>1161.5999755859375</AltitudeMeters>
            <DistanceMeters>8948.3463068727</DistanceMeters>
          </Trackpoint>
          <Trackpoint>
            <Time>2022-10-08T08:28:38.000Z</Time>
            <Position>
              <LatitudeDegrees>37.24931247532367706298828125</LatitudeDegrees>
              <LongitudeDegrees>-3.51069551892578601837158203125</LongitudeDegrees>
            </Position>
            <AltitudeMeters>1161.4000244140625</AltitudeMeters>
            <DistanceMeters>8951.5350160278</DistanceMeters>
          </Trackpoint>
          <Trackpoint>
            <Time>2022-10-08T08:28:42.000Z</Time>
            <Position>
              <LatitudeDegrees>37.24922086112201213836669921875</LatitudeDegrees>
              <LongitudeDegrees>-3.51077757775783538818359375</LongitudeDegrees>
            </Position>
            <AltitudeMeters>1160.199951171875</AltitudeMeters>
            <DistanceMeters>8964.0580083859</DistanceMeters>
          </Trackpoint>
          <Trackpoint>
            <Time>2022-10-08T08:28:43.000Z</Time>
            <Position>
              <LatitudeDegrees>37.249190099537372589111328125</LatitudeDegrees>
              <LongitudeDegrees>-3.5107985325157642364501953125</LongitudeDegrees>
            </Position>
            <AltitudeMeters>1159.800048828125</AltitudeMeters>
            <DistanceMeters>8967.9517852606</DistanceMeters>
          </Trackpoint>
          <Trackpoint>
            <Time>2022-10-08T08:28:50.000Z</Time>
            <Position>
              <LatitudeDegrees>37.24899061024188995361328125</LatitudeDegrees>
              <LongitudeDegrees>-3.510928452014923095703125</LongitudeDegrees>
            </Position>
            <AltitudeMeters>1159.5999755859375</AltitudeMeters>
            <DistanceMeters>8992.9615094702</DistanceMeters>
          </Trackpoint>
          <Trackpoint>
            <Time>2022-10-08T08:28:55.000Z</Time>
            <Position>
              <LatitudeDegrees>37.2488425858318805694580078125</LatitudeDegrees>
              <LongitudeDegrees>-3.5110714472830295562744140625</LongitudeDegrees>
            </Position>
            <AltitudeMeters>1159.199951171875</AltitudeMeters>
            <DistanceMeters>9013.7447882448</DistanceMeters>
          </Trackpoint>
          <Trackpoint>
            <Time>2022-10-08T08:28:58.000Z</Time>
            <Position>
              <LatitudeDegrees>37.24876505322754383087158203125</LatitudeDegrees>
              <LongitudeDegrees>-3.51113372482359409332275390625</LongitudeDegrees>
            </Position>
            <AltitudeMeters>1158.5999755859375</AltitudeMeters>
            <DistanceMeters>9023.987416234</DistanceMeters>
          </Trackpoint>
          <Trackpoint>
            <Time>2022-10-08T08:28:59.000Z</Time>
            <Position>
              <LatitudeDegrees>37.24874862469732761383056640625</LatitudeDegrees>
              <LongitudeDegrees>-3.51116188801825046539306640625</LongitudeDegrees>
            </Position>
            <AltitudeMeters>1158.4000244140625</AltitudeMeters>
            <DistanceMeters>9027.0812619042</DistanceMeters>
          </Trackpoint>
          <Trackpoint>
            <Time>2022-10-08T08:29:03.000Z</Time>
            <Position>
              <LatitudeDegrees>37.24871979095041751861572265625</LatitudeDegrees>
              <LongitudeDegrees>-3.51129113696515560150146484375</LongitudeDegrees>
            </Position>
            <AltitudeMeters>1158.5999755859375</AltitudeMeters>
            <DistanceMeters>9038.9740364897</DistanceMeters>
          </Trackpoint>
          <Trackpoint>
            <Time>2022-10-08T08:29:08.000Z</Time>
            <Position>
              <LatitudeDegrees>37.24870721809566020965576171875</LatitudeDegrees>
              <LongitudeDegrees>-3.51141569204628467559814453125</LongitudeDegrees>
            </Position>
            <AltitudeMeters>1159.800048828125</AltitudeMeters>
            <DistanceMeters>9050.097845977</DistanceMeters>
          </Trackpoint>
          <Trackpoint>
            <Time>2022-10-08T08:29:09.000Z</Time>
            <Position>
              <LatitudeDegrees>37.2487131692469120025634765625</LatitudeDegrees>
              <LongitudeDegrees>-3.511436395347118377685546875</LongitudeDegrees>
            </Position>
            <AltitudeMeters>1160.199951171875</AltitudeMeters>
            <DistanceMeters>9052.0476311403</DistanceMeters>
          </Trackpoint>
          <Trackpoint>
            <Time>2022-10-08T08:29:11.000Z</Time>
            <Position>
              <LatitudeDegrees>37.24871912039816379547119140625</LatitudeDegrees>
              <LongitudeDegrees>-3.5114717669785022735595703125</LongitudeDegrees>
            </Position>
            <AltitudeMeters>1160.800048828125</AltitudeMeters>
            <DistanceMeters>9055.2504684512</DistanceMeters>
          </Trackpoint>
          <Trackpoint>
            <Time>2022-10-08T08:29:13.000Z</Time>
            <Position>
              <LatitudeDegrees>37.2487175278365612030029296875</LatitudeDegrees>
              <LongitudeDegrees>-3.51150034926831722259521484375</LongitudeDegrees>
            </Position>
            <AltitudeMeters>1161.4000244140625</AltitudeMeters>
            <DistanceMeters>9057.7878774653</DistanceMeters>
          </Trackpoint>
          <Trackpoint>
            <Time>2022-10-08T08:29:15.000Z</Time>
            <Position>
              <LatitudeDegrees>37.2487041167914867401123046875</LatitudeDegrees>
              <LongitudeDegrees>-3.51153907366096973419189453125</LongitudeDegrees>
            </Position>
            <AltitudeMeters>1161.800048828125</AltitudeMeters>
            <DistanceMeters>9061.5290829512</DistanceMeters>
          </Trackpoint>
          <Trackpoint>
            <Time>2022-10-08T08:29:17.000Z</Time>
            <Position>
              <LatitudeDegrees>37.2486841678619384765625</LatitudeDegrees>
              <LongitudeDegrees>-3.5115763731300830841064453125</LongitudeDegrees>
            </Position>
            <AltitudeMeters>1162.5999755859375</AltitudeMeters>
            <DistanceMeters>9065.5122781903</DistanceMeters>
          </Trackpoint>
          <Trackpoint>
            <Time>2022-10-08T08:29:18.000Z</Time>
            <Position>
              <LatitudeDegrees>37.24867570213973522186279296875</LatitudeDegrees>
              <LongitudeDegrees>-3.51159003563225269317626953125</LongitudeDegrees>
            </Position>
            <AltitudeMeters>1162.5999755859375</AltitudeMeters>
            <DistanceMeters>9067.0474817441</DistanceMeters>
          </Trackpoint>
          <Trackpoint>
            <Time>2022-10-08T08:29:20.000Z</Time>
            <Position>
              <LatitudeDegrees>37.24865508265793323516845703125</LatitudeDegrees>
              <LongitudeDegrees>-3.51162088103592395782470703125</LongitudeDegrees>
            </Position>
            <AltitudeMeters>1163</AltitudeMeters>
            <DistanceMeters>9070.616996818</DistanceMeters>
          </Trackpoint>
          <Trackpoint>
            <Time>2022-10-08T08:29:24.000Z</Time>
            <Position>
              <LatitudeDegrees>37.2486105747520923614501953125</LatitudeDegrees>
              <LongitudeDegrees>-3.51168877445161342620849609375</LongitudeDegrees>
            </Position>
            <AltitudeMeters>1163.5999755859375</AltitudeMeters>
            <DistanceMeters>9078.409766806</DistanceMeters>
          </Trackpoint>
          <Trackpoint>
            <Time>2022-10-08T08:29:25.000Z</Time>
            <Position>
              <LatitudeDegrees>37.2485991753637790679931640625</LatitudeDegrees>
              <LongitudeDegrees>-3.5117034427821636199951171875</LongitudeDegrees>
            </Position>
            <AltitudeMeters>1163.800048828125</AltitudeMeters>
            <DistanceMeters>9080.2252496349</DistanceMeters>
          </Trackpoint>
          <Trackpoint>
            <Time>2022-10-08T08:29:28.000Z</Time>
            <Position>
              <LatitudeDegrees>37.2485760413110256195068359375</LatitudeDegrees>
              <LongitudeDegrees>-3.51174627430737018585205078125</LongitudeDegrees>
            </Position>
            <AltitudeMeters>1164</AltitudeMeters>
            <DistanceMeters>9084.8121961262</DistanceMeters>
          </Trackpoint>
          <Trackpoint>
            <Time>2022-10-08T08:29:30.000Z</Time>
            <Position>
              <LatitudeDegrees>37.2485554218292236328125</LatitudeDegrees>
              <LongitudeDegrees>-3.51176270283758640289306640625</LongitudeDegrees>
            </Position>
            <AltitudeMeters>1164.4000244140625</AltitudeMeters>
            <DistanceMeters>9087.528364835</DistanceMeters>
          </Trackpoint>
          <Trackpoint>
            <Time>2022-10-08T08:29:32.000Z</Time>
            <Position>
              <LatitudeDegrees>37.24853773601353168487548828125</LatitudeDegrees>
              <LongitudeDegrees>-3.511790446937084197998046875</LongitudeDegrees>
            </Position>
            <AltitudeMeters>1164.800048828125</AltitudeMeters>
            <DistanceMeters>9090.6771779345</DistanceMeters>
          </Trackpoint>
          <Trackpoint>
            <Time>2022-10-08T08:29:33.000Z</Time>
            <Position>
              <LatitudeDegrees>37.24852767772972583770751953125</LatitudeDegrees>
              <LongitudeDegrees>-3.5117969848215579986572265625</LongitudeDegrees>
            </Position>
            <AltitudeMeters>1165.199951171875</AltitudeMeters>
            <DistanceMeters>9091.937849761</DistanceMeters>
          </Trackpoint>
          <Trackpoint>
            <Time>2022-10-08T08:29:38.000Z</Time>
            <Position>
              <LatitudeDegrees>37.24850286729633808135986328125</LatitudeDegrees>
              <LongitudeDegrees>-3.5118415765464305877685546875</LongitudeDegrees>
            </Position>
            <AltitudeMeters>1166</AltitudeMeters>
            <DistanceMeters>9096.7589924437</DistanceMeters>
          </Trackpoint>
          <Trackpoint>
            <Time>2022-10-08T08:29:43.000Z</Time>
            <Position>
              <LatitudeDegrees>37.248471938073635101318359375</LatitudeDegrees>
              <LongitudeDegrees>-3.51186144165694713592529296875</LongitudeDegrees>
            </Position>
            <AltitudeMeters>1167.199951171875</AltitudeMeters>
            <DistanceMeters>9100.6236717885</DistanceMeters>
          </Trackpoint>
          <Trackpoint>
            <Time>2022-10-08T08:29:48.000Z</Time>
            <Position>
              <LatitudeDegrees>37.248459868133068084716796875</LatitudeDegrees>
              <LongitudeDegrees>-3.511939980089664459228515625</LongitudeDegrees>
            </Position>
            <AltitudeMeters>1168.4000244140625</AltitudeMeters>
            <DistanceMeters>9107.7106517646</DistanceMeters>
          </Trackpoint>
          <Trackpoint>
            <Time>2022-10-08T08:29:50.000Z</Time>
            <Position>
              <LatitudeDegrees>37.248446457087993621826171875</LatitudeDegrees>
              <LongitudeDegrees>-3.5119713284075260162353515625</LongitudeDegrees>
            </Position>
            <AltitudeMeters>1168.800048828125</AltitudeMeters>
            <DistanceMeters>9110.8623313308</DistanceMeters>
          </Trackpoint>
          <Trackpoint>
            <Time>2022-10-08T08:29:53.000Z</Time>
            <Position>
              <LatitudeDegrees>37.24843229167163372039794921875</LatitudeDegrees>
              <LongitudeDegrees>-3.5120142437517642974853515625</LongitudeDegrees>
            </Position>
            <AltitudeMeters>1169.5999755859375</AltitudeMeters>
            <DistanceMeters>9114.9782058927</DistanceMeters>
          </Trackpoint>
          <Trackpoint>
            <Time>2022-10-08T08:29:57.000Z</Time>
            <Position>
              <LatitudeDegrees>37.24839775823056697845458984375</LatitudeDegrees>
              <LongitudeDegrees>-3.512064702808856964111328125</LongitudeDegrees>
            </Position>
            <AltitudeMeters>1170.800048828125</AltitudeMeters>
            <DistanceMeters>9120.8729267645</DistanceMeters>
          </Trackpoint>
          <Trackpoint>
            <Time>2022-10-08T08:29:58.000Z</Time>
            <Position>
              <LatitudeDegrees>37.248389460146427154541015625</LatitudeDegrees>
              <LongitudeDegrees>-3.51207953877747058868408203125</LongitudeDegrees>
            </Position>
            <AltitudeMeters>1170.800048828125</AltitudeMeters>
            <DistanceMeters>9122.4799743254</DistanceMeters>
          </Trackpoint>
          <Trackpoint>
            <Time>2022-10-08T08:30:03.000Z</Time>
            <Position>
              <LatitudeDegrees>37.24836431443691253662109375</LatitudeDegrees>
              <LongitudeDegrees>-3.5121409781277179718017578125</LongitudeDegrees>
            </Position>
            <AltitudeMeters>1171.800048828125</AltitudeMeters>
            <DistanceMeters>9128.6016421735</DistanceMeters>
          </Trackpoint>
          <Trackpoint>
            <Time>2022-10-08T08:30:06.000Z</Time>
            <Position>
              <LatitudeDegrees>37.2483319602906703948974609375</LatitudeDegrees>
              <LongitudeDegrees>-3.5121661238372325897216796875</LongitudeDegrees>
            </Position>
            <AltitudeMeters>1172.800048828125</AltitudeMeters>
            <DistanceMeters>9132.8364658791</DistanceMeters>
          </Trackpoint>
          <Trackpoint>
            <Time>2022-10-08T08:30:07.000Z</Time>
            <Position>
              <LatitudeDegrees>37.248321063816547393798828125</LatitudeDegrees>
              <LongitudeDegrees>-3.5121631063520908355712890625</LongitudeDegrees>
            </Position>
            <AltitudeMeters>1173</AltitudeMeters>
            <DistanceMeters>9134.0827295544</DistanceMeters>
          </Trackpoint>
          <Trackpoint>
            <Time>2022-10-08T08:30:10.000Z</Time>
            <Position>
              <LatitudeDegrees>37.24828678183257579803466796875</LatitudeDegrees>
              <LongitudeDegrees>-3.512169979512691497802734375</LongitudeDegrees>
            </Position>
            <AltitudeMeters>1173.5999755859375</AltitudeMeters>
            <DistanceMeters>9137.9474088992</DistanceMeters>
          </Trackpoint>
          <Trackpoint>
            <Time>2022-10-08T08:30:11.000Z</Time>
            <Position>
              <LatitudeDegrees>37.24827236495912075042724609375</LatitudeDegrees>
              <LongitudeDegrees>-3.5121808759868144989013671875</LongitudeDegrees>
            </Position>
            <AltitudeMeters>1173.800048828125</AltitudeMeters>
            <DistanceMeters>9139.8192180936</DistanceMeters>
          </Trackpoint>
          <Trackpoint>
            <Time>2022-10-08T08:30:13.000Z</Time>
            <Position>
              <LatitudeDegrees>37.24824361503124237060546875</LatitudeDegrees>
              <LongitudeDegrees>-3.512199819087982177734375</LongitudeDegrees>
            </Position>
            <AltitudeMeters>1174.199951171875</AltitudeMeters>
            <DistanceMeters>9143.4327330774</DistanceMeters>
          </Trackpoint>
          <Trackpoint>
            <Time>2022-10-08T08:30:18.000Z</Time>
            <Position>
              <LatitudeDegrees>37.2481874562799930572509765625</LatitudeDegrees>
              <LongitudeDegrees>-3.51223996840417385101318359375</LongitudeDegrees>
            </Position>
            <AltitudeMeters>1175.4000244140625</AltitudeMeters>
            <DistanceMeters>9150.6246923286</DistanceMeters>
          </Trackpoint>
          <Trackpoint>
            <Time>2022-10-08T08:30:19.000Z</Time>
            <Position>
              <LatitudeDegrees>37.24817764945328235626220703125</LatitudeDegrees>
              <LongitudeDegrees>-3.51225120015442371368408203125</LongitudeDegrees>
            </Position>
            <AltitudeMeters>1175.5999755859375</AltitudeMeters>
            <DistanceMeters>9152.1029610793</DistanceMeters>
          </Trackpoint>
          <Trackpoint>
            <Time>2022-10-08T08:30:24.000Z</Time>
            <Position>
              <LatitudeDegrees>37.24813238717615604400634765625</LatitudeDegrees>
              <LongitudeDegrees>-3.512274585664272308349609375</LongitudeDegrees>
            </Position>
            <AltitudeMeters>1176.4000244140625</AltitudeMeters>
            <DistanceMeters>9157.549409566</DistanceMeters>
          </Trackpoint>
          <Trackpoint>
            <Time>2022-10-08T08:30:25.000Z</Time>
            <Position>
              <LatitudeDegrees>37.248128615319728851318359375</LatitudeDegrees>
              <LongitudeDegrees>-3.5122843086719512939453125</LongitudeDegrees>
            </Position>
            <AltitudeMeters>1176.800048828125</AltitudeMeters>
            <DistanceMeters>9158.5091323371</DistanceMeters>
          </Trackpoint>
          <Trackpoint>
            <Time>2022-10-08T08:30:26.000Z</Time>
            <Position>
              <LatitudeDegrees>37.2481338120996952056884765625</LatitudeDegrees>
              <LongitudeDegrees>-3.5122938640415668487548828125</LongitudeDegrees>
            </Position>
            <AltitudeMeters>1177</AltitudeMeters>
            <DistanceMeters>9159.5281803198</DistanceMeters>
          </Trackpoint>
          <Trackpoint>
            <Time>2022-10-08T08:30:28.000Z</Time>
            <Position>
              <LatitudeDegrees>37.24815200082957744598388671875</LatitudeDegrees>
              <LongitudeDegrees>-3.51230249740183353424072265625</LongitudeDegrees>
            </Position>
            <AltitudeMeters>1177.4000244140625</AltitudeMeters>
            <DistanceMeters>9161.6909515971</DistanceMeters>
          </Trackpoint>
          <Trackpoint>
            <Time>2022-10-08T08:30:30.000Z</Time>
            <Position>
              <LatitudeDegrees>37.24816985428333282470703125</LatitudeDegrees>
              <LongitudeDegrees>-3.51229864172637462615966796875</LongitudeDegrees>
            </Position>
            <AltitudeMeters>1178</AltitudeMeters>
            <DistanceMeters>9163.7067726209</DistanceMeters>
          </Trackpoint>
          <Trackpoint>
            <Time>2022-10-08T08:30:31.000Z</Time>
            <Position>
              <LatitudeDegrees>37.24818821065127849578857421875</LatitudeDegrees>
              <LongitudeDegrees>-3.51229428313672542572021484375</LongitudeDegrees>
            </Position>
            <AltitudeMeters>1178.4000244140625</AltitudeMeters>
            <DistanceMeters>9165.7843617381</DistanceMeters>
          </Trackpoint>
          <Trackpoint>
            <Time>2022-10-08T08:30:35.000Z</Time>
            <Position>
              <LatitudeDegrees>37.24824537523090839385986328125</LatitudeDegrees>
              <LongitudeDegrees>-3.512294702231884002685546875</LongitudeDegrees>
            </Position>
            <AltitudeMeters>1179.5999755859375</AltitudeMeters>
            <DistanceMeters>9172.1461855821</DistanceMeters>
          </Trackpoint>
          <Trackpoint>
            <Time>2022-10-08T08:30:36.000Z</Time>
            <Position>
              <LatitudeDegrees>37.24825979210436344146728515625</LatitudeDegrees>
              <LongitudeDegrees>-3.5122978873550891876220703125</LongitudeDegrees>
            </Position>
            <AltitudeMeters>1179.5999755859375</AltitudeMeters>
            <DistanceMeters>9173.7755543171</DistanceMeters>
          </Trackpoint>
          <Trackpoint>
            <Time>2022-10-08T08:30:41.000Z</Time>
            <Position>
              <LatitudeDegrees>37.24831544794142246246337890625</LatitudeDegrees>
              <LongitudeDegrees>-3.5123089514672756195068359375</LongitudeDegrees>
            </Position>
            <AltitudeMeters>1180.5999755859375</AltitudeMeters>
            <DistanceMeters>9180.0465975248</DistanceMeters>
          </Trackpoint>
          <Trackpoint>
            <Time>2022-10-08T08:30:44.000Z</Time>
            <Position>
              <LatitudeDegrees>37.24832902662456035614013671875</LatitudeDegrees>
              <LongitudeDegrees>-3.51232663728296756744384765625</LongitudeDegrees>
            </Position>
            <AltitudeMeters>1181.4000244140625</AltitudeMeters>
            <DistanceMeters>9182.2218584417</DistanceMeters>
          </Trackpoint>
          <Trackpoint>
            <Time>2022-10-08T08:30:45.000Z</Time>
            <Position>
              <LatitudeDegrees>37.2483343072235584259033203125</LatitudeDegrees>
              <LongitudeDegrees>-3.5123273916542530059814453125</LongitudeDegrees>
            </Position>
            <AltitudeMeters>1181.5999755859375</AltitudeMeters>
            <DistanceMeters>9182.8076424505</DistanceMeters>
          </Trackpoint>
          <Trackpoint>
            <Time>2022-10-08T08:30:46.000Z</Time>
            <Position>
              <LatitudeDegrees>37.2483400069177150726318359375</LatitudeDegrees>
              <LongitudeDegrees>-3.51232881657779216766357421875</LongitudeDegrees>
            </Position>
            <AltitudeMeters>1181.800048828125</AltitudeMeters>
            <DistanceMeters>9183.459112782</DistanceMeters>
          </Trackpoint>
          <Trackpoint>
            <Time>2022-10-08T08:30:49.000Z</Time>
            <Position>
              <LatitudeDegrees>37.24835685454308986663818359375</LatitudeDegrees>
              <LongitudeDegrees>-3.51236678659915924072265625</LongitudeDegrees>
            </Position>
            <AltitudeMeters>1182.5999755859375</AltitudeMeters>
            <DistanceMeters>9187.309747213</DistanceMeters>
          </Trackpoint>
          <Trackpoint>
            <Time>2022-10-08T08:30:50.000Z</Time>
            <Position>
              <LatitudeDegrees>37.2483609616756439208984375</LatitudeDegrees>
              <LongitudeDegrees>-3.5123763419687747955322265625</LongitudeDegrees>
            </Position>
            <AltitudeMeters>1182.800048828125</AltitudeMeters>
            <DistanceMeters>9188.2647538731</DistanceMeters>
          </Trackpoint>
          <Trackpoint>
            <Time>2022-10-08T08:30:51.000Z</Time>
            <Position>
              <LatitudeDegrees>37.248364649713039398193359375</LatitudeDegrees>
              <LongitudeDegrees>-3.5123790241777896881103515625</LongitudeDegrees>
            </Position>
            <AltitudeMeters>1183</AltitudeMeters>
            <DistanceMeters>9188.7302877973</DistanceMeters>
          </Trackpoint>
          <Trackpoint>
            <Time>2022-10-08T08:30:52.000Z</Time>
            <Position>
              <LatitudeDegrees>37.2483663260936737060546875</LatitudeDegrees>
              <LongitudeDegrees>-3.512387238442897796630859375</LongitudeDegrees>
            </Position>
            <AltitudeMeters>1183.199951171875</AltitudeMeters>
            <DistanceMeters>9189.4845389597</DistanceMeters>
          </Trackpoint>
          <Trackpoint>
            <Time>2022-10-08T08:30:54.000Z</Time>
            <Position>
              <LatitudeDegrees>37.24837864749133586883544921875</LatitudeDegrees>
              <LongitudeDegrees>-3.512393273413181304931640625</LongitudeDegrees>
            </Position>
            <AltitudeMeters>1183.5999755859375</AltitudeMeters>
            <DistanceMeters>9190.9597502744</DistanceMeters>
          </Trackpoint>
          <Trackpoint>
            <Time>2022-10-08T08:30:55.000Z</Time>
            <Position>
              <LatitudeDegrees>37.24838845431804656982421875</LatitudeDegrees>
              <LongitudeDegrees>-3.5123910941183567047119140625</LongitudeDegrees>
            </Position>
            <AltitudeMeters>1183.800048828125</AltitudeMeters>
            <DistanceMeters>9192.0679426749</DistanceMeters>
          </Trackpoint>
          <Trackpoint>
            <Time>2022-10-08T08:30:57.000Z</Time>
            <Position>
              <LatitudeDegrees>37.2483956627547740936279296875</LatitudeDegrees>
              <LongitudeDegrees>-3.512401320040225982666015625</LongitudeDegrees>
            </Position>
            <AltitudeMeters>1184.199951171875</AltitudeMeters>
            <DistanceMeters>9193.2848783908</DistanceMeters>
          </Trackpoint>
          <Trackpoint>
            <Time>2022-10-08T08:31:01.000Z</Time>
            <Position>
              <LatitudeDegrees>37.24840546958148479461669921875</LatitudeDegrees>
              <LongitudeDegrees>-3.51239067502319812774658203125</LongitudeDegrees>
            </Position>
            <AltitudeMeters>1185.4000244140625</AltitudeMeters>
            <DistanceMeters>9194.7260298687</DistanceMeters>
          </Trackpoint>
          <Trackpoint>
            <Time>2022-10-08T08:31:06.000Z</Time>
            <Position>
              <LatitudeDegrees>37.2484218142926692962646484375</LatitudeDegrees>
              <LongitudeDegrees>-3.512347675859928131103515625</LongitudeDegrees>
            </Position>
            <AltitudeMeters>1186.4000244140625</AltitudeMeters>
            <DistanceMeters>9198.9469706197</DistanceMeters>
          </Trackpoint>
          <Trackpoint>
            <Time>2022-10-08T08:32:33.000Z</Time>
            <Position>
              <LatitudeDegrees>37.24860127083957195281982421875</LatitudeDegrees>
              <LongitudeDegrees>-3.51254356093704700469970703125</LongitudeDegrees>
            </Position>
            <AltitudeMeters>1203.800048828125</AltitudeMeters>
            <DistanceMeters>9225.4072611904</DistanceMeters>
          </Trackpoint>
          <Trackpoint>
            <Time>2022-10-08T08:32:35.000Z</Time>
            <Position>
              <LatitudeDegrees>37.2486202977597713470458984375</LatitudeDegrees>
              <LongitudeDegrees>-3.5125369392335414886474609375</LongitudeDegrees>
            </Position>
            <AltitudeMeters>1204.5999755859375</AltitudeMeters>
            <DistanceMeters>9227.6031803194</DistanceMeters>
          </Trackpoint>
          <Trackpoint>
            <Time>2022-10-08T08:32:36.000Z</Time>
            <Position>
              <LatitudeDegrees>37.24862708710134029388427734375</LatitudeDegrees>
              <LongitudeDegrees>-3.5125329159200191497802734375</LongitudeDegrees>
            </Position>
            <AltitudeMeters>1205</AltitudeMeters>
            <DistanceMeters>9228.4424335366</DistanceMeters>
          </Trackpoint>
          <Trackpoint>
            <Time>2022-10-08T08:32:39.000Z</Time>
            <Position>
              <LatitudeDegrees>37.2486518137156963348388671875</LatitudeDegrees>
              <LongitudeDegrees>-3.51251539774239063262939453125</LongitudeDegrees>
            </Position>
            <AltitudeMeters>1205.4000244140625</AltitudeMeters>
            <DistanceMeters>9231.6026969033</DistanceMeters>
          </Trackpoint>
          <Trackpoint>
            <Time>2022-10-08T08:32:42.000Z</Time>
            <Position>
              <LatitudeDegrees>37.2486900351941585540771484375</LatitudeDegrees>
              <LongitudeDegrees>-3.5125070996582508087158203125</LongitudeDegrees>
            </Position>
            <AltitudeMeters>1206.199951171875</AltitudeMeters>
            <DistanceMeters>9235.9198809138</DistanceMeters>
          </Trackpoint>
          <Trackpoint>
            <Time>2022-10-08T08:32:48.000Z</Time>
            <Position>
              <LatitudeDegrees>37.248741500079631805419921875</LatitudeDegrees>
              <LongitudeDegrees>-3.5124896652996540069580078125</LongitudeDegrees>
            </Position>
            <AltitudeMeters>1206.800048828125</AltitudeMeters>
            <DistanceMeters>9241.8527754838</DistanceMeters>
          </Trackpoint>
          <Trackpoint>
            <Time>2022-10-08T08:32:50.000Z</Time>
            <Position>
              <LatitudeDegrees>37.2487577609717845916748046875</LatitudeDegrees>
              <LongitudeDegrees>-3.5124782659113407135009765625</LongitudeDegrees>
            </Position>
            <AltitudeMeters>1207.4000244140625</AltitudeMeters>
            <DistanceMeters>9243.9260136243</DistanceMeters>
          </Trackpoint>
          <Trackpoint>
            <Time>2022-10-08T08:32:55.000Z</Time>
            <Position>
              <LatitudeDegrees>37.24879858084022998809814453125</LatitudeDegrees>
              <LongitudeDegrees>-3.512462675571441650390625</LongitudeDegrees>
            </Position>
            <AltitudeMeters>1208.5999755859375</AltitudeMeters>
            <DistanceMeters>9248.6735467526</DistanceMeters>
          </Trackpoint>
          <Trackpoint>
            <Time>2022-10-08T08:32:56.000Z</Time>
            <Position>
              <LatitudeDegrees>37.24880629219114780426025390625</LatitudeDegrees>
              <LongitudeDegrees>-3.5124655254185199737548828125</LongitudeDegrees>
            </Position>
            <AltitudeMeters>1208.800048828125</AltitudeMeters>
            <DistanceMeters>9249.56497635</DistanceMeters>
          </Trackpoint>
          <Trackpoint>
            <Time>2022-10-08T08:32:59.000Z</Time>
            <Position>
              <LatitudeDegrees>37.248834706842899322509765625</LatitudeDegrees>
              <LongitudeDegrees>-3.51246158592402935028076171875</LongitudeDegrees>
            </Position>
            <AltitudeMeters>1209.199951171875</AltitudeMeters>
            <DistanceMeters>9252.7451784846</DistanceMeters>
          </Trackpoint>
          <Trackpoint>
            <Time>2022-10-08T08:33:00.000Z</Time>
            <Position>
              <LatitudeDegrees>37.2488429211080074310302734375</LatitudeDegrees>
              <LongitudeDegrees>-3.5124615021049976348876953125</LongitudeDegrees>
            </Position>
            <AltitudeMeters>1209.5999755859375</AltitudeMeters>
            <DistanceMeters>9253.661582931</DistanceMeters>
          </Trackpoint>
          <Trackpoint>
            <Time>2022-10-08T08:33:05.000Z</Time>
            <Position>
              <LatitudeDegrees>37.2488767839968204498291015625</LatitudeDegrees>
              <LongitudeDegrees>-3.51247147656977176666259765625</LongitudeDegrees>
            </Position>
            <AltitudeMeters>1210.5999755859375</AltitudeMeters>
            <DistanceMeters>9257.5332656268</DistanceMeters>
          </Trackpoint>
          <Trackpoint>
            <Time>2022-10-08T08:33:06.000Z</Time>
            <Position>
              <LatitudeDegrees>37.24888290278613567352294921875</LatitudeDegrees>
              <LongitudeDegrees>-3.5124752484261989593505859375</LongitudeDegrees>
            </Position>
            <AltitudeMeters>1210.5999755859375</AltitudeMeters>
            <DistanceMeters>9258.2934793417</DistanceMeters>
          </Trackpoint>
          <Trackpoint>
            <Time>2022-10-08T08:33:10.000Z</Time>
            <Position>
              <LatitudeDegrees>37.248911149799823760986328125</LatitudeDegrees>
              <LongitudeDegrees>-3.5124963708221912384033203125</LongitudeDegrees>
            </Position>
            <AltitudeMeters>1211.800048828125</AltitudeMeters>
            <DistanceMeters>9261.9516993037</DistanceMeters>
          </Trackpoint>
          <Trackpoint>
            <Time>2022-10-08T08:33:14.000Z</Time>
            <Position>
              <LatitudeDegrees>37.24893160164356231689453125</LatitudeDegrees>
              <LongitudeDegrees>-3.512503914535045623779296875</LongitudeDegrees>
            </Position>
            <AltitudeMeters>1212.800048828125</AltitudeMeters>
            <DistanceMeters>9264.3216587016</DistanceMeters>
          </Trackpoint>
          <Trackpoint>
            <Time>2022-10-08T08:33:15.000Z</Time>
            <Position>
              <LatitudeDegrees>37.2489376366138458251953125</LatitudeDegrees>
              <LongitudeDegrees>-3.51250265724956989288330078125</LongitudeDegrees>
            </Position>
            <AltitudeMeters>1213</AltitudeMeters>
            <DistanceMeters>9264.9935990429</DistanceMeters>
          </Trackpoint>
          <Trackpoint>
            <Time>2022-10-08T08:33:19.000Z</Time>
            <Position>
              <LatitudeDegrees>37.24896018393337726593017578125</LatitudeDegrees>
              <LongitudeDegrees>-3.51251439191401004791259765625</LongitudeDegrees>
            </Position>
            <AltitudeMeters>1214</AltitudeMeters>
            <DistanceMeters>9267.7097677517</DistanceMeters>
          </Trackpoint>
          <Trackpoint>
            <Time>2022-10-08T08:33:20.000Z</Time>
            <Position>
              <LatitudeDegrees>37.24896538071334362030029296875</LatitudeDegrees>
              <LongitudeDegrees>-3.5125149786472320556640625</LongitudeDegrees>
            </Position>
            <AltitudeMeters>1214.199951171875</AltitudeMeters>
            <DistanceMeters>9268.2877926892</DistanceMeters>
          </Trackpoint>
          <Trackpoint>
            <Time>2022-10-08T08:33:24.000Z</Time>
            <Position>
              <LatitudeDegrees>37.248987257480621337890625</LatitudeDegrees>
              <LongitudeDegrees>-3.51252813823521137237548828125</LongitudeDegrees>
            </Position>
            <AltitudeMeters>1215.199951171875</AltitudeMeters>
            <DistanceMeters>9270.9872873994</DistanceMeters>
          </Trackpoint>
          <Trackpoint>
            <Time>2022-10-08T08:33:28.000Z</Time>
            <Position>
              <LatitudeDegrees>37.24900729022920131683349609375</LatitudeDegrees>
              <LongitudeDegrees>-3.51251296699047088623046875</LongitudeDegrees>
            </Position>
            <AltitudeMeters>1216.4000244140625</AltitudeMeters>
            <DistanceMeters>9273.5897011507</DistanceMeters>
          </Trackpoint>
          <Trackpoint>
            <Time>2022-10-08T08:33:33.000Z</Time>
            <Position>
              <LatitudeDegrees>37.24903143011033535003662109375</LatitudeDegrees>
              <LongitudeDegrees>-3.51251564919948577880859375</LongitudeDegrees>
            </Position>
            <AltitudeMeters>1217.5999755859375</AltitudeMeters>
            <DistanceMeters>9276.2875227931</DistanceMeters>
          </Trackpoint>
          <Trackpoint>
            <Time>2022-10-08T08:33:35.000Z</Time>
            <Position>
              <LatitudeDegrees>37.24903889000415802001953125</LatitudeDegrees>
              <LongitudeDegrees>-3.51251657120883464813232421875</LongitudeDegrees>
            </Position>
            <AltitudeMeters>1218.199951171875</AltitudeMeters>
            <DistanceMeters>9277.1267760103</DistanceMeters>
          </Trackpoint>
          <Trackpoint>
            <Time>2022-10-08T08:33:38.000Z</Time>
            <Position>
              <LatitudeDegrees>37.24906646646559238433837890625</LatitudeDegrees>
              <LongitudeDegrees>-3.5125151462852954864501953125</LongitudeDegrees>
            </Position>
            <AltitudeMeters>1218.800048828125</AltitudeMeters>
            <DistanceMeters>9280.2001227139</DistanceMeters>
          </Trackpoint>
          <Trackpoint>
            <Time>2022-10-08T08:33:41.000Z</Time>
            <Position>
              <LatitudeDegrees>37.249081134796142578125</LatitudeDegrees>
              <LongitudeDegrees>-3.51253333501517772674560546875</LongitudeDegrees>
            </Position>
            <AltitudeMeters>1219.4000244140625</AltitudeMeters>
            <DistanceMeters>9282.4965470308</DistanceMeters>
          </Trackpoint>
          <Trackpoint>
            <Time>2022-10-08T08:33:43.000Z</Time>
            <Position>
              <LatitudeDegrees>37.24908641539514064788818359375</LatitudeDegrees>
              <LongitudeDegrees>-3.51255361922085285186767578125</LongitudeDegrees>
            </Position>
            <AltitudeMeters>1219.800048828125</AltitudeMeters>
            <DistanceMeters>9284.3851656252</DistanceMeters>
          </Trackpoint>
          <Trackpoint>
            <Time>2022-10-08T08:33:47.000Z</Time>
            <Position>
              <LatitudeDegrees>37.24910334683954715728759765625</LatitudeDegrees>
              <LongitudeDegrees>-3.5125697962939739227294921875</LongitudeDegrees>
            </Position>
            <AltitudeMeters>1220.800048828125</AltitudeMeters>
            <DistanceMeters>9286.7513117313</DistanceMeters>
          </Trackpoint>
          <Trackpoint>
            <Time>2022-10-08T08:33:48.000Z</Time>
            <Position>
              <LatitudeDegrees>37.24910435266792774200439453125</LatitudeDegrees>
              <LongitudeDegrees>-3.5125761665403842926025390625</LongitudeDegrees>
            </Position>
            <AltitudeMeters>1221</AltitudeMeters>
            <DistanceMeters>9287.3214720175</DistanceMeters>
          </Trackpoint>
          <Trackpoint>
            <Time>2022-10-08T08:33:53.000Z</Time>
            <Position>
              <LatitudeDegrees>37.249124050140380859375</LatitudeDegrees>
              <LongitudeDegrees>-3.5125875659286975860595703125</LongitudeDegrees>
            </Position>
            <AltitudeMeters>1222.199951171875</AltitudeMeters>
            <DistanceMeters>9289.7367213593</DistanceMeters>
          </Trackpoint>
          <Trackpoint>
            <Time>2022-10-08T08:33:54.000Z</Time>
            <Position>
              <LatitudeDegrees>37.2491289116442203521728515625</LatitudeDegrees>
              <LongitudeDegrees>-3.51259150542318820953369140625</LongitudeDegrees>
            </Position>
            <AltitudeMeters>1222.4000244140625</AltitudeMeters>
            <DistanceMeters>9290.3812238933</DistanceMeters>
          </Trackpoint>
          <Trackpoint>
            <Time>2022-10-08T08:33:58.000Z</Time>
            <Position>
              <LatitudeDegrees>37.2491553984582424163818359375</LatitudeDegrees>
              <LongitudeDegrees>-3.51260541938245296478271484375</LongitudeDegrees>
            </Position>
            <AltitudeMeters>1223.199951171875</AltitudeMeters>
            <DistanceMeters>9293.5784174337</DistanceMeters>
          </Trackpoint>
          <Trackpoint>
            <Time>2022-10-08T08:34:03.000Z</Time>
            <Position>
              <LatitudeDegrees>37.249181382358074188232421875</LatitudeDegrees>
              <LongitudeDegrees>-3.5126301459968090057373046875</LongitudeDegrees>
            </Position>
            <AltitudeMeters>1224.199951171875</AltitudeMeters>
            <DistanceMeters>9297.2068952764</DistanceMeters>
          </Trackpoint>
          <Trackpoint>
            <Time>2022-10-08T08:34:07.000Z</Time>
            <Position>
              <LatitudeDegrees>37.24919722415506839752197265625</LatitudeDegrees>
              <LongitudeDegrees>-3.51262000389397144317626953125</LongitudeDegrees>
            </Position>
            <AltitudeMeters>1225.199951171875</AltitudeMeters>
            <DistanceMeters>9299.1842731109</DistanceMeters>
          </Trackpoint>
          <Trackpoint>
            <Time>2022-10-08T08:34:08.000Z</Time>
            <Position>
              <LatitudeDegrees>37.2492073662579059600830078125</LatitudeDegrees>
              <LongitudeDegrees>-3.51262184791266918182373046875</LongitudeDegrees>
            </Position>
            <AltitudeMeters>1225.5999755859375</AltitudeMeters>
            <DistanceMeters>9300.3245936833</DistanceMeters>
          </Trackpoint>
          <Trackpoint>
            <Time>2022-10-08T08:34:09.000Z</Time>
            <Position>
              <LatitudeDegrees>37.24921667017042636871337890625</LatitudeDegrees>
              <LongitudeDegrees>-3.51262100972235202789306640625</LongitudeDegrees>
            </Position>
            <AltitudeMeters>1225.800048828125</AltitudeMeters>
            <DistanceMeters>9301.3655591839</DistanceMeters>
          </Trackpoint>
          <Trackpoint>
            <Time>2022-10-08T08:34:12.000Z</Time>
            <Position>
              <LatitudeDegrees>37.24923812784254550933837890625</LatitudeDegrees>
              <LongitudeDegrees>-3.51262285374104976654052734375</LongitudeDegrees>
            </Position>
            <AltitudeMeters>1226.800048828125</AltitudeMeters>
            <DistanceMeters>9303.7601569668</DistanceMeters>
          </Trackpoint>
          <Trackpoint>
            <Time>2022-10-08T08:34:16.000Z</Time>
            <Position>
              <LatitudeDegrees>37.24925690330564975738525390625</LatitudeDegrees>
              <LongitudeDegrees>-3.51263341493904590606689453125</LongitudeDegrees>
            </Position>
            <AltitudeMeters>1227.199951171875</AltitudeMeters>
            <DistanceMeters>9306.048703304</DistanceMeters>
          </Trackpoint>
          <Trackpoint>
            <Time>2022-10-08T08:34:20.000Z</Time>
            <Position>
              <LatitudeDegrees>37.24927634932100772857666015625</LatitudeDegrees>
              <LongitudeDegrees>-3.51265520788729190826416015625</LongitudeDegrees>
            </Position>
            <AltitudeMeters>1227.800048828125</AltitudeMeters>
            <DistanceMeters>9308.9497429876</DistanceMeters>
          </Trackpoint>
          <Trackpoint>
            <Time>2022-10-08T08:34:24.000Z</Time>
            <Position>
              <LatitudeDegrees>37.2492864914238452911376953125</LatitudeDegrees>
              <LongitudeDegrees>-3.5126687027513980865478515625</LongitudeDegrees>
            </Position>
            <AltitudeMeters>1228.5999755859375</AltitudeMeters>
            <DistanceMeters>9310.5901584167</DistanceMeters>
          </Trackpoint>
          <Trackpoint>
            <Time>2022-10-08T08:34:25.000Z</Time>
            <Position>
              <LatitudeDegrees>37.24928858689963817596435546875</LatitudeDegrees>
              <LongitudeDegrees>-3.51266643963754177093505859375</LongitudeDegrees>
            </Position>
            <AltitudeMeters>1229</AltitudeMeters>
            <DistanceMeters>9310.8906592727</DistanceMeters>
          </Trackpoint>
          <Trackpoint>
            <Time>2022-10-08T08:34:29.000Z</Time>
            <Position>
              <LatitudeDegrees>37.24930216558277606964111328125</LatitudeDegrees>
              <LongitudeDegrees>-3.51267524063587188720703125</LongitudeDegrees>
            </Position>
            <AltitudeMeters>1230.199951171875</AltitudeMeters>
            <DistanceMeters>9312.5905488168</DistanceMeters>
          </Trackpoint>
          <Trackpoint>
            <Time>2022-10-08T08:34:30.000Z</Time>
            <Position>
              <LatitudeDegrees>37.24930669181048870086669921875</LatitudeDegrees>
              <LongitudeDegrees>-3.5126784257590770721435546875</LongitudeDegrees>
            </Position>
            <AltitudeMeters>1230.4000244140625</AltitudeMeters>
            <DistanceMeters>9313.1763328255</DistanceMeters>
          </Trackpoint>
          <Trackpoint>
            <Time>2022-10-08T08:34:33.000Z</Time>
            <Position>
              <LatitudeDegrees>37.24932010285556316375732421875</LatitudeDegrees>
              <LongitudeDegrees>-3.5126888193190097808837890625</LongitudeDegrees>
            </Position>
            <AltitudeMeters>1231.199951171875</AltitudeMeters>
            <DistanceMeters>9314.928538861</DistanceMeters>
          </Trackpoint>
          <Trackpoint>
            <Time>2022-10-08T08:34:37.000Z</Time>
            <Position>
              <LatitudeDegrees>37.24935279227793216705322265625</LatitudeDegrees>
              <LongitudeDegrees>-3.5127193294465541839599609375</LongitudeDegrees>
            </Position>
            <AltitudeMeters>1232.5999755859375</AltitudeMeters>
            <DistanceMeters>9319.4620203032</DistanceMeters>
          </Trackpoint>
          <Trackpoint>
            <Time>2022-10-08T08:34:38.000Z</Time>
            <Position>
              <LatitudeDegrees>37.2493602521717548370361328125</LatitudeDegrees>
              <LongitudeDegrees>-3.5127260349690914154052734375</LongitudeDegrees>
            </Position>
            <AltitudeMeters>1232.800048828125</AltitudeMeters>
            <DistanceMeters>9320.4854893391</DistanceMeters>
          </Trackpoint>
          <Trackpoint>
            <Time>2022-10-08T08:34:40.000Z</Time>
            <Position>
              <LatitudeDegrees>37.24936880171298980712890625</LatitudeDegrees>
              <LongitudeDegrees>-3.512743972241878509521484375</LongitudeDegrees>
            </Position>
            <AltitudeMeters>1233.5999755859375</AltitudeMeters>
            <DistanceMeters>9322.3379010236</DistanceMeters>
          </Trackpoint>
          <Trackpoint>
            <Time>2022-10-08T08:34:44.000Z</Time>
            <Position>
              <LatitudeDegrees>37.2493927739560604095458984375</LatitudeDegrees>
              <LongitudeDegrees>-3.51274237968027591705322265625</LongitudeDegrees>
            </Position>
            <AltitudeMeters>1234.800048828125</AltitudeMeters>
            <DistanceMeters>9325.008811054</DistanceMeters>
          </Trackpoint>
          <Trackpoint>
            <Time>2022-10-08T08:34:45.000Z</Time>
            <Position>
              <LatitudeDegrees>37.24940174259245395660400390625</LatitudeDegrees>
              <LongitudeDegrees>-3.5127417929470539093017578125</LongitudeDegrees>
            </Position>
            <AltitudeMeters>1235.199951171875</AltitudeMeters>
            <DistanceMeters>9326.0054596425</DistanceMeters>
          </Trackpoint>
          <Trackpoint>
            <Time>2022-10-08T08:34:48.000Z</Time>
            <Position>
              <LatitudeDegrees>37.24942252971231937408447265625</LatitudeDegrees>
              <LongitudeDegrees>-3.51272880099713802337646484375</LongitudeDegrees>
            </Position>
            <AltitudeMeters>1235.800048828125</AltitudeMeters>
            <DistanceMeters>9328.5904657486</DistanceMeters>
          </Trackpoint>
          <Trackpoint>
            <Time>2022-10-08T08:34:51.000Z</Time>
            <Position>
              <LatitudeDegrees>37.2494444064795970916748046875</LatitudeDegrees>
              <LongitudeDegrees>-3.512729890644550323486328125</LongitudeDegrees>
            </Position>
            <AltitudeMeters>1237</AltitudeMeters>
            <DistanceMeters>9331.0280445268</DistanceMeters>
          </Trackpoint>
          <Trackpoint>
            <Time>2022-10-08T08:34:57.000Z</Time>
            <Position>
              <LatitudeDegrees>37.24944147281348705291748046875</LatitudeDegrees>
              <LongitudeDegrees>-3.51277138106524944305419921875</LongitudeDegrees>
            </Position>
            <AltitudeMeters>1238.199951171875</AltitudeMeters>
            <DistanceMeters>9334.7194379431</DistanceMeters>
          </Trackpoint>
          <Trackpoint>
            <Time>2022-10-08T08:35:02.000Z</Time>
            <Position>
              <LatitudeDegrees>37.2494392096996307373046875</LatitudeDegrees>
              <LongitudeDegrees>-3.512806333601474761962890625</LongitudeDegrees>
            </Position>
            <AltitudeMeters>1239.4000244140625</AltitudeMeters>
            <DistanceMeters>9337.8278429674</DistanceMeters>
          </Trackpoint>
          <Trackpoint>
            <Time>2022-10-08T08:35:05.000Z</Time>
            <Position>
              <LatitudeDegrees>37.24944381974637508392333984375</LatitudeDegrees>
              <LongitudeDegrees>-3.5128162242472171783447265625</LongitudeDegrees>
            </Position>
            <AltitudeMeters>1240.199951171875</AltitudeMeters>
            <DistanceMeters>9338.8468909501</DistanceMeters>
          </Trackpoint>
          <Trackpoint>
            <Time>2022-10-08T08:35:06.000Z</Time>
            <Position>
              <LatitudeDegrees>37.2494472563266754150390625</LatitudeDegrees>
              <LongitudeDegrees>-3.51281932555139064788818359375</LongitudeDegrees>
            </Position>
            <AltitudeMeters>1240.5999755859375</AltitudeMeters>
            <DistanceMeters>9339.3124248744</DistanceMeters>
          </Trackpoint>
          <Trackpoint>
            <Time>2022-10-08T08:35:11.000Z</Time>
            <Position>
              <LatitudeDegrees>37.24947382695972919464111328125</LatitudeDegrees>
              <LongitudeDegrees>-3.5128494165837764739990234375</LongitudeDegrees>
            </Position>
            <AltitudeMeters>1241.800048828125</AltitudeMeters>
            <DistanceMeters>9343.2944864303</DistanceMeters>
          </Trackpoint>
          <Trackpoint>
            <Time>2022-10-08T08:35:12.000Z</Time>
            <Position>
              <LatitudeDegrees>37.2494735755026340484619140625</LatitudeDegrees>
              <LongitudeDegrees>-3.51286567747592926025390625</LongitudeDegrees>
            </Position>
            <AltitudeMeters>1242</AltitudeMeters>
            <DistanceMeters>9344.7325015574</DistanceMeters>
          </Trackpoint>
          <Trackpoint>
            <Time>2022-10-08T08:35:16.000Z</Time>
            <Position>
              <LatitudeDegrees>37.24948338232934474945068359375</LatitudeDegrees>
              <LongitudeDegrees>-3.512910939753055572509765625</LongitudeDegrees>
            </Position>
            <AltitudeMeters>1242.800048828125</AltitudeMeters>
            <DistanceMeters>9348.8887662551</DistanceMeters>
          </Trackpoint>
          <Trackpoint>
            <Time>2022-10-08T08:35:20.000Z</Time>
            <Position>
              <LatitudeDegrees>37.24948002956807613372802734375</LatitudeDegrees>
              <LongitudeDegrees>-3.5129526816308498382568359375</LongitudeDegrees>
            </Position>
            <AltitudeMeters>1244</AltitudeMeters>
            <DistanceMeters>9352.6057565644</DistanceMeters>
          </Trackpoint>
          <Trackpoint>
            <Time>2022-10-08T08:35:24.000Z</Time>
            <Position>
              <LatitudeDegrees>37.24947332404553890228271484375</LatitudeDegrees>
              <LongitudeDegrees>-3.5130073316395282745361328125</LongitudeDegrees>
            </Position>
            <AltitudeMeters>1245</AltitudeMeters>
            <DistanceMeters>9357.504012694</DistanceMeters>
          </Trackpoint>
          <Trackpoint>
            <Time>2022-10-08T08:35:26.000Z</Time>
            <Position>
              <LatitudeDegrees>37.2494712285697460174560546875</LatitudeDegrees>
              <LongitudeDegrees>-3.51303138770163059234619140625</LongitudeDegrees>
            </Position>
            <AltitudeMeters>1245.4000244140625</AltitudeMeters>
            <DistanceMeters>9359.6458060626</DistanceMeters>
          </Trackpoint>
          <Trackpoint>
            <Time>2022-10-08T08:35:29.000Z</Time>
            <Position>
              <LatitudeDegrees>37.249479107558727264404296875</LatitudeDegrees>
              <LongitudeDegrees>-3.51306491531431674957275390625</LongitudeDegrees>
            </Position>
            <AltitudeMeters>1246.199951171875</AltitudeMeters>
            <DistanceMeters>9362.7440267229</DistanceMeters>
          </Trackpoint>
          <Trackpoint>
            <Time>2022-10-08T08:35:33.000Z</Time>
            <Position>
              <LatitudeDegrees>37.24948908202350139617919921875</LatitudeDegrees>
              <LongitudeDegrees>-3.51310967467725276947021484375</LongitudeDegrees>
            </Position>
            <AltitudeMeters>1246.800048828125</AltitudeMeters>
            <DistanceMeters>9366.8620946633</DistanceMeters>
          </Trackpoint>
          <Trackpoint>
            <Time>2022-10-08T08:35:35.000Z</Time>
            <Position>
              <LatitudeDegrees>37.249487824738025665283203125</LatitudeDegrees>
              <LongitudeDegrees>-3.51313079707324504852294921875</LongitudeDegrees>
            </Position>
            <AltitudeMeters>1247.199951171875</AltitudeMeters>
            <DistanceMeters>9368.7387219073</DistanceMeters>
          </Trackpoint>
          <Trackpoint>
            <Time>2022-10-08T08:35:40.000Z</Time>
            <Position>
              <LatitudeDegrees>37.2494933567941188812255859375</LatitudeDegrees>
              <LongitudeDegrees>-3.51320019923150539398193359375</LongitudeDegrees>
            </Position>
            <AltitudeMeters>1248.4000244140625</AltitudeMeters>
            <DistanceMeters>9374.9176508764</DistanceMeters>
          </Trackpoint>
          <Trackpoint>
            <Time>2022-10-08T08:35:47.000Z</Time>
            <Position>
              <LatitudeDegrees>37.249518670141696929931640625</LatitudeDegrees>
              <LongitudeDegrees>-3.51330631412565708160400390625</LongitudeDegrees>
            </Position>
            <AltitudeMeters>1248.800048828125</AltitudeMeters>
            <DistanceMeters>9384.7316610329</DistanceMeters>
          </Trackpoint>
          <Trackpoint>
            <Time>2022-10-08T08:35:55.000Z</Time>
            <Position>
              <LatitudeDegrees>37.24952830933034420013427734375</LatitudeDegrees>
              <LongitudeDegrees>-3.51344528608024120330810546875</LongitudeDegrees>
            </Position>
            <AltitudeMeters>1248.5999755859375</AltitudeMeters>
            <DistanceMeters>9397.0909803154</DistanceMeters>
          </Trackpoint>
          <Trackpoint>
            <Time>2022-10-08T08:35:56.000Z</Time>
            <Position>
              <LatitudeDegrees>37.24952361546456813812255859375</LatitudeDegrees>
              <LongitudeDegrees>-3.5134626366198062896728515625</LongitudeDegrees>
            </Position>
            <AltitudeMeters>1248.800048828125</AltitudeMeters>
            <DistanceMeters>9398.7175756547</DistanceMeters>
          </Trackpoint>
          <Trackpoint>
            <Time>2022-10-08T08:35:58.000Z</Time>
            <Position>
              <LatitudeDegrees>37.2495128028094768524169921875</LatitudeDegrees>
              <LongitudeDegrees>-3.5134961642324924468994140625</LongitudeDegrees>
            </Position>
            <AltitudeMeters>1249</AltitudeMeters>
            <DistanceMeters>9401.9232311249</DistanceMeters>
          </Trackpoint>
          <Trackpoint>
            <Time>2022-10-08T08:36:01.000Z</Time>
            <Position>
              <LatitudeDegrees>37.2494809515774250030517578125</LatitudeDegrees>
              <LongitudeDegrees>-3.51354218088090419769287109375</LongitudeDegrees>
            </Position>
            <AltitudeMeters>1249.199951171875</AltitudeMeters>
            <DistanceMeters>9407.3255646084</DistanceMeters>
          </Trackpoint>
          <Trackpoint>
            <Time>2022-10-08T08:36:05.000Z</Time>
            <Position>
              <LatitudeDegrees>37.24943024106323719024658203125</LatitudeDegrees>
              <LongitudeDegrees>-3.51359984837472438812255859375</LongitudeDegrees>
            </Position>
            <AltitudeMeters>1249.199951171875</AltitudeMeters>
            <DistanceMeters>9414.9383847571</DistanceMeters>
          </Trackpoint>
          <Trackpoint>
            <Time>2022-10-08T08:36:07.000Z</Time>
            <Position>
              <LatitudeDegrees>37.24940559826791286468505859375</LatitudeDegrees>
              <LongitudeDegrees>-3.513626754283905029296875</LongitudeDegrees>
            </Position>
            <AltitudeMeters>1249.4000244140625</AltitudeMeters>
            <DistanceMeters>9418.5718365266</DistanceMeters>
          </Trackpoint>
          <Trackpoint>
            <Time>2022-10-08T08:36:09.000Z</Time>
            <Position>
              <LatitudeDegrees>37.249379865825176239013671875</LatitudeDegrees>
              <LongitudeDegrees>-3.5136477090418338775634765625</LongitudeDegrees>
            </Position>
            <AltitudeMeters>1249.800048828125</AltitudeMeters>
            <DistanceMeters>9421.9822233756</DistanceMeters>
          </Trackpoint>
          <Trackpoint>
            <Time>2022-10-08T08:36:17.000Z</Time>
            <Position>
              <LatitudeDegrees>37.24927132017910480499267578125</LatitudeDegrees>
              <LongitudeDegrees>-3.51375960744917392730712890625</LongitudeDegrees>
            </Position>
            <AltitudeMeters>1250.4000244140625</AltitudeMeters>
            <DistanceMeters>9437.6105792602</DistanceMeters>
          </Trackpoint>
          <Trackpoint>
            <Time>2022-10-08T08:36:18.000Z</Time>
            <Position>
              <LatitudeDegrees>37.2492553107440471649169921875</LatitudeDegrees>
              <LongitudeDegrees>-3.513776622712612152099609375</LongitudeDegrees>
            </Position>
            <AltitudeMeters>1250.5999755859375</AltitudeMeters>
            <DistanceMeters>9439.9459948918</DistanceMeters>
          </Trackpoint>
          <Trackpoint>
            <Time>2022-10-08T08:36:22.000Z</Time>
            <Position>
              <LatitudeDegrees>37.249210216104984283447265625</LatitudeDegrees>
              <LongitudeDegrees>-3.513844013214111328125</LongitudeDegrees>
            </Position>
            <AltitudeMeters>1251</AltitudeMeters>
            <DistanceMeters>9447.7462932886</DistanceMeters>
          </Trackpoint>
          <Trackpoint>
            <Time>2022-10-08T08:36:28.000Z</Time>
            <Position>
              <LatitudeDegrees>37.24917073734104633331298828125</LatitudeDegrees>
              <LongitudeDegrees>-3.51394685916602611541748046875</LongitudeDegrees>
            </Position>
            <AltitudeMeters>1250.800048828125</AltitudeMeters>
            <DistanceMeters>9457.8629570873</DistanceMeters>
          </Trackpoint>
          <Trackpoint>
            <Time>2022-10-08T08:36:35.000Z</Time>
            <Position>
              <LatitudeDegrees>37.24916151724755764007568359375</LatitudeDegrees>
              <LongitudeDegrees>-3.51407342590391635894775390625</LongitudeDegrees>
            </Position>
            <AltitudeMeters>1251.4000244140625</AltitudeMeters>
            <DistanceMeters>9469.1231215332</DistanceMeters>
          </Trackpoint>
          <Trackpoint>
            <Time>2022-10-08T08:36:37.000Z</Time>
            <Position>
              <LatitudeDegrees>37.2491621039807796478271484375</LatitudeDegrees>
              <LongitudeDegrees>-3.51410544477403163909912109375</LongitudeDegrees>
            </Position>
            <AltitudeMeters>1251.5999755859375</AltitudeMeters>
            <DistanceMeters>9471.9612244538</DistanceMeters>
          </Trackpoint>
          <Trackpoint>
            <Time>2022-10-08T08:36:38.000Z</Time>
            <Position>
              <LatitudeDegrees>37.24916093051433563232421875</LatitudeDegrees>
              <LongitudeDegrees>-3.514124639332294464111328125</LongitudeDegrees>
            </Position>
            <AltitudeMeters>1251.5999755859375</AltitudeMeters>
            <DistanceMeters>9473.6664178783</DistanceMeters>
          </Trackpoint>
          <Trackpoint>
            <Time>2022-10-08T08:36:46.000Z</Time>
            <Position>
              <LatitudeDegrees>37.249151878058910369873046875</LatitudeDegrees>
              <LongitudeDegrees>-3.51426855660974979400634765625</LongitudeDegrees>
            </Position>
            <AltitudeMeters>1252</AltitudeMeters>
            <DistanceMeters>9486.4566041498</DistanceMeters>
          </Trackpoint>
          <Trackpoint>
            <Time>2022-10-08T08:36:50.000Z</Time>
            <Position>
              <LatitudeDegrees>37.2491466812789440155029296875</LatitudeDegrees>
              <LongitudeDegrees>-3.51435371674597263336181640625</LongitudeDegrees>
            </Position>
            <AltitudeMeters>1251.800048828125</AltitudeMeters>
            <DistanceMeters>9494.0230223681</DistanceMeters>
          </Trackpoint>
          <Trackpoint>
            <Time>2022-10-08T08:36:52.000Z</Time>
            <Position>
              <LatitudeDegrees>37.24914559163153171539306640625</LatitudeDegrees>
              <LongitudeDegrees>-3.514400906860828399658203125</LongitudeDegrees>
            </Position>
            <AltitudeMeters>1251.800048828125</AltitudeMeters>
            <DistanceMeters>9498.206356941</DistanceMeters>
          </Trackpoint>
          <Trackpoint>
            <Time>2022-10-08T08:36:54.000Z</Time>
            <Position>
              <LatitudeDegrees>37.249154560267925262451171875</LatitudeDegrees>
              <LongitudeDegrees>-3.514442481100559234619140625</LongitudeDegrees>
            </Position>
            <AltitudeMeters>1251.800048828125</AltitudeMeters>
            <DistanceMeters>9502.0216528964</DistanceMeters>
          </Trackpoint>
          <Trackpoint>
            <Time>2022-10-08T08:37:00.000Z</Time>
            <Position>
              <LatitudeDegrees>37.2491714917123317718505859375</LatitudeDegrees>
              <LongitudeDegrees>-3.51463568396866321563720703125</LongitudeDegrees>
            </Position>
            <AltitudeMeters>1252</AltitudeMeters>
            <DistanceMeters>9519.2422135847</DistanceMeters>
          </Trackpoint>
          <Trackpoint>
            <Time>2022-10-08T08:37:06.000Z</Time>
            <Position>
              <LatitudeDegrees>37.24917660467326641082763671875</LatitudeDegrees>
              <LongitudeDegrees>-3.51480466313660144805908203125</LongitudeDegrees>
            </Position>
            <AltitudeMeters>1251.5999755859375</AltitudeMeters>
            <DistanceMeters>9534.2242231351</DistanceMeters>
          </Trackpoint>
          <Trackpoint>
            <Time>2022-10-08T08:37:07.000Z</Time>
            <Position>
              <LatitudeDegrees>37.2491771914064884185791015625</LatitudeDegrees>
              <LongitudeDegrees>-3.51483433507382869720458984375</LongitudeDegrees>
            </Position>
            <AltitudeMeters>1251.5999755859375</AltitudeMeters>
            <DistanceMeters>9536.8525321884</DistanceMeters>
          </Trackpoint>
          <Trackpoint>
            <Time>2022-10-08T08:37:08.000Z</Time>
            <Position>
              <LatitudeDegrees>37.2491812147200107574462890625</LatitudeDegrees>
              <LongitudeDegrees>-3.51486316882073879241943359375</LongitudeDegrees>
            </Position>
            <AltitudeMeters>1251.5999755859375</AltitudeMeters>
            <DistanceMeters>9539.4462567209</DistanceMeters>
          </Trackpoint>
          <Trackpoint>
            <Time>2022-10-08T08:37:13.000Z</Time>
            <Position>
              <LatitudeDegrees>37.24918113090097904205322265625</LatitudeDegrees>
              <LongitudeDegrees>-3.51501974277198314666748046875</LongitudeDegrees>
            </Position>
            <AltitudeMeters>1250.800048828125</AltitudeMeters>
            <DistanceMeters>9553.3182042778</DistanceMeters>
          </Trackpoint>
          <Trackpoint>
            <Time>2022-10-08T08:37:14.000Z</Time>
            <Position>
              <LatitudeDegrees>37.249181382358074188232421875</LatitudeDegrees>
              <LongitudeDegrees>-3.5150471515953540802001953125</LongitudeDegrees>
            </Position>
            <AltitudeMeters>1250.5999755859375</AltitudeMeters>
            <DistanceMeters>9555.7465040776</DistanceMeters>
          </Trackpoint>
          <Trackpoint>
            <Time>2022-10-08T08:37:22.000Z</Time>
            <Position>
              <LatitudeDegrees>37.24921314977109432220458984375</LatitudeDegrees>
              <LongitudeDegrees>-3.5152875445783138275146484375</LongitudeDegrees>
            </Position>
            <AltitudeMeters>1250</AltitudeMeters>
            <DistanceMeters>9577.3361887878</DistanceMeters>
          </Trackpoint>
          <Trackpoint>
            <Time>2022-10-08T08:37:28.000Z</Time>
            <Position>
              <LatitudeDegrees>37.24921918474137783050537109375</LatitudeDegrees>
              <LongitudeDegrees>-3.515477478504180908203125</LongitudeDegrees>
            </Position>
            <AltitudeMeters>1249.800048828125</AltitudeMeters>
            <DistanceMeters>9594.1771104061</DistanceMeters>
          </Trackpoint>
          <Trackpoint>
            <Time>2022-10-08T08:37:36.000Z</Time>
            <Position>
              <LatitudeDegrees>37.24922421388328075408935546875</LatitudeDegrees>
              <LongitudeDegrees>-3.515697754919528961181640625</LongitudeDegrees>
            </Position>
            <AltitudeMeters>1250.4000244140625</AltitudeMeters>
            <DistanceMeters>9613.7011114542</DistanceMeters>
          </Trackpoint>
          <Trackpoint>
            <Time>2022-10-08T08:37:37.000Z</Time>
            <Position>
              <LatitudeDegrees>37.24922086112201213836669921875</LatitudeDegrees>
              <LongitudeDegrees>-3.5157284326851367950439453125</LongitudeDegrees>
            </Position>
            <AltitudeMeters>1250.4000244140625</AltitudeMeters>
            <DistanceMeters>9616.4453934649</DistanceMeters>
          </Trackpoint>
          <Trackpoint>
            <Time>2022-10-08T08:37:40.000Z</Time>
            <Position>
              <LatitudeDegrees>37.2491872496902942657470703125</LatitudeDegrees>
              <LongitudeDegrees>-3.515815101563930511474609375</LongitudeDegrees>
            </Position>
            <AltitudeMeters>1250.4000244140625</AltitudeMeters>
            <DistanceMeters>9624.9872327087</DistanceMeters>
          </Trackpoint>
          <Trackpoint>
            <Time>2022-10-08T08:37:42.000Z</Time>
            <Position>
              <LatitudeDegrees>37.2491540573537349700927734375</LatitudeDegrees>
              <LongitudeDegrees>-3.51586396805942058563232421875</LongitudeDegrees>
            </Position>
            <AltitudeMeters>1250.5999755859375</AltitudeMeters>
            <DistanceMeters>9630.6793249674</DistanceMeters>
          </Trackpoint>
          <Trackpoint>
            <Time>2022-10-08T08:37:48.000Z</Time>
            <Position>
              <LatitudeDegrees>37.2490315139293670654296875</LatitudeDegrees>
              <LongitudeDegrees>-3.51603847928345203399658203125</LongitudeDegrees>
            </Position>
            <AltitudeMeters>1250.800048828125</AltitudeMeters>
            <DistanceMeters>9651.2968373906</DistanceMeters>
          </Trackpoint>
          <Trackpoint>
            <Time>2022-10-08T08:37:50.000Z</Time>
            <Position>
              <LatitudeDegrees>37.249003015458583831787109375</LatitudeDegrees>
              <LongitudeDegrees>-3.51610050536692142486572265625</LongitudeDegrees>
            </Position>
            <AltitudeMeters>1250.5999755859375</AltitudeMeters>
            <DistanceMeters>9657.6416053759</DistanceMeters>
          </Trackpoint>
          <Trackpoint>
            <Time>2022-10-08T08:37:54.000Z</Time>
            <Position>
              <LatitudeDegrees>37.248982898890972137451171875</LatitudeDegrees>
              <LongitudeDegrees>-3.516199328005313873291015625</LongitudeDegrees>
            </Position>
            <AltitudeMeters>1250.4000244140625</AltitudeMeters>
            <DistanceMeters>9666.6791405175</DistanceMeters>
          </Trackpoint>
          <Trackpoint>
            <Time>2022-10-08T08:37:55.000Z</Time>
            <Position>
              <LatitudeDegrees>37.2489805519580841064453125</LatitudeDegrees>
              <LongitudeDegrees>-3.5162271559238433837890625</LongitudeDegrees>
            </Position>
            <AltitudeMeters>1250.4000244140625</AltitudeMeters>
            <DistanceMeters>9669.1589554417</DistanceMeters>
          </Trackpoint>
          <Trackpoint>
            <Time>2022-10-08T08:37:56.000Z</Time>
            <Position>
              <LatitudeDegrees>37.2489720024168491363525390625</LatitudeDegrees>
              <LongitudeDegrees>-3.51625339128077030181884765625</LongitudeDegrees>
            </Position>
            <AltitudeMeters>1250.4000244140625</AltitudeMeters>
            <DistanceMeters>9671.6695317417</DistanceMeters>
          </Trackpoint>
          <Trackpoint>
            <Time>2022-10-08T08:38:00.000Z</Time>
            <Position>
              <LatitudeDegrees>37.2489478625357151031494140625</LatitudeDegrees>
              <LongitudeDegrees>-3.5163607634603977203369140625</LongitudeDegrees>
            </Position>
            <AltitudeMeters>1250.800048828125</AltitudeMeters>
            <DistanceMeters>9681.5550508113</DistanceMeters>
          </Trackpoint>
          <Trackpoint>
            <Time>2022-10-08T08:38:04.000Z</Time>
            <Position>
              <LatitudeDegrees>37.24894358776509761810302734375</LatitudeDegrees>
              <LongitudeDegrees>-3.51644106209278106689453125</LongitudeDegrees>
            </Position>
            <AltitudeMeters>1251.4000244140625</AltitudeMeters>
            <DistanceMeters>9688.6852212427</DistanceMeters>
          </Trackpoint>
          <Trackpoint>
            <Time>2022-10-08T08:38:06.000Z</Time>
            <Position>
              <LatitudeDegrees>37.24893696606159210205078125</LatitudeDegrees>
              <LongitudeDegrees>-3.516483306884765625</LongitudeDegrees>
            </Position>
            <AltitudeMeters>1251.4000244140625</AltitudeMeters>
            <DistanceMeters>9692.4993336101</DistanceMeters>
          </Trackpoint>
          <Trackpoint>
            <Time>2022-10-08T08:38:08.000Z</Time>
            <Position>
              <LatitudeDegrees>37.248922884464263916015625</LatitudeDegrees>
              <LongitudeDegrees>-3.51652999408543109893798828125</LongitudeDegrees>
            </Position>
            <AltitudeMeters>1251.5999755859375</AltitudeMeters>
            <DistanceMeters>9696.9229266806</DistanceMeters>
          </Trackpoint>
          <Trackpoint>
            <Time>2022-10-08T08:38:15.000Z</Time>
            <Position>
              <LatitudeDegrees>37.24888223223388195037841796875</LatitudeDegrees>
              <LongitudeDegrees>-3.5167191736400127410888671875</LongitudeDegrees>
            </Position>
            <AltitudeMeters>1252.4000244140625</AltitudeMeters>
            <DistanceMeters>9714.2839719126</DistanceMeters>
          </Trackpoint>
          <Trackpoint>
            <Time>2022-10-08T08:38:17.000Z</Time>
            <Position>
              <LatitudeDegrees>37.2488901950418949127197265625</LatitudeDegrees>
              <LongitudeDegrees>-3.51676024496555328369140625</LongitudeDegrees>
            </Position>
            <AltitudeMeters>1252.5999755859375</AltitudeMeters>
            <DistanceMeters>9718.0300016501</DistanceMeters>
          </Trackpoint>
          <Trackpoint>
            <Time>2022-10-08T08:38:21.000Z</Time>
            <Position>
              <LatitudeDegrees>37.24888273514807224273681640625</LatitudeDegrees>
              <LongitudeDegrees>-3.516859151422977447509765625</LongitudeDegrees>
            </Position>
            <AltitudeMeters>1253</AltitudeMeters>
            <DistanceMeters>9726.8321636509</DistanceMeters>
          </Trackpoint>
          <Trackpoint>
            <Time>2022-10-08T08:38:26.000Z</Time>
            <Position>
              <LatitudeDegrees>37.2488737665116786956787109375</LatitudeDegrees>
              <LongitudeDegrees>-3.51703575812280178070068359375</LongitudeDegrees>
            </Position>
            <AltitudeMeters>1253.800048828125</AltitudeMeters>
            <DistanceMeters>9742.5112835596</DistanceMeters>
          </Trackpoint>
          <Trackpoint>
            <Time>2022-10-08T08:38:27.000Z</Time>
            <Position>
              <LatitudeDegrees>37.2488771192729473114013671875</LatitudeDegrees>
              <LongitudeDegrees>-3.51706023328006267547607421875</LongitudeDegrees>
            </Position>
            <AltitudeMeters>1254</AltitudeMeters>
            <DistanceMeters>9744.7113110535</DistanceMeters>
          </Trackpoint>
          <Trackpoint>
            <Time>2022-10-08T08:38:33.000Z</Time>
            <Position>
              <LatitudeDegrees>37.24889136850833892822265625</LatitudeDegrees>
              <LongitudeDegrees>-3.517215885221958160400390625</LongitudeDegrees>
            </Position>
            <AltitudeMeters>1254.800048828125</AltitudeMeters>
            <DistanceMeters>9758.5923690521</DistanceMeters>
          </Trackpoint>
          <Trackpoint>
            <Time>2022-10-08T08:38:38.000Z</Time>
            <Position>
              <LatitudeDegrees>37.248876281082630157470703125</LatitudeDegrees>
              <LongitudeDegrees>-3.5173659212887287139892578125</LongitudeDegrees>
            </Position>
            <AltitudeMeters>1254.800048828125</AltitudeMeters>
            <DistanceMeters>9771.9914727482</DistanceMeters>
          </Trackpoint>
          <Trackpoint>
            <Time>2022-10-08T08:38:40.000Z</Time>
            <Position>
              <LatitudeDegrees>37.248864211142063140869140625</LatitudeDegrees>
              <LongitudeDegrees>-3.51743205450475215911865234375</LongitudeDegrees>
            </Position>
            <AltitudeMeters>1254.800048828125</AltitudeMeters>
            <DistanceMeters>9778.0037432016</DistanceMeters>
          </Trackpoint>
          <Trackpoint>
            <Time>2022-10-08T08:38:46.000Z</Time>
            <Position>
              <LatitudeDegrees>37.24886395968496799468994140625</LatitudeDegrees>
              <LongitudeDegrees>-3.51761519908905029296875</LongitudeDegrees>
            </Position>
            <AltitudeMeters>1254.5999755859375</AltitudeMeters>
            <DistanceMeters>9794.229954678</DistanceMeters>
          </Trackpoint>
          <Trackpoint>
            <Time>2022-10-08T08:38:47.000Z</Time>
            <Position>
              <LatitudeDegrees>37.24885918200016021728515625</LatitudeDegrees>
              <LongitudeDegrees>-3.5176472179591655731201171875</LongitudeDegrees>
            </Position>
            <AltitudeMeters>1254.4000244140625</AltitudeMeters>
            <DistanceMeters>9797.1153888709</DistanceMeters>
          </Trackpoint>
          <Trackpoint>
            <Time>2022-10-08T08:38:52.000Z</Time>
            <Position>
              <LatitudeDegrees>37.2488539852201938629150390625</LatitudeDegrees>
              <LongitudeDegrees>-3.51781032979488372802734375</LongitudeDegrees>
            </Position>
            <AltitudeMeters>1254.199951171875</AltitudeMeters>
            <DistanceMeters>9811.5781925668</DistanceMeters>
          </Trackpoint>
          <Trackpoint>
            <Time>2022-10-08T08:38:53.000Z</Time>
            <Position>
              <LatitudeDegrees>37.2488533146679401397705078125</LatitudeDegrees>
              <LongitudeDegrees>-3.517837487161159515380859375</LongitudeDegrees>
            </Position>
            <AltitudeMeters>1254.199951171875</AltitudeMeters>
            <DistanceMeters>9813.9859527453</DistanceMeters>
          </Trackpoint>
          <Trackpoint>
            <Time>2022-10-08T08:38:58.000Z</Time>
            <Position>
              <LatitudeDegrees>37.24885658361017704010009765625</LatitudeDegrees>
              <LongitudeDegrees>-3.51800302974879741668701171875</LongitudeDegrees>
            </Position>
            <AltitudeMeters>1253.800048828125</AltitudeMeters>
            <DistanceMeters>9828.6570434382</DistanceMeters>
          </Trackpoint>
          <Trackpoint>
            <Time>2022-10-08T08:38:59.000Z</Time>
            <Position>
              <LatitudeDegrees>37.24886454641819000244140625</LatitudeDegrees>
              <LongitudeDegrees>-3.51803286932408809661865234375</LongitudeDegrees>
            </Position>
            <AltitudeMeters>1253.800048828125</AltitudeMeters>
            <DistanceMeters>9831.4453934553</DistanceMeters>
          </Trackpoint>
          <Trackpoint>
            <Time>2022-10-08T08:39:05.000Z</Time>
            <Position>
              <LatitudeDegrees>37.24890670739114284515380859375</LatitudeDegrees>
              <LongitudeDegrees>-3.51823168806731700897216796875</LongitudeDegrees>
            </Position>
            <AltitudeMeters>1253.199951171875</AltitudeMeters>
            <DistanceMeters>9849.6746779486</DistanceMeters>
          </Trackpoint>
          <Trackpoint>
            <Time>2022-10-08T08:39:11.000Z</Time>
            <Position>
              <LatitudeDegrees>37.248949371278285980224609375</LatitudeDegrees>
              <LongitudeDegrees>-3.51841022260487079620361328125</LongitudeDegrees>
            </Position>
            <AltitudeMeters>1253</AltitudeMeters>
            <DistanceMeters>9866.1896538467</DistanceMeters>
          </Trackpoint>
          <Trackpoint>
            <Time>2022-10-08T08:39:16.000Z</Time>
            <Position>
              <LatitudeDegrees>37.2489381395280361175537109375</LatitudeDegrees>
              <LongitudeDegrees>-3.5185660421848297119140625</LongitudeDegrees>
            </Position>
            <AltitudeMeters>1252.800048828125</AltitudeMeters>
            <DistanceMeters>9880.0511821381</DistanceMeters>
          </Trackpoint>
          <Trackpoint>
            <Time>2022-10-08T08:39:17.000Z</Time>
            <Position>
              <LatitudeDegrees>37.24893805570900440216064453125</LatitudeDegrees>
              <LongitudeDegrees>-3.51859462447464466094970703125</LongitudeDegrees>
            </Position>
            <AltitudeMeters>1252.800048828125</AltitudeMeters>
            <DistanceMeters>9882.5832473575</DistanceMeters>
          </Trackpoint>
          <Trackpoint>
            <Time>2022-10-08T08:39:23.000Z</Time>
            <Position>
              <LatitudeDegrees>37.2489106468856334686279296875</LatitudeDegrees>
              <LongitudeDegrees>-3.51878472603857517242431640625</LongitudeDegrees>
            </Position>
            <AltitudeMeters>1251.800048828125</AltitudeMeters>
            <DistanceMeters>9899.6996663799</DistanceMeters>
          </Trackpoint>
          <Trackpoint>
            <Time>2022-10-08T08:39:29.000Z</Time>
            <Position>
              <LatitudeDegrees>37.24892615340650081634521484375</LatitudeDegrees>
              <LongitudeDegrees>-3.5189943574368953704833984375</LongitudeDegrees>
            </Position>
            <AltitudeMeters>1251</AltitudeMeters>
            <DistanceMeters>9918.3525172447</DistanceMeters>
          </Trackpoint>
          <Trackpoint>
            <Time>2022-10-08T08:39:35.000Z</Time>
            <Position>
              <LatitudeDegrees>37.24897711537778377532958984375</LatitudeDegrees>
              <LongitudeDegrees>-3.51918336935341358184814453125</LongitudeDegrees>
            </Position>
            <AltitudeMeters>1251.4000244140625</AltitudeMeters>
            <DistanceMeters>9936.0331050838</DistanceMeters>
          </Trackpoint>
          <Trackpoint>
            <Time>2022-10-08T08:39:41.000Z</Time>
            <Position>
              <LatitudeDegrees>37.24899731576442718505859375</LatitudeDegrees>
              <LongitudeDegrees>-3.51934446953237056732177734375</LongitudeDegrees>
            </Position>
            <AltitudeMeters>1252</AltitudeMeters>
            <DistanceMeters>9950.4821662085</DistanceMeters>
          </Trackpoint>
          <Trackpoint>
            <Time>2022-10-08T08:39:42.000Z</Time>
            <Position>
              <LatitudeDegrees>37.24899924360215663909912109375</LatitudeDegrees>
              <LongitudeDegrees>-3.5193725489079952239990234375</LongitudeDegrees>
            </Position>
            <AltitudeMeters>1252</AltitudeMeters>
            <DistanceMeters>9952.9801219372</DistanceMeters>
          </Trackpoint>
          <Trackpoint>
            <Time>2022-10-08T08:39:45.000Z</Time>
            <Position>
              <LatitudeDegrees>37.2490293346345424652099609375</LatitudeDegrees>
              <LongitudeDegrees>-3.51944153197109699249267578125</LongitudeDegrees>
            </Position>
            <AltitudeMeters>1252.199951171875</AltitudeMeters>
            <DistanceMeters>9959.9488916361</DistanceMeters>
          </Trackpoint>
          <Trackpoint>
            <Time>2022-10-08T08:39:49.000Z</Time>
            <Position>
              <LatitudeDegrees>37.249067723751068115234375</LatitudeDegrees>
              <LongitudeDegrees>-3.5195415280759334564208984375</LongitudeDegrees>
            </Position>
            <AltitudeMeters>1253</AltitudeMeters>
            <DistanceMeters>9969.784500867</DistanceMeters>
          </Trackpoint>
          <Trackpoint>
            <Time>2022-10-08T08:39:52.000Z</Time>
            <Position>
              <LatitudeDegrees>37.2490853257477283477783203125</LatitudeDegrees>
              <LongitudeDegrees>-3.51961369626224040985107421875</LongitudeDegrees>
            </Position>
            <AltitudeMeters>1253.4000244140625</AltitudeMeters>
            <DistanceMeters>9976.4715733618</DistanceMeters>
          </Trackpoint>
          <Trackpoint>
            <Time>2022-10-08T08:39:54.000Z</Time>
            <Position>
              <LatitudeDegrees>37.2491074539721012115478515625</LatitudeDegrees>
              <LongitudeDegrees>-3.5196577012538909912109375</LongitudeDegrees>
            </Position>
            <AltitudeMeters>1253.800048828125</AltitudeMeters>
            <DistanceMeters>9981.0840412589</DistanceMeters>
          </Trackpoint>
          <Trackpoint>
            <Time>2022-10-08T08:39:56.000Z</Time>
            <Position>
              <LatitudeDegrees>37.24915263243019580841064453125</LatitudeDegrees>
              <LongitudeDegrees>-3.51970187388360500335693359375</LongitudeDegrees>
            </Position>
            <AltitudeMeters>1254</AltitudeMeters>
            <DistanceMeters>9987.4557932701</DistanceMeters>
          </Trackpoint>
          <Trackpoint>
            <Time>2022-10-08T08:39:57.000Z</Time>
            <Position>
              <LatitudeDegrees>37.24915699101984500885009765625</LatitudeDegrees>
              <LongitudeDegrees>-3.5197416879236698150634765625</LongitudeDegrees>
            </Position>
            <AltitudeMeters>1254</AltitudeMeters>
            <DistanceMeters>9991.0151748528</DistanceMeters>
          </Trackpoint>
          <Trackpoint>
            <Time>2022-10-08T08:39:58.000Z</Time>
            <Position>
              <LatitudeDegrees>37.249164618551731109619140625</LatitudeDegrees>
              <LongitudeDegrees>-3.5197735391557216644287109375</LongitudeDegrees>
            </Position>
            <AltitudeMeters>1254.199951171875</AltitudeMeters>
            <DistanceMeters>9993.9625352887</DistanceMeters>
          </Trackpoint>
          <Trackpoint>
            <Time>2022-10-08T08:40:00.000Z</Time>
            <Position>
              <LatitudeDegrees>37.24919018335640430450439453125</LatitudeDegrees>
              <LongitudeDegrees>-3.51982173509895801544189453125</LongitudeDegrees>
            </Position>
            <AltitudeMeters>1254.5999755859375</AltitudeMeters>
            <DistanceMeters>9999.0922178088</DistanceMeters>
          </Trackpoint>
          <Trackpoint>
            <Time>2022-10-08T08:40:03.000Z</Time>
            <Position>
              <LatitudeDegrees>37.2492026723921298980712890625</LatitudeDegrees>
              <LongitudeDegrees>-3.5198895446956157684326171875</LongitudeDegrees>
            </Position>
            <AltitudeMeters>1255.199951171875</AltitudeMeters>
            <DistanceMeters>10005.258712105</DistanceMeters>
          </Trackpoint>
          <Trackpoint>
            <Time>2022-10-08T08:40:06.000Z</Time>
            <Position>
              <LatitudeDegrees>37.2491906024515628814697265625</LatitudeDegrees>
              <LongitudeDegrees>-3.519969172775745391845703125</LongitudeDegrees>
            </Position>
            <AltitudeMeters>1255.5999755859375</AltitudeMeters>
            <DistanceMeters>10012.440619696</DistanceMeters>
          </Trackpoint>
          <Trackpoint>
            <Time>2022-10-08T08:40:09.000Z</Time>
            <Position>
              <LatitudeDegrees>37.249191440641880035400390625</LatitudeDegrees>
              <LongitudeDegrees>-3.52003522217273712158203125</LongitudeDegrees>
            </Position>
            <AltitudeMeters>1256</AltitudeMeters>
            <DistanceMeters>10018.293061917</DistanceMeters>
          </Trackpoint>
          <Trackpoint>
            <Time>2022-10-08T08:40:10.000Z</Time>
            <Position>
              <LatitudeDegrees>37.24919940344989299774169921875</LatitudeDegrees>
              <LongitudeDegrees>-3.52005022577941417694091796875</LongitudeDegrees>
            </Position>
            <AltitudeMeters>1256.199951171875</AltitudeMeters>
            <DistanceMeters>10019.891658688</DistanceMeters>
          </Trackpoint>
          <Trackpoint>
            <Time>2022-10-08T08:40:11.000Z</Time>
            <Position>
              <LatitudeDegrees>37.2492073662579059600830078125</LatitudeDegrees>
              <LongitudeDegrees>-3.52006916888058185577392578125</LongitudeDegrees>
            </Position>
            <AltitudeMeters>1256.4000244140625</AltitudeMeters>
            <DistanceMeters>10021.792192975</DistanceMeters>
          </Trackpoint>
          <Trackpoint>
            <Time>2022-10-08T08:40:12.000Z</Time>
            <Position>
              <LatitudeDegrees>37.24920921027660369873046875</LatitudeDegrees>
              <LongitudeDegrees>-3.520095236599445343017578125</LongitudeDegrees>
            </Position>
            <AltitudeMeters>1256.4000244140625</AltitudeMeters>
            <DistanceMeters>10024.112090723</DistanceMeters>
          </Trackpoint>
          <Trackpoint>
            <Time>2022-10-08T08:40:15.000Z</Time>
            <Position>
              <LatitudeDegrees>37.24920845590531826019287109375</LatitudeDegrees>
              <LongitudeDegrees>-3.52018986828625202178955078125</LongitudeDegrees>
            </Position>
            <AltitudeMeters>1257.199951171875</AltitudeMeters>
            <DistanceMeters>10032.496010751</DistanceMeters>
          </Trackpoint>
          <Trackpoint>
            <Time>2022-10-08T08:40:16.000Z</Time>
            <Position>
              <LatitudeDegrees>37.2492184303700923919677734375</LatitudeDegrees>
              <LongitudeDegrees>-3.52021618746221065521240234375</LongitudeDegrees>
            </Position>
            <AltitudeMeters>1257.199951171875</AltitudeMeters>
            <DistanceMeters>10035.077521242</DistanceMeters>
          </Trackpoint>
          <Trackpoint>
            <Time>2022-10-08T08:40:17.000Z</Time>
            <Position>
              <LatitudeDegrees>37.24921993911266326904296875</LatitudeDegrees>
              <LongitudeDegrees>-3.52024368010461330413818359375</LongitudeDegrees>
            </Position>
            <AltitudeMeters>1257.4000244140625</AltitudeMeters>
            <DistanceMeters>10037.518801737</DistanceMeters>
          </Trackpoint>
          <Trackpoint>
            <Time>2022-10-08T08:40:21.000Z</Time>
            <Position>
              <LatitudeDegrees>37.24923997186124324798583984375</LatitudeDegrees>
              <LongitudeDegrees>-3.52033604867756366729736328125</LongitudeDegrees>
            </Position>
            <AltitudeMeters>1258.199951171875</AltitudeMeters>
            <DistanceMeters>10046.000701231</DistanceMeters>
          </Trackpoint>
          <Trackpoint>
            <Time>2022-10-08T08:40:24.000Z</Time>
            <Position>
              <LatitudeDegrees>37.24926779977977275848388671875</LatitudeDegrees>
              <LongitudeDegrees>-3.5203978233039379119873046875</LongitudeDegrees>
            </Position>
            <AltitudeMeters>1258.4000244140625</AltitudeMeters>
            <DistanceMeters>10052.289000265</DistanceMeters>
          </Trackpoint>
          <Trackpoint>
            <Time>2022-10-08T08:40:27.000Z</Time>
            <Position>
              <LatitudeDegrees>37.24930535070598125457763671875</LatitudeDegrees>
              <LongitudeDegrees>-3.5204699076712131500244140625</LongitudeDegrees>
            </Position>
            <AltitudeMeters>1259</AltitudeMeters>
            <DistanceMeters>10059.921958618</DistanceMeters>
          </Trackpoint>
          <Trackpoint>
            <Time>2022-10-08T08:40:31.000Z</Time>
            <Position>
              <LatitudeDegrees>37.24935161881148815155029296875</LatitudeDegrees>
              <LongitudeDegrees>-3.5205654613673686981201171875</LongitudeDegrees>
            </Position>
            <AltitudeMeters>1259.4000244140625</AltitudeMeters>
            <DistanceMeters>10069.831199318</DistanceMeters>
          </Trackpoint>
          <Trackpoint>
            <Time>2022-10-08T08:40:34.000Z</Time>
            <Position>
              <LatitudeDegrees>37.24936989136040210723876953125</LatitudeDegrees>
              <LongitudeDegrees>-3.52063025347888469696044921875</LongitudeDegrees>
            </Position>
            <AltitudeMeters>1259.800048828125</AltitudeMeters>
            <DistanceMeters>10075.920328474</DistanceMeters>
          </Trackpoint>
          <Trackpoint>
            <Time>2022-10-08T08:40:36.000Z</Time>
            <Position>
              <LatitudeDegrees>37.2493847273290157318115234375</LatitudeDegrees>
              <LongitudeDegrees>-3.52066763676702976226806640625</LongitudeDegrees>
            </Position>
            <AltitudeMeters>1260</AltitudeMeters>
            <DistanceMeters>10079.620273864</DistanceMeters>
          </Trackpoint>
          <Trackpoint>
            <Time>2022-10-08T08:40:40.000Z</Time>
            <Position>
              <LatitudeDegrees>37.24938984028995037078857421875</LatitudeDegrees>
              <LongitudeDegrees>-3.52075849659740924835205078125</LongitudeDegrees>
            </Position>
            <AltitudeMeters>1260.5999755859375</AltitudeMeters>
            <DistanceMeters>10087.690274565</DistanceMeters>
          </Trackpoint>
          <Trackpoint>
            <Time>2022-10-08T08:40:44.000Z</Time>
            <Position>
              <LatitudeDegrees>37.249401323497295379638671875</LatitudeDegrees>
              <LongitudeDegrees>-3.520840220153331756591796875</LongitudeDegrees>
            </Position>
            <AltitudeMeters>1261.5999755859375</AltitudeMeters>
            <DistanceMeters>10095.042419667</DistanceMeters>
          </Trackpoint>
          <Trackpoint>
            <Time>2022-10-08T08:40:45.000Z</Time>
            <Position>
              <LatitudeDegrees>37.24941129796206951141357421875</LatitudeDegrees>
              <LongitudeDegrees>-3.52085354737937450408935546875</LongitudeDegrees>
            </Position>
            <AltitudeMeters>1261.5999755859375</AltitudeMeters>
            <DistanceMeters>10096.66345398</DistanceMeters>
          </Trackpoint>
          <Trackpoint>
            <Time>2022-10-08T08:40:48.000Z</Time>
            <Position>
              <LatitudeDegrees>37.24943610839545726776123046875</LatitudeDegrees>
              <LongitudeDegrees>-3.52090501226484775543212890625</LongitudeDegrees>
            </Position>
            <AltitudeMeters>1262.199951171875</AltitudeMeters>
            <DistanceMeters>10101.99342776</DistanceMeters>
          </Trackpoint>
          <Trackpoint>
            <Time>2022-10-08T08:40:50.000Z</Time>
            <Position>
              <LatitudeDegrees>37.24944901652634143829345703125</LatitudeDegrees>
              <LongitudeDegrees>-3.5209470055997371673583984375</LongitudeDegrees>
            </Position>
            <AltitudeMeters>1262.199951171875</AltitudeMeters>
            <DistanceMeters>10105.982286581</DistanceMeters>
          </Trackpoint>
          <Trackpoint>
            <Time>2022-10-08T08:40:54.000Z</Time>
            <Position>
              <LatitudeDegrees>37.24946628324687480926513671875</LatitudeDegrees>
              <LongitudeDegrees>-3.52102101780474185943603515625</LongitudeDegrees>
            </Position>
            <AltitudeMeters>1263</AltitudeMeters>
            <DistanceMeters>10112.816286535</DistanceMeters>
          </Trackpoint>
          <Trackpoint>
            <Time>2022-10-08T08:40:57.000Z</Time>
            <Position>
              <LatitudeDegrees>37.24947047419846057891845703125</LatitudeDegrees>
              <LongitudeDegrees>-3.52108933031558990478515625</LongitudeDegrees>
            </Position>
            <AltitudeMeters>1263.4000244140625</AltitudeMeters>
            <DistanceMeters>10118.886106293</DistanceMeters>
          </Trackpoint>
          <Trackpoint>
            <Time>2022-10-08T08:41:03.000Z</Time>
            <Position>
              <LatitudeDegrees>37.2495030798017978668212890625</LatitudeDegrees>
              <LongitudeDegrees>-3.52120357565581798553466796875</LongitudeDegrees>
            </Position>
            <AltitudeMeters>1263.800048828125</AltitudeMeters>
            <DistanceMeters>10129.638831472</DistanceMeters>
          </Trackpoint>
          <Trackpoint>
            <Time>2022-10-08T08:41:09.000Z</Time>
            <Position>
              <LatitudeDegrees>37.24949779920279979705810546875</LatitudeDegrees>
              <LongitudeDegrees>-3.52133131586015224456787109375</LongitudeDegrees>
            </Position>
            <AltitudeMeters>1263.800048828125</AltitudeMeters>
            <DistanceMeters>10140.971339896</DistanceMeters>
          </Trackpoint>
          <Trackpoint>
            <Time>2022-10-08T08:41:11.000Z</Time>
            <Position>
              <LatitudeDegrees>37.24948438815772533416748046875</LatitudeDegrees>
              <LongitudeDegrees>-3.5213479958474636077880859375</LongitudeDegrees>
            </Position>
            <AltitudeMeters>1264</AltitudeMeters>
            <DistanceMeters>10143.072698357</DistanceMeters>
          </Trackpoint>
          <Trackpoint>
            <Time>2022-10-08T08:41:15.000Z</Time>
            <Position>
              <LatitudeDegrees>37.24940509535372257232666015625</LatitudeDegrees>
              <LongitudeDegrees>-3.52137238718569278717041015625</LongitudeDegrees>
            </Position>
            <AltitudeMeters>1264.199951171875</AltitudeMeters>
            <DistanceMeters>10152.158564241</DistanceMeters>
          </Trackpoint>
          <Trackpoint>
            <Time>2022-10-08T08:41:16.000Z</Time>
            <Position>
              <LatitudeDegrees>37.24938883446156978607177734375</LatitudeDegrees>
              <LongitudeDegrees>-3.5213617421686649322509765625</LongitudeDegrees>
            </Position>
            <AltitudeMeters>1264.199951171875</AltitudeMeters>
            <DistanceMeters>10154.198874325</DistanceMeters>
          </Trackpoint>
          <Trackpoint>
            <Time>2022-10-08T08:41:17.000Z</Time>
            <Position>
              <LatitudeDegrees>37.2493828833103179931640625</LatitudeDegrees>
              <LongitudeDegrees>-3.5213474929332733154296875</LongitudeDegrees>
            </Position>
            <AltitudeMeters>1264.199951171875</AltitudeMeters>
            <DistanceMeters>10155.624275041</DistanceMeters>
          </Trackpoint>
          <Trackpoint>
            <Time>2022-10-08T08:41:20.000Z</Time>
            <Position>
              <LatitudeDegrees>37.2493649460375308990478515625</LatitudeDegrees>
              <LongitudeDegrees>-3.52129292674362659454345703125</LongitudeDegrees>
            </Position>
            <AltitudeMeters>1264.800048828125</AltitudeMeters>
            <DistanceMeters>10160.855061944</DistanceMeters>
          </Trackpoint>
          <Trackpoint>
            <Time>2022-10-08T08:41:21.000Z</Time>
            <Position>
              <LatitudeDegrees>37.24935782141983509063720703125</LatitudeDegrees>
              <LongitudeDegrees>-3.5212755762040615081787109375</LongitudeDegrees>
            </Position>
            <AltitudeMeters>1265</AltitudeMeters>
            <DistanceMeters>10162.586531083</DistanceMeters>
          </Trackpoint>
          <Trackpoint>
            <Time>2022-10-08T08:41:22.000Z</Time>
            <Position>
              <LatitudeDegrees>37.249353043735027313232421875</LatitudeDegrees>
              <LongitudeDegrees>-3.5212554596364498138427734375</LongitudeDegrees>
            </Position>
            <AltitudeMeters>1265.199951171875</AltitudeMeters>
            <DistanceMeters>10164.446240543</DistanceMeters>
          </Trackpoint>
          <Trackpoint>
            <Time>2022-10-08T08:41:23.000Z</Time>
            <Position>
              <LatitudeDegrees>37.2493461705744266510009765625</LatitudeDegrees>
              <LongitudeDegrees>-3.5212366841733455657958984375</LongitudeDegrees>
            </Position>
            <AltitudeMeters>1265.199951171875</AltitudeMeters>
            <DistanceMeters>10166.279049436</DistanceMeters>
          </Trackpoint>
          <Trackpoint>
            <Time>2022-10-08T08:41:25.000Z</Time>
            <Position>
              <LatitudeDegrees>37.2493367828428745269775390625</LatitudeDegrees>
              <LongitudeDegrees>-3.52121279574930667877197265625</LongitudeDegrees>
            </Position>
            <AltitudeMeters>1265.5999755859375</AltitudeMeters>
            <DistanceMeters>10168.637550462</DistanceMeters>
          </Trackpoint>
          <Trackpoint>
            <Time>2022-10-08T08:41:27.000Z</Time>
            <Position>
              <LatitudeDegrees>37.24932563491165637969970703125</LatitudeDegrees>
              <LongitudeDegrees>-3.521192260086536407470703125</LongitudeDegrees>
            </Position>
            <AltitudeMeters>1266.199951171875</AltitudeMeters>
            <DistanceMeters>10170.841678663</DistanceMeters>
          </Trackpoint>
          <Trackpoint>
            <Time>2022-10-08T08:41:32.000Z</Time>
            <Position>
              <LatitudeDegrees>37.24929830990731716156005859375</LatitudeDegrees>
              <LongitudeDegrees>-3.5210871510207653045654296875</LongitudeDegrees>
            </Position>
            <AltitudeMeters>1266.5999755859375</AltitudeMeters>
            <DistanceMeters>10180.638190922</DistanceMeters>
          </Trackpoint>
          <Trackpoint>
            <Time>2022-10-08T08:41:34.000Z</Time>
            <Position>
              <LatitudeDegrees>37.2492740862071514129638671875</LatitudeDegrees>
              <LongitudeDegrees>-3.5210552997887134552001953125</LongitudeDegrees>
            </Position>
            <AltitudeMeters>1266.5999755859375</AltitudeMeters>
            <DistanceMeters>10184.542389821</DistanceMeters>
          </Trackpoint>
          <Trackpoint>
            <Time>2022-10-08T08:41:36.000Z</Time>
            <Position>
              <LatitudeDegrees>37.2492539696395397186279296875</LatitudeDegrees>
              <LongitudeDegrees>-3.5210294835269451141357421875</LongitudeDegrees>
            </Position>
            <AltitudeMeters>1267.199951171875</AltitudeMeters>
            <DistanceMeters>10187.742406491</DistanceMeters>
          </Trackpoint>
          <Trackpoint>
            <Time>2022-10-08T08:41:38.000Z</Time>
            <Position>
              <LatitudeDegrees>37.24924148060381412506103515625</LatitudeDegrees>
              <LongitudeDegrees>-3.52101691067218780517578125</LongitudeDegrees>
            </Position>
            <AltitudeMeters>1267.800048828125</AltitudeMeters>
            <DistanceMeters>10189.520193529</DistanceMeters>
          </Trackpoint>
          <Trackpoint>
            <Time>2022-10-08T08:41:39.000Z</Time>
            <Position>
              <LatitudeDegrees>37.24923443980515003204345703125</LatitudeDegrees>
              <LongitudeDegrees>-3.5210224427282810211181640625</LongitudeDegrees>
            </Position>
            <AltitudeMeters>1268.199951171875</AltitudeMeters>
            <DistanceMeters>10190.441511708</DistanceMeters>
          </Trackpoint>
          <Trackpoint>
            <Time>2022-10-08T08:41:42.000Z</Time>
            <Position>
              <LatitudeDegrees>37.2492365352809429168701171875</LatitudeDegrees>
              <LongitudeDegrees>-3.52106879465281963348388671875</LongitudeDegrees>
            </Position>
            <AltitudeMeters>1269</AltitudeMeters>
            <DistanceMeters>10194.555191722</DistanceMeters>
          </Trackpoint>
          <Trackpoint>
            <Time>2022-10-08T08:41:43.000Z</Time>
            <Position>
              <LatitudeDegrees>37.24924810230731964111328125</LatitudeDegrees>
              <LongitudeDegrees>-3.52107482962310314178466796875</LongitudeDegrees>
            </Position>
            <AltitudeMeters>1269.4000244140625</AltitudeMeters>
            <DistanceMeters>10195.951793494</DistanceMeters>
          </Trackpoint>
          <Trackpoint>
            <Time>2022-10-08T08:41:47.000Z</Time>
            <Position>
              <LatitudeDegrees>37.24925572983920574188232421875</LatitudeDegrees>
              <LongitudeDegrees>-3.5210978798568248748779296875</LongitudeDegrees>
            </Position>
            <AltitudeMeters>1270.5999755859375</AltitudeMeters>
            <DistanceMeters>10198.164100307</DistanceMeters>
          </Trackpoint>
          <Trackpoint>
            <Time>2022-10-08T08:41:48.000Z</Time>
            <Position>
              <LatitudeDegrees>37.24925690330564975738525390625</LatitudeDegrees>
              <LongitudeDegrees>-3.52109930478036403656005859375</LongitudeDegrees>
            </Position>
            <AltitudeMeters>1270.800048828125</AltitudeMeters>
            <DistanceMeters>10198.354153736</DistanceMeters>
          </Trackpoint>
          <Trackpoint>
            <Time>2022-10-08T08:41:52.000Z</Time>
            <Position>
              <LatitudeDegrees>37.24923561327159404754638671875</LatitudeDegrees>
              <LongitudeDegrees>-3.521151356399059295654296875</LongitudeDegrees>
            </Position>
            <AltitudeMeters>1272</AltitudeMeters>
            <DistanceMeters>10203.538120122</DistanceMeters>
          </Trackpoint>
          <Trackpoint>
            <Time>2022-10-08T08:41:53.000Z</Time>
            <Position>
              <LatitudeDegrees>37.24922773428261280059814453125</LatitudeDegrees>
              <LongitudeDegrees>-3.52116267196834087371826171875</LongitudeDegrees>
            </Position>
            <AltitudeMeters>1272.199951171875</AltitudeMeters>
            <DistanceMeters>10204.871883617</DistanceMeters>
          </Trackpoint>
          <Trackpoint>
            <Time>2022-10-08T08:41:54.000Z</Time>
            <Position>
              <LatitudeDegrees>37.2492197714745998382568359375</LatitudeDegrees>
              <LongitudeDegrees>-3.52116988040506839752197265625</LongitudeDegrees>
            </Position>
            <AltitudeMeters>1272.4000244140625</AltitudeMeters>
            <DistanceMeters>10205.963657444</DistanceMeters>
          </Trackpoint>
          <Trackpoint>
            <Time>2022-10-08T08:41:56.000Z</Time>
            <Position>
              <LatitudeDegrees>37.2492009960114955902099609375</LatitudeDegrees>
              <LongitudeDegrees>-3.52119125425815582275390625</LongitudeDegrees>
            </Position>
            <AltitudeMeters>1273.199951171875</AltitudeMeters>
            <DistanceMeters>10208.782605346</DistanceMeters>
          </Trackpoint>
          <Trackpoint>
            <Time>2022-10-08T08:41:57.000Z</Time>
            <Position>
              <LatitudeDegrees>37.24918775260448455810546875</LatitudeDegrees>
              <LongitudeDegrees>-3.52120692841708660125732421875</LongitudeDegrees>
            </Position>
            <AltitudeMeters>1273.4000244140625</AltitudeMeters>
            <DistanceMeters>10210.807365753</DistanceMeters>
          </Trackpoint>
          <Trackpoint>
            <Time>2022-10-08T08:41:59.000Z</Time>
            <Position>
              <LatitudeDegrees>37.24916654638946056365966796875</LatitudeDegrees>
              <LongitudeDegrees>-3.5212249495089054107666015625</LongitudeDegrees>
            </Position>
            <AltitudeMeters>1273.800048828125</AltitudeMeters>
            <DistanceMeters>10213.658167184</DistanceMeters>
          </Trackpoint>
          <Trackpoint>
            <Time>2022-10-08T08:42:01.000Z</Time>
            <Position>
              <LatitudeDegrees>37.2491265647113323211669921875</LatitudeDegrees>
              <LongitudeDegrees>-3.52125227451324462890625</LongitudeDegrees>
            </Position>
            <AltitudeMeters>1274.199951171875</AltitudeMeters>
            <DistanceMeters>10218.724971633</DistanceMeters>
          </Trackpoint>
          <Trackpoint>
            <Time>2022-10-08T08:42:04.000Z</Time>
            <Position>
              <LatitudeDegrees>37.2490970604121685028076171875</LatitudeDegrees>
              <LongitudeDegrees>-3.5212916694581508636474609375</LongitudeDegrees>
            </Position>
            <AltitudeMeters>1274.5999755859375</AltitudeMeters>
            <DistanceMeters>10223.51699463</DistanceMeters>
          </Trackpoint>
          <Trackpoint>
            <Time>2022-10-08T08:42:09.000Z</Time>
            <Position>
              <LatitudeDegrees>37.2490434162318706512451171875</LatitudeDegrees>
              <LongitudeDegrees>-3.52133148349821567535400390625</LongitudeDegrees>
            </Position>
            <AltitudeMeters>1275.199951171875</AltitudeMeters>
            <DistanceMeters>10230.4519919</DistanceMeters>
          </Trackpoint>
          <Trackpoint>
            <Time>2022-10-08T08:42:10.000Z</Time>
            <Position>
              <LatitudeDegrees>37.249032519757747650146484375</LatitudeDegrees>
              <LongitudeDegrees>-3.52133668027818202972412109375</LongitudeDegrees>
            </Position>
            <AltitudeMeters>1275.4000244140625</AltitudeMeters>
            <DistanceMeters>10231.747983497</DistanceMeters>
          </Trackpoint>
          <Trackpoint>
            <Time>2022-10-08T08:42:11.000Z</Time>
            <Position>
              <LatitudeDegrees>37.24902472458779811859130859375</LatitudeDegrees>
              <LongitudeDegrees>-3.52134405635297298431396484375</LongitudeDegrees>
            </Position>
            <AltitudeMeters>1275.4000244140625</AltitudeMeters>
            <DistanceMeters>10232.839757324</DistanceMeters>
          </Trackpoint>
          <Trackpoint>
            <Time>2022-10-08T08:42:15.000Z</Time>
            <Position>
              <LatitudeDegrees>37.2489934600889682769775390625</LatitudeDegrees>
              <LongitudeDegrees>-3.521359898149967193603515625</LongitudeDegrees>
            </Position>
            <AltitudeMeters>1276.4000244140625</AltitudeMeters>
            <DistanceMeters>10236.591808653</DistanceMeters>
          </Trackpoint>
          <Trackpoint>
            <Time>2022-10-08T08:42:16.000Z</Time>
            <Position>
              <LatitudeDegrees>37.24899086169898509979248046875</LatitudeDegrees>
              <LongitudeDegrees>-3.52136082015931606292724609375</LongitudeDegrees>
            </Position>
            <AltitudeMeters>1276.800048828125</AltitudeMeters>
            <DistanceMeters>10236.892309509</DistanceMeters>
          </Trackpoint>
          <Trackpoint>
            <Time>2022-10-08T08:42:20.000Z</Time>
            <Position>
              <LatitudeDegrees>37.24897074513137340545654296875</LatitudeDegrees>
              <LongitudeDegrees>-3.5213828645646572113037109375</LongitudeDegrees>
            </Position>
            <AltitudeMeters>1277.5999755859375</AltitudeMeters>
            <DistanceMeters>10239.864079144</DistanceMeters>
          </Trackpoint>
          <Trackpoint>
            <Time>2022-10-08T08:42:21.000Z</Time>
            <Position>
              <LatitudeDegrees>37.24896789528429508209228515625</LatitudeDegrees>
              <LongitudeDegrees>-3.5213885642588138580322265625</LongitudeDegrees>
            </Position>
            <AltitudeMeters>1277.800048828125</AltitudeMeters>
            <DistanceMeters>10240.472547002</DistanceMeters>
          </Trackpoint>
          <Trackpoint>
            <Time>2022-10-08T08:42:22.000Z</Time>
            <Position>
              <LatitudeDegrees>37.2489673085510730743408203125</LatitudeDegrees>
              <LongitudeDegrees>-3.5213865526020526885986328125</LongitudeDegrees>
            </Position>
            <AltitudeMeters>1278</AltitudeMeters>
            <DistanceMeters>10240.685033195</DistanceMeters>
          </Trackpoint>
          <Trackpoint>
            <Time>2022-10-08T08:42:25.000Z</Time>
            <Position>
              <LatitudeDegrees>37.248936630785465240478515625</LatitudeDegrees>
              <LongitudeDegrees>-3.5214080102741718292236328125</LongitudeDegrees>
            </Position>
            <AltitudeMeters>1278.5999755859375</AltitudeMeters>
            <DistanceMeters>10244.593855184</DistanceMeters>
          </Trackpoint>
          <Trackpoint>
            <Time>2022-10-08T08:42:28.000Z</Time>
            <Position>
              <LatitudeDegrees>37.24890151061117649078369140625</LatitudeDegrees>
              <LongitudeDegrees>-3.5214348323643207550048828125</LongitudeDegrees>
            </Position>
            <AltitudeMeters>1279</AltitudeMeters>
            <DistanceMeters>10249.168974549</DistanceMeters>
          </Trackpoint>
          <Trackpoint>
            <Time>2022-10-08T08:42:32.000Z</Time>
            <Position>
              <LatitudeDegrees>37.2488556616008281707763671875</LatitudeDegrees>
              <LongitudeDegrees>-3.521473892033100128173828125</LongitudeDegrees>
            </Position>
            <AltitudeMeters>1279.5999755859375</AltitudeMeters>
            <DistanceMeters>10255.334736612</DistanceMeters>
          </Trackpoint>
          <Trackpoint>
            <Time>2022-10-08T08:42:34.000Z</Time>
            <Position>
              <LatitudeDegrees>37.2488315217196941375732421875</LatitudeDegrees>
              <LongitudeDegrees>-3.52150599472224712371826171875</LongitudeDegrees>
            </Position>
            <AltitudeMeters>1280</AltitudeMeters>
            <DistanceMeters>10259.247022335</DistanceMeters>
          </Trackpoint>
          <Trackpoint>
            <Time>2022-10-08T08:42:37.000Z</Time>
            <Position>
              <LatitudeDegrees>37.2488000057637691497802734375</LatitudeDegrees>
              <LongitudeDegrees>-3.5215344093739986419677734375</LongitudeDegrees>
            </Position>
            <AltitudeMeters>1281</AltitudeMeters>
            <DistanceMeters>10263.564206345</DistanceMeters>
          </Trackpoint>
          <Trackpoint>
            <Time>2022-10-08T08:42:42.000Z</Time>
            <Position>
              <LatitudeDegrees>37.2487192042171955108642578125</LatitudeDegrees>
              <LongitudeDegrees>-3.5215793363749980926513671875</LongitudeDegrees>
            </Position>
            <AltitudeMeters>1282</AltitudeMeters>
            <DistanceMeters>10273.399356515</DistanceMeters>
          </Trackpoint>
          <Trackpoint>
            <Time>2022-10-08T08:42:43.000Z</Time>
            <Position>
              <LatitudeDegrees>37.24870185367763042449951171875</LatitudeDegrees>
              <LongitudeDegrees>-3.52158981375396251678466796875</LongitudeDegrees>
            </Position>
            <AltitudeMeters>1282.199951171875</AltitudeMeters>
            <DistanceMeters>10275.545361871</DistanceMeters>
          </Trackpoint>
          <Trackpoint>
            <Time>2022-10-08T08:42:46.000Z</Time>
            <Position>
              <LatitudeDegrees>37.24869648925960063934326171875</LatitudeDegrees>
              <LongitudeDegrees>-3.52159802801907062530517578125</LongitudeDegrees>
            </Position>
            <AltitudeMeters>1282.800048828125</AltitudeMeters>
            <DistanceMeters>10276.490865741</DistanceMeters>
          </Trackpoint>
          <Trackpoint>
            <Time>2022-10-08T08:42:49.000Z</Time>
            <Position>
              <LatitudeDegrees>37.2486964054405689239501953125</LatitudeDegrees>
              <LongitudeDegrees>-3.52160171605646610260009765625</LongitudeDegrees>
            </Position>
            <AltitudeMeters>1283.199951171875</AltitudeMeters>
            <DistanceMeters>10276.846423149</DistanceMeters>
          </Trackpoint>
          <Trackpoint>
            <Time>2022-10-08T08:42:52.000Z</Time>
            <Position>
              <LatitudeDegrees>37.24866011179983615875244140625</LatitudeDegrees>
              <LongitudeDegrees>-3.52161495946347713470458984375</LongitudeDegrees>
            </Position>
            <AltitudeMeters>1283.800048828125</AltitudeMeters>
            <DistanceMeters>10281.054508213</DistanceMeters>
          </Trackpoint>
          <Trackpoint>
            <Time>2022-10-08T08:42:55.000Z</Time>
            <Position>
              <LatitudeDegrees>37.248630523681640625</LatitudeDegrees>
              <LongitudeDegrees>-3.521650247275829315185546875</LongitudeDegrees>
            </Position>
            <AltitudeMeters>1284.4000244140625</AltitudeMeters>
            <DistanceMeters>10285.593961312</DistanceMeters>
          </Trackpoint>
          <Trackpoint>
            <Time>2022-10-08T08:42:57.000Z</Time>
            <Position>
              <LatitudeDegrees>37.248609401285648345947265625</LatitudeDegrees>
              <LongitudeDegrees>-3.5216641612350940704345703125</LongitudeDegrees>
            </Position>
            <AltitudeMeters>1284.800048828125</AltitudeMeters>
            <DistanceMeters>10288.247913012</DistanceMeters>
          </Trackpoint>
          <Trackpoint>
            <Time>2022-10-08T08:43:01.000Z</Time>
            <Position>
              <LatitudeDegrees>37.2485674917697906494140625</LatitudeDegrees>
              <LongitudeDegrees>-3.52170296944677829742431640625</LongitudeDegrees>
            </Position>
            <AltitudeMeters>1285.5999755859375</AltitudeMeters>
            <DistanceMeters>10294.042984565</DistanceMeters>
          </Trackpoint>
          <Trackpoint>
            <Time>2022-10-08T08:43:06.000Z</Time>
            <Position>
              <LatitudeDegrees>37.24851879291236400604248046875</LatitudeDegrees>
              <LongitudeDegrees>-3.5217526741325855255126953125</LongitudeDegrees>
            </Position>
            <AltitudeMeters>1286.4000244140625</AltitudeMeters>
            <DistanceMeters>10301.025993429</DistanceMeters>
          </Trackpoint>
          <Trackpoint>
            <Time>2022-10-08T08:43:07.000Z</Time>
            <Position>
              <LatitudeDegrees>37.248518206179141998291015625</LatitudeDegrees>
              <LongitudeDegrees>-3.52177220396697521209716796875</LongitudeDegrees>
            </Position>
            <AltitudeMeters>1286.5999755859375</AltitudeMeters>
            <DistanceMeters>10302.754852967</DistanceMeters>
          </Trackpoint>
          <Trackpoint>
            <Time>2022-10-08T08:43:14.000Z</Time>
            <Position>
              <LatitudeDegrees>37.24846866913139820098876953125</LatitudeDegrees>
              <LongitudeDegrees>-3.521895669400691986083984375</LongitudeDegrees>
            </Position>
            <AltitudeMeters>1287.800048828125</AltitudeMeters>
            <DistanceMeters>10315.004456237</DistanceMeters>
          </Trackpoint>
          <Trackpoint>
            <Time>2022-10-08T08:43:20.000Z</Time>
            <Position>
              <LatitudeDegrees>37.24843430332839488983154296875</LatitudeDegrees>
              <LongitudeDegrees>-3.5219561867415904998779296875</LongitudeDegrees>
            </Position>
            <AltitudeMeters>1289</AltitudeMeters>
            <DistanceMeters>10321.590842745</DistanceMeters>
          </Trackpoint>
          <Trackpoint>
            <Time>2022-10-08T08:43:22.000Z</Time>
            <Position>
              <LatitudeDegrees>37.248424328863620758056640625</LatitudeDegrees>
              <LongitudeDegrees>-3.52198476903140544891357421875</LongitudeDegrees>
            </Position>
            <AltitudeMeters>1289.4000244140625</AltitudeMeters>
            <DistanceMeters>10324.35479728</DistanceMeters>
          </Trackpoint>
          <Trackpoint>
            <Time>2022-10-08T08:43:26.000Z</Time>
            <Position>
              <LatitudeDegrees>37.24837512709200382232666015625</LatitudeDegrees>
              <LongitudeDegrees>-3.522036485373973846435546875</LongitudeDegrees>
            </Position>
            <AltitudeMeters>1290</AltitudeMeters>
            <DistanceMeters>10331.495092204</DistanceMeters>
          </Trackpoint>
          <Trackpoint>
            <Time>2022-10-08T08:43:28.000Z</Time>
            <Position>
              <LatitudeDegrees>37.24835568107664585113525390625</LatitudeDegrees>
              <LongitudeDegrees>-3.5220636427402496337890625</LongitudeDegrees>
            </Position>
            <AltitudeMeters>1290.4000244140625</AltitudeMeters>
            <DistanceMeters>10334.731585472</DistanceMeters>
          </Trackpoint>
          <Trackpoint>
            <Time>2022-10-08T08:43:33.000Z</Time>
            <Position>
              <LatitudeDegrees>37.24829767830669879913330078125</LatitudeDegrees>
              <LongitudeDegrees>-3.5221234895288944244384765625</LongitudeDegrees>
            </Position>
            <AltitudeMeters>1291</AltitudeMeters>
            <DistanceMeters>10343.086373974</DistanceMeters>
          </Trackpoint>
          <Trackpoint>
            <Time>2022-10-08T08:43:34.000Z</Time>
            <Position>
              <LatitudeDegrees>37.24829063750803470611572265625</LatitudeDegrees>
              <LongitudeDegrees>-3.52213044650852680206298828125</LongitudeDegrees>
            </Position>
            <AltitudeMeters>1291.4000244140625</AltitudeMeters>
            <DistanceMeters>10344.083022563</DistanceMeters>
          </Trackpoint>
          <Trackpoint>
            <Time>2022-10-08T08:43:39.000Z</Time>
            <Position>
              <LatitudeDegrees>37.24821654148399829864501953125</LatitudeDegrees>
              <LongitudeDegrees>-3.5222076438367366790771484375</LongitudeDegrees>
            </Position>
            <AltitudeMeters>1292.199951171875</AltitudeMeters>
            <DistanceMeters>10354.797047565</DistanceMeters>
          </Trackpoint>
          <Trackpoint>
            <Time>2022-10-08T08:43:40.000Z</Time>
            <Position>
              <LatitudeDegrees>37.24820514209568500518798828125</LatitudeDegrees>
              <LongitudeDegrees>-3.52222130633890628814697265625</LongitudeDegrees>
            </Position>
            <AltitudeMeters>1292.199951171875</AltitudeMeters>
            <DistanceMeters>10356.549253601</DistanceMeters>
          </Trackpoint>
          <Trackpoint>
            <Time>2022-10-08T08:43:47.000Z</Time>
            <Position>
              <LatitudeDegrees>37.24811277352273464202880859375</LatitudeDegrees>
              <LongitudeDegrees>-3.5223318636417388916015625</LongitudeDegrees>
            </Position>
            <AltitudeMeters>1292.800048828125</AltitudeMeters>
            <DistanceMeters>10370.749310185</DistanceMeters>
          </Trackpoint>
          <Trackpoint>
            <Time>2022-10-08T08:43:50.000Z</Time>
            <Position>
              <LatitudeDegrees>37.24807438440620899200439453125</LatitudeDegrees>
              <LongitudeDegrees>-3.522373102605342864990234375</LongitudeDegrees>
            </Position>
            <AltitudeMeters>1293.199951171875</AltitudeMeters>
            <DistanceMeters>10376.371166422</DistanceMeters>
          </Trackpoint>
          <Trackpoint>
            <Time>2022-10-08T08:43:54.000Z</Time>
            <Position>
              <LatitudeDegrees>37.24804756231606006622314453125</LatitudeDegrees>
              <LongitudeDegrees>-3.5224108211696147918701171875</LongitudeDegrees>
            </Position>
            <AltitudeMeters>1294.199951171875</AltitudeMeters>
            <DistanceMeters>10380.85256018</DistanceMeters>
          </Trackpoint>
          <Trackpoint>
            <Time>2022-10-08T08:43:55.000Z</Time>
            <Position>
              <LatitudeDegrees>37.24803532473742961883544921875</LatitudeDegrees>
              <LongitudeDegrees>-3.5224131681025028228759765625</LongitudeDegrees>
            </Position>
            <AltitudeMeters>1294.4000244140625</AltitudeMeters>
            <DistanceMeters>10382.229628099</DistanceMeters>
          </Trackpoint>
          <Trackpoint>
            <Time>2022-10-08T08:43:57.000Z</Time>
            <Position>
              <LatitudeDegrees>37.248002551496028900146484375</LatitudeDegrees>
              <LongitudeDegrees>-3.522412665188312530517578125</LongitudeDegrees>
            </Position>
            <AltitudeMeters>1295</AltitudeMeters>
            <DistanceMeters>10385.877960962</DistanceMeters>
          </Trackpoint>
          <Trackpoint>
            <Time>2022-10-08T08:43:59.000Z</Time>
            <Position>
              <LatitudeDegrees>37.24797807633876800537109375</LatitudeDegrees>
              <LongitudeDegrees>-3.52242029272019863128662109375</LongitudeDegrees>
            </Position>
            <AltitudeMeters>1295.4000244140625</AltitudeMeters>
            <DistanceMeters>10388.685674754</DistanceMeters>
          </Trackpoint>
          <Trackpoint>
            <Time>2022-10-08T08:44:01.000Z</Time>
            <Position>
              <LatitudeDegrees>37.24795368500053882598876953125</LatitudeDegrees>
              <LongitudeDegrees>-3.5224430076777935028076171875</LongitudeDegrees>
            </Position>
            <AltitudeMeters>1295.5999755859375</AltitudeMeters>
            <DistanceMeters>10392.064138402</DistanceMeters>
          </Trackpoint>
          <Trackpoint>
            <Time>2022-10-08T08:44:04.000Z</Time>
            <Position>
              <LatitudeDegrees>37.2479373402893543243408203125</LatitudeDegrees>
              <LongitudeDegrees>-3.52245457470417022705078125</LongitudeDegrees>
            </Position>
            <AltitudeMeters>1296.4000244140625</AltitudeMeters>
            <DistanceMeters>10394.154726118</DistanceMeters>
          </Trackpoint>
          <Trackpoint>
            <Time>2022-10-08T08:44:06.000Z</Time>
            <Position>
              <LatitudeDegrees>37.24791831336915493011474609375</LatitudeDegrees>
              <LongitudeDegrees>-3.52246337570250034332275390625</LongitudeDegrees>
            </Position>
            <AltitudeMeters>1297</AltitudeMeters>
            <DistanceMeters>10396.411485546</DistanceMeters>
          </Trackpoint>
          <Trackpoint>
            <Time>2022-10-08T08:44:10.000Z</Time>
            <Position>
              <LatitudeDegrees>37.247903309762477874755859375</LatitudeDegrees>
              <LongitudeDegrees>-3.52247276343405246734619140625</LongitudeDegrees>
            </Position>
            <AltitudeMeters>1297.4000244140625</AltitudeMeters>
            <DistanceMeters>10398.276044322</DistanceMeters>
          </Trackpoint>
          <Trackpoint>
            <Time>2022-10-08T08:44:11.000Z</Time>
            <Position>
              <LatitudeDegrees>37.247897945344448089599609375</LatitudeDegrees>
              <LongitudeDegrees>-3.52248148061335086822509765625</LongitudeDegrees>
            </Position>
            <AltitudeMeters>1297.5999755859375</AltitudeMeters>
            <DistanceMeters>10399.254404227</DistanceMeters>
          </Trackpoint>
          <Trackpoint>
            <Time>2022-10-08T08:44:14.000Z</Time>
            <Position>
              <LatitudeDegrees>37.24788160063326358795166015625</LatitudeDegrees>
              <LongitudeDegrees>-3.5225147567689418792724609375</LongitudeDegrees>
            </Position>
            <AltitudeMeters>1298.4000244140625</AltitudeMeters>
            <DistanceMeters>10402.718646077</DistanceMeters>
          </Trackpoint>
          <Trackpoint>
            <Time>2022-10-08T08:44:15.000Z</Time>
            <Position>
              <LatitudeDegrees>37.24787481129169464111328125</LatitudeDegrees>
              <LongitudeDegrees>-3.52252892218530178070068359375</LongitudeDegrees>
            </Position>
            <AltitudeMeters>1298.800048828125</AltitudeMeters>
            <DistanceMeters>10404.18156375</DistanceMeters>
          </Trackpoint>
          <Trackpoint>
            <Time>2022-10-08T08:44:19.000Z</Time>
            <Position>
              <LatitudeDegrees>37.247866094112396240234375</LatitudeDegrees>
              <LongitudeDegrees>-3.5225680656731128692626953125</LongitudeDegrees>
            </Position>
            <AltitudeMeters>1300</AltitudeMeters>
            <DistanceMeters>10407.782562191</DistanceMeters>
          </Trackpoint>
          <Trackpoint>
            <Time>2022-10-08T08:44:21.000Z</Time>
            <Position>
              <LatitudeDegrees>37.2478384338319301605224609375</LatitudeDegrees>
              <LongitudeDegrees>-3.5225918702781200408935546875</LongitudeDegrees>
            </Position>
            <AltitudeMeters>1300.4000244140625</AltitudeMeters>
            <DistanceMeters>10411.5128903</DistanceMeters>
          </Trackpoint>
          <Trackpoint>
            <Time>2022-10-08T08:44:23.000Z</Time>
            <Position>
              <LatitudeDegrees>37.2478072531521320343017578125</LatitudeDegrees>
              <LongitudeDegrees>-3.52261106483638286590576171875</LongitudeDegrees>
            </Position>
            <AltitudeMeters>1300.800048828125</AltitudeMeters>
            <DistanceMeters>10415.377569645</DistanceMeters>
          </Trackpoint>
          <Trackpoint>
            <Time>2022-10-08T08:44:25.000Z</Time>
            <Position>
              <LatitudeDegrees>37.247790992259979248046875</LatitudeDegrees>
              <LongitudeDegrees>-3.5226310975849628448486328125</LongitudeDegrees>
            </Position>
            <AltitudeMeters>1301.199951171875</AltitudeMeters>
            <DistanceMeters>10417.913198645</DistanceMeters>
          </Trackpoint>
          <Trackpoint>
            <Time>2022-10-08T08:44:30.000Z</Time>
            <Position>
              <LatitudeDegrees>37.24774070084095001220703125</LatitudeDegrees>
              <LongitudeDegrees>-3.5226780362427234649658203125</LongitudeDegrees>
            </Position>
            <AltitudeMeters>1302.199951171875</AltitudeMeters>
            <DistanceMeters>10424.887149586</DistanceMeters>
          </Trackpoint>
          <Trackpoint>
            <Time>2022-10-08T08:44:36.000Z</Time>
            <Position>
              <LatitudeDegrees>37.2476684488356113433837890625</LatitudeDegrees>
              <LongitudeDegrees>-3.5227507911622524261474609375</LongitudeDegrees>
            </Position>
            <AltitudeMeters>1303.5999755859375</AltitudeMeters>
            <DistanceMeters>10435.193496621</DistanceMeters>
          </Trackpoint>
          <Trackpoint>
            <Time>2022-10-08T08:44:38.000Z</Time>
            <Position>
              <LatitudeDegrees>37.2476506792008876800537109375</LatitudeDegrees>
              <LongitudeDegrees>-3.5227678902447223663330078125</LongitudeDegrees>
            </Position>
            <AltitudeMeters>1304.199951171875</AltitudeMeters>
            <DistanceMeters>10437.686023972</DistanceMeters>
          </Trackpoint>
          <Trackpoint>
            <Time>2022-10-08T08:44:40.000Z</Time>
            <Position>
              <LatitudeDegrees>37.24763617850840091705322265625</LatitudeDegrees>
              <LongitudeDegrees>-3.5227880068123340606689453125</LongitudeDegrees>
            </Position>
            <AltitudeMeters>1304.800048828125</AltitudeMeters>
            <DistanceMeters>10440.09003082</DistanceMeters>
          </Trackpoint>
          <Trackpoint>
            <Time>2022-10-08T08:44:44.000Z</Time>
            <Position>
              <LatitudeDegrees>37.24760600365698337554931640625</LatitudeDegrees>
              <LongitudeDegrees>-3.5228443332016468048095703125</LongitudeDegrees>
            </Position>
            <AltitudeMeters>1305.4000244140625</AltitudeMeters>
            <DistanceMeters>10446.105304405</DistanceMeters>
          </Trackpoint>
          <Trackpoint>
            <Time>2022-10-08T08:44:50.000Z</Time>
            <Position>
              <LatitudeDegrees>37.24757364951074123382568359375</LatitudeDegrees>
              <LongitudeDegrees>-3.52295908145606517791748046875</LongitudeDegrees>
            </Position>
            <AltitudeMeters>1306</AltitudeMeters>
            <DistanceMeters>10456.890731831</DistanceMeters>
          </Trackpoint>
          <Trackpoint>
            <Time>2022-10-08T08:44:51.000Z</Time>
            <Position>
              <LatitudeDegrees>37.24757633171975612640380859375</LatitudeDegrees>
              <LongitudeDegrees>-3.52296411059796810150146484375</LongitudeDegrees>
            </Position>
            <AltitudeMeters>1306</AltitudeMeters>
            <DistanceMeters>10457.428284104</DistanceMeters>
          </Trackpoint>
          <Trackpoint>
            <Time>2022-10-08T08:44:55.000Z</Time>
            <Position>
              <LatitudeDegrees>37.24753777496516704559326171875</LatitudeDegrees>
              <LongitudeDegrees>-3.52300082333385944366455078125</LongitudeDegrees>
            </Position>
            <AltitudeMeters>1306.5999755859375</AltitudeMeters>
            <DistanceMeters>10462.813038087</DistanceMeters>
          </Trackpoint>
          <Trackpoint>
            <Time>2022-10-08T08:44:57.000Z</Time>
            <Position>
              <LatitudeDegrees>37.2475192509591579437255859375</LatitudeDegrees>
              <LongitudeDegrees>-3.52302454411983489990234375</LongitudeDegrees>
            </Position>
            <AltitudeMeters>1307</AltitudeMeters>
            <DistanceMeters>10465.757333145</DistanceMeters>
          </Trackpoint>
          <Trackpoint>
            <Time>2022-10-08T08:45:03.000Z</Time>
            <Position>
              <LatitudeDegrees>37.24746250547468662261962890625</LatitudeDegrees>
              <LongitudeDegrees>-3.52313711307942867279052734375</LongitudeDegrees>
            </Position>
            <AltitudeMeters>1307.5999755859375</AltitudeMeters>
            <DistanceMeters>10477.562848798</DistanceMeters>
          </Trackpoint>
          <Trackpoint>
            <Time>2022-10-08T08:45:11.000Z</Time>
            <Position>
              <LatitudeDegrees>37.24744272418320178985595703125</LatitudeDegrees>
              <LongitudeDegrees>-3.52329385466873645782470703125</LongitudeDegrees>
            </Position>
            <AltitudeMeters>1307.800048828125</AltitudeMeters>
            <DistanceMeters>10491.623591796</DistanceMeters>
          </Trackpoint>
          <Trackpoint>
            <Time>2022-10-08T08:45:12.000Z</Time>
            <Position>
              <LatitudeDegrees>37.2474355995655059814453125</LatitudeDegrees>
              <LongitudeDegrees>-3.5233123786747455596923828125</LongitudeDegrees>
            </Position>
            <AltitudeMeters>1307.800048828125</AltitudeMeters>
            <DistanceMeters>10493.446520246</DistanceMeters>
          </Trackpoint>
          <Trackpoint>
            <Time>2022-10-08T08:45:16.000Z</Time>
            <Position>
              <LatitudeDegrees>37.24740768782794475555419921875</LatitudeDegrees>
              <LongitudeDegrees>-3.52339896373450756072998046875</LongitudeDegrees>
            </Position>
            <AltitudeMeters>1307.800048828125</AltitudeMeters>
            <DistanceMeters>10501.723123408</DistanceMeters>
          </Trackpoint>
          <Trackpoint>
            <Time>2022-10-08T08:45:19.000Z</Time>
            <Position>
              <LatitudeDegrees>37.24739930592477321624755859375</LatitudeDegrees>
              <LongitudeDegrees>-3.5234531946480274200439453125</LongitudeDegrees>
            </Position>
            <AltitudeMeters>1308</AltitudeMeters>
            <DistanceMeters>10506.617691091</DistanceMeters>
          </Trackpoint>
          <Trackpoint>
            <Time>2022-10-08T08:45:22.000Z</Time>
            <Position>
              <LatitudeDegrees>37.24739209748804569244384765625</LatitudeDegrees>
              <LongitudeDegrees>-3.52352301590144634246826171875</LongitudeDegrees>
            </Position>
            <AltitudeMeters>1308.199951171875</AltitudeMeters>
            <DistanceMeters>10512.855527206</DistanceMeters>
          </Trackpoint>
          <Trackpoint>
            <Time>2022-10-08T08:45:23.000Z</Time>
            <Position>
              <LatitudeDegrees>37.2473900020122528076171875</LatitudeDegrees>
              <LongitudeDegrees>-3.5235440544784069061279296875</LongitudeDegrees>
            </Position>
            <AltitudeMeters>1308.199951171875</AltitudeMeters>
            <DistanceMeters>10514.734558842</DistanceMeters>
          </Trackpoint>
          <Trackpoint>
            <Time>2022-10-08T08:45:30.000Z</Time>
            <Position>
              <LatitudeDegrees>37.24741347134113311767578125</LatitudeDegrees>
              <LongitudeDegrees>-3.5236915759742259979248046875</LongitudeDegrees>
            </Position>
            <AltitudeMeters>1308.800048828125</AltitudeMeters>
            <DistanceMeters>10528.063728135</DistanceMeters>
          </Trackpoint>
          <Trackpoint>
            <Time>2022-10-08T08:45:34.000Z</Time>
            <Position>
              <LatitudeDegrees>37.24742864258587360382080078125</LatitudeDegrees>
              <LongitudeDegrees>-3.52378897368907928466796875</LongitudeDegrees>
            </Position>
            <AltitudeMeters>1309.199951171875</AltitudeMeters>
            <DistanceMeters>10536.856652251</DistanceMeters>
          </Trackpoint>
          <Trackpoint>
            <Time>2022-10-08T08:45:37.000Z</Time>
            <Position>
              <LatitudeDegrees>37.247431240975856781005859375</LatitudeDegrees>
              <LongitudeDegrees>-3.5238531790673732757568359375</LongitudeDegrees>
            </Position>
            <AltitudeMeters>1309.5999755859375</AltitudeMeters>
            <DistanceMeters>10542.551916476</DistanceMeters>
          </Trackpoint>
          <Trackpoint>
            <Time>2022-10-08T08:45:41.000Z</Time>
            <Position>
              <LatitudeDegrees>37.247454710304737091064453125</LatitudeDegrees>
              <LongitudeDegrees>-3.52396574802696704864501953125</LongitudeDegrees>
            </Position>
            <AltitudeMeters>1310</AltitudeMeters>
            <DistanceMeters>10552.862205506</DistanceMeters>
          </Trackpoint>
          <Trackpoint>
            <Time>2022-10-08T08:45:42.000Z</Time>
            <Position>
              <LatitudeDegrees>37.24747021682560443878173828125</LatitudeDegrees>
              <LongitudeDegrees>-3.5239829309284687042236328125</LongitudeDegrees>
            </Position>
            <AltitudeMeters>1310.199951171875</AltitudeMeters>
            <DistanceMeters>10555.162558696</DistanceMeters>
          </Trackpoint>
          <Trackpoint>
            <Time>2022-10-08T08:45:43.000Z</Time>
            <Position>
              <LatitudeDegrees>37.2474840469658374786376953125</LatitudeDegrees>
              <LongitudeDegrees>-3.52400346659123897552490234375</LongitudeDegrees>
            </Position>
            <AltitudeMeters>1310.199951171875</AltitudeMeters>
            <DistanceMeters>10557.547710297</DistanceMeters>
          </Trackpoint>
          <Trackpoint>
            <Time>2022-10-08T08:45:45.000Z</Time>
            <Position>
              <LatitudeDegrees>37.2475108690559864044189453125</LatitudeDegrees>
              <LongitudeDegrees>-3.52404386736452579498291015625</LongitudeDegrees>
            </Position>
            <AltitudeMeters>1310.4000244140625</AltitudeMeters>
            <DistanceMeters>10562.208865081</DistanceMeters>
          </Trackpoint>
          <Trackpoint>
            <Time>2022-10-08T08:45:47.000Z</Time>
            <Position>
              <LatitudeDegrees>37.247537858784198760986328125</LatitudeDegrees>
              <LongitudeDegrees>-3.5240764729678630828857421875</LongitudeDegrees>
            </Position>
            <AltitudeMeters>1310.5999755859375</AltitudeMeters>
            <DistanceMeters>10566.375978831</DistanceMeters>
          </Trackpoint>
          <Trackpoint>
            <Time>2022-10-08T08:45:49.000Z</Time>
            <Position>
              <LatitudeDegrees>37.247572727501392364501953125</LatitudeDegrees>
              <LongitudeDegrees>-3.52411058731377124786376953125</LongitudeDegrees>
            </Position>
            <AltitudeMeters>1310.800048828125</AltitudeMeters>
            <DistanceMeters>10571.295389859</DistanceMeters>
          </Trackpoint>
          <Trackpoint>
            <Time>2022-10-08T08:45:52.000Z</Time>
            <Position>
              <LatitudeDegrees>37.24759393371641635894775390625</LatitudeDegrees>
              <LongitudeDegrees>-3.52417060174047946929931640625</LongitudeDegrees>
            </Position>
            <AltitudeMeters>1311.199951171875</AltitudeMeters>
            <DistanceMeters>10577.113011926</DistanceMeters>
          </Trackpoint>
          <Trackpoint>
            <Time>2022-10-08T08:45:57.000Z</Time>
            <Position>
              <LatitudeDegrees>37.24762662313878536224365234375</LatitudeDegrees>
              <LongitudeDegrees>-3.52429280988872051239013671875</LongitudeDegrees>
            </Position>
            <AltitudeMeters>1312</AltitudeMeters>
            <DistanceMeters>10588.535997727</DistanceMeters>
          </Trackpoint>
          <Trackpoint>
            <Time>2022-10-08T08:45:58.000Z</Time>
            <Position>
              <LatitudeDegrees>37.24763919599354267120361328125</LatitudeDegrees>
              <LongitudeDegrees>-3.5243192128837108612060546875</LongitudeDegrees>
            </Position>
            <AltitudeMeters>1312.199951171875</AltitudeMeters>
            <DistanceMeters>10591.262121883</DistanceMeters>
          </Trackpoint>
          <Trackpoint>
            <Time>2022-10-08T08:46:00.000Z</Time>
            <Position>
              <LatitudeDegrees>37.24766383878886699676513671875</LatitudeDegrees>
              <LongitudeDegrees>-3.524363972246646881103515625</LongitudeDegrees>
            </Position>
            <AltitudeMeters>1312.199951171875</AltitudeMeters>
            <DistanceMeters>10596.083264566</DistanceMeters>
          </Trackpoint>
          <Trackpoint>
            <Time>2022-10-08T08:46:01.000Z</Time>
            <Position>
              <LatitudeDegrees>37.24767054431140422821044921875</LatitudeDegrees>
              <LongitudeDegrees>-3.5243778862059116363525390625</LongitudeDegrees>
            </Position>
            <AltitudeMeters>1312.4000244140625</AltitudeMeters>
            <DistanceMeters>10597.527545584</DistanceMeters>
          </Trackpoint>
          <Trackpoint>
            <Time>2022-10-08T08:46:03.000Z</Time>
            <Position>
              <LatitudeDegrees>37.24769166670739650726318359375</LatitudeDegrees>
              <LongitudeDegrees>-3.52443379350006580352783203125</LongitudeDegrees>
            </Position>
            <AltitudeMeters>1312.4000244140625</AltitudeMeters>
            <DistanceMeters>10603.011171625</DistanceMeters>
          </Trackpoint>
          <Trackpoint>
            <Time>2022-10-08T08:46:04.000Z</Time>
            <Position>
              <LatitudeDegrees>37.2477118670940399169921875</LatitudeDegrees>
              <LongitudeDegrees>-3.524451144039630889892578125</LongitudeDegrees>
            </Position>
            <AltitudeMeters>1312.5999755859375</AltitudeMeters>
            <DistanceMeters>10605.733981343</DistanceMeters>
          </Trackpoint>
          <Trackpoint>
            <Time>2022-10-08T08:46:05.000Z</Time>
            <Position>
              <LatitudeDegrees>37.247717566788196563720703125</LatitudeDegrees>
              <LongitudeDegrees>-3.5244669020175933837890625</LongitudeDegrees>
            </Position>
            <AltitudeMeters>1312.5999755859375</AltitudeMeters>
            <DistanceMeters>10607.266241071</DistanceMeters>
          </Trackpoint>
          <Trackpoint>
            <Time>2022-10-08T08:46:10.000Z</Time>
            <Position>
              <LatitudeDegrees>37.24777632392942905426025390625</LatitudeDegrees>
              <LongitudeDegrees>-3.5245827399194240570068359375</LongitudeDegrees>
            </Position>
            <AltitudeMeters>1311.800048828125</AltitudeMeters>
            <DistanceMeters>10619.435598231</DistanceMeters>
          </Trackpoint>
          <Trackpoint>
            <Time>2022-10-08T08:46:12.000Z</Time>
            <Position>
              <LatitudeDegrees>37.24778789095580577850341796875</LatitudeDegrees>
              <LongitudeDegrees>-3.52464216761291027069091796875</LongitudeDegrees>
            </Position>
            <AltitudeMeters>1311.199951171875</AltitudeMeters>
            <DistanceMeters>10624.855454195</DistanceMeters>
          </Trackpoint>
          <Trackpoint>
            <Time>2022-10-08T08:46:15.000Z</Time>
            <Position>
              <LatitudeDegrees>37.24780063144862651824951171875</LatitudeDegrees>
              <LongitudeDegrees>-3.52472280152142047882080078125</LongitudeDegrees>
            </Position>
            <AltitudeMeters>1310.5999755859375</AltitudeMeters>
            <DistanceMeters>10632.138494016</DistanceMeters>
          </Trackpoint>
          <Trackpoint>
            <Time>2022-10-08T08:46:16.000Z</Time>
            <Position>
              <LatitudeDegrees>37.24780046381056308746337890625</LatitudeDegrees>
              <LongitudeDegrees>-3.524753563106060028076171875</LongitudeDegrees>
            </Position>
            <AltitudeMeters>1310.199951171875</AltitudeMeters>
            <DistanceMeters>10634.862961457</DistanceMeters>
          </Trackpoint>
          <Trackpoint>
            <Time>2022-10-08T08:46:21.000Z</Time>
            <Position>
              <LatitudeDegrees>37.2477988712489604949951171875</LatitudeDegrees>
              <LongitudeDegrees>-3.52489697746932506561279296875</LongitudeDegrees>
            </Position>
            <AltitudeMeters>1309.199951171875</AltitudeMeters>
            <DistanceMeters>10647.570275374</DistanceMeters>
          </Trackpoint>
          <Trackpoint>
            <Time>2022-10-08T08:46:22.000Z</Time>
            <Position>
              <LatitudeDegrees>37.247796691954135894775390625</LatitudeDegrees>
              <LongitudeDegrees>-3.52493335492908954620361328125</LongitudeDegrees>
            </Position>
            <AltitudeMeters>1309</AltitudeMeters>
            <DistanceMeters>10650.801183662</DistanceMeters>
          </Trackpoint>
          <Trackpoint>
            <Time>2022-10-08T08:46:28.000Z</Time>
            <Position>
              <LatitudeDegrees>37.2477646730840206146240234375</LatitudeDegrees>
              <LongitudeDegrees>-3.52513703517615795135498046875</LongitudeDegrees>
            </Position>
            <AltitudeMeters>1308</AltitudeMeters>
            <DistanceMeters>10669.195665562</DistanceMeters>
          </Trackpoint>
          <Trackpoint>
            <Time>2022-10-08T08:46:29.000Z</Time>
            <Position>
              <LatitudeDegrees>37.2477633319795131683349609375</LatitudeDegrees>
              <LongitudeDegrees>-3.5251731611788272857666015625</LongitudeDegrees>
            </Position>
            <AltitudeMeters>1307.800048828125</AltitudeMeters>
            <DistanceMeters>10672.401321032</DistanceMeters>
          </Trackpoint>
          <Trackpoint>
            <Time>2022-10-08T08:46:33.000Z</Time>
            <Position>
              <LatitudeDegrees>37.24772083573043346405029296875</LatitudeDegrees>
              <LongitudeDegrees>-3.5253166593611240386962890625</LongitudeDegrees>
            </Position>
            <AltitudeMeters>1307</AltitudeMeters>
            <DistanceMeters>10685.966530126</DistanceMeters>
          </Trackpoint>
          <Trackpoint>
            <Time>2022-10-08T08:46:35.000Z</Time>
            <Position>
              <LatitudeDegrees>37.24772620014846324920654296875</LatitudeDegrees>
              <LongitudeDegrees>-3.52536653168499469757080078125</LongitudeDegrees>
            </Position>
            <AltitudeMeters>1306.199951171875</AltitudeMeters>
            <DistanceMeters>10690.425703629</DistanceMeters>
          </Trackpoint>
          <Trackpoint>
            <Time>2022-10-08T08:46:36.000Z</Time>
            <Position>
              <LatitudeDegrees>37.24773022346198558807373046875</LatitudeDegrees>
              <LongitudeDegrees>-3.5253756679594516754150390625</LongitudeDegrees>
            </Position>
            <AltitudeMeters>1305.800048828125</AltitudeMeters>
            <DistanceMeters>10691.356771478</DistanceMeters>
          </Trackpoint>
          <Trackpoint>
            <Time>2022-10-08T08:46:40.000Z</Time>
            <Position>
              <LatitudeDegrees>37.24775436334311962127685546875</LatitudeDegrees>
              <LongitudeDegrees>-3.525369465351104736328125</LongitudeDegrees>
            </Position>
            <AltitudeMeters>1305</AltitudeMeters>
            <DistanceMeters>10694.101053489</DistanceMeters>
          </Trackpoint>
        </Track>
      </Lap>
    </Activity>
  </Activities>
</TrainingCenterDatabase>
